<?xml version="1.0" encoding="UTF-8" standalone="no" ?>
<gpx xmlns="http://www.topografix.com/GPX/1/1" xmlns:xsi="http://www.w3.org/2001/XMLSchema-instance" xsi:schemaLocation="http://www.topografix.com/GPX/1/1 http://www.topografix.com/GPX/1/1/gpx.xsd" version="1.1" creator="VisuGPX - https://www.visugpx.com">
  <metadata>
    <name>Pène d'Aragon</name>
    <desc><![CDATA[Randonnée et ascension du Pène d'Aragon par le col de la Fache, et retour par les lacs de Cambalès et d'Opale. plus d'infos et de photos sur: <https://www.o2rando.com/pene-d-aragon-2918m>]]></desc>
  </metadata>
  <trk>
    <name><![CDATA[Pene d'Aragon]]></name>
    <trkseg>
      <trkpt lat="42.82" lon="-0.19486">
        <ele>1856.9</ele>
        <time>2018-09-23T06:58:47Z</time>
      </trkpt>
      <trkpt lat="42.82002" lon="-0.19486">
        <ele>1857.9</ele>
        <time>2018-09-23T06:59:10Z</time>
      </trkpt>
      <trkpt lat="42.81995" lon="-0.19492">
        <ele>1860.8</ele>
        <time>2018-09-23T06:59:20Z</time>
      </trkpt>
      <trkpt lat="42.81992" lon="-0.19503">
        <ele>1861.2</ele>
        <time>2018-09-23T06:59:26Z</time>
      </trkpt>
      <trkpt lat="42.81989" lon="-0.19519">
        <ele>1859.3</ele>
        <time>2018-09-23T06:59:37Z</time>
      </trkpt>
      <trkpt lat="42.81982" lon="-0.1953">
        <ele>1859.8</ele>
        <time>2018-09-23T06:59:49Z</time>
      </trkpt>
      <trkpt lat="42.81979" lon="-0.19534">
        <ele>1858.8</ele>
        <time>2018-09-23T06:59:55Z</time>
      </trkpt>
      <trkpt lat="42.81977" lon="-0.19536">
        <ele>1858.8</ele>
        <time>2018-09-23T06:59:57Z</time>
      </trkpt>
      <trkpt lat="42.81967" lon="-0.19544">
        <ele>1859.3</ele>
        <time>2018-09-23T07:00:13Z</time>
      </trkpt>
      <trkpt lat="42.81958" lon="-0.19546">
        <ele>1858.4</ele>
        <time>2018-09-23T07:00:24Z</time>
      </trkpt>
      <trkpt lat="42.81954" lon="-0.19548">
        <ele>1859.3</ele>
        <time>2018-09-23T07:00:27Z</time>
      </trkpt>
      <trkpt lat="42.81949" lon="-0.19552">
        <ele>1859.3</ele>
        <time>2018-09-23T07:00:32Z</time>
      </trkpt>
      <trkpt lat="42.81943" lon="-0.19553">
        <ele>1859.3</ele>
        <time>2018-09-23T07:00:38Z</time>
      </trkpt>
      <trkpt lat="42.81933" lon="-0.19564">
        <ele>1859.8</ele>
        <time>2018-09-23T07:00:48Z</time>
      </trkpt>
      <trkpt lat="42.81926" lon="-0.19578">
        <ele>1861.2</ele>
        <time>2018-09-23T07:00:59Z</time>
      </trkpt>
      <trkpt lat="42.81917" lon="-0.19596">
        <ele>1861.2</ele>
        <time>2018-09-23T07:01:12Z</time>
      </trkpt>
      <trkpt lat="42.81909" lon="-0.19612">
        <ele>1862.2</ele>
        <time>2018-09-23T07:01:25Z</time>
      </trkpt>
      <trkpt lat="42.81899" lon="-0.19618">
        <ele>1861.2</ele>
        <time>2018-09-23T07:01:37Z</time>
      </trkpt>
      <trkpt lat="42.81887" lon="-0.19611">
        <ele>1861.7</ele>
        <time>2018-09-23T07:01:49Z</time>
      </trkpt>
      <trkpt lat="42.8188" lon="-0.19628">
        <ele>1861.2</ele>
        <time>2018-09-23T07:02:00Z</time>
      </trkpt>
      <trkpt lat="42.81879" lon="-0.19633">
        <ele>1861.2</ele>
        <time>2018-09-23T07:02:04Z</time>
      </trkpt>
      <trkpt lat="42.81877" lon="-0.19641">
        <ele>1862.2</ele>
        <time>2018-09-23T07:02:22Z</time>
      </trkpt>
      <trkpt lat="42.8188" lon="-0.19638">
        <ele>1861.7</ele>
        <time>2018-09-23T07:02:41Z</time>
      </trkpt>
      <trkpt lat="42.81867" lon="-0.19657">
        <ele>1862.7</ele>
        <time>2018-09-23T07:02:55Z</time>
      </trkpt>
      <trkpt lat="42.81859" lon="-0.19667">
        <ele>1862.7</ele>
        <time>2018-09-23T07:03:04Z</time>
      </trkpt>
      <trkpt lat="42.81858" lon="-0.19682">
        <ele>1861.7</ele>
        <time>2018-09-23T07:03:13Z</time>
      </trkpt>
      <trkpt lat="42.81858" lon="-0.19697">
        <ele>1863.7</ele>
        <time>2018-09-23T07:03:24Z</time>
      </trkpt>
      <trkpt lat="42.81858" lon="-0.19699">
        <ele>1863.7</ele>
        <time>2018-09-23T07:03:25Z</time>
      </trkpt>
      <trkpt lat="42.81862" lon="-0.1971">
        <ele>1864.6</ele>
        <time>2018-09-23T07:03:33Z</time>
      </trkpt>
      <trkpt lat="42.81866" lon="-0.19727">
        <ele>1866.5</ele>
        <time>2018-09-23T07:03:45Z</time>
      </trkpt>
      <trkpt lat="42.81866" lon="-0.19731">
        <ele>1866.5</ele>
        <time>2018-09-23T07:03:48Z</time>
      </trkpt>
      <trkpt lat="42.81863" lon="-0.19749">
        <ele>1868.5</ele>
        <time>2018-09-23T07:04:03Z</time>
      </trkpt>
      <trkpt lat="42.81856" lon="-0.19764">
        <ele>1868</ele>
        <time>2018-09-23T07:04:14Z</time>
      </trkpt>
      <trkpt lat="42.81849" lon="-0.19782">
        <ele>1868.5</ele>
        <time>2018-09-23T07:04:28Z</time>
      </trkpt>
      <trkpt lat="42.81844" lon="-0.19802">
        <ele>1869.4</ele>
        <time>2018-09-23T07:04:42Z</time>
      </trkpt>
      <trkpt lat="42.81843" lon="-0.19805">
        <ele>1868.9</ele>
        <time>2018-09-23T07:04:46Z</time>
      </trkpt>
      <trkpt lat="42.81844" lon="-0.19817">
        <ele>1869.4</ele>
        <time>2018-09-23T07:04:54Z</time>
      </trkpt>
      <trkpt lat="42.81844" lon="-0.19828">
        <ele>1869.9</ele>
        <time>2018-09-23T07:05:01Z</time>
      </trkpt>
      <trkpt lat="42.81838" lon="-0.19847">
        <ele>1872.3</ele>
        <time>2018-09-23T07:05:18Z</time>
      </trkpt>
      <trkpt lat="42.81835" lon="-0.19859">
        <ele>1873.8</ele>
        <time>2018-09-23T07:05:31Z</time>
      </trkpt>
      <trkpt lat="42.81831" lon="-0.19874">
        <ele>1874.7</ele>
        <time>2018-09-23T07:05:44Z</time>
      </trkpt>
      <trkpt lat="42.81826" lon="-0.1989">
        <ele>1875.7</ele>
        <time>2018-09-23T07:06:00Z</time>
      </trkpt>
      <trkpt lat="42.81826" lon="-0.19892">
        <ele>1876.2</ele>
        <time>2018-09-23T07:06:02Z</time>
      </trkpt>
      <trkpt lat="42.81823" lon="-0.19904">
        <ele>1877.6</ele>
        <time>2018-09-23T07:06:17Z</time>
      </trkpt>
      <trkpt lat="42.81823" lon="-0.19909">
        <ele>1877.6</ele>
        <time>2018-09-23T07:06:22Z</time>
      </trkpt>
      <trkpt lat="42.81821" lon="-0.19916">
        <ele>1879</ele>
        <time>2018-09-23T07:06:28Z</time>
      </trkpt>
      <trkpt lat="42.81822" lon="-0.19932">
        <ele>1880</ele>
        <time>2018-09-23T07:06:43Z</time>
      </trkpt>
      <trkpt lat="42.81818" lon="-0.19942">
        <ele>1881.4</ele>
        <time>2018-09-23T07:06:54Z</time>
      </trkpt>
      <trkpt lat="42.81814" lon="-0.1995">
        <ele>1883.8</ele>
        <time>2018-09-23T07:07:06Z</time>
      </trkpt>
      <trkpt lat="42.8181" lon="-0.19959">
        <ele>1884.8</ele>
        <time>2018-09-23T07:07:16Z</time>
      </trkpt>
      <trkpt lat="42.81805" lon="-0.19969">
        <ele>1885.8</ele>
        <time>2018-09-23T07:07:29Z</time>
      </trkpt>
      <trkpt lat="42.818" lon="-0.1998">
        <ele>1885.8</ele>
        <time>2018-09-23T07:07:39Z</time>
      </trkpt>
      <trkpt lat="42.818" lon="-0.19988">
        <ele>1887.2</ele>
        <time>2018-09-23T07:07:50Z</time>
      </trkpt>
      <trkpt lat="42.818" lon="-0.19994">
        <ele>1886.2</ele>
        <time>2018-09-23T07:07:54Z</time>
      </trkpt>
      <trkpt lat="42.81796" lon="-0.20008">
        <ele>1889.1</ele>
        <time>2018-09-23T07:08:07Z</time>
      </trkpt>
      <trkpt lat="42.81795" lon="-0.20017">
        <ele>1889.6</ele>
        <time>2018-09-23T07:08:14Z</time>
      </trkpt>
      <trkpt lat="42.81796" lon="-0.20022">
        <ele>1890.1</ele>
        <time>2018-09-23T07:08:17Z</time>
      </trkpt>
      <trkpt lat="42.81798" lon="-0.20026">
        <ele>1890.6</ele>
        <time>2018-09-23T07:08:22Z</time>
      </trkpt>
      <trkpt lat="42.81798" lon="-0.20039">
        <ele>1893.4</ele>
        <time>2018-09-23T07:08:36Z</time>
      </trkpt>
      <trkpt lat="42.81799" lon="-0.20048">
        <ele>1894.9</ele>
        <time>2018-09-23T07:08:47Z</time>
      </trkpt>
      <trkpt lat="42.81801" lon="-0.2005">
        <ele>1895.4</ele>
        <time>2018-09-23T07:08:49Z</time>
      </trkpt>
      <trkpt lat="42.81802" lon="-0.20056">
        <ele>1895.4</ele>
        <time>2018-09-23T07:08:54Z</time>
      </trkpt>
      <trkpt lat="42.81802" lon="-0.20061">
        <ele>1895.9</ele>
        <time>2018-09-23T07:08:59Z</time>
      </trkpt>
      <trkpt lat="42.81801" lon="-0.20064">
        <ele>1896.3</ele>
        <time>2018-09-23T07:09:01Z</time>
      </trkpt>
      <trkpt lat="42.818" lon="-0.20071">
        <ele>1895.9</ele>
        <time>2018-09-23T07:09:06Z</time>
      </trkpt>
      <trkpt lat="42.818" lon="-0.20073">
        <ele>1896.8</ele>
        <time>2018-09-23T07:09:08Z</time>
      </trkpt>
      <trkpt lat="42.81798" lon="-0.20081">
        <ele>1896.3</ele>
        <time>2018-09-23T07:09:13Z</time>
      </trkpt>
      <trkpt lat="42.81798" lon="-0.2009">
        <ele>1898.7</ele>
        <time>2018-09-23T07:09:22Z</time>
      </trkpt>
      <trkpt lat="42.818" lon="-0.20095">
        <ele>1899.2</ele>
        <time>2018-09-23T07:09:26Z</time>
      </trkpt>
      <trkpt lat="42.81794" lon="-0.20105">
        <ele>1901.6</ele>
        <time>2018-09-23T07:09:39Z</time>
      </trkpt>
      <trkpt lat="42.81786" lon="-0.20119">
        <ele>1903.6</ele>
        <time>2018-09-23T07:09:54Z</time>
      </trkpt>
      <trkpt lat="42.81785" lon="-0.20121">
        <ele>1903.6</ele>
        <time>2018-09-23T07:09:56Z</time>
      </trkpt>
      <trkpt lat="42.81775" lon="-0.2013">
        <ele>1905.5</ele>
        <time>2018-09-23T07:10:11Z</time>
      </trkpt>
      <trkpt lat="42.8177" lon="-0.20141">
        <ele>1908.3</ele>
        <time>2018-09-23T07:10:24Z</time>
      </trkpt>
      <trkpt lat="42.81764" lon="-0.20149">
        <ele>1910.8</ele>
        <time>2018-09-23T07:10:37Z</time>
      </trkpt>
      <trkpt lat="42.81758" lon="-0.20159">
        <ele>1912.7</ele>
        <time>2018-09-23T07:10:51Z</time>
      </trkpt>
      <trkpt lat="42.81753" lon="-0.20165">
        <ele>1914.6</ele>
        <time>2018-09-23T07:11:00Z</time>
      </trkpt>
      <trkpt lat="42.8175" lon="-0.20167">
        <ele>1914.6</ele>
        <time>2018-09-23T07:11:04Z</time>
      </trkpt>
      <trkpt lat="42.81736" lon="-0.20184">
        <ele>1915.1</ele>
        <time>2018-09-23T07:11:22Z</time>
      </trkpt>
      <trkpt lat="42.81732" lon="-0.20188">
        <ele>1915.6</ele>
        <time>2018-09-23T07:11:28Z</time>
      </trkpt>
      <trkpt lat="42.81731" lon="-0.20191">
        <ele>1916</ele>
        <time>2018-09-23T07:11:30Z</time>
      </trkpt>
      <trkpt lat="42.81728" lon="-0.20194">
        <ele>1916.5</ele>
        <time>2018-09-23T07:11:34Z</time>
      </trkpt>
      <trkpt lat="42.81723" lon="-0.202">
        <ele>1917.5</ele>
        <time>2018-09-23T07:11:41Z</time>
      </trkpt>
      <trkpt lat="42.81712" lon="-0.20209">
        <ele>1918.9</ele>
        <time>2018-09-23T07:11:55Z</time>
      </trkpt>
      <trkpt lat="42.81702" lon="-0.20219">
        <ele>1919.9</ele>
        <time>2018-09-23T07:12:10Z</time>
      </trkpt>
      <trkpt lat="42.8169" lon="-0.20227">
        <ele>1920.8</ele>
        <time>2018-09-23T07:12:23Z</time>
      </trkpt>
      <trkpt lat="42.81682" lon="-0.20235">
        <ele>1921.8</ele>
        <time>2018-09-23T07:12:32Z</time>
      </trkpt>
      <trkpt lat="42.81671" lon="-0.20241">
        <ele>1923.2</ele>
        <time>2018-09-23T07:12:43Z</time>
      </trkpt>
      <trkpt lat="42.81665" lon="-0.20246">
        <ele>1923.7</ele>
        <time>2018-09-23T07:12:51Z</time>
      </trkpt>
      <trkpt lat="42.81661" lon="-0.20252">
        <ele>1924.2</ele>
        <time>2018-09-23T07:12:58Z</time>
      </trkpt>
      <trkpt lat="42.81658" lon="-0.20253">
        <ele>1924.2</ele>
        <time>2018-09-23T07:13:01Z</time>
      </trkpt>
      <trkpt lat="42.81652" lon="-0.20254">
        <ele>1924.7</ele>
        <time>2018-09-23T07:13:07Z</time>
      </trkpt>
      <trkpt lat="42.81648" lon="-0.20256">
        <ele>1926.1</ele>
        <time>2018-09-23T07:13:12Z</time>
      </trkpt>
      <trkpt lat="42.81639" lon="-0.20264">
        <ele>1926.6</ele>
        <time>2018-09-23T07:13:23Z</time>
      </trkpt>
      <trkpt lat="42.81634" lon="-0.2027">
        <ele>1926.1</ele>
        <time>2018-09-23T07:13:30Z</time>
      </trkpt>
      <trkpt lat="42.81633" lon="-0.20272">
        <ele>1926.6</ele>
        <time>2018-09-23T07:13:32Z</time>
      </trkpt>
      <trkpt lat="42.81629" lon="-0.20288">
        <ele>1928.1</ele>
        <time>2018-09-23T07:13:44Z</time>
      </trkpt>
      <trkpt lat="42.8163" lon="-0.20308">
        <ele>1929</ele>
        <time>2018-09-23T07:13:59Z</time>
      </trkpt>
      <trkpt lat="42.81629" lon="-0.20313">
        <ele>1929</ele>
        <time>2018-09-23T07:14:03Z</time>
      </trkpt>
      <trkpt lat="42.81627" lon="-0.20326">
        <ele>1930.5</ele>
        <time>2018-09-23T07:14:16Z</time>
      </trkpt>
      <trkpt lat="42.81626" lon="-0.20327">
        <ele>1931.4</ele>
        <time>2018-09-23T07:14:17Z</time>
      </trkpt>
      <trkpt lat="42.81626" lon="-0.20329">
        <ele>1930.9</ele>
        <time>2018-09-23T07:14:19Z</time>
      </trkpt>
      <trkpt lat="42.81625" lon="-0.20337">
        <ele>1931.4</ele>
        <time>2018-09-23T07:14:25Z</time>
      </trkpt>
      <trkpt lat="42.81625" lon="-0.20346">
        <ele>1930.9</ele>
        <time>2018-09-23T07:14:31Z</time>
      </trkpt>
      <trkpt lat="42.81626" lon="-0.20358">
        <ele>1930.5</ele>
        <time>2018-09-23T07:14:39Z</time>
      </trkpt>
      <trkpt lat="42.81623" lon="-0.2038">
        <ele>1931.4</ele>
        <time>2018-09-23T07:14:54Z</time>
      </trkpt>
      <trkpt lat="42.81622" lon="-0.2039">
        <ele>1931.4</ele>
        <time>2018-09-23T07:15:01Z</time>
      </trkpt>
      <trkpt lat="42.81619" lon="-0.20407">
        <ele>1931.9</ele>
        <time>2018-09-23T07:15:13Z</time>
      </trkpt>
      <trkpt lat="42.81619" lon="-0.20418">
        <ele>1931.9</ele>
        <time>2018-09-23T07:15:22Z</time>
      </trkpt>
      <trkpt lat="42.81619" lon="-0.20426">
        <ele>1931.4</ele>
        <time>2018-09-23T07:15:38Z</time>
      </trkpt>
      <trkpt lat="42.81621" lon="-0.20424">
        <ele>1930.9</ele>
        <time>2018-09-23T07:16:08Z</time>
      </trkpt>
      <trkpt lat="42.81622" lon="-0.20427">
        <ele>1931.9</ele>
        <time>2018-09-23T07:16:33Z</time>
      </trkpt>
      <trkpt lat="42.8162" lon="-0.20425">
        <ele>1930.9</ele>
        <time>2018-09-23T07:16:53Z</time>
      </trkpt>
      <trkpt lat="42.81624" lon="-0.20424">
        <ele>1930.9</ele>
        <time>2018-09-23T07:17:12Z</time>
      </trkpt>
      <trkpt lat="42.81626" lon="-0.20425">
        <ele>1931.4</ele>
        <time>2018-09-23T07:17:22Z</time>
      </trkpt>
      <trkpt lat="42.81622" lon="-0.20424">
        <ele>1930.9</ele>
        <time>2018-09-23T07:17:40Z</time>
      </trkpt>
      <trkpt lat="42.81621" lon="-0.20421">
        <ele>1931.9</ele>
        <time>2018-09-23T07:18:03Z</time>
      </trkpt>
      <trkpt lat="42.81623" lon="-0.20419">
        <ele>1931.4</ele>
        <time>2018-09-23T07:18:33Z</time>
      </trkpt>
      <trkpt lat="42.81619" lon="-0.20426">
        <ele>1930.9</ele>
        <time>2018-09-23T07:18:56Z</time>
      </trkpt>
      <trkpt lat="42.81621" lon="-0.20431">
        <ele>1931.4</ele>
        <time>2018-09-23T07:19:16Z</time>
      </trkpt>
      <trkpt lat="42.81619" lon="-0.20432">
        <ele>1931.9</ele>
        <time>2018-09-23T07:19:37Z</time>
      </trkpt>
      <trkpt lat="42.8162" lon="-0.20431">
        <ele>1932.4</ele>
        <time>2018-09-23T07:20:02Z</time>
      </trkpt>
      <trkpt lat="42.81625" lon="-0.20428">
        <ele>1932.4</ele>
        <time>2018-09-23T07:20:31Z</time>
      </trkpt>
      <trkpt lat="42.81621" lon="-0.20431">
        <ele>1931.9</ele>
        <time>2018-09-23T07:20:56Z</time>
      </trkpt>
      <trkpt lat="42.81621" lon="-0.2043">
        <ele>1932.4</ele>
        <time>2018-09-23T07:21:16Z</time>
      </trkpt>
      <trkpt lat="42.81621" lon="-0.20431">
        <ele>1932.4</ele>
        <time>2018-09-23T07:21:45Z</time>
      </trkpt>
      <trkpt lat="42.81621" lon="-0.20432">
        <ele>1932.9</ele>
        <time>2018-09-23T07:21:55Z</time>
      </trkpt>
      <trkpt lat="42.81629" lon="-0.20432">
        <ele>1933.8</ele>
        <time>2018-09-23T07:22:08Z</time>
      </trkpt>
      <trkpt lat="42.81638" lon="-0.20425">
        <ele>1935.8</ele>
        <time>2018-09-23T07:22:24Z</time>
      </trkpt>
      <trkpt lat="42.81645" lon="-0.20425">
        <ele>1936.2</ele>
        <time>2018-09-23T07:22:30Z</time>
      </trkpt>
      <trkpt lat="42.81647" lon="-0.20422">
        <ele>1937.2</ele>
        <time>2018-09-23T07:22:41Z</time>
      </trkpt>
      <trkpt lat="42.81651" lon="-0.20423">
        <ele>1937.7</ele>
        <time>2018-09-23T07:22:45Z</time>
      </trkpt>
      <trkpt lat="42.8166" lon="-0.20426">
        <ele>1939.6</ele>
        <time>2018-09-23T07:22:58Z</time>
      </trkpt>
      <trkpt lat="42.81664" lon="-0.20435">
        <ele>1941.5</ele>
        <time>2018-09-23T07:23:12Z</time>
      </trkpt>
      <trkpt lat="42.81666" lon="-0.20437">
        <ele>1942.5</ele>
        <time>2018-09-23T07:23:16Z</time>
      </trkpt>
      <trkpt lat="42.81672" lon="-0.20444">
        <ele>1943.9</ele>
        <time>2018-09-23T07:23:28Z</time>
      </trkpt>
      <trkpt lat="42.8168" lon="-0.20451">
        <ele>1945.4</ele>
        <time>2018-09-23T07:23:41Z</time>
      </trkpt>
      <trkpt lat="42.81685" lon="-0.2046">
        <ele>1947.8</ele>
        <time>2018-09-23T07:23:55Z</time>
      </trkpt>
      <trkpt lat="42.81685" lon="-0.20461">
        <ele>1947.8</ele>
        <time>2018-09-23T07:23:57Z</time>
      </trkpt>
      <trkpt lat="42.81682" lon="-0.20475">
        <ele>1949.2</ele>
        <time>2018-09-23T07:24:10Z</time>
      </trkpt>
      <trkpt lat="42.81678" lon="-0.2049">
        <ele>1951.1</ele>
        <time>2018-09-23T07:24:25Z</time>
      </trkpt>
      <trkpt lat="42.81677" lon="-0.20495">
        <ele>1951.6</ele>
        <time>2018-09-23T07:24:28Z</time>
      </trkpt>
      <trkpt lat="42.81678" lon="-0.205">
        <ele>1951.6</ele>
        <time>2018-09-23T07:24:31Z</time>
      </trkpt>
      <trkpt lat="42.81682" lon="-0.20506">
        <ele>1951.6</ele>
        <time>2018-09-23T07:24:36Z</time>
      </trkpt>
      <trkpt lat="42.81693" lon="-0.20509">
        <ele>1952.6</ele>
        <time>2018-09-23T07:24:51Z</time>
      </trkpt>
      <trkpt lat="42.81701" lon="-0.2051">
        <ele>1955.5</ele>
        <time>2018-09-23T07:25:04Z</time>
      </trkpt>
      <trkpt lat="42.81706" lon="-0.2051">
        <ele>1956.4</ele>
        <time>2018-09-23T07:25:16Z</time>
      </trkpt>
      <trkpt lat="42.81712" lon="-0.20507">
        <ele>1956.4</ele>
        <time>2018-09-23T07:25:29Z</time>
      </trkpt>
      <trkpt lat="42.81714" lon="-0.20509">
        <ele>1956.9</ele>
        <time>2018-09-23T07:25:33Z</time>
      </trkpt>
      <trkpt lat="42.81724" lon="-0.20512">
        <ele>1958.8</ele>
        <time>2018-09-23T07:25:47Z</time>
      </trkpt>
      <trkpt lat="42.81732" lon="-0.20512">
        <ele>1960.3</ele>
        <time>2018-09-23T07:25:59Z</time>
      </trkpt>
      <trkpt lat="42.81739" lon="-0.20513">
        <ele>1962.7</ele>
        <time>2018-09-23T07:26:11Z</time>
      </trkpt>
      <trkpt lat="42.81747" lon="-0.20515">
        <ele>1964.6</ele>
        <time>2018-09-23T07:26:25Z</time>
      </trkpt>
      <trkpt lat="42.81757" lon="-0.20514">
        <ele>1966.5</ele>
        <time>2018-09-23T07:26:39Z</time>
      </trkpt>
      <trkpt lat="42.81767" lon="-0.20514">
        <ele>1968.9</ele>
        <time>2018-09-23T07:26:52Z</time>
      </trkpt>
      <trkpt lat="42.81773" lon="-0.20509">
        <ele>1970.8</ele>
        <time>2018-09-23T07:27:05Z</time>
      </trkpt>
      <trkpt lat="42.8177" lon="-0.20512">
        <ele>1972.8</ele>
        <time>2018-09-23T07:27:18Z</time>
      </trkpt>
      <trkpt lat="42.81768" lon="-0.2052">
        <ele>1975.2</ele>
        <time>2018-09-23T07:27:31Z</time>
      </trkpt>
      <trkpt lat="42.81764" lon="-0.20527">
        <ele>1978.1</ele>
        <time>2018-09-23T07:27:45Z</time>
      </trkpt>
      <trkpt lat="42.81759" lon="-0.20538">
        <ele>1980</ele>
        <time>2018-09-23T07:28:00Z</time>
      </trkpt>
      <trkpt lat="42.81755" lon="-0.20547">
        <ele>1981.9</ele>
        <time>2018-09-23T07:28:12Z</time>
      </trkpt>
      <trkpt lat="42.81757" lon="-0.20553">
        <ele>1983.3</ele>
        <time>2018-09-23T07:28:19Z</time>
      </trkpt>
      <trkpt lat="42.81766" lon="-0.2055">
        <ele>1984.8</ele>
        <time>2018-09-23T07:28:34Z</time>
      </trkpt>
      <trkpt lat="42.8177" lon="-0.20547">
        <ele>1985.7</ele>
        <time>2018-09-23T07:28:41Z</time>
      </trkpt>
      <trkpt lat="42.81772" lon="-0.20546">
        <ele>1986.7</ele>
        <time>2018-09-23T07:28:44Z</time>
      </trkpt>
      <trkpt lat="42.8178" lon="-0.2054">
        <ele>1988.6</ele>
        <time>2018-09-23T07:28:55Z</time>
      </trkpt>
      <trkpt lat="42.81787" lon="-0.20534">
        <ele>1990.1</ele>
        <time>2018-09-23T07:29:07Z</time>
      </trkpt>
      <trkpt lat="42.81797" lon="-0.20528">
        <ele>1992</ele>
        <time>2018-09-23T07:29:22Z</time>
      </trkpt>
      <trkpt lat="42.81799" lon="-0.20529">
        <ele>1994.4</ele>
        <time>2018-09-23T07:29:35Z</time>
      </trkpt>
      <trkpt lat="42.81793" lon="-0.20536">
        <ele>1996.8</ele>
        <time>2018-09-23T07:29:48Z</time>
      </trkpt>
      <trkpt lat="42.81788" lon="-0.20546">
        <ele>1997.3</ele>
        <time>2018-09-23T07:30:01Z</time>
      </trkpt>
      <trkpt lat="42.81788" lon="-0.20548">
        <ele>1997.3</ele>
        <time>2018-09-23T07:30:03Z</time>
      </trkpt>
      <trkpt lat="42.81781" lon="-0.20563">
        <ele>1999.2</ele>
        <time>2018-09-23T07:30:19Z</time>
      </trkpt>
      <trkpt lat="42.81773" lon="-0.20574">
        <ele>2001.1</ele>
        <time>2018-09-23T07:30:34Z</time>
      </trkpt>
      <trkpt lat="42.8177" lon="-0.20583">
        <ele>2003.5</ele>
        <time>2018-09-23T07:30:46Z</time>
      </trkpt>
      <trkpt lat="42.81764" lon="-0.20592">
        <ele>2005</ele>
        <time>2018-09-23T07:31:00Z</time>
      </trkpt>
      <trkpt lat="42.8176" lon="-0.20598">
        <ele>2007.4</ele>
        <time>2018-09-23T07:31:13Z</time>
      </trkpt>
      <trkpt lat="42.8176" lon="-0.206">
        <ele>2007.8</ele>
        <time>2018-09-23T07:31:20Z</time>
      </trkpt>
      <trkpt lat="42.81753" lon="-0.20612">
        <ele>2010.2</ele>
        <time>2018-09-23T07:31:34Z</time>
      </trkpt>
      <trkpt lat="42.81747" lon="-0.20621">
        <ele>2013.1</ele>
        <time>2018-09-23T07:31:48Z</time>
      </trkpt>
      <trkpt lat="42.81739" lon="-0.20633">
        <ele>2015.5</ele>
        <time>2018-09-23T07:32:03Z</time>
      </trkpt>
      <trkpt lat="42.81736" lon="-0.20642">
        <ele>2017.9</ele>
        <time>2018-09-23T07:32:15Z</time>
      </trkpt>
      <trkpt lat="42.8173" lon="-0.2065">
        <ele>2019.4</ele>
        <time>2018-09-23T07:32:28Z</time>
      </trkpt>
      <trkpt lat="42.81722" lon="-0.20661">
        <ele>2021.8</ele>
        <time>2018-09-23T07:32:44Z</time>
      </trkpt>
      <trkpt lat="42.81718" lon="-0.20671">
        <ele>2023.7</ele>
        <time>2018-09-23T07:32:56Z</time>
      </trkpt>
      <trkpt lat="42.81709" lon="-0.20683">
        <ele>2025.6</ele>
        <time>2018-09-23T07:33:13Z</time>
      </trkpt>
      <trkpt lat="42.81703" lon="-0.20693">
        <ele>2027.6</ele>
        <time>2018-09-23T07:33:26Z</time>
      </trkpt>
      <trkpt lat="42.81697" lon="-0.20704">
        <ele>2028.5</ele>
        <time>2018-09-23T07:33:39Z</time>
      </trkpt>
      <trkpt lat="42.81691" lon="-0.20712">
        <ele>2030.4</ele>
        <time>2018-09-23T07:33:52Z</time>
      </trkpt>
      <trkpt lat="42.81683" lon="-0.2072">
        <ele>2031.9</ele>
        <time>2018-09-23T07:34:05Z</time>
      </trkpt>
      <trkpt lat="42.81673" lon="-0.20729">
        <ele>2033.3</ele>
        <time>2018-09-23T07:34:18Z</time>
      </trkpt>
      <trkpt lat="42.81664" lon="-0.20733">
        <ele>2033.8</ele>
        <time>2018-09-23T07:34:30Z</time>
      </trkpt>
      <trkpt lat="42.81654" lon="-0.20738">
        <ele>2035.2</ele>
        <time>2018-09-23T07:34:42Z</time>
      </trkpt>
      <trkpt lat="42.81644" lon="-0.20746">
        <ele>2037.2</ele>
        <time>2018-09-23T07:34:57Z</time>
      </trkpt>
      <trkpt lat="42.81641" lon="-0.20748">
        <ele>2037.7</ele>
        <time>2018-09-23T07:35:00Z</time>
      </trkpt>
      <trkpt lat="42.81637" lon="-0.20762">
        <ele>2040.1</ele>
        <time>2018-09-23T07:35:12Z</time>
      </trkpt>
      <trkpt lat="42.81635" lon="-0.20767">
        <ele>2040.5</ele>
        <time>2018-09-23T07:35:17Z</time>
      </trkpt>
      <trkpt lat="42.81633" lon="-0.20774">
        <ele>2041.5</ele>
        <time>2018-09-23T07:35:23Z</time>
      </trkpt>
      <trkpt lat="42.81631" lon="-0.20783">
        <ele>2042.9</ele>
        <time>2018-09-23T07:35:31Z</time>
      </trkpt>
      <trkpt lat="42.81627" lon="-0.20801">
        <ele>2045.3</ele>
        <time>2018-09-23T07:35:48Z</time>
      </trkpt>
      <trkpt lat="42.81623" lon="-0.20815">
        <ele>2047.3</ele>
        <time>2018-09-23T07:36:03Z</time>
      </trkpt>
      <trkpt lat="42.81618" lon="-0.2083">
        <ele>2049.7</ele>
        <time>2018-09-23T07:36:18Z</time>
      </trkpt>
      <trkpt lat="42.81617" lon="-0.20848">
        <ele>2052.1</ele>
        <time>2018-09-23T07:36:33Z</time>
      </trkpt>
      <trkpt lat="42.81625" lon="-0.20843">
        <ele>2053</ele>
        <time>2018-09-23T07:36:45Z</time>
      </trkpt>
      <trkpt lat="42.81627" lon="-0.20841">
        <ele>2053.5</ele>
        <time>2018-09-23T07:36:48Z</time>
      </trkpt>
      <trkpt lat="42.81636" lon="-0.20839">
        <ele>2055.4</ele>
        <time>2018-09-23T07:37:02Z</time>
      </trkpt>
      <trkpt lat="42.81645" lon="-0.20835">
        <ele>2057.4</ele>
        <time>2018-09-23T07:37:15Z</time>
      </trkpt>
      <trkpt lat="42.81654" lon="-0.2083">
        <ele>2058.8</ele>
        <time>2018-09-23T07:37:27Z</time>
      </trkpt>
      <trkpt lat="42.81659" lon="-0.20828">
        <ele>2060.2</ele>
        <time>2018-09-23T07:37:37Z</time>
      </trkpt>
      <trkpt lat="42.81666" lon="-0.20824">
        <ele>2060.7</ele>
        <time>2018-09-23T07:37:50Z</time>
      </trkpt>
      <trkpt lat="42.81674" lon="-0.20818">
        <ele>2063.1</ele>
        <time>2018-09-23T07:38:02Z</time>
      </trkpt>
      <trkpt lat="42.81682" lon="-0.20815">
        <ele>2065.5</ele>
        <time>2018-09-23T07:38:14Z</time>
      </trkpt>
      <trkpt lat="42.81697" lon="-0.20806">
        <ele>2067.9</ele>
        <time>2018-09-23T07:38:31Z</time>
      </trkpt>
      <trkpt lat="42.81706" lon="-0.20799">
        <ele>2070.8</ele>
        <time>2018-09-23T07:38:45Z</time>
      </trkpt>
      <trkpt lat="42.81705" lon="-0.20803">
        <ele>2072.7</ele>
        <time>2018-09-23T07:38:58Z</time>
      </trkpt>
      <trkpt lat="42.81702" lon="-0.20808">
        <ele>2073.7</ele>
        <time>2018-09-23T07:39:04Z</time>
      </trkpt>
      <trkpt lat="42.81697" lon="-0.2082">
        <ele>2076.1</ele>
        <time>2018-09-23T07:39:19Z</time>
      </trkpt>
      <trkpt lat="42.81691" lon="-0.20834">
        <ele>2078.5</ele>
        <time>2018-09-23T07:39:34Z</time>
      </trkpt>
      <trkpt lat="42.81688" lon="-0.20846">
        <ele>2080.9</ele>
        <time>2018-09-23T07:39:49Z</time>
      </trkpt>
      <trkpt lat="42.81684" lon="-0.20858">
        <ele>2082.8</ele>
        <time>2018-09-23T07:40:03Z</time>
      </trkpt>
      <trkpt lat="42.81682" lon="-0.20871">
        <ele>2085.2</ele>
        <time>2018-09-23T07:40:17Z</time>
      </trkpt>
      <trkpt lat="42.81679" lon="-0.20885">
        <ele>2087.2</ele>
        <time>2018-09-23T07:40:32Z</time>
      </trkpt>
      <trkpt lat="42.81677" lon="-0.20894">
        <ele>2089.1</ele>
        <time>2018-09-23T07:40:45Z</time>
      </trkpt>
      <trkpt lat="42.81673" lon="-0.20909">
        <ele>2091.5</ele>
        <time>2018-09-23T07:41:00Z</time>
      </trkpt>
      <trkpt lat="42.81668" lon="-0.20924">
        <ele>2093.4</ele>
        <time>2018-09-23T07:41:16Z</time>
      </trkpt>
      <trkpt lat="42.81666" lon="-0.20935">
        <ele>2096.3</ele>
        <time>2018-09-23T07:41:31Z</time>
      </trkpt>
      <trkpt lat="42.81666" lon="-0.20937">
        <ele>2096.3</ele>
        <time>2018-09-23T07:41:32Z</time>
      </trkpt>
      <trkpt lat="42.81663" lon="-0.20944">
        <ele>2098.2</ele>
        <time>2018-09-23T07:41:44Z</time>
      </trkpt>
      <trkpt lat="42.81661" lon="-0.20952">
        <ele>2100.1</ele>
        <time>2018-09-23T07:41:58Z</time>
      </trkpt>
      <trkpt lat="42.81657" lon="-0.20963">
        <ele>2101.6</ele>
        <time>2018-09-23T07:42:12Z</time>
      </trkpt>
      <trkpt lat="42.81654" lon="-0.20974">
        <ele>2103.5</ele>
        <time>2018-09-23T07:42:26Z</time>
      </trkpt>
      <trkpt lat="42.81662" lon="-0.20972">
        <ele>2105.9</ele>
        <time>2018-09-23T07:42:38Z</time>
      </trkpt>
      <trkpt lat="42.8167" lon="-0.20965">
        <ele>2106.4</ele>
        <time>2018-09-23T07:42:50Z</time>
      </trkpt>
      <trkpt lat="42.81673" lon="-0.20965">
        <ele>2107.4</ele>
        <time>2018-09-23T07:42:55Z</time>
      </trkpt>
      <trkpt lat="42.8168" lon="-0.20959">
        <ele>2108.8</ele>
        <time>2018-09-23T07:43:11Z</time>
      </trkpt>
      <trkpt lat="42.81679" lon="-0.20956">
        <ele>2108.3</ele>
        <time>2018-09-23T07:43:32Z</time>
      </trkpt>
      <trkpt lat="42.81681" lon="-0.20954">
        <ele>2108.8</ele>
        <time>2018-09-23T07:44:01Z</time>
      </trkpt>
      <trkpt lat="42.81678" lon="-0.20956">
        <ele>2108.8</ele>
        <time>2018-09-23T07:44:27Z</time>
      </trkpt>
      <trkpt lat="42.81682" lon="-0.20955">
        <ele>2109.3</ele>
        <time>2018-09-23T07:44:49Z</time>
      </trkpt>
      <trkpt lat="42.81679" lon="-0.20955">
        <ele>2108.8</ele>
        <time>2018-09-23T07:45:09Z</time>
      </trkpt>
      <trkpt lat="42.8168" lon="-0.20957">
        <ele>2108.8</ele>
        <time>2018-09-23T07:45:34Z</time>
      </trkpt>
      <trkpt lat="42.8168" lon="-0.20956">
        <ele>2109.3</ele>
        <time>2018-09-23T07:45:58Z</time>
      </trkpt>
      <trkpt lat="42.81679" lon="-0.20956">
        <ele>2108.3</ele>
        <time>2018-09-23T07:46:26Z</time>
      </trkpt>
      <trkpt lat="42.8168" lon="-0.20955">
        <ele>2108.8</ele>
        <time>2018-09-23T07:46:52Z</time>
      </trkpt>
      <trkpt lat="42.81678" lon="-0.20955">
        <ele>2109.3</ele>
        <time>2018-09-23T07:47:20Z</time>
      </trkpt>
      <trkpt lat="42.8168" lon="-0.20955">
        <ele>2109.3</ele>
        <time>2018-09-23T07:47:33Z</time>
      </trkpt>
      <trkpt lat="42.81688" lon="-0.20949">
        <ele>2111.2</ele>
        <time>2018-09-23T07:47:47Z</time>
      </trkpt>
      <trkpt lat="42.81689" lon="-0.20949">
        <ele>2110.7</ele>
        <time>2018-09-23T07:47:49Z</time>
      </trkpt>
      <trkpt lat="42.81694" lon="-0.20948">
        <ele>2113.1</ele>
        <time>2018-09-23T07:48:01Z</time>
      </trkpt>
      <trkpt lat="42.8169" lon="-0.20957">
        <ele>2115.5</ele>
        <time>2018-09-23T07:48:14Z</time>
      </trkpt>
      <trkpt lat="42.81687" lon="-0.20968">
        <ele>2117.4</ele>
        <time>2018-09-23T07:48:27Z</time>
      </trkpt>
      <trkpt lat="42.81683" lon="-0.20977">
        <ele>2120.3</ele>
        <time>2018-09-23T07:48:40Z</time>
      </trkpt>
      <trkpt lat="42.8168" lon="-0.20985">
        <ele>2121.8</ele>
        <time>2018-09-23T07:48:53Z</time>
      </trkpt>
      <trkpt lat="42.81678" lon="-0.20997">
        <ele>2124.2</ele>
        <time>2018-09-23T07:49:07Z</time>
      </trkpt>
      <trkpt lat="42.81676" lon="-0.21004">
        <ele>2126.6</ele>
        <time>2018-09-23T07:49:19Z</time>
      </trkpt>
      <trkpt lat="42.81673" lon="-0.21015">
        <ele>2128.5</ele>
        <time>2018-09-23T07:49:31Z</time>
      </trkpt>
      <trkpt lat="42.81671" lon="-0.21024">
        <ele>2130.9</ele>
        <time>2018-09-23T07:49:43Z</time>
      </trkpt>
      <trkpt lat="42.81669" lon="-0.21034">
        <ele>2132.3</ele>
        <time>2018-09-23T07:49:56Z</time>
      </trkpt>
      <trkpt lat="42.81668" lon="-0.21045">
        <ele>2134.3</ele>
        <time>2018-09-23T07:50:10Z</time>
      </trkpt>
      <trkpt lat="42.81667" lon="-0.21046">
        <ele>2133.8</ele>
        <time>2018-09-23T07:50:11Z</time>
      </trkpt>
      <trkpt lat="42.81662" lon="-0.21061">
        <ele>2135.7</ele>
        <time>2018-09-23T07:50:27Z</time>
      </trkpt>
      <trkpt lat="42.81666" lon="-0.21066">
        <ele>2137.6</ele>
        <time>2018-09-23T07:50:40Z</time>
      </trkpt>
      <trkpt lat="42.81675" lon="-0.21061">
        <ele>2139.6</ele>
        <time>2018-09-23T07:50:52Z</time>
      </trkpt>
      <trkpt lat="42.81682" lon="-0.21054">
        <ele>2141.9</ele>
        <time>2018-09-23T07:51:04Z</time>
      </trkpt>
      <trkpt lat="42.81688" lon="-0.2105">
        <ele>2142.4</ele>
        <time>2018-09-23T07:51:13Z</time>
      </trkpt>
      <trkpt lat="42.81694" lon="-0.21039">
        <ele>2144.4</ele>
        <time>2018-09-23T07:51:26Z</time>
      </trkpt>
      <trkpt lat="42.81701" lon="-0.21034">
        <ele>2146.3</ele>
        <time>2018-09-23T07:51:35Z</time>
      </trkpt>
      <trkpt lat="42.81707" lon="-0.21025">
        <ele>2147.2</ele>
        <time>2018-09-23T07:51:47Z</time>
      </trkpt>
      <trkpt lat="42.81713" lon="-0.21019">
        <ele>2149.6</ele>
        <time>2018-09-23T07:51:58Z</time>
      </trkpt>
      <trkpt lat="42.81715" lon="-0.21015">
        <ele>2150.6</ele>
        <time>2018-09-23T07:52:11Z</time>
      </trkpt>
      <trkpt lat="42.81713" lon="-0.21025">
        <ele>2154</ele>
        <time>2018-09-23T07:52:23Z</time>
      </trkpt>
      <trkpt lat="42.81712" lon="-0.21037">
        <ele>2155.4</ele>
        <time>2018-09-23T07:52:36Z</time>
      </trkpt>
      <trkpt lat="42.8171" lon="-0.21047">
        <ele>2157.8</ele>
        <time>2018-09-23T07:52:49Z</time>
      </trkpt>
      <trkpt lat="42.81708" lon="-0.21059">
        <ele>2160.7</ele>
        <time>2018-09-23T07:53:03Z</time>
      </trkpt>
      <trkpt lat="42.81709" lon="-0.21074">
        <ele>2163.6</ele>
        <time>2018-09-23T07:53:18Z</time>
      </trkpt>
      <trkpt lat="42.81709" lon="-0.21076">
        <ele>2163.1</ele>
        <time>2018-09-23T07:53:19Z</time>
      </trkpt>
      <trkpt lat="42.81704" lon="-0.21086">
        <ele>2163.6</ele>
        <time>2018-09-23T07:53:32Z</time>
      </trkpt>
      <trkpt lat="42.817" lon="-0.21097">
        <ele>2166</ele>
        <time>2018-09-23T07:53:45Z</time>
      </trkpt>
      <trkpt lat="42.81698" lon="-0.21109">
        <ele>2167.9</ele>
        <time>2018-09-23T07:53:58Z</time>
      </trkpt>
      <trkpt lat="42.81697" lon="-0.21121">
        <ele>2170.3</ele>
        <time>2018-09-23T07:54:10Z</time>
      </trkpt>
      <trkpt lat="42.81698" lon="-0.21132">
        <ele>2172.2</ele>
        <time>2018-09-23T07:54:25Z</time>
      </trkpt>
      <trkpt lat="42.81699" lon="-0.21141">
        <ele>2174.6</ele>
        <time>2018-09-23T07:54:36Z</time>
      </trkpt>
      <trkpt lat="42.817" lon="-0.21153">
        <ele>2177</ele>
        <time>2018-09-23T07:54:50Z</time>
      </trkpt>
      <trkpt lat="42.817" lon="-0.21166">
        <ele>2179</ele>
        <time>2018-09-23T07:55:04Z</time>
      </trkpt>
      <trkpt lat="42.81699" lon="-0.21169">
        <ele>2179.9</ele>
        <time>2018-09-23T07:55:08Z</time>
      </trkpt>
      <trkpt lat="42.81698" lon="-0.21172">
        <ele>2179.9</ele>
        <time>2018-09-23T07:55:11Z</time>
      </trkpt>
      <trkpt lat="42.81697" lon="-0.21187">
        <ele>2180.9</ele>
        <time>2018-09-23T07:55:24Z</time>
      </trkpt>
      <trkpt lat="42.81694" lon="-0.21206">
        <ele>2182.3</ele>
        <time>2018-09-23T07:55:39Z</time>
      </trkpt>
      <trkpt lat="42.81692" lon="-0.2122">
        <ele>2184.2</ele>
        <time>2018-09-23T07:55:51Z</time>
      </trkpt>
      <trkpt lat="42.8169" lon="-0.21234">
        <ele>2185.7</ele>
        <time>2018-09-23T07:56:05Z</time>
      </trkpt>
      <trkpt lat="42.8169" lon="-0.21237">
        <ele>2185.7</ele>
        <time>2018-09-23T07:56:09Z</time>
      </trkpt>
      <trkpt lat="42.8169" lon="-0.2124">
        <ele>2187.1</ele>
        <time>2018-09-23T07:56:12Z</time>
      </trkpt>
      <trkpt lat="42.81688" lon="-0.21243">
        <ele>2187.6</ele>
        <time>2018-09-23T07:56:17Z</time>
      </trkpt>
      <trkpt lat="42.81687" lon="-0.21244">
        <ele>2187.6</ele>
        <time>2018-09-23T07:56:19Z</time>
      </trkpt>
      <trkpt lat="42.81683" lon="-0.21245">
        <ele>2187.6</ele>
        <time>2018-09-23T07:56:24Z</time>
      </trkpt>
      <trkpt lat="42.81672" lon="-0.21249">
        <ele>2189.5</ele>
        <time>2018-09-23T07:56:39Z</time>
      </trkpt>
      <trkpt lat="42.81665" lon="-0.21249">
        <ele>2191.9</ele>
        <time>2018-09-23T07:56:52Z</time>
      </trkpt>
      <trkpt lat="42.81661" lon="-0.2125">
        <ele>2192.4</ele>
        <time>2018-09-23T07:56:57Z</time>
      </trkpt>
      <trkpt lat="42.81659" lon="-0.21251">
        <ele>2192.9</ele>
        <time>2018-09-23T07:57:00Z</time>
      </trkpt>
      <trkpt lat="42.81654" lon="-0.21257">
        <ele>2194.4</ele>
        <time>2018-09-23T07:57:08Z</time>
      </trkpt>
      <trkpt lat="42.81651" lon="-0.21264">
        <ele>2194.4</ele>
        <time>2018-09-23T07:57:15Z</time>
      </trkpt>
      <trkpt lat="42.81648" lon="-0.21268">
        <ele>2194.8</ele>
        <time>2018-09-23T07:57:18Z</time>
      </trkpt>
      <trkpt lat="42.81646" lon="-0.21272">
        <ele>2195.8</ele>
        <time>2018-09-23T07:57:24Z</time>
      </trkpt>
      <trkpt lat="42.81639" lon="-0.21277">
        <ele>2197.2</ele>
        <time>2018-09-23T07:57:33Z</time>
      </trkpt>
      <trkpt lat="42.81631" lon="-0.21285">
        <ele>2198.2</ele>
        <time>2018-09-23T07:57:43Z</time>
      </trkpt>
      <trkpt lat="42.81628" lon="-0.21291">
        <ele>2199.1</ele>
        <time>2018-09-23T07:57:49Z</time>
      </trkpt>
      <trkpt lat="42.81628" lon="-0.21301">
        <ele>2201.1</ele>
        <time>2018-09-23T07:57:59Z</time>
      </trkpt>
      <trkpt lat="42.81627" lon="-0.21306">
        <ele>2202</ele>
        <time>2018-09-23T07:58:03Z</time>
      </trkpt>
      <trkpt lat="42.81627" lon="-0.2131">
        <ele>2202.5</ele>
        <time>2018-09-23T07:58:06Z</time>
      </trkpt>
      <trkpt lat="42.81621" lon="-0.21328">
        <ele>2204.9</ele>
        <time>2018-09-23T07:58:21Z</time>
      </trkpt>
      <trkpt lat="42.81615" lon="-0.21336">
        <ele>2207.3</ele>
        <time>2018-09-23T07:58:35Z</time>
      </trkpt>
      <trkpt lat="42.81614" lon="-0.21337">
        <ele>2207.3</ele>
        <time>2018-09-23T07:58:37Z</time>
      </trkpt>
      <trkpt lat="42.81608" lon="-0.21344">
        <ele>2209.7</ele>
        <time>2018-09-23T07:58:52Z</time>
      </trkpt>
      <trkpt lat="42.81605" lon="-0.21342">
        <ele>2211.2</ele>
        <time>2018-09-23T07:59:02Z</time>
      </trkpt>
      <trkpt lat="42.81602" lon="-0.21339">
        <ele>2212.6</ele>
        <time>2018-09-23T07:59:07Z</time>
      </trkpt>
      <trkpt lat="42.81597" lon="-0.21339">
        <ele>2213.1</ele>
        <time>2018-09-23T07:59:14Z</time>
      </trkpt>
      <trkpt lat="42.81594" lon="-0.21352">
        <ele>2215.5</ele>
        <time>2018-09-23T07:59:28Z</time>
      </trkpt>
      <trkpt lat="42.81598" lon="-0.21366">
        <ele>2216.9</ele>
        <time>2018-09-23T07:59:42Z</time>
      </trkpt>
      <trkpt lat="42.81603" lon="-0.21379">
        <ele>2218.4</ele>
        <time>2018-09-23T07:59:55Z</time>
      </trkpt>
      <trkpt lat="42.81606" lon="-0.21384">
        <ele>2218.9</ele>
        <time>2018-09-23T08:00:01Z</time>
      </trkpt>
      <trkpt lat="42.81614" lon="-0.21394">
        <ele>2221.7</ele>
        <time>2018-09-23T08:00:15Z</time>
      </trkpt>
      <trkpt lat="42.8162" lon="-0.21403">
        <ele>2222.2</ele>
        <time>2018-09-23T08:00:27Z</time>
      </trkpt>
      <trkpt lat="42.81625" lon="-0.21407">
        <ele>2224.6</ele>
        <time>2018-09-23T08:00:39Z</time>
      </trkpt>
      <trkpt lat="42.81632" lon="-0.21412">
        <ele>2226.6</ele>
        <time>2018-09-23T08:00:52Z</time>
      </trkpt>
      <trkpt lat="42.81644" lon="-0.21406">
        <ele>2228.9</ele>
        <time>2018-09-23T08:01:07Z</time>
      </trkpt>
      <trkpt lat="42.81644" lon="-0.21405">
        <ele>2229.4</ele>
        <time>2018-09-23T08:01:08Z</time>
      </trkpt>
      <trkpt lat="42.81653" lon="-0.21398">
        <ele>2231.8</ele>
        <time>2018-09-23T08:01:21Z</time>
      </trkpt>
      <trkpt lat="42.81652" lon="-0.21401">
        <ele>2232.8</ele>
        <time>2018-09-23T08:01:25Z</time>
      </trkpt>
      <trkpt lat="42.8165" lon="-0.21402">
        <ele>2232.3</ele>
        <time>2018-09-23T08:01:27Z</time>
      </trkpt>
      <trkpt lat="42.81646" lon="-0.21407">
        <ele>2232.8</ele>
        <time>2018-09-23T08:01:33Z</time>
      </trkpt>
      <trkpt lat="42.81642" lon="-0.21416">
        <ele>2233.3</ele>
        <time>2018-09-23T08:01:40Z</time>
      </trkpt>
      <trkpt lat="42.81632" lon="-0.21425">
        <ele>2234.7</ele>
        <time>2018-09-23T08:01:53Z</time>
      </trkpt>
      <trkpt lat="42.81621" lon="-0.21436">
        <ele>2236.6</ele>
        <time>2018-09-23T08:02:07Z</time>
      </trkpt>
      <trkpt lat="42.81616" lon="-0.21444">
        <ele>2238.1</ele>
        <time>2018-09-23T08:02:19Z</time>
      </trkpt>
      <trkpt lat="42.81607" lon="-0.21443">
        <ele>2240.5</ele>
        <time>2018-09-23T08:02:32Z</time>
      </trkpt>
      <trkpt lat="42.81602" lon="-0.21445">
        <ele>2241.9</ele>
        <time>2018-09-23T08:02:41Z</time>
      </trkpt>
      <trkpt lat="42.81599" lon="-0.21446">
        <ele>2242.4</ele>
        <time>2018-09-23T08:02:44Z</time>
      </trkpt>
      <trkpt lat="42.81591" lon="-0.21449">
        <ele>2243.9</ele>
        <time>2018-09-23T08:02:56Z</time>
      </trkpt>
      <trkpt lat="42.81589" lon="-0.21453">
        <ele>2244.3</ele>
        <time>2018-09-23T08:03:00Z</time>
      </trkpt>
      <trkpt lat="42.81581" lon="-0.21462">
        <ele>2245.3</ele>
        <time>2018-09-23T08:03:12Z</time>
      </trkpt>
      <trkpt lat="42.81577" lon="-0.21471">
        <ele>2248.7</ele>
        <time>2018-09-23T08:03:24Z</time>
      </trkpt>
      <trkpt lat="42.81576" lon="-0.21471">
        <ele>2249.1</ele>
        <time>2018-09-23T08:03:25Z</time>
      </trkpt>
      <trkpt lat="42.81568" lon="-0.21475">
        <ele>2251.5</ele>
        <time>2018-09-23T08:03:40Z</time>
      </trkpt>
      <trkpt lat="42.81564" lon="-0.21483">
        <ele>2254.4</ele>
        <time>2018-09-23T08:03:54Z</time>
      </trkpt>
      <trkpt lat="42.8156" lon="-0.21485">
        <ele>2257.8</ele>
        <time>2018-09-23T08:04:07Z</time>
      </trkpt>
      <trkpt lat="42.81554" lon="-0.21491">
        <ele>2259.2</ele>
        <time>2018-09-23T08:04:18Z</time>
      </trkpt>
      <trkpt lat="42.81553" lon="-0.21495">
        <ele>2260.2</ele>
        <time>2018-09-23T08:04:22Z</time>
      </trkpt>
      <trkpt lat="42.81554" lon="-0.21499">
        <ele>2259.7</ele>
        <time>2018-09-23T08:04:37Z</time>
      </trkpt>
      <trkpt lat="42.81552" lon="-0.21499">
        <ele>2260.7</ele>
        <time>2018-09-23T08:04:42Z</time>
      </trkpt>
      <trkpt lat="42.81551" lon="-0.21499">
        <ele>2261.2</ele>
        <time>2018-09-23T08:04:45Z</time>
      </trkpt>
      <trkpt lat="42.81543" lon="-0.21504">
        <ele>2263.6</ele>
        <time>2018-09-23T08:04:56Z</time>
      </trkpt>
      <trkpt lat="42.81541" lon="-0.21509">
        <ele>2264</ele>
        <time>2018-09-23T08:05:01Z</time>
      </trkpt>
      <trkpt lat="42.8153" lon="-0.21521">
        <ele>2265</ele>
        <time>2018-09-23T08:05:16Z</time>
      </trkpt>
      <trkpt lat="42.8153" lon="-0.21522">
        <ele>2265.5</ele>
        <time>2018-09-23T08:05:17Z</time>
      </trkpt>
      <trkpt lat="42.81525" lon="-0.21544">
        <ele>2266</ele>
        <time>2018-09-23T08:05:34Z</time>
      </trkpt>
      <trkpt lat="42.81522" lon="-0.21563">
        <ele>2266.9</ele>
        <time>2018-09-23T08:05:49Z</time>
      </trkpt>
      <trkpt lat="42.81521" lon="-0.21578">
        <ele>2266.9</ele>
        <time>2018-09-23T08:06:01Z</time>
      </trkpt>
      <trkpt lat="42.81522" lon="-0.21583">
        <ele>2267.4</ele>
        <time>2018-09-23T08:06:05Z</time>
      </trkpt>
      <trkpt lat="42.81524" lon="-0.21603">
        <ele>2268.9</ele>
        <time>2018-09-23T08:06:18Z</time>
      </trkpt>
      <trkpt lat="42.81525" lon="-0.21605">
        <ele>2269.3</ele>
        <time>2018-09-23T08:06:20Z</time>
      </trkpt>
      <trkpt lat="42.81526" lon="-0.21606">
        <ele>2268.9</ele>
        <time>2018-09-23T08:06:21Z</time>
      </trkpt>
      <trkpt lat="42.81527" lon="-0.21611">
        <ele>2269.3</ele>
        <time>2018-09-23T08:06:25Z</time>
      </trkpt>
      <trkpt lat="42.81528" lon="-0.21612">
        <ele>2269.8</ele>
        <time>2018-09-23T08:06:27Z</time>
      </trkpt>
      <trkpt lat="42.81534" lon="-0.21629">
        <ele>2271.2</ele>
        <time>2018-09-23T08:06:40Z</time>
      </trkpt>
      <trkpt lat="42.81534" lon="-0.21633">
        <ele>2271.7</ele>
        <time>2018-09-23T08:06:43Z</time>
      </trkpt>
      <trkpt lat="42.81539" lon="-0.21645">
        <ele>2271.7</ele>
        <time>2018-09-23T08:06:55Z</time>
      </trkpt>
      <trkpt lat="42.81543" lon="-0.21644">
        <ele>2271.7</ele>
        <time>2018-09-23T08:07:08Z</time>
      </trkpt>
      <trkpt lat="42.81541" lon="-0.21645">
        <ele>2271.2</ele>
        <time>2018-09-23T08:07:35Z</time>
      </trkpt>
      <trkpt lat="42.8154" lon="-0.21645">
        <ele>2271.7</ele>
        <time>2018-09-23T08:07:36Z</time>
      </trkpt>
      <trkpt lat="42.81538" lon="-0.21652">
        <ele>2272.2</ele>
        <time>2018-09-23T08:07:52Z</time>
      </trkpt>
      <trkpt lat="42.81538" lon="-0.21651">
        <ele>2272.2</ele>
        <time>2018-09-23T08:08:07Z</time>
      </trkpt>
      <trkpt lat="42.81541" lon="-0.21665">
        <ele>2273.7</ele>
        <time>2018-09-23T08:08:23Z</time>
      </trkpt>
      <trkpt lat="42.81547" lon="-0.21676">
        <ele>2275.6</ele>
        <time>2018-09-23T08:08:37Z</time>
      </trkpt>
      <trkpt lat="42.81549" lon="-0.21687">
        <ele>2277.5</ele>
        <time>2018-09-23T08:08:48Z</time>
      </trkpt>
      <trkpt lat="42.81549" lon="-0.217">
        <ele>2280.9</ele>
        <time>2018-09-23T08:09:03Z</time>
      </trkpt>
      <trkpt lat="42.81548" lon="-0.21711">
        <ele>2282.8</ele>
        <time>2018-09-23T08:09:17Z</time>
      </trkpt>
      <trkpt lat="42.81549" lon="-0.21724">
        <ele>2285.2</ele>
        <time>2018-09-23T08:09:29Z</time>
      </trkpt>
      <trkpt lat="42.81547" lon="-0.21731">
        <ele>2287.1</ele>
        <time>2018-09-23T08:09:43Z</time>
      </trkpt>
      <trkpt lat="42.81544" lon="-0.21735">
        <ele>2288.6</ele>
        <time>2018-09-23T08:09:56Z</time>
      </trkpt>
      <trkpt lat="42.81546" lon="-0.21735">
        <ele>2289.5</ele>
        <time>2018-09-23T08:10:27Z</time>
      </trkpt>
      <trkpt lat="42.81543" lon="-0.2174">
        <ele>2291</ele>
        <time>2018-09-23T08:10:39Z</time>
      </trkpt>
      <trkpt lat="42.81539" lon="-0.21748">
        <ele>2293.8</ele>
        <time>2018-09-23T08:10:53Z</time>
      </trkpt>
      <trkpt lat="42.81537" lon="-0.21756">
        <ele>2296.7</ele>
        <time>2018-09-23T08:11:06Z</time>
      </trkpt>
      <trkpt lat="42.81534" lon="-0.21762">
        <ele>2298.6</ele>
        <time>2018-09-23T08:11:19Z</time>
      </trkpt>
      <trkpt lat="42.81532" lon="-0.21773">
        <ele>2301.1</ele>
        <time>2018-09-23T08:11:32Z</time>
      </trkpt>
      <trkpt lat="42.81531" lon="-0.21776">
        <ele>2301.5</ele>
        <time>2018-09-23T08:11:35Z</time>
      </trkpt>
      <trkpt lat="42.8153" lon="-0.2179">
        <ele>2302.5</ele>
        <time>2018-09-23T08:11:47Z</time>
      </trkpt>
      <trkpt lat="42.8153" lon="-0.21794">
        <ele>2303</ele>
        <time>2018-09-23T08:11:50Z</time>
      </trkpt>
      <trkpt lat="42.81527" lon="-0.21811">
        <ele>2304.4</ele>
        <time>2018-09-23T08:12:05Z</time>
      </trkpt>
      <trkpt lat="42.81523" lon="-0.21825">
        <ele>2306.3</ele>
        <time>2018-09-23T08:12:19Z</time>
      </trkpt>
      <trkpt lat="42.81519" lon="-0.21839">
        <ele>2308.3</ele>
        <time>2018-09-23T08:12:33Z</time>
      </trkpt>
      <trkpt lat="42.81516" lon="-0.2185">
        <ele>2310.2</ele>
        <time>2018-09-23T08:12:46Z</time>
      </trkpt>
      <trkpt lat="42.81515" lon="-0.21863">
        <ele>2313.1</ele>
        <time>2018-09-23T08:13:00Z</time>
      </trkpt>
      <trkpt lat="42.81513" lon="-0.21867">
        <ele>2314</ele>
        <time>2018-09-23T08:13:05Z</time>
      </trkpt>
      <trkpt lat="42.81515" lon="-0.21879">
        <ele>2316.4</ele>
        <time>2018-09-23T08:13:17Z</time>
      </trkpt>
      <trkpt lat="42.81514" lon="-0.21888">
        <ele>2318.4</ele>
        <time>2018-09-23T08:13:31Z</time>
      </trkpt>
      <trkpt lat="42.81513" lon="-0.21901">
        <ele>2320.8</ele>
        <time>2018-09-23T08:13:45Z</time>
      </trkpt>
      <trkpt lat="42.81512" lon="-0.21907">
        <ele>2321.2</ele>
        <time>2018-09-23T08:13:50Z</time>
      </trkpt>
      <trkpt lat="42.81512" lon="-0.21912">
        <ele>2321.7</ele>
        <time>2018-09-23T08:13:55Z</time>
      </trkpt>
      <trkpt lat="42.81516" lon="-0.21926">
        <ele>2322.2</ele>
        <time>2018-09-23T08:14:08Z</time>
      </trkpt>
      <trkpt lat="42.8152" lon="-0.21933">
        <ele>2322.7</ele>
        <time>2018-09-23T08:14:18Z</time>
      </trkpt>
      <trkpt lat="42.81522" lon="-0.21944">
        <ele>2324.6</ele>
        <time>2018-09-23T08:14:30Z</time>
      </trkpt>
      <trkpt lat="42.81521" lon="-0.21953">
        <ele>2327</ele>
        <time>2018-09-23T08:14:42Z</time>
      </trkpt>
      <trkpt lat="42.81518" lon="-0.21966">
        <ele>2330.4</ele>
        <time>2018-09-23T08:14:57Z</time>
      </trkpt>
      <trkpt lat="42.81516" lon="-0.21977">
        <ele>2331.8</ele>
        <time>2018-09-23T08:15:10Z</time>
      </trkpt>
      <trkpt lat="42.81515" lon="-0.21987">
        <ele>2334.2</ele>
        <time>2018-09-23T08:15:23Z</time>
      </trkpt>
      <trkpt lat="42.81513" lon="-0.22001">
        <ele>2336.6</ele>
        <time>2018-09-23T08:15:36Z</time>
      </trkpt>
      <trkpt lat="42.81514" lon="-0.22008">
        <ele>2338.1</ele>
        <time>2018-09-23T08:15:48Z</time>
      </trkpt>
      <trkpt lat="42.81513" lon="-0.2201">
        <ele>2338.1</ele>
        <time>2018-09-23T08:15:51Z</time>
      </trkpt>
      <trkpt lat="42.81514" lon="-0.22022">
        <ele>2339.5</ele>
        <time>2018-09-23T08:16:06Z</time>
      </trkpt>
      <trkpt lat="42.8151" lon="-0.22032">
        <ele>2343.4</ele>
        <time>2018-09-23T08:16:18Z</time>
      </trkpt>
      <trkpt lat="42.81507" lon="-0.22046">
        <ele>2344.8</ele>
        <time>2018-09-23T08:16:33Z</time>
      </trkpt>
      <trkpt lat="42.81506" lon="-0.22056">
        <ele>2346.7</ele>
        <time>2018-09-23T08:16:45Z</time>
      </trkpt>
      <trkpt lat="42.81505" lon="-0.22062">
        <ele>2348.6</ele>
        <time>2018-09-23T08:16:57Z</time>
      </trkpt>
      <trkpt lat="42.81502" lon="-0.22067">
        <ele>2351</ele>
        <time>2018-09-23T08:17:10Z</time>
      </trkpt>
      <trkpt lat="42.815" lon="-0.22075">
        <ele>2352.5</ele>
        <time>2018-09-23T08:17:22Z</time>
      </trkpt>
      <trkpt lat="42.81499" lon="-0.22086">
        <ele>2354.9</ele>
        <time>2018-09-23T08:17:34Z</time>
      </trkpt>
      <trkpt lat="42.81502" lon="-0.22092">
        <ele>2356.8</ele>
        <time>2018-09-23T08:17:49Z</time>
      </trkpt>
      <trkpt lat="42.81505" lon="-0.22102">
        <ele>2359.2</ele>
        <time>2018-09-23T08:18:00Z</time>
      </trkpt>
      <trkpt lat="42.81505" lon="-0.22106">
        <ele>2360.2</ele>
        <time>2018-09-23T08:18:12Z</time>
      </trkpt>
      <trkpt lat="42.81504" lon="-0.22115">
        <ele>2362.6</ele>
        <time>2018-09-23T08:18:23Z</time>
      </trkpt>
      <trkpt lat="42.81502" lon="-0.22122">
        <ele>2365</ele>
        <time>2018-09-23T08:18:36Z</time>
      </trkpt>
      <trkpt lat="42.81499" lon="-0.22131">
        <ele>2367.4</ele>
        <time>2018-09-23T08:18:49Z</time>
      </trkpt>
      <trkpt lat="42.81497" lon="-0.22139">
        <ele>2369.3</ele>
        <time>2018-09-23T08:19:02Z</time>
      </trkpt>
      <trkpt lat="42.81493" lon="-0.22148">
        <ele>2371.7</ele>
        <time>2018-09-23T08:19:15Z</time>
      </trkpt>
      <trkpt lat="42.8149" lon="-0.22157">
        <ele>2374.6</ele>
        <time>2018-09-23T08:19:29Z</time>
      </trkpt>
      <trkpt lat="42.81491" lon="-0.22167">
        <ele>2376</ele>
        <time>2018-09-23T08:19:40Z</time>
      </trkpt>
      <trkpt lat="42.8149" lon="-0.22175">
        <ele>2378.4</ele>
        <time>2018-09-23T08:19:52Z</time>
      </trkpt>
      <trkpt lat="42.81488" lon="-0.22185">
        <ele>2380.8</ele>
        <time>2018-09-23T08:20:06Z</time>
      </trkpt>
      <trkpt lat="42.81486" lon="-0.22197">
        <ele>2383.2</ele>
        <time>2018-09-23T08:20:20Z</time>
      </trkpt>
      <trkpt lat="42.81486" lon="-0.22204">
        <ele>2384.7</ele>
        <time>2018-09-23T08:20:32Z</time>
      </trkpt>
      <trkpt lat="42.81484" lon="-0.22213">
        <ele>2386.6</ele>
        <time>2018-09-23T08:20:44Z</time>
      </trkpt>
      <trkpt lat="42.81482" lon="-0.22221">
        <ele>2390</ele>
        <time>2018-09-23T08:20:59Z</time>
      </trkpt>
      <trkpt lat="42.81484" lon="-0.22231">
        <ele>2391.9</ele>
        <time>2018-09-23T08:21:11Z</time>
      </trkpt>
      <trkpt lat="42.81483" lon="-0.22241">
        <ele>2394.3</ele>
        <time>2018-09-23T08:21:25Z</time>
      </trkpt>
      <trkpt lat="42.81482" lon="-0.2225">
        <ele>2396.7</ele>
        <time>2018-09-23T08:21:41Z</time>
      </trkpt>
      <trkpt lat="42.8148" lon="-0.22254">
        <ele>2399.1</ele>
        <time>2018-09-23T08:21:50Z</time>
      </trkpt>
      <trkpt lat="42.81484" lon="-0.2226">
        <ele>2400.1</ele>
        <time>2018-09-23T08:22:02Z</time>
      </trkpt>
      <trkpt lat="42.81481" lon="-0.22264">
        <ele>2402</ele>
        <time>2018-09-23T08:22:15Z</time>
      </trkpt>
      <trkpt lat="42.81477" lon="-0.22269">
        <ele>2404.4</ele>
        <time>2018-09-23T08:22:28Z</time>
      </trkpt>
      <trkpt lat="42.81472" lon="-0.2227">
        <ele>2406.3</ele>
        <time>2018-09-23T08:22:40Z</time>
      </trkpt>
      <trkpt lat="42.81469" lon="-0.22272">
        <ele>2407.8</ele>
        <time>2018-09-23T08:22:55Z</time>
      </trkpt>
      <trkpt lat="42.81464" lon="-0.22278">
        <ele>2410.6</ele>
        <time>2018-09-23T08:23:09Z</time>
      </trkpt>
      <trkpt lat="42.81464" lon="-0.22292">
        <ele>2410.2</ele>
        <time>2018-09-23T08:23:23Z</time>
      </trkpt>
      <trkpt lat="42.81462" lon="-0.22294">
        <ele>2411.1</ele>
        <time>2018-09-23T08:23:40Z</time>
      </trkpt>
      <trkpt lat="42.81463" lon="-0.22306">
        <ele>2412.1</ele>
        <time>2018-09-23T08:23:54Z</time>
      </trkpt>
      <trkpt lat="42.81461" lon="-0.2232">
        <ele>2413.1</ele>
        <time>2018-09-23T08:24:09Z</time>
      </trkpt>
      <trkpt lat="42.8146" lon="-0.22331">
        <ele>2414.5</ele>
        <time>2018-09-23T08:24:22Z</time>
      </trkpt>
      <trkpt lat="42.81459" lon="-0.22341">
        <ele>2416.4</ele>
        <time>2018-09-23T08:24:35Z</time>
      </trkpt>
      <trkpt lat="42.81454" lon="-0.22355">
        <ele>2416.9</ele>
        <time>2018-09-23T08:24:49Z</time>
      </trkpt>
      <trkpt lat="42.81452" lon="-0.22357">
        <ele>2416.9</ele>
        <time>2018-09-23T08:24:52Z</time>
      </trkpt>
      <trkpt lat="42.81449" lon="-0.22362">
        <ele>2416.4</ele>
        <time>2018-09-23T08:24:59Z</time>
      </trkpt>
      <trkpt lat="42.81443" lon="-0.22364">
        <ele>2416.4</ele>
        <time>2018-09-23T08:25:06Z</time>
      </trkpt>
      <trkpt lat="42.81442" lon="-0.22367">
        <ele>2416.4</ele>
        <time>2018-09-23T08:25:08Z</time>
      </trkpt>
      <trkpt lat="42.81434" lon="-0.22382">
        <ele>2416.4</ele>
        <time>2018-09-23T08:25:22Z</time>
      </trkpt>
      <trkpt lat="42.81432" lon="-0.22385">
        <ele>2416.9</ele>
        <time>2018-09-23T08:25:27Z</time>
      </trkpt>
      <trkpt lat="42.81425" lon="-0.22404">
        <ele>2417.9</ele>
        <time>2018-09-23T08:25:45Z</time>
      </trkpt>
      <trkpt lat="42.81422" lon="-0.22419">
        <ele>2418.3</ele>
        <time>2018-09-23T08:25:59Z</time>
      </trkpt>
      <trkpt lat="42.81413" lon="-0.22422">
        <ele>2419.3</ele>
        <time>2018-09-23T08:26:09Z</time>
      </trkpt>
      <trkpt lat="42.81412" lon="-0.22424">
        <ele>2419.3</ele>
        <time>2018-09-23T08:26:11Z</time>
      </trkpt>
      <trkpt lat="42.81409" lon="-0.22425">
        <ele>2418.8</ele>
        <time>2018-09-23T08:26:15Z</time>
      </trkpt>
      <trkpt lat="42.81407" lon="-0.22424">
        <ele>2419.3</ele>
        <time>2018-09-23T08:26:18Z</time>
      </trkpt>
      <trkpt lat="42.81396" lon="-0.22425">
        <ele>2420.7</ele>
        <time>2018-09-23T08:26:32Z</time>
      </trkpt>
      <trkpt lat="42.8139" lon="-0.22436">
        <ele>2423.1</ele>
        <time>2018-09-23T08:26:45Z</time>
      </trkpt>
      <trkpt lat="42.81386" lon="-0.22445">
        <ele>2425.1</ele>
        <time>2018-09-23T08:26:58Z</time>
      </trkpt>
      <trkpt lat="42.81382" lon="-0.22457">
        <ele>2427</ele>
        <time>2018-09-23T08:27:12Z</time>
      </trkpt>
      <trkpt lat="42.81379" lon="-0.22463">
        <ele>2429.4</ele>
        <time>2018-09-23T08:27:23Z</time>
      </trkpt>
      <trkpt lat="42.81379" lon="-0.22466">
        <ele>2429.4</ele>
        <time>2018-09-23T08:27:40Z</time>
      </trkpt>
      <trkpt lat="42.81379" lon="-0.22473">
        <ele>2429.4</ele>
        <time>2018-09-23T08:27:53Z</time>
      </trkpt>
      <trkpt lat="42.81379" lon="-0.2248">
        <ele>2430.4</ele>
        <time>2018-09-23T08:27:59Z</time>
      </trkpt>
      <trkpt lat="42.81377" lon="-0.22485">
        <ele>2431.3</ele>
        <time>2018-09-23T08:28:11Z</time>
      </trkpt>
      <trkpt lat="42.81377" lon="-0.22485">
        <ele>2431.8</ele>
        <time>2018-09-23T08:28:29Z</time>
      </trkpt>
      <trkpt lat="42.81377" lon="-0.22484">
        <ele>2431.3</ele>
        <time>2018-09-23T08:28:45Z</time>
      </trkpt>
      <trkpt lat="42.81373" lon="-0.22494">
        <ele>2432.8</ele>
        <time>2018-09-23T08:28:54Z</time>
      </trkpt>
      <trkpt lat="42.81372" lon="-0.22496">
        <ele>2432.8</ele>
        <time>2018-09-23T08:28:56Z</time>
      </trkpt>
      <trkpt lat="42.81368" lon="-0.22499">
        <ele>2431.8</ele>
        <time>2018-09-23T08:29:00Z</time>
      </trkpt>
      <trkpt lat="42.81357" lon="-0.22503">
        <ele>2430.8</ele>
        <time>2018-09-23T08:29:12Z</time>
      </trkpt>
      <trkpt lat="42.81355" lon="-0.22504">
        <ele>2430.4</ele>
        <time>2018-09-23T08:29:15Z</time>
      </trkpt>
      <trkpt lat="42.81349" lon="-0.22501">
        <ele>2428.9</ele>
        <time>2018-09-23T08:29:21Z</time>
      </trkpt>
      <trkpt lat="42.81342" lon="-0.22499">
        <ele>2428.9</ele>
        <time>2018-09-23T08:29:29Z</time>
      </trkpt>
      <trkpt lat="42.8134" lon="-0.22498">
        <ele>2429.9</ele>
        <time>2018-09-23T08:29:32Z</time>
      </trkpt>
      <trkpt lat="42.81327" lon="-0.2249">
        <ele>2431.8</ele>
        <time>2018-09-23T08:29:47Z</time>
      </trkpt>
      <trkpt lat="42.8132" lon="-0.22482">
        <ele>2431.8</ele>
        <time>2018-09-23T08:29:57Z</time>
      </trkpt>
      <trkpt lat="42.81314" lon="-0.22477">
        <ele>2431.8</ele>
        <time>2018-09-23T08:30:04Z</time>
      </trkpt>
      <trkpt lat="42.81313" lon="-0.22479">
        <ele>2431.3</ele>
        <time>2018-09-23T08:30:06Z</time>
      </trkpt>
      <trkpt lat="42.81309" lon="-0.22474">
        <ele>2431.8</ele>
        <time>2018-09-23T08:30:12Z</time>
      </trkpt>
      <trkpt lat="42.81307" lon="-0.22473">
        <ele>2432.3</ele>
        <time>2018-09-23T08:30:14Z</time>
      </trkpt>
      <trkpt lat="42.81297" lon="-0.22468">
        <ele>2432.8</ele>
        <time>2018-09-23T08:30:27Z</time>
      </trkpt>
      <trkpt lat="42.81293" lon="-0.22463">
        <ele>2432.8</ele>
        <time>2018-09-23T08:30:32Z</time>
      </trkpt>
      <trkpt lat="42.81293" lon="-0.2246">
        <ele>2432.8</ele>
        <time>2018-09-23T08:30:35Z</time>
      </trkpt>
      <trkpt lat="42.81297" lon="-0.22447">
        <ele>2430.8</ele>
        <time>2018-09-23T08:30:49Z</time>
      </trkpt>
      <trkpt lat="42.81297" lon="-0.2244">
        <ele>2431.3</ele>
        <time>2018-09-23T08:31:03Z</time>
      </trkpt>
      <trkpt lat="42.81297" lon="-0.22436">
        <ele>2430.4</ele>
        <time>2018-09-23T08:31:19Z</time>
      </trkpt>
      <trkpt lat="42.81297" lon="-0.22437">
        <ele>2430.8</ele>
        <time>2018-09-23T08:31:41Z</time>
      </trkpt>
      <trkpt lat="42.81298" lon="-0.22437">
        <ele>2429.9</ele>
        <time>2018-09-23T08:31:43Z</time>
      </trkpt>
      <trkpt lat="42.81305" lon="-0.22426">
        <ele>2429.9</ele>
        <time>2018-09-23T08:31:51Z</time>
      </trkpt>
      <trkpt lat="42.81308" lon="-0.22409">
        <ele>2428.9</ele>
        <time>2018-09-23T08:32:05Z</time>
      </trkpt>
      <trkpt lat="42.81308" lon="-0.22395">
        <ele>2427.5</ele>
        <time>2018-09-23T08:32:18Z</time>
      </trkpt>
      <trkpt lat="42.81308" lon="-0.2239">
        <ele>2426</ele>
        <time>2018-09-23T08:32:24Z</time>
      </trkpt>
      <trkpt lat="42.81309" lon="-0.22383">
        <ele>2423.1</ele>
        <time>2018-09-23T08:32:32Z</time>
      </trkpt>
      <trkpt lat="42.81306" lon="-0.22375">
        <ele>2420.3</ele>
        <time>2018-09-23T08:32:40Z</time>
      </trkpt>
      <trkpt lat="42.81301" lon="-0.22363">
        <ele>2418.8</ele>
        <time>2018-09-23T08:32:51Z</time>
      </trkpt>
      <trkpt lat="42.81298" lon="-0.2236">
        <ele>2419.3</ele>
        <time>2018-09-23T08:32:56Z</time>
      </trkpt>
      <trkpt lat="42.81292" lon="-0.22354">
        <ele>2418.8</ele>
        <time>2018-09-23T08:33:04Z</time>
      </trkpt>
      <trkpt lat="42.81283" lon="-0.22352">
        <ele>2419.3</ele>
        <time>2018-09-23T08:33:17Z</time>
      </trkpt>
      <trkpt lat="42.81286" lon="-0.22351">
        <ele>2418.8</ele>
        <time>2018-09-23T08:33:33Z</time>
      </trkpt>
      <trkpt lat="42.81282" lon="-0.22351">
        <ele>2419.3</ele>
        <time>2018-09-23T08:33:43Z</time>
      </trkpt>
      <trkpt lat="42.81279" lon="-0.22346">
        <ele>2418.3</ele>
        <time>2018-09-23T08:33:48Z</time>
      </trkpt>
      <trkpt lat="42.81272" lon="-0.22332">
        <ele>2418.3</ele>
        <time>2018-09-23T08:34:01Z</time>
      </trkpt>
      <trkpt lat="42.81273" lon="-0.2233">
        <ele>2417.9</ele>
        <time>2018-09-23T08:34:16Z</time>
      </trkpt>
      <trkpt lat="42.81272" lon="-0.22333">
        <ele>2418.8</ele>
        <time>2018-09-23T08:34:36Z</time>
      </trkpt>
      <trkpt lat="42.81273" lon="-0.22334">
        <ele>2418.3</ele>
        <time>2018-09-23T08:34:37Z</time>
      </trkpt>
      <trkpt lat="42.81273" lon="-0.22338">
        <ele>2419.3</ele>
        <time>2018-09-23T08:34:51Z</time>
      </trkpt>
      <trkpt lat="42.81278" lon="-0.22343">
        <ele>2419.3</ele>
        <time>2018-09-23T08:35:03Z</time>
      </trkpt>
      <trkpt lat="42.81279" lon="-0.22344">
        <ele>2419.3</ele>
        <time>2018-09-23T08:35:10Z</time>
      </trkpt>
      <trkpt lat="42.8128" lon="-0.2235">
        <ele>2418.8</ele>
        <time>2018-09-23T08:35:25Z</time>
      </trkpt>
      <trkpt lat="42.81286" lon="-0.22357">
        <ele>2418.8</ele>
        <time>2018-09-23T08:35:36Z</time>
      </trkpt>
      <trkpt lat="42.81292" lon="-0.22365">
        <ele>2419.8</ele>
        <time>2018-09-23T08:35:45Z</time>
      </trkpt>
      <trkpt lat="42.81294" lon="-0.22366">
        <ele>2419.8</ele>
        <time>2018-09-23T08:35:47Z</time>
      </trkpt>
      <trkpt lat="42.81295" lon="-0.22368">
        <ele>2420.7</ele>
        <time>2018-09-23T08:35:49Z</time>
      </trkpt>
      <trkpt lat="42.813" lon="-0.22375">
        <ele>2420.7</ele>
        <time>2018-09-23T08:35:57Z</time>
      </trkpt>
      <trkpt lat="42.81308" lon="-0.22386">
        <ele>2425.1</ele>
        <time>2018-09-23T08:36:11Z</time>
      </trkpt>
      <trkpt lat="42.81314" lon="-0.22393">
        <ele>2427.5</ele>
        <time>2018-09-23T08:36:23Z</time>
      </trkpt>
      <trkpt lat="42.81316" lon="-0.22393">
        <ele>2428.9</ele>
        <time>2018-09-23T08:36:36Z</time>
      </trkpt>
      <trkpt lat="42.8132" lon="-0.22402">
        <ele>2428.4</ele>
        <time>2018-09-23T08:36:53Z</time>
      </trkpt>
      <trkpt lat="42.81324" lon="-0.22404">
        <ele>2429.9</ele>
        <time>2018-09-23T08:37:06Z</time>
      </trkpt>
      <trkpt lat="42.81325" lon="-0.22405">
        <ele>2429.9</ele>
        <time>2018-09-23T08:37:23Z</time>
      </trkpt>
      <trkpt lat="42.81328" lon="-0.22412">
        <ele>2430.8</ele>
        <time>2018-09-23T08:37:35Z</time>
      </trkpt>
      <trkpt lat="42.81329" lon="-0.22424">
        <ele>2431.8</ele>
        <time>2018-09-23T08:37:46Z</time>
      </trkpt>
      <trkpt lat="42.81327" lon="-0.22428">
        <ele>2432.8</ele>
        <time>2018-09-23T08:38:01Z</time>
      </trkpt>
      <trkpt lat="42.81329" lon="-0.2243">
        <ele>2432.3</ele>
        <time>2018-09-23T08:38:37Z</time>
      </trkpt>
      <trkpt lat="42.81329" lon="-0.22432">
        <ele>2432.8</ele>
        <time>2018-09-23T08:39:02Z</time>
      </trkpt>
      <trkpt lat="42.81329" lon="-0.22429">
        <ele>2433.2</ele>
        <time>2018-09-23T08:39:21Z</time>
      </trkpt>
      <trkpt lat="42.81329" lon="-0.22429">
        <ele>2432.8</ele>
        <time>2018-09-23T08:39:50Z</time>
      </trkpt>
      <trkpt lat="42.81328" lon="-0.22434">
        <ele>2433.2</ele>
        <time>2018-09-23T08:40:04Z</time>
      </trkpt>
      <trkpt lat="42.81328" lon="-0.22434">
        <ele>2433.2</ele>
        <time>2018-09-23T08:40:23Z</time>
      </trkpt>
      <trkpt lat="42.81327" lon="-0.22434">
        <ele>2433.2</ele>
        <time>2018-09-23T08:40:40Z</time>
      </trkpt>
      <trkpt lat="42.81329" lon="-0.22435">
        <ele>2433.2</ele>
        <time>2018-09-23T08:41:09Z</time>
      </trkpt>
      <trkpt lat="42.81335" lon="-0.22454">
        <ele>2430.8</ele>
        <time>2018-09-23T08:41:23Z</time>
      </trkpt>
      <trkpt lat="42.81343" lon="-0.22462">
        <ele>2433.2</ele>
        <time>2018-09-23T08:41:34Z</time>
      </trkpt>
      <trkpt lat="42.81351" lon="-0.22465">
        <ele>2433.7</ele>
        <time>2018-09-23T08:41:46Z</time>
      </trkpt>
      <trkpt lat="42.81351" lon="-0.22471">
        <ele>2433.2</ele>
        <time>2018-09-23T08:41:57Z</time>
      </trkpt>
      <trkpt lat="42.81349" lon="-0.22474">
        <ele>2432.8</ele>
        <time>2018-09-23T08:42:00Z</time>
      </trkpt>
      <trkpt lat="42.81347" lon="-0.22486">
        <ele>2432.3</ele>
        <time>2018-09-23T08:42:12Z</time>
      </trkpt>
      <trkpt lat="42.81351" lon="-0.22491">
        <ele>2430.8</ele>
        <time>2018-09-23T08:42:17Z</time>
      </trkpt>
      <trkpt lat="42.81365" lon="-0.22483">
        <ele>2431.3</ele>
        <time>2018-09-23T08:42:30Z</time>
      </trkpt>
      <trkpt lat="42.81377" lon="-0.2247">
        <ele>2432.3</ele>
        <time>2018-09-23T08:42:44Z</time>
      </trkpt>
      <trkpt lat="42.81377" lon="-0.22471">
        <ele>2432.3</ele>
        <time>2018-09-23T08:42:45Z</time>
      </trkpt>
      <trkpt lat="42.81379" lon="-0.22472">
        <ele>2432.3</ele>
        <time>2018-09-23T08:42:59Z</time>
      </trkpt>
      <trkpt lat="42.81378" lon="-0.22472">
        <ele>2431.8</ele>
        <time>2018-09-23T08:43:21Z</time>
      </trkpt>
      <trkpt lat="42.81378" lon="-0.2247">
        <ele>2432.3</ele>
        <time>2018-09-23T08:43:37Z</time>
      </trkpt>
      <trkpt lat="42.81381" lon="-0.22468">
        <ele>2432.3</ele>
        <time>2018-09-23T08:44:00Z</time>
      </trkpt>
      <trkpt lat="42.81377" lon="-0.22465">
        <ele>2432.3</ele>
        <time>2018-09-23T08:44:21Z</time>
      </trkpt>
      <trkpt lat="42.81377" lon="-0.22465">
        <ele>2432.8</ele>
        <time>2018-09-23T08:44:41Z</time>
      </trkpt>
      <trkpt lat="42.81377" lon="-0.22461">
        <ele>2431.8</ele>
        <time>2018-09-23T08:45:06Z</time>
      </trkpt>
      <trkpt lat="42.81376" lon="-0.22456">
        <ele>2431.8</ele>
        <time>2018-09-23T08:45:25Z</time>
      </trkpt>
      <trkpt lat="42.81375" lon="-0.22457">
        <ele>2431.8</ele>
        <time>2018-09-23T08:45:43Z</time>
      </trkpt>
      <trkpt lat="42.81377" lon="-0.22456">
        <ele>2432.3</ele>
        <time>2018-09-23T08:46:03Z</time>
      </trkpt>
      <trkpt lat="42.81377" lon="-0.22459">
        <ele>2431.8</ele>
        <time>2018-09-23T08:46:35Z</time>
      </trkpt>
      <trkpt lat="42.81378" lon="-0.2246">
        <ele>2432.3</ele>
        <time>2018-09-23T08:46:57Z</time>
      </trkpt>
      <trkpt lat="42.81375" lon="-0.22459">
        <ele>2432.3</ele>
        <time>2018-09-23T08:47:21Z</time>
      </trkpt>
      <trkpt lat="42.81377" lon="-0.22456">
        <ele>2432.3</ele>
        <time>2018-09-23T08:47:48Z</time>
      </trkpt>
      <trkpt lat="42.81375" lon="-0.22459">
        <ele>2432.8</ele>
        <time>2018-09-23T08:48:18Z</time>
      </trkpt>
      <trkpt lat="42.81375" lon="-0.22458">
        <ele>2432.3</ele>
        <time>2018-09-23T08:48:42Z</time>
      </trkpt>
      <trkpt lat="42.81378" lon="-0.22462">
        <ele>2432.3</ele>
        <time>2018-09-23T08:49:00Z</time>
      </trkpt>
      <trkpt lat="42.8138" lon="-0.22465">
        <ele>2431.8</ele>
        <time>2018-09-23T08:49:33Z</time>
      </trkpt>
      <trkpt lat="42.81378" lon="-0.22466">
        <ele>2432.3</ele>
        <time>2018-09-23T08:49:51Z</time>
      </trkpt>
      <trkpt lat="42.81378" lon="-0.22467">
        <ele>2432.8</ele>
        <time>2018-09-23T08:49:52Z</time>
      </trkpt>
      <trkpt lat="42.81379" lon="-0.22479">
        <ele>2433.7</ele>
        <time>2018-09-23T08:50:04Z</time>
      </trkpt>
      <trkpt lat="42.81375" lon="-0.22491">
        <ele>2435.6</ele>
        <time>2018-09-23T08:50:16Z</time>
      </trkpt>
      <trkpt lat="42.81375" lon="-0.22493">
        <ele>2435.6</ele>
        <time>2018-09-23T08:50:19Z</time>
      </trkpt>
      <trkpt lat="42.81375" lon="-0.22498">
        <ele>2436.6</ele>
        <time>2018-09-23T08:50:22Z</time>
      </trkpt>
      <trkpt lat="42.81371" lon="-0.22509">
        <ele>2437.1</ele>
        <time>2018-09-23T08:50:31Z</time>
      </trkpt>
      <trkpt lat="42.81363" lon="-0.22527">
        <ele>2437.1</ele>
        <time>2018-09-23T08:50:46Z</time>
      </trkpt>
      <trkpt lat="42.81358" lon="-0.22535">
        <ele>2438.5</ele>
        <time>2018-09-23T08:50:55Z</time>
      </trkpt>
      <trkpt lat="42.81358" lon="-0.22538">
        <ele>2439</ele>
        <time>2018-09-23T08:50:57Z</time>
      </trkpt>
      <trkpt lat="42.8135" lon="-0.22552">
        <ele>2441.4</ele>
        <time>2018-09-23T08:51:13Z</time>
      </trkpt>
      <trkpt lat="42.81345" lon="-0.2256">
        <ele>2443.8</ele>
        <time>2018-09-23T08:51:25Z</time>
      </trkpt>
      <trkpt lat="42.81339" lon="-0.22568">
        <ele>2444.8</ele>
        <time>2018-09-23T08:51:34Z</time>
      </trkpt>
      <trkpt lat="42.81334" lon="-0.22574">
        <ele>2444.3</ele>
        <time>2018-09-23T08:51:42Z</time>
      </trkpt>
      <trkpt lat="42.81326" lon="-0.22575">
        <ele>2445.2</ele>
        <time>2018-09-23T08:51:51Z</time>
      </trkpt>
      <trkpt lat="42.8131" lon="-0.22588">
        <ele>2445.7</ele>
        <time>2018-09-23T08:52:08Z</time>
      </trkpt>
      <trkpt lat="42.81308" lon="-0.2259">
        <ele>2446.2</ele>
        <time>2018-09-23T08:52:10Z</time>
      </trkpt>
      <trkpt lat="42.81301" lon="-0.22606">
        <ele>2445.7</ele>
        <time>2018-09-23T08:52:23Z</time>
      </trkpt>
      <trkpt lat="42.81299" lon="-0.22621">
        <ele>2445.7</ele>
        <time>2018-09-23T08:52:33Z</time>
      </trkpt>
      <trkpt lat="42.81297" lon="-0.22626">
        <ele>2446.2</ele>
        <time>2018-09-23T08:52:37Z</time>
      </trkpt>
      <trkpt lat="42.81295" lon="-0.22638">
        <ele>2445.7</ele>
        <time>2018-09-23T08:52:45Z</time>
      </trkpt>
      <trkpt lat="42.81295" lon="-0.22642">
        <ele>2445.7</ele>
        <time>2018-09-23T08:52:48Z</time>
      </trkpt>
      <trkpt lat="42.81295" lon="-0.2265">
        <ele>2445.7</ele>
        <time>2018-09-23T08:52:53Z</time>
      </trkpt>
      <trkpt lat="42.81295" lon="-0.22674">
        <ele>2446.2</ele>
        <time>2018-09-23T08:53:09Z</time>
      </trkpt>
      <trkpt lat="42.81297" lon="-0.22694">
        <ele>2446.7</ele>
        <time>2018-09-23T08:53:24Z</time>
      </trkpt>
      <trkpt lat="42.813" lon="-0.22713">
        <ele>2447.2</ele>
        <time>2018-09-23T08:53:38Z</time>
      </trkpt>
      <trkpt lat="42.81301" lon="-0.22716">
        <ele>2447.2</ele>
        <time>2018-09-23T08:53:40Z</time>
      </trkpt>
      <trkpt lat="42.81304" lon="-0.22743">
        <ele>2446.2</ele>
        <time>2018-09-23T08:53:58Z</time>
      </trkpt>
      <trkpt lat="42.81307" lon="-0.22753">
        <ele>2447.2</ele>
        <time>2018-09-23T08:54:09Z</time>
      </trkpt>
      <trkpt lat="42.8131" lon="-0.22771">
        <ele>2445.7</ele>
        <time>2018-09-23T08:54:22Z</time>
      </trkpt>
      <trkpt lat="42.81314" lon="-0.2278">
        <ele>2446.2</ele>
        <time>2018-09-23T08:54:34Z</time>
      </trkpt>
      <trkpt lat="42.81315" lon="-0.22786">
        <ele>2446.2</ele>
        <time>2018-09-23T08:54:51Z</time>
      </trkpt>
      <trkpt lat="42.8132" lon="-0.22799">
        <ele>2447.6</ele>
        <time>2018-09-23T08:55:04Z</time>
      </trkpt>
      <trkpt lat="42.81321" lon="-0.22803">
        <ele>2447.2</ele>
        <time>2018-09-23T08:55:08Z</time>
      </trkpt>
      <trkpt lat="42.81322" lon="-0.22805">
        <ele>2447.6</ele>
        <time>2018-09-23T08:55:10Z</time>
      </trkpt>
      <trkpt lat="42.81322" lon="-0.22816">
        <ele>2447.2</ele>
        <time>2018-09-23T08:55:23Z</time>
      </trkpt>
      <trkpt lat="42.81316" lon="-0.22826">
        <ele>2448.1</ele>
        <time>2018-09-23T08:55:37Z</time>
      </trkpt>
      <trkpt lat="42.81313" lon="-0.22827">
        <ele>2449.1</ele>
        <time>2018-09-23T08:55:41Z</time>
      </trkpt>
      <trkpt lat="42.81311" lon="-0.22842">
        <ele>2449.6</ele>
        <time>2018-09-23T08:55:55Z</time>
      </trkpt>
      <trkpt lat="42.81311" lon="-0.22845">
        <ele>2449.1</ele>
        <time>2018-09-23T08:55:57Z</time>
      </trkpt>
      <trkpt lat="42.8131" lon="-0.22855">
        <ele>2449.1</ele>
        <time>2018-09-23T08:56:05Z</time>
      </trkpt>
      <trkpt lat="42.8131" lon="-0.22875">
        <ele>2448.1</ele>
        <time>2018-09-23T08:56:21Z</time>
      </trkpt>
      <trkpt lat="42.81309" lon="-0.22898">
        <ele>2446.2</ele>
        <time>2018-09-23T08:56:36Z</time>
      </trkpt>
      <trkpt lat="42.81305" lon="-0.2292">
        <ele>2447.6</ele>
        <time>2018-09-23T08:56:50Z</time>
      </trkpt>
      <trkpt lat="42.81306" lon="-0.22931">
        <ele>2448.6</ele>
        <time>2018-09-23T08:57:03Z</time>
      </trkpt>
      <trkpt lat="42.8131" lon="-0.22941">
        <ele>2451</ele>
        <time>2018-09-23T08:57:17Z</time>
      </trkpt>
      <trkpt lat="42.81306" lon="-0.2295">
        <ele>2452</ele>
        <time>2018-09-23T08:57:30Z</time>
      </trkpt>
      <trkpt lat="42.81305" lon="-0.22962">
        <ele>2454.4</ele>
        <time>2018-09-23T08:57:44Z</time>
      </trkpt>
      <trkpt lat="42.81305" lon="-0.22969">
        <ele>2455.8</ele>
        <time>2018-09-23T08:57:59Z</time>
      </trkpt>
      <trkpt lat="42.81304" lon="-0.22968">
        <ele>2455.8</ele>
        <time>2018-09-23T08:58:21Z</time>
      </trkpt>
      <trkpt lat="42.81304" lon="-0.22976">
        <ele>2456.8</ele>
        <time>2018-09-23T08:58:41Z</time>
      </trkpt>
      <trkpt lat="42.81305" lon="-0.22991">
        <ele>2458.2</ele>
        <time>2018-09-23T08:58:55Z</time>
      </trkpt>
      <trkpt lat="42.81301" lon="-0.23005">
        <ele>2460.6</ele>
        <time>2018-09-23T08:59:08Z</time>
      </trkpt>
      <trkpt lat="42.81297" lon="-0.2302">
        <ele>2463</ele>
        <time>2018-09-23T08:59:25Z</time>
      </trkpt>
      <trkpt lat="42.81294" lon="-0.23029">
        <ele>2465.4</ele>
        <time>2018-09-23T08:59:38Z</time>
      </trkpt>
      <trkpt lat="42.8129" lon="-0.23036">
        <ele>2467.4</ele>
        <time>2018-09-23T08:59:51Z</time>
      </trkpt>
      <trkpt lat="42.8129" lon="-0.23043">
        <ele>2470.2</ele>
        <time>2018-09-23T09:00:04Z</time>
      </trkpt>
      <trkpt lat="42.81289" lon="-0.23054">
        <ele>2472.2</ele>
        <time>2018-09-23T09:00:19Z</time>
      </trkpt>
      <trkpt lat="42.81286" lon="-0.23064">
        <ele>2475.1</ele>
        <time>2018-09-23T09:00:34Z</time>
      </trkpt>
      <trkpt lat="42.81286" lon="-0.2307">
        <ele>2476.5</ele>
        <time>2018-09-23T09:00:46Z</time>
      </trkpt>
      <trkpt lat="42.81281" lon="-0.2308">
        <ele>2479.4</ele>
        <time>2018-09-23T09:01:01Z</time>
      </trkpt>
      <trkpt lat="42.8128" lon="-0.23093">
        <ele>2482.3</ele>
        <time>2018-09-23T09:01:17Z</time>
      </trkpt>
      <trkpt lat="42.8128" lon="-0.23105">
        <ele>2483.7</ele>
        <time>2018-09-23T09:01:31Z</time>
      </trkpt>
      <trkpt lat="42.81277" lon="-0.23118">
        <ele>2485.1</ele>
        <time>2018-09-23T09:01:46Z</time>
      </trkpt>
      <trkpt lat="42.81279" lon="-0.2313">
        <ele>2487.1</ele>
        <time>2018-09-23T09:01:58Z</time>
      </trkpt>
      <trkpt lat="42.81278" lon="-0.23141">
        <ele>2488.5</ele>
        <time>2018-09-23T09:02:11Z</time>
      </trkpt>
      <trkpt lat="42.81272" lon="-0.23155">
        <ele>2489.9</ele>
        <time>2018-09-23T09:02:27Z</time>
      </trkpt>
      <trkpt lat="42.81269" lon="-0.23165">
        <ele>2491.9</ele>
        <time>2018-09-23T09:02:42Z</time>
      </trkpt>
      <trkpt lat="42.81269" lon="-0.23174">
        <ele>2495.2</ele>
        <time>2018-09-23T09:02:56Z</time>
      </trkpt>
      <trkpt lat="42.81273" lon="-0.23179">
        <ele>2497.2</ele>
        <time>2018-09-23T09:03:11Z</time>
      </trkpt>
      <trkpt lat="42.81274" lon="-0.23184">
        <ele>2499.6</ele>
        <time>2018-09-23T09:03:24Z</time>
      </trkpt>
      <trkpt lat="42.81275" lon="-0.23194">
        <ele>2501.5</ele>
        <time>2018-09-23T09:03:39Z</time>
      </trkpt>
      <trkpt lat="42.81276" lon="-0.23204">
        <ele>2503.9</ele>
        <time>2018-09-23T09:03:55Z</time>
      </trkpt>
      <trkpt lat="42.81277" lon="-0.23213">
        <ele>2505.3</ele>
        <time>2018-09-23T09:04:09Z</time>
      </trkpt>
      <trkpt lat="42.8128" lon="-0.23223">
        <ele>2506.3</ele>
        <time>2018-09-23T09:04:20Z</time>
      </trkpt>
      <trkpt lat="42.81282" lon="-0.23234">
        <ele>2507.7</ele>
        <time>2018-09-23T09:04:35Z</time>
      </trkpt>
      <trkpt lat="42.81282" lon="-0.23243">
        <ele>2509.7</ele>
        <time>2018-09-23T09:04:47Z</time>
      </trkpt>
      <trkpt lat="42.81281" lon="-0.23253">
        <ele>2511.6</ele>
        <time>2018-09-23T09:05:00Z</time>
      </trkpt>
      <trkpt lat="42.81278" lon="-0.23259">
        <ele>2513</ele>
        <time>2018-09-23T09:05:13Z</time>
      </trkpt>
      <trkpt lat="42.8128" lon="-0.23268">
        <ele>2515.4</ele>
        <time>2018-09-23T09:05:27Z</time>
      </trkpt>
      <trkpt lat="42.81277" lon="-0.23277">
        <ele>2516.9</ele>
        <time>2018-09-23T09:05:41Z</time>
      </trkpt>
      <trkpt lat="42.81281" lon="-0.23282">
        <ele>2517.8</ele>
        <time>2018-09-23T09:05:53Z</time>
      </trkpt>
      <trkpt lat="42.81277" lon="-0.23289">
        <ele>2518.8</ele>
        <time>2018-09-23T09:06:05Z</time>
      </trkpt>
      <trkpt lat="42.81272" lon="-0.23288">
        <ele>2520.2</ele>
        <time>2018-09-23T09:06:17Z</time>
      </trkpt>
      <trkpt lat="42.8128" lon="-0.23294">
        <ele>2519.8</ele>
        <time>2018-09-23T09:06:40Z</time>
      </trkpt>
      <trkpt lat="42.81272" lon="-0.23298">
        <ele>2520.7</ele>
        <time>2018-09-23T09:06:52Z</time>
      </trkpt>
      <trkpt lat="42.81275" lon="-0.23304">
        <ele>2523.1</ele>
        <time>2018-09-23T09:07:04Z</time>
      </trkpt>
      <trkpt lat="42.8127" lon="-0.23312">
        <ele>2524.1</ele>
        <time>2018-09-23T09:07:18Z</time>
      </trkpt>
      <trkpt lat="42.81274" lon="-0.23317">
        <ele>2526</ele>
        <time>2018-09-23T09:07:30Z</time>
      </trkpt>
      <trkpt lat="42.81276" lon="-0.23321">
        <ele>2526.5</ele>
        <time>2018-09-23T09:07:42Z</time>
      </trkpt>
      <trkpt lat="42.81282" lon="-0.23322">
        <ele>2527</ele>
        <time>2018-09-23T09:08:11Z</time>
      </trkpt>
      <trkpt lat="42.81284" lon="-0.23326">
        <ele>2527</ele>
        <time>2018-09-23T09:08:42Z</time>
      </trkpt>
      <trkpt lat="42.81287" lon="-0.23327">
        <ele>2526.5</ele>
        <time>2018-09-23T09:09:12Z</time>
      </trkpt>
      <trkpt lat="42.81286" lon="-0.23328">
        <ele>2527</ele>
        <time>2018-09-23T09:09:44Z</time>
      </trkpt>
      <trkpt lat="42.81279" lon="-0.23334">
        <ele>2527.9</ele>
        <time>2018-09-23T09:09:58Z</time>
      </trkpt>
      <trkpt lat="42.81279" lon="-0.23339">
        <ele>2530.8</ele>
        <time>2018-09-23T09:10:11Z</time>
      </trkpt>
      <trkpt lat="42.81275" lon="-0.23351">
        <ele>2531.8</ele>
        <time>2018-09-23T09:10:26Z</time>
      </trkpt>
      <trkpt lat="42.81274" lon="-0.23353">
        <ele>2532.7</ele>
        <time>2018-09-23T09:10:29Z</time>
      </trkpt>
      <trkpt lat="42.8127" lon="-0.2336">
        <ele>2534.6</ele>
        <time>2018-09-23T09:10:43Z</time>
      </trkpt>
      <trkpt lat="42.8127" lon="-0.2337">
        <ele>2537.5</ele>
        <time>2018-09-23T09:10:56Z</time>
      </trkpt>
      <trkpt lat="42.8127" lon="-0.23379">
        <ele>2539.5</ele>
        <time>2018-09-23T09:11:09Z</time>
      </trkpt>
      <trkpt lat="42.81272" lon="-0.23387">
        <ele>2541.9</ele>
        <time>2018-09-23T09:11:23Z</time>
      </trkpt>
      <trkpt lat="42.81269" lon="-0.234">
        <ele>2544.3</ele>
        <time>2018-09-23T09:11:40Z</time>
      </trkpt>
      <trkpt lat="42.81269" lon="-0.23401">
        <ele>2544.3</ele>
        <time>2018-09-23T09:11:41Z</time>
      </trkpt>
      <trkpt lat="42.8127" lon="-0.2341">
        <ele>2545.7</ele>
        <time>2018-09-23T09:11:54Z</time>
      </trkpt>
      <trkpt lat="42.81271" lon="-0.23421">
        <ele>2548.6</ele>
        <time>2018-09-23T09:12:07Z</time>
      </trkpt>
      <trkpt lat="42.81272" lon="-0.2343">
        <ele>2551</ele>
        <time>2018-09-23T09:12:23Z</time>
      </trkpt>
      <trkpt lat="42.81272" lon="-0.23438">
        <ele>2552</ele>
        <time>2018-09-23T09:12:31Z</time>
      </trkpt>
      <trkpt lat="42.81275" lon="-0.2345">
        <ele>2554.4</ele>
        <time>2018-09-23T09:12:45Z</time>
      </trkpt>
      <trkpt lat="42.81275" lon="-0.23464">
        <ele>2556.3</ele>
        <time>2018-09-23T09:13:00Z</time>
      </trkpt>
      <trkpt lat="42.81275" lon="-0.23465">
        <ele>2556.3</ele>
        <time>2018-09-23T09:13:01Z</time>
      </trkpt>
      <trkpt lat="42.81272" lon="-0.23476">
        <ele>2558.2</ele>
        <time>2018-09-23T09:13:14Z</time>
      </trkpt>
      <trkpt lat="42.8127" lon="-0.23488">
        <ele>2560.6</ele>
        <time>2018-09-23T09:13:28Z</time>
      </trkpt>
      <trkpt lat="42.81269" lon="-0.23503">
        <ele>2562.5</ele>
        <time>2018-09-23T09:13:44Z</time>
      </trkpt>
      <trkpt lat="42.8127" lon="-0.23514">
        <ele>2564.9</ele>
        <time>2018-09-23T09:13:56Z</time>
      </trkpt>
      <trkpt lat="42.81269" lon="-0.23526">
        <ele>2567.8</ele>
        <time>2018-09-23T09:14:12Z</time>
      </trkpt>
      <trkpt lat="42.8127" lon="-0.23535">
        <ele>2570.2</ele>
        <time>2018-09-23T09:14:25Z</time>
      </trkpt>
      <trkpt lat="42.81269" lon="-0.23542">
        <ele>2572.1</ele>
        <time>2018-09-23T09:14:39Z</time>
      </trkpt>
      <trkpt lat="42.81268" lon="-0.23549">
        <ele>2575</ele>
        <time>2018-09-23T09:14:51Z</time>
      </trkpt>
      <trkpt lat="42.81269" lon="-0.23557">
        <ele>2576.9</ele>
        <time>2018-09-23T09:15:03Z</time>
      </trkpt>
      <trkpt lat="42.81269" lon="-0.23564">
        <ele>2579.4</ele>
        <time>2018-09-23T09:15:17Z</time>
      </trkpt>
      <trkpt lat="42.8127" lon="-0.23578">
        <ele>2580.8</ele>
        <time>2018-09-23T09:15:31Z</time>
      </trkpt>
      <trkpt lat="42.8127" lon="-0.23592">
        <ele>2581.8</ele>
        <time>2018-09-23T09:15:45Z</time>
      </trkpt>
      <trkpt lat="42.81274" lon="-0.23605">
        <ele>2584.6</ele>
        <time>2018-09-23T09:16:00Z</time>
      </trkpt>
      <trkpt lat="42.81277" lon="-0.23615">
        <ele>2588</ele>
        <time>2018-09-23T09:16:15Z</time>
      </trkpt>
      <trkpt lat="42.81275" lon="-0.23625">
        <ele>2589</ele>
        <time>2018-09-23T09:16:28Z</time>
      </trkpt>
      <trkpt lat="42.81277" lon="-0.23635">
        <ele>2592.8</ele>
        <time>2018-09-23T09:16:43Z</time>
      </trkpt>
      <trkpt lat="42.8128" lon="-0.23647">
        <ele>2594.7</ele>
        <time>2018-09-23T09:16:59Z</time>
      </trkpt>
      <trkpt lat="42.81284" lon="-0.23653">
        <ele>2597.6</ele>
        <time>2018-09-23T09:17:09Z</time>
      </trkpt>
      <trkpt lat="42.81287" lon="-0.2366">
        <ele>2599.1</ele>
        <time>2018-09-23T09:17:18Z</time>
      </trkpt>
      <trkpt lat="42.81288" lon="-0.23672">
        <ele>2599.5</ele>
        <time>2018-09-23T09:17:30Z</time>
      </trkpt>
      <trkpt lat="42.81284" lon="-0.23685">
        <ele>2599.1</ele>
        <time>2018-09-23T09:17:40Z</time>
      </trkpt>
      <trkpt lat="42.81281" lon="-0.23699">
        <ele>2599.1</ele>
        <time>2018-09-23T09:17:51Z</time>
      </trkpt>
      <trkpt lat="42.81283" lon="-0.23705">
        <ele>2598.6</ele>
        <time>2018-09-23T09:17:55Z</time>
      </trkpt>
      <trkpt lat="42.81284" lon="-0.2371">
        <ele>2598.6</ele>
        <time>2018-09-23T09:17:58Z</time>
      </trkpt>
      <trkpt lat="42.81286" lon="-0.23723">
        <ele>2601</ele>
        <time>2018-09-23T09:18:12Z</time>
      </trkpt>
      <trkpt lat="42.81288" lon="-0.23732">
        <ele>2603.9</ele>
        <time>2018-09-23T09:18:27Z</time>
      </trkpt>
      <trkpt lat="42.81291" lon="-0.23737">
        <ele>2605.8</ele>
        <time>2018-09-23T09:18:38Z</time>
      </trkpt>
      <trkpt lat="42.81291" lon="-0.23746">
        <ele>2607.7</ele>
        <time>2018-09-23T09:18:52Z</time>
      </trkpt>
      <trkpt lat="42.81293" lon="-0.23756">
        <ele>2610.6</ele>
        <time>2018-09-23T09:19:06Z</time>
      </trkpt>
      <trkpt lat="42.81293" lon="-0.2376">
        <ele>2610.6</ele>
        <time>2018-09-23T09:19:09Z</time>
      </trkpt>
      <trkpt lat="42.81296" lon="-0.23776">
        <ele>2612.5</ele>
        <time>2018-09-23T09:19:26Z</time>
      </trkpt>
      <trkpt lat="42.81295" lon="-0.23788">
        <ele>2614.9</ele>
        <time>2018-09-23T09:19:39Z</time>
      </trkpt>
      <trkpt lat="42.81296" lon="-0.23799">
        <ele>2617.3</ele>
        <time>2018-09-23T09:19:54Z</time>
      </trkpt>
      <trkpt lat="42.81297" lon="-0.23811">
        <ele>2619.7</ele>
        <time>2018-09-23T09:20:10Z</time>
      </trkpt>
      <trkpt lat="42.81297" lon="-0.23815">
        <ele>2620.7</ele>
        <time>2018-09-23T09:20:14Z</time>
      </trkpt>
      <trkpt lat="42.81298" lon="-0.23832">
        <ele>2624.1</ele>
        <time>2018-09-23T09:20:30Z</time>
      </trkpt>
      <trkpt lat="42.81302" lon="-0.23845">
        <ele>2626.9</ele>
        <time>2018-09-23T09:20:48Z</time>
      </trkpt>
      <trkpt lat="42.81303" lon="-0.23854">
        <ele>2629.8</ele>
        <time>2018-09-23T09:21:03Z</time>
      </trkpt>
      <trkpt lat="42.81305" lon="-0.23864">
        <ele>2632.7</ele>
        <time>2018-09-23T09:21:19Z</time>
      </trkpt>
      <trkpt lat="42.81306" lon="-0.23871">
        <ele>2634.1</ele>
        <time>2018-09-23T09:21:27Z</time>
      </trkpt>
      <trkpt lat="42.81309" lon="-0.23887">
        <ele>2637</ele>
        <time>2018-09-23T09:21:44Z</time>
      </trkpt>
      <trkpt lat="42.81314" lon="-0.23897">
        <ele>2639</ele>
        <time>2018-09-23T09:21:57Z</time>
      </trkpt>
      <trkpt lat="42.81307" lon="-0.23899">
        <ele>2640.9</ele>
        <time>2018-09-23T09:22:12Z</time>
      </trkpt>
      <trkpt lat="42.81302" lon="-0.23899">
        <ele>2642.3</ele>
        <time>2018-09-23T09:22:27Z</time>
      </trkpt>
      <trkpt lat="42.81302" lon="-0.2391">
        <ele>2644.7</ele>
        <time>2018-09-23T09:22:41Z</time>
      </trkpt>
      <trkpt lat="42.81301" lon="-0.23918">
        <ele>2645.7</ele>
        <time>2018-09-23T09:22:52Z</time>
      </trkpt>
      <trkpt lat="42.81303" lon="-0.2393">
        <ele>2646.2</ele>
        <time>2018-09-23T09:23:06Z</time>
      </trkpt>
      <trkpt lat="42.81301" lon="-0.23941">
        <ele>2645.7</ele>
        <time>2018-09-23T09:23:19Z</time>
      </trkpt>
      <trkpt lat="42.813" lon="-0.23944">
        <ele>2645.2</ele>
        <time>2018-09-23T09:23:35Z</time>
      </trkpt>
      <trkpt lat="42.81298" lon="-0.23942">
        <ele>2645.7</ele>
        <time>2018-09-23T09:23:57Z</time>
      </trkpt>
      <trkpt lat="42.813" lon="-0.23943">
        <ele>2645.2</ele>
        <time>2018-09-23T09:24:17Z</time>
      </trkpt>
      <trkpt lat="42.81301" lon="-0.23944">
        <ele>2645.7</ele>
        <time>2018-09-23T09:24:35Z</time>
      </trkpt>
      <trkpt lat="42.813" lon="-0.23943">
        <ele>2645.2</ele>
        <time>2018-09-23T09:25:05Z</time>
      </trkpt>
      <trkpt lat="42.81301" lon="-0.23948">
        <ele>2644.7</ele>
        <time>2018-09-23T09:25:25Z</time>
      </trkpt>
      <trkpt lat="42.81302" lon="-0.23949">
        <ele>2644.2</ele>
        <time>2018-09-23T09:25:41Z</time>
      </trkpt>
      <trkpt lat="42.81302" lon="-0.2395">
        <ele>2644.7</ele>
        <time>2018-09-23T09:25:58Z</time>
      </trkpt>
      <trkpt lat="42.81303" lon="-0.23949">
        <ele>2644.2</ele>
        <time>2018-09-23T09:26:24Z</time>
      </trkpt>
      <trkpt lat="42.81306" lon="-0.23949">
        <ele>2644.2</ele>
        <time>2018-09-23T09:26:46Z</time>
      </trkpt>
      <trkpt lat="42.81305" lon="-0.2395">
        <ele>2644.2</ele>
        <time>2018-09-23T09:27:12Z</time>
      </trkpt>
      <trkpt lat="42.81304" lon="-0.23949">
        <ele>2644.7</ele>
        <time>2018-09-23T09:27:46Z</time>
      </trkpt>
      <trkpt lat="42.81306" lon="-0.23951">
        <ele>2645.2</ele>
        <time>2018-09-23T09:28:23Z</time>
      </trkpt>
      <trkpt lat="42.81306" lon="-0.23952">
        <ele>2645.2</ele>
        <time>2018-09-23T09:28:50Z</time>
      </trkpt>
      <trkpt lat="42.81305" lon="-0.2395">
        <ele>2645.7</ele>
        <time>2018-09-23T09:29:16Z</time>
      </trkpt>
      <trkpt lat="42.81305" lon="-0.23949">
        <ele>2646.2</ele>
        <time>2018-09-23T09:29:34Z</time>
      </trkpt>
      <trkpt lat="42.81306" lon="-0.2395">
        <ele>2646.2</ele>
        <time>2018-09-23T09:30:14Z</time>
      </trkpt>
      <trkpt lat="42.81305" lon="-0.23949">
        <ele>2646.2</ele>
        <time>2018-09-23T09:30:47Z</time>
      </trkpt>
      <trkpt lat="42.81305" lon="-0.2395">
        <ele>2646.6</ele>
        <time>2018-09-23T09:31:35Z</time>
      </trkpt>
      <trkpt lat="42.81305" lon="-0.23949">
        <ele>2647.1</ele>
        <time>2018-09-23T09:32:17Z</time>
      </trkpt>
      <trkpt lat="42.81305" lon="-0.23949">
        <ele>2647.1</ele>
        <time>2018-09-23T09:33:02Z</time>
      </trkpt>
      <trkpt lat="42.81304" lon="-0.23949">
        <ele>2647.6</ele>
        <time>2018-09-23T09:33:43Z</time>
      </trkpt>
      <trkpt lat="42.81305" lon="-0.2395">
        <ele>2647.6</ele>
        <time>2018-09-23T09:34:25Z</time>
      </trkpt>
      <trkpt lat="42.81305" lon="-0.23948">
        <ele>2647.6</ele>
        <time>2018-09-23T09:35:16Z</time>
      </trkpt>
      <trkpt lat="42.81305" lon="-0.2395">
        <ele>2648.1</ele>
        <time>2018-09-23T09:35:59Z</time>
      </trkpt>
      <trkpt lat="42.81305" lon="-0.2395">
        <ele>2648.1</ele>
        <time>2018-09-23T09:36:37Z</time>
      </trkpt>
      <trkpt lat="42.81306" lon="-0.2395">
        <ele>2648.6</ele>
        <time>2018-09-23T09:37:19Z</time>
      </trkpt>
      <trkpt lat="42.81304" lon="-0.23949">
        <ele>2648.6</ele>
        <time>2018-09-23T09:38:02Z</time>
      </trkpt>
      <trkpt lat="42.81304" lon="-0.23948">
        <ele>2649.1</ele>
        <time>2018-09-23T09:38:38Z</time>
      </trkpt>
      <trkpt lat="42.81305" lon="-0.23949">
        <ele>2650</ele>
        <time>2018-09-23T09:39:18Z</time>
      </trkpt>
      <trkpt lat="42.81304" lon="-0.23949">
        <ele>2649.5</ele>
        <time>2018-09-23T09:39:54Z</time>
      </trkpt>
      <trkpt lat="42.81304" lon="-0.23949">
        <ele>2649.5</ele>
        <time>2018-09-23T09:40:28Z</time>
      </trkpt>
      <trkpt lat="42.81304" lon="-0.2395">
        <ele>2650.5</ele>
        <time>2018-09-23T09:40:54Z</time>
      </trkpt>
      <trkpt lat="42.81306" lon="-0.2395">
        <ele>2651</ele>
        <time>2018-09-23T09:41:21Z</time>
      </trkpt>
      <trkpt lat="42.81305" lon="-0.23949">
        <ele>2650.5</ele>
        <time>2018-09-23T09:41:36Z</time>
      </trkpt>
      <trkpt lat="42.81305" lon="-0.23946">
        <ele>2651</ele>
        <time>2018-09-23T09:41:53Z</time>
      </trkpt>
      <trkpt lat="42.81303" lon="-0.23948">
        <ele>2651.4</ele>
        <time>2018-09-23T09:42:22Z</time>
      </trkpt>
      <trkpt lat="42.81302" lon="-0.23947">
        <ele>2651</ele>
        <time>2018-09-23T09:42:52Z</time>
      </trkpt>
      <trkpt lat="42.81302" lon="-0.23947">
        <ele>2651.4</ele>
        <time>2018-09-23T09:43:12Z</time>
      </trkpt>
      <trkpt lat="42.81303" lon="-0.23946">
        <ele>2651.4</ele>
        <time>2018-09-23T09:43:33Z</time>
      </trkpt>
      <trkpt lat="42.81304" lon="-0.23946">
        <ele>2651.4</ele>
        <time>2018-09-23T09:43:51Z</time>
      </trkpt>
      <trkpt lat="42.81304" lon="-0.23947">
        <ele>2651.4</ele>
        <time>2018-09-23T09:44:08Z</time>
      </trkpt>
      <trkpt lat="42.81302" lon="-0.23946">
        <ele>2651.4</ele>
        <time>2018-09-23T09:44:31Z</time>
      </trkpt>
      <trkpt lat="42.81302" lon="-0.23947">
        <ele>2651.4</ele>
        <time>2018-09-23T09:44:50Z</time>
      </trkpt>
      <trkpt lat="42.81304" lon="-0.23945">
        <ele>2651.9</ele>
        <time>2018-09-23T09:45:21Z</time>
      </trkpt>
      <trkpt lat="42.81309" lon="-0.23934">
        <ele>2653.4</ele>
        <time>2018-09-23T09:45:35Z</time>
      </trkpt>
      <trkpt lat="42.81313" lon="-0.2393">
        <ele>2653.9</ele>
        <time>2018-09-23T09:45:46Z</time>
      </trkpt>
      <trkpt lat="42.81317" lon="-0.23928">
        <ele>2652.9</ele>
        <time>2018-09-23T09:45:57Z</time>
      </trkpt>
      <trkpt lat="42.81317" lon="-0.23928">
        <ele>2652.9</ele>
        <time>2018-09-23T09:46:16Z</time>
      </trkpt>
      <trkpt lat="42.8132" lon="-0.23927">
        <ele>2652.4</ele>
        <time>2018-09-23T09:46:31Z</time>
      </trkpt>
      <trkpt lat="42.81324" lon="-0.23924">
        <ele>2651.9</ele>
        <time>2018-09-23T09:46:42Z</time>
      </trkpt>
      <trkpt lat="42.81332" lon="-0.23919">
        <ele>2652.9</ele>
        <time>2018-09-23T09:46:54Z</time>
      </trkpt>
      <trkpt lat="42.81336" lon="-0.23918">
        <ele>2655.3</ele>
        <time>2018-09-23T09:47:07Z</time>
      </trkpt>
      <trkpt lat="42.81338" lon="-0.23922">
        <ele>2657.2</ele>
        <time>2018-09-23T09:47:20Z</time>
      </trkpt>
      <trkpt lat="42.8134" lon="-0.23921">
        <ele>2657.2</ele>
        <time>2018-09-23T09:47:40Z</time>
      </trkpt>
      <trkpt lat="42.81345" lon="-0.23923">
        <ele>2658.2</ele>
        <time>2018-09-23T09:47:46Z</time>
      </trkpt>
      <trkpt lat="42.81355" lon="-0.23921">
        <ele>2658.2</ele>
        <time>2018-09-23T09:47:58Z</time>
      </trkpt>
      <trkpt lat="42.81362" lon="-0.23922">
        <ele>2659.6</ele>
        <time>2018-09-23T09:48:10Z</time>
      </trkpt>
      <trkpt lat="42.81363" lon="-0.23922">
        <ele>2660.1</ele>
        <time>2018-09-23T09:48:12Z</time>
      </trkpt>
      <trkpt lat="42.8137" lon="-0.2392">
        <ele>2661.1</ele>
        <time>2018-09-23T09:48:25Z</time>
      </trkpt>
      <trkpt lat="42.8137" lon="-0.23917">
        <ele>2660.6</ele>
        <time>2018-09-23T09:48:36Z</time>
      </trkpt>
      <trkpt lat="42.81379" lon="-0.23919">
        <ele>2662</ele>
        <time>2018-09-23T09:48:48Z</time>
      </trkpt>
      <trkpt lat="42.81382" lon="-0.23919">
        <ele>2663</ele>
        <time>2018-09-23T09:48:52Z</time>
      </trkpt>
      <trkpt lat="42.81391" lon="-0.23921">
        <ele>2664.4</ele>
        <time>2018-09-23T09:49:06Z</time>
      </trkpt>
      <trkpt lat="42.81395" lon="-0.23923">
        <ele>2665.9</ele>
        <time>2018-09-23T09:49:13Z</time>
      </trkpt>
      <trkpt lat="42.81397" lon="-0.23923">
        <ele>2665.9</ele>
        <time>2018-09-23T09:49:15Z</time>
      </trkpt>
      <trkpt lat="42.81408" lon="-0.23928">
        <ele>2668.3</ele>
        <time>2018-09-23T09:49:30Z</time>
      </trkpt>
      <trkpt lat="42.81415" lon="-0.23935">
        <ele>2669.7</ele>
        <time>2018-09-23T09:49:44Z</time>
      </trkpt>
      <trkpt lat="42.81422" lon="-0.23937">
        <ele>2671.2</ele>
        <time>2018-09-23T09:49:57Z</time>
      </trkpt>
      <trkpt lat="42.81426" lon="-0.23935">
        <ele>2672.1</ele>
        <time>2018-09-23T09:50:10Z</time>
      </trkpt>
      <trkpt lat="42.81427" lon="-0.2393">
        <ele>2673.6</ele>
        <time>2018-09-23T09:50:21Z</time>
      </trkpt>
      <trkpt lat="42.81432" lon="-0.23929">
        <ele>2676.4</ele>
        <time>2018-09-23T09:50:36Z</time>
      </trkpt>
      <trkpt lat="42.81436" lon="-0.23933">
        <ele>2678.4</ele>
        <time>2018-09-23T09:50:48Z</time>
      </trkpt>
      <trkpt lat="42.81441" lon="-0.23937">
        <ele>2680.3</ele>
        <time>2018-09-23T09:51:01Z</time>
      </trkpt>
      <trkpt lat="42.81446" lon="-0.23937">
        <ele>2682.7</ele>
        <time>2018-09-23T09:51:14Z</time>
      </trkpt>
      <trkpt lat="42.8145" lon="-0.23936">
        <ele>2684.6</ele>
        <time>2018-09-23T09:51:26Z</time>
      </trkpt>
      <trkpt lat="42.81456" lon="-0.23941">
        <ele>2685.6</ele>
        <time>2018-09-23T09:51:40Z</time>
      </trkpt>
      <trkpt lat="42.81456" lon="-0.23941">
        <ele>2686.1</ele>
        <time>2018-09-23T09:51:41Z</time>
      </trkpt>
      <trkpt lat="42.81461" lon="-0.2394">
        <ele>2688.5</ele>
        <time>2018-09-23T09:51:54Z</time>
      </trkpt>
      <trkpt lat="42.81467" lon="-0.2394">
        <ele>2690.4</ele>
        <time>2018-09-23T09:52:08Z</time>
      </trkpt>
      <trkpt lat="42.81472" lon="-0.2394">
        <ele>2691.8</ele>
        <time>2018-09-23T09:52:20Z</time>
      </trkpt>
      <trkpt lat="42.81477" lon="-0.23944">
        <ele>2693.8</ele>
        <time>2018-09-23T09:52:33Z</time>
      </trkpt>
      <trkpt lat="42.81479" lon="-0.23941">
        <ele>2693.8</ele>
        <time>2018-09-23T09:52:46Z</time>
      </trkpt>
      <trkpt lat="42.81482" lon="-0.23944">
        <ele>2695.2</ele>
        <time>2018-09-23T09:53:01Z</time>
      </trkpt>
      <trkpt lat="42.81485" lon="-0.2394">
        <ele>2695.7</ele>
        <time>2018-09-23T09:53:13Z</time>
      </trkpt>
      <trkpt lat="42.81488" lon="-0.2393">
        <ele>2698.1</ele>
        <time>2018-09-23T09:53:25Z</time>
      </trkpt>
      <trkpt lat="42.81493" lon="-0.23928">
        <ele>2700</ele>
        <time>2018-09-23T09:53:38Z</time>
      </trkpt>
      <trkpt lat="42.81498" lon="-0.23922">
        <ele>2701.4</ele>
        <time>2018-09-23T09:53:51Z</time>
      </trkpt>
      <trkpt lat="42.81502" lon="-0.2392">
        <ele>2704.3</ele>
        <time>2018-09-23T09:54:04Z</time>
      </trkpt>
      <trkpt lat="42.81506" lon="-0.23921">
        <ele>2706.2</ele>
        <time>2018-09-23T09:54:18Z</time>
      </trkpt>
      <trkpt lat="42.81509" lon="-0.23921">
        <ele>2709.6</ele>
        <time>2018-09-23T09:54:30Z</time>
      </trkpt>
      <trkpt lat="42.81512" lon="-0.23922">
        <ele>2711.1</ele>
        <time>2018-09-23T09:54:44Z</time>
      </trkpt>
      <trkpt lat="42.81516" lon="-0.23921">
        <ele>2712.5</ele>
        <time>2018-09-23T09:54:56Z</time>
      </trkpt>
      <trkpt lat="42.81519" lon="-0.23919">
        <ele>2713.5</ele>
        <time>2018-09-23T09:55:13Z</time>
      </trkpt>
      <trkpt lat="42.81524" lon="-0.23918">
        <ele>2714.9</ele>
        <time>2018-09-23T09:55:25Z</time>
      </trkpt>
      <trkpt lat="42.81535" lon="-0.23918">
        <ele>2716.3</ele>
        <time>2018-09-23T09:55:40Z</time>
      </trkpt>
      <trkpt lat="42.81542" lon="-0.23919">
        <ele>2718.8</ele>
        <time>2018-09-23T09:55:53Z</time>
      </trkpt>
      <trkpt lat="42.81549" lon="-0.23919">
        <ele>2721.1</ele>
        <time>2018-09-23T09:56:07Z</time>
      </trkpt>
      <trkpt lat="42.81558" lon="-0.23918">
        <ele>2723.1</ele>
        <time>2018-09-23T09:56:22Z</time>
      </trkpt>
      <trkpt lat="42.8154" lon="-0.2394">
        <ele>2724.5</ele>
        <time>2018-09-23T09:56:37Z</time>
      </trkpt>
      <trkpt lat="42.8155" lon="-0.23937">
        <ele>2726.4</ele>
        <time>2018-09-23T09:56:50Z</time>
      </trkpt>
      <trkpt lat="42.81555" lon="-0.2394">
        <ele>2727.9</ele>
        <time>2018-09-23T09:57:01Z</time>
      </trkpt>
      <trkpt lat="42.81564" lon="-0.23928">
        <ele>2728.4</ele>
        <time>2018-09-23T09:57:17Z</time>
      </trkpt>
      <trkpt lat="42.81573" lon="-0.23919">
        <ele>2728.8</ele>
        <time>2018-09-23T09:57:35Z</time>
      </trkpt>
      <trkpt lat="42.81577" lon="-0.2392">
        <ele>2730.8</ele>
        <time>2018-09-23T09:57:48Z</time>
      </trkpt>
      <trkpt lat="42.81584" lon="-0.23925">
        <ele>2732.2</ele>
        <time>2018-09-23T09:58:01Z</time>
      </trkpt>
      <trkpt lat="42.81591" lon="-0.23927">
        <ele>2734.6</ele>
        <time>2018-09-23T09:58:15Z</time>
      </trkpt>
      <trkpt lat="42.81594" lon="-0.23922">
        <ele>2734.6</ele>
        <time>2018-09-23T09:58:35Z</time>
      </trkpt>
      <trkpt lat="42.81595" lon="-0.23921">
        <ele>2735.1</ele>
        <time>2018-09-23T09:58:56Z</time>
      </trkpt>
      <trkpt lat="42.81595" lon="-0.23922">
        <ele>2734.6</ele>
        <time>2018-09-23T09:59:14Z</time>
      </trkpt>
      <trkpt lat="42.81596" lon="-0.23923">
        <ele>2736.1</ele>
        <time>2018-09-23T09:59:30Z</time>
      </trkpt>
      <trkpt lat="42.81602" lon="-0.23927">
        <ele>2738.4</ele>
        <time>2018-09-23T09:59:44Z</time>
      </trkpt>
      <trkpt lat="42.81602" lon="-0.23928">
        <ele>2737</ele>
        <time>2018-09-23T09:59:50Z</time>
      </trkpt>
      <trkpt lat="42.81601" lon="-0.23928">
        <ele>2738.4</ele>
        <time>2018-09-23T10:00:05Z</time>
      </trkpt>
      <trkpt lat="42.81609" lon="-0.23934">
        <ele>2739.4</ele>
        <time>2018-09-23T10:00:17Z</time>
      </trkpt>
      <trkpt lat="42.81617" lon="-0.23938">
        <ele>2741.8</ele>
        <time>2018-09-23T10:00:31Z</time>
      </trkpt>
      <trkpt lat="42.81625" lon="-0.23937">
        <ele>2743.7</ele>
        <time>2018-09-23T10:00:46Z</time>
      </trkpt>
      <trkpt lat="42.81629" lon="-0.23936">
        <ele>2745.7</ele>
        <time>2018-09-23T10:00:58Z</time>
      </trkpt>
      <trkpt lat="42.81629" lon="-0.23941">
        <ele>2745.7</ele>
        <time>2018-09-23T10:01:18Z</time>
      </trkpt>
      <trkpt lat="42.81634" lon="-0.2394">
        <ele>2746.6</ele>
        <time>2018-09-23T10:01:33Z</time>
      </trkpt>
      <trkpt lat="42.81638" lon="-0.23939">
        <ele>2748.6</ele>
        <time>2018-09-23T10:01:44Z</time>
      </trkpt>
      <trkpt lat="42.81637" lon="-0.23938">
        <ele>2748.6</ele>
        <time>2018-09-23T10:02:04Z</time>
      </trkpt>
      <trkpt lat="42.8164" lon="-0.23944">
        <ele>2751.4</ele>
        <time>2018-09-23T10:02:17Z</time>
      </trkpt>
      <trkpt lat="42.81642" lon="-0.23942">
        <ele>2751.9</ele>
        <time>2018-09-23T10:02:33Z</time>
      </trkpt>
      <trkpt lat="42.81644" lon="-0.23941">
        <ele>2751.9</ele>
        <time>2018-09-23T10:03:01Z</time>
      </trkpt>
      <trkpt lat="42.81647" lon="-0.23939">
        <ele>2753.8</ele>
        <time>2018-09-23T10:03:14Z</time>
      </trkpt>
      <trkpt lat="42.8165" lon="-0.23936">
        <ele>2756.7</ele>
        <time>2018-09-23T10:03:26Z</time>
      </trkpt>
      <trkpt lat="42.81653" lon="-0.23933">
        <ele>2759.6</ele>
        <time>2018-09-23T10:03:37Z</time>
      </trkpt>
      <trkpt lat="42.81655" lon="-0.23929">
        <ele>2760.6</ele>
        <time>2018-09-23T10:03:51Z</time>
      </trkpt>
      <trkpt lat="42.81658" lon="-0.23929">
        <ele>2762.5</ele>
        <time>2018-09-23T10:04:06Z</time>
      </trkpt>
      <trkpt lat="42.81661" lon="-0.23927">
        <ele>2764.4</ele>
        <time>2018-09-23T10:04:18Z</time>
      </trkpt>
      <trkpt lat="42.81662" lon="-0.23926">
        <ele>2766.3</ele>
        <time>2018-09-23T10:04:32Z</time>
      </trkpt>
      <trkpt lat="42.81664" lon="-0.2393">
        <ele>2768.7</ele>
        <time>2018-09-23T10:04:46Z</time>
      </trkpt>
      <trkpt lat="42.81664" lon="-0.2393">
        <ele>2768.7</ele>
        <time>2018-09-23T10:04:47Z</time>
      </trkpt>
      <trkpt lat="42.81666" lon="-0.23931">
        <ele>2770.2</ele>
        <time>2018-09-23T10:05:01Z</time>
      </trkpt>
      <trkpt lat="42.81669" lon="-0.23935">
        <ele>2773.1</ele>
        <time>2018-09-23T10:05:15Z</time>
      </trkpt>
      <trkpt lat="42.81673" lon="-0.23932">
        <ele>2775</ele>
        <time>2018-09-23T10:05:28Z</time>
      </trkpt>
      <trkpt lat="42.81676" lon="-0.23934">
        <ele>2776.9</ele>
        <time>2018-09-23T10:05:41Z</time>
      </trkpt>
      <trkpt lat="42.81681" lon="-0.23935">
        <ele>2779.3</ele>
        <time>2018-09-23T10:05:56Z</time>
      </trkpt>
      <trkpt lat="42.81685" lon="-0.23934">
        <ele>2781.2</ele>
        <time>2018-09-23T10:06:09Z</time>
      </trkpt>
      <trkpt lat="42.81688" lon="-0.23937">
        <ele>2784.1</ele>
        <time>2018-09-23T10:06:24Z</time>
      </trkpt>
      <trkpt lat="42.8169" lon="-0.23933">
        <ele>2785.1</ele>
        <time>2018-09-23T10:06:36Z</time>
      </trkpt>
      <trkpt lat="42.81693" lon="-0.23934">
        <ele>2787</ele>
        <time>2018-09-23T10:06:49Z</time>
      </trkpt>
      <trkpt lat="42.81696" lon="-0.23929">
        <ele>2788</ele>
        <time>2018-09-23T10:07:04Z</time>
      </trkpt>
      <trkpt lat="42.81696" lon="-0.23931">
        <ele>2788</ele>
        <time>2018-09-23T10:07:15Z</time>
      </trkpt>
      <trkpt lat="42.817" lon="-0.23934">
        <ele>2790.4</ele>
        <time>2018-09-23T10:07:27Z</time>
      </trkpt>
      <trkpt lat="42.81705" lon="-0.23935">
        <ele>2792.3</ele>
        <time>2018-09-23T10:07:39Z</time>
      </trkpt>
      <trkpt lat="42.81709" lon="-0.23937">
        <ele>2793.2</ele>
        <time>2018-09-23T10:07:53Z</time>
      </trkpt>
      <trkpt lat="42.81712" lon="-0.23938">
        <ele>2794.7</ele>
        <time>2018-09-23T10:08:06Z</time>
      </trkpt>
      <trkpt lat="42.81716" lon="-0.23938">
        <ele>2796.6</ele>
        <time>2018-09-23T10:08:14Z</time>
      </trkpt>
      <trkpt lat="42.81721" lon="-0.23935">
        <ele>2799.5</ele>
        <time>2018-09-23T10:08:29Z</time>
      </trkpt>
      <trkpt lat="42.81724" lon="-0.23935">
        <ele>2799.5</ele>
        <time>2018-09-23T10:08:41Z</time>
      </trkpt>
      <trkpt lat="42.81729" lon="-0.23933">
        <ele>2802.4</ele>
        <time>2018-09-23T10:08:52Z</time>
      </trkpt>
      <trkpt lat="42.81734" lon="-0.23931">
        <ele>2804.3</ele>
        <time>2018-09-23T10:09:05Z</time>
      </trkpt>
      <trkpt lat="42.81737" lon="-0.23928">
        <ele>2806.2</ele>
        <time>2018-09-23T10:09:21Z</time>
      </trkpt>
      <trkpt lat="42.8174" lon="-0.23929">
        <ele>2808.6</ele>
        <time>2018-09-23T10:09:33Z</time>
      </trkpt>
      <trkpt lat="42.81747" lon="-0.23929">
        <ele>2810.6</ele>
        <time>2018-09-23T10:09:47Z</time>
      </trkpt>
      <trkpt lat="42.81752" lon="-0.23929">
        <ele>2812</ele>
        <time>2018-09-23T10:09:58Z</time>
      </trkpt>
      <trkpt lat="42.81754" lon="-0.23929">
        <ele>2813.4</ele>
        <time>2018-09-23T10:10:09Z</time>
      </trkpt>
      <trkpt lat="42.81756" lon="-0.23927">
        <ele>2813.4</ele>
        <time>2018-09-23T10:10:31Z</time>
      </trkpt>
      <trkpt lat="42.81761" lon="-0.2393">
        <ele>2814.9</ele>
        <time>2018-09-23T10:10:44Z</time>
      </trkpt>
      <trkpt lat="42.81764" lon="-0.23931">
        <ele>2818.2</ele>
        <time>2018-09-23T10:10:53Z</time>
      </trkpt>
      <trkpt lat="42.81769" lon="-0.23933">
        <ele>2820.2</ele>
        <time>2018-09-23T10:11:07Z</time>
      </trkpt>
      <trkpt lat="42.81772" lon="-0.23935">
        <ele>2822.6</ele>
        <time>2018-09-23T10:11:22Z</time>
      </trkpt>
      <trkpt lat="42.81779" lon="-0.23933">
        <ele>2824.5</ele>
        <time>2018-09-23T10:11:36Z</time>
      </trkpt>
      <trkpt lat="42.81782" lon="-0.23935">
        <ele>2826.9</ele>
        <time>2018-09-23T10:11:49Z</time>
      </trkpt>
      <trkpt lat="42.81789" lon="-0.23936">
        <ele>2828.8</ele>
        <time>2018-09-23T10:12:03Z</time>
      </trkpt>
      <trkpt lat="42.81796" lon="-0.23936">
        <ele>2831.7</ele>
        <time>2018-09-23T10:12:16Z</time>
      </trkpt>
      <trkpt lat="42.81802" lon="-0.23938">
        <ele>2832.7</ele>
        <time>2018-09-23T10:12:28Z</time>
      </trkpt>
      <trkpt lat="42.81806" lon="-0.23937">
        <ele>2834.6</ele>
        <time>2018-09-23T10:12:40Z</time>
      </trkpt>
      <trkpt lat="42.81812" lon="-0.2394">
        <ele>2837.5</ele>
        <time>2018-09-23T10:12:55Z</time>
      </trkpt>
      <trkpt lat="42.81818" lon="-0.23939">
        <ele>2838.4</ele>
        <time>2018-09-23T10:13:08Z</time>
      </trkpt>
      <trkpt lat="42.81818" lon="-0.23938">
        <ele>2836.5</ele>
        <time>2018-09-23T10:13:28Z</time>
      </trkpt>
      <trkpt lat="42.81818" lon="-0.23937">
        <ele>2837.5</ele>
        <time>2018-09-23T10:13:47Z</time>
      </trkpt>
      <trkpt lat="42.81818" lon="-0.23937">
        <ele>2837.9</ele>
        <time>2018-09-23T10:14:03Z</time>
      </trkpt>
      <trkpt lat="42.81817" lon="-0.23935">
        <ele>2837.9</ele>
        <time>2018-09-23T10:14:22Z</time>
      </trkpt>
      <trkpt lat="42.81816" lon="-0.23934">
        <ele>2837.5</ele>
        <time>2018-09-23T10:14:52Z</time>
      </trkpt>
      <trkpt lat="42.81816" lon="-0.23934">
        <ele>2838.4</ele>
        <time>2018-09-23T10:15:10Z</time>
      </trkpt>
      <trkpt lat="42.81816" lon="-0.23937">
        <ele>2838.4</ele>
        <time>2018-09-23T10:15:20Z</time>
      </trkpt>
      <trkpt lat="42.81815" lon="-0.23939">
        <ele>2838.9</ele>
        <time>2018-09-23T10:15:31Z</time>
      </trkpt>
      <trkpt lat="42.81815" lon="-0.23938">
        <ele>2838.9</ele>
        <time>2018-09-23T10:15:56Z</time>
      </trkpt>
      <trkpt lat="42.8182" lon="-0.23942">
        <ele>2838.4</ele>
        <time>2018-09-23T10:16:12Z</time>
      </trkpt>
      <trkpt lat="42.81823" lon="-0.23939">
        <ele>2841.8</ele>
        <time>2018-09-23T10:16:20Z</time>
      </trkpt>
      <trkpt lat="42.81826" lon="-0.23937">
        <ele>2842.3</ele>
        <time>2018-09-23T10:16:39Z</time>
      </trkpt>
      <trkpt lat="42.81826" lon="-0.23937">
        <ele>2842.3</ele>
        <time>2018-09-23T10:16:42Z</time>
      </trkpt>
      <trkpt lat="42.81826" lon="-0.2393">
        <ele>2841.8</ele>
        <time>2018-09-23T10:16:57Z</time>
      </trkpt>
      <trkpt lat="42.81826" lon="-0.23931">
        <ele>2842.3</ele>
        <time>2018-09-23T10:17:25Z</time>
      </trkpt>
      <trkpt lat="42.81824" lon="-0.23936">
        <ele>2842.3</ele>
        <time>2018-09-23T10:18:12Z</time>
      </trkpt>
      <trkpt lat="42.81824" lon="-0.2393">
        <ele>2841.3</ele>
        <time>2018-09-23T10:18:29Z</time>
      </trkpt>
      <trkpt lat="42.81824" lon="-0.23929">
        <ele>2842.3</ele>
        <time>2018-09-23T10:18:57Z</time>
      </trkpt>
      <trkpt lat="42.81823" lon="-0.23931">
        <ele>2842.8</ele>
        <time>2018-09-23T10:19:17Z</time>
      </trkpt>
      <trkpt lat="42.81823" lon="-0.23932">
        <ele>2842.3</ele>
        <time>2018-09-23T10:19:44Z</time>
      </trkpt>
      <trkpt lat="42.81823" lon="-0.23932">
        <ele>2842.3</ele>
        <time>2018-09-23T10:20:03Z</time>
      </trkpt>
      <trkpt lat="42.81824" lon="-0.23933">
        <ele>2842.8</ele>
        <time>2018-09-23T10:20:22Z</time>
      </trkpt>
      <trkpt lat="42.81825" lon="-0.23934">
        <ele>2842.8</ele>
        <time>2018-09-23T10:20:53Z</time>
      </trkpt>
      <trkpt lat="42.81825" lon="-0.23933">
        <ele>2843.7</ele>
        <time>2018-09-23T10:21:03Z</time>
      </trkpt>
      <trkpt lat="42.81824" lon="-0.23935">
        <ele>2842.3</ele>
        <time>2018-09-23T10:21:06Z</time>
      </trkpt>
      <trkpt lat="42.81823" lon="-0.23934">
        <ele>2842.8</ele>
        <time>2018-09-23T10:21:23Z</time>
      </trkpt>
      <trkpt lat="42.81824" lon="-0.23935">
        <ele>2842.3</ele>
        <time>2018-09-23T10:21:38Z</time>
      </trkpt>
      <trkpt lat="42.81824" lon="-0.23937">
        <ele>2842.8</ele>
        <time>2018-09-23T10:22:03Z</time>
      </trkpt>
      <trkpt lat="42.81825" lon="-0.23932">
        <ele>2842.8</ele>
        <time>2018-09-23T10:22:22Z</time>
      </trkpt>
      <trkpt lat="42.81823" lon="-0.23932">
        <ele>2842.8</ele>
        <time>2018-09-23T10:22:53Z</time>
      </trkpt>
      <trkpt lat="42.81823" lon="-0.2393">
        <ele>2843.2</ele>
        <time>2018-09-23T10:23:20Z</time>
      </trkpt>
      <trkpt lat="42.81823" lon="-0.23929">
        <ele>2843.2</ele>
        <time>2018-09-23T10:23:43Z</time>
      </trkpt>
      <trkpt lat="42.81822" lon="-0.23928">
        <ele>2842.8</ele>
        <time>2018-09-23T10:24:03Z</time>
      </trkpt>
      <trkpt lat="42.81822" lon="-0.2393">
        <ele>2843.7</ele>
        <time>2018-09-23T10:24:39Z</time>
      </trkpt>
      <trkpt lat="42.81823" lon="-0.23941">
        <ele>2842.3</ele>
        <time>2018-09-23T10:24:57Z</time>
      </trkpt>
      <trkpt lat="42.81822" lon="-0.23944">
        <ele>2842.3</ele>
        <time>2018-09-23T10:25:09Z</time>
      </trkpt>
      <trkpt lat="42.8182" lon="-0.23947">
        <ele>2842.8</ele>
        <time>2018-09-23T10:25:34Z</time>
      </trkpt>
      <trkpt lat="42.8182" lon="-0.23955">
        <ele>2844.7</ele>
        <time>2018-09-23T10:25:46Z</time>
      </trkpt>
      <trkpt lat="42.8182" lon="-0.2396">
        <ele>2846.1</ele>
        <time>2018-09-23T10:25:58Z</time>
      </trkpt>
      <trkpt lat="42.81822" lon="-0.23965">
        <ele>2848.5</ele>
        <time>2018-09-23T10:26:10Z</time>
      </trkpt>
      <trkpt lat="42.8182" lon="-0.2397">
        <ele>2850</ele>
        <time>2018-09-23T10:26:22Z</time>
      </trkpt>
      <trkpt lat="42.81819" lon="-0.23975">
        <ele>2850.9</ele>
        <time>2018-09-23T10:26:34Z</time>
      </trkpt>
      <trkpt lat="42.81821" lon="-0.23978">
        <ele>2852.4</ele>
        <time>2018-09-23T10:26:48Z</time>
      </trkpt>
      <trkpt lat="42.81824" lon="-0.2398">
        <ele>2854.8</ele>
        <time>2018-09-23T10:27:03Z</time>
      </trkpt>
      <trkpt lat="42.81827" lon="-0.23982">
        <ele>2857.2</ele>
        <time>2018-09-23T10:27:17Z</time>
      </trkpt>
      <trkpt lat="42.81828" lon="-0.23985">
        <ele>2858.6</ele>
        <time>2018-09-23T10:27:30Z</time>
      </trkpt>
      <trkpt lat="42.8183" lon="-0.23988">
        <ele>2860.5</ele>
        <time>2018-09-23T10:27:47Z</time>
      </trkpt>
      <trkpt lat="42.8183" lon="-0.23993">
        <ele>2862.5</ele>
        <time>2018-09-23T10:28:01Z</time>
      </trkpt>
      <trkpt lat="42.81831" lon="-0.23997">
        <ele>2863.9</ele>
        <time>2018-09-23T10:28:13Z</time>
      </trkpt>
      <trkpt lat="42.81834" lon="-0.23999">
        <ele>2866.3</ele>
        <time>2018-09-23T10:28:25Z</time>
      </trkpt>
      <trkpt lat="42.81835" lon="-0.24002">
        <ele>2868.2</ele>
        <time>2018-09-23T10:28:38Z</time>
      </trkpt>
      <trkpt lat="42.81838" lon="-0.24001">
        <ele>2869.2</ele>
        <time>2018-09-23T10:28:58Z</time>
      </trkpt>
      <trkpt lat="42.81838" lon="-0.24003">
        <ele>2869.2</ele>
        <time>2018-09-23T10:29:18Z</time>
      </trkpt>
      <trkpt lat="42.81839" lon="-0.24007">
        <ele>2871.6</ele>
        <time>2018-09-23T10:29:31Z</time>
      </trkpt>
      <trkpt lat="42.81841" lon="-0.2401">
        <ele>2874</ele>
        <time>2018-09-23T10:29:47Z</time>
      </trkpt>
      <trkpt lat="42.81842" lon="-0.24011">
        <ele>2874.5</ele>
        <time>2018-09-23T10:30:01Z</time>
      </trkpt>
      <trkpt lat="42.81844" lon="-0.24014">
        <ele>2875.9</ele>
        <time>2018-09-23T10:30:20Z</time>
      </trkpt>
      <trkpt lat="42.81846" lon="-0.24017">
        <ele>2878.3</ele>
        <time>2018-09-23T10:30:33Z</time>
      </trkpt>
      <trkpt lat="42.81848" lon="-0.24023">
        <ele>2881.2</ele>
        <time>2018-09-23T10:30:45Z</time>
      </trkpt>
      <trkpt lat="42.8185" lon="-0.24025">
        <ele>2883.1</ele>
        <time>2018-09-23T10:31:01Z</time>
      </trkpt>
      <trkpt lat="42.81852" lon="-0.24029">
        <ele>2884.6</ele>
        <time>2018-09-23T10:31:13Z</time>
      </trkpt>
      <trkpt lat="42.81853" lon="-0.24033">
        <ele>2886.5</ele>
        <time>2018-09-23T10:31:28Z</time>
      </trkpt>
      <trkpt lat="42.81857" lon="-0.24034">
        <ele>2889.4</ele>
        <time>2018-09-23T10:31:39Z</time>
      </trkpt>
      <trkpt lat="42.81861" lon="-0.24036">
        <ele>2891.3</ele>
        <time>2018-09-23T10:31:54Z</time>
      </trkpt>
      <trkpt lat="42.81862" lon="-0.2404">
        <ele>2893.7</ele>
        <time>2018-09-23T10:32:08Z</time>
      </trkpt>
      <trkpt lat="42.81863" lon="-0.24044">
        <ele>2895.6</ele>
        <time>2018-09-23T10:32:24Z</time>
      </trkpt>
      <trkpt lat="42.81869" lon="-0.24047">
        <ele>2898.5</ele>
        <time>2018-09-23T10:32:40Z</time>
      </trkpt>
      <trkpt lat="42.81872" lon="-0.24049">
        <ele>2900.4</ele>
        <time>2018-09-23T10:32:54Z</time>
      </trkpt>
      <trkpt lat="42.81873" lon="-0.24054">
        <ele>2901.9</ele>
        <time>2018-09-23T10:33:05Z</time>
      </trkpt>
      <trkpt lat="42.81873" lon="-0.24059">
        <ele>2903.3</ele>
        <time>2018-09-23T10:33:16Z</time>
      </trkpt>
      <trkpt lat="42.81873" lon="-0.24057">
        <ele>2903.3</ele>
        <time>2018-09-23T10:33:31Z</time>
      </trkpt>
      <trkpt lat="42.81874" lon="-0.24053">
        <ele>2902.8</ele>
        <time>2018-09-23T10:33:43Z</time>
      </trkpt>
      <trkpt lat="42.81873" lon="-0.24058">
        <ele>2903.8</ele>
        <time>2018-09-23T10:34:02Z</time>
      </trkpt>
      <trkpt lat="42.81871" lon="-0.24063">
        <ele>2903.3</ele>
        <time>2018-09-23T10:34:14Z</time>
      </trkpt>
      <trkpt lat="42.81871" lon="-0.2406">
        <ele>2903.8</ele>
        <time>2018-09-23T10:34:32Z</time>
      </trkpt>
      <trkpt lat="42.81868" lon="-0.2407">
        <ele>2903.8</ele>
        <time>2018-09-23T10:34:47Z</time>
      </trkpt>
      <trkpt lat="42.81864" lon="-0.24078">
        <ele>2903.8</ele>
        <time>2018-09-23T10:34:59Z</time>
      </trkpt>
      <trkpt lat="42.81865" lon="-0.24089">
        <ele>2904.3</ele>
        <time>2018-09-23T10:35:13Z</time>
      </trkpt>
      <trkpt lat="42.81864" lon="-0.24091">
        <ele>2904.3</ele>
        <time>2018-09-23T10:35:32Z</time>
      </trkpt>
      <trkpt lat="42.81866" lon="-0.24092">
        <ele>2903.3</ele>
        <time>2018-09-23T10:35:46Z</time>
      </trkpt>
      <trkpt lat="42.81865" lon="-0.24086">
        <ele>2904.8</ele>
        <time>2018-09-23T10:36:01Z</time>
      </trkpt>
      <trkpt lat="42.81863" lon="-0.24081">
        <ele>2904.8</ele>
        <time>2018-09-23T10:36:17Z</time>
      </trkpt>
      <trkpt lat="42.81862" lon="-0.24083">
        <ele>2905.2</ele>
        <time>2018-09-23T10:36:39Z</time>
      </trkpt>
      <trkpt lat="42.81863" lon="-0.24082">
        <ele>2905.2</ele>
        <time>2018-09-23T10:36:51Z</time>
      </trkpt>
      <trkpt lat="42.81864" lon="-0.24079">
        <ele>2904.3</ele>
        <time>2018-09-23T10:37:06Z</time>
      </trkpt>
      <trkpt lat="42.81868" lon="-0.24072">
        <ele>2904.8</ele>
        <time>2018-09-23T10:37:19Z</time>
      </trkpt>
      <trkpt lat="42.81868" lon="-0.24073">
        <ele>2903.8</ele>
        <time>2018-09-23T10:37:31Z</time>
      </trkpt>
      <trkpt lat="42.81866" lon="-0.24075">
        <ele>2903.3</ele>
        <time>2018-09-23T10:37:42Z</time>
      </trkpt>
      <trkpt lat="42.81866" lon="-0.24075">
        <ele>2907.2</ele>
        <time>2018-09-23T10:37:48Z</time>
      </trkpt>
      <trkpt lat="42.81866" lon="-0.24075">
        <ele>2903.8</ele>
        <time>2018-09-23T10:37:52Z</time>
      </trkpt>
      <trkpt lat="42.81867" lon="-0.24074">
        <ele>2904.3</ele>
        <time>2018-09-23T10:38:08Z</time>
      </trkpt>
      <trkpt lat="42.81867" lon="-0.24072">
        <ele>2904.3</ele>
        <time>2018-09-23T10:38:37Z</time>
      </trkpt>
      <trkpt lat="42.81867" lon="-0.2407">
        <ele>2904.8</ele>
        <time>2018-09-23T10:39:09Z</time>
      </trkpt>
      <trkpt lat="42.81866" lon="-0.24071">
        <ele>2905.2</ele>
        <time>2018-09-23T10:39:36Z</time>
      </trkpt>
      <trkpt lat="42.81866" lon="-0.24071">
        <ele>2904.8</ele>
        <time>2018-09-23T10:40:02Z</time>
      </trkpt>
      <trkpt lat="42.81866" lon="-0.2407">
        <ele>2905.7</ele>
        <time>2018-09-23T10:40:28Z</time>
      </trkpt>
      <trkpt lat="42.81866" lon="-0.24071">
        <ele>2905.2</ele>
        <time>2018-09-23T10:40:51Z</time>
      </trkpt>
      <trkpt lat="42.81867" lon="-0.24072">
        <ele>2905.2</ele>
        <time>2018-09-23T10:41:13Z</time>
      </trkpt>
      <trkpt lat="42.81867" lon="-0.24071">
        <ele>2905.2</ele>
        <time>2018-09-23T10:41:35Z</time>
      </trkpt>
      <trkpt lat="42.81867" lon="-0.24071">
        <ele>2905.7</ele>
        <time>2018-09-23T10:41:54Z</time>
      </trkpt>
      <trkpt lat="42.81867" lon="-0.2407">
        <ele>2906.2</ele>
        <time>2018-09-23T10:42:25Z</time>
      </trkpt>
      <trkpt lat="42.81867" lon="-0.24072">
        <ele>2906.7</ele>
        <time>2018-09-23T10:42:46Z</time>
      </trkpt>
      <trkpt lat="42.81867" lon="-0.24073">
        <ele>2906.2</ele>
        <time>2018-09-23T10:43:12Z</time>
      </trkpt>
      <trkpt lat="42.81867" lon="-0.24073">
        <ele>2906.2</ele>
        <time>2018-09-23T10:43:40Z</time>
      </trkpt>
      <trkpt lat="42.81867" lon="-0.24074">
        <ele>2906.7</ele>
        <time>2018-09-23T10:44:08Z</time>
      </trkpt>
      <trkpt lat="42.81867" lon="-0.24072">
        <ele>2906.2</ele>
        <time>2018-09-23T10:44:38Z</time>
      </trkpt>
      <trkpt lat="42.81867" lon="-0.24074">
        <ele>2906.7</ele>
        <time>2018-09-23T10:44:48Z</time>
      </trkpt>
      <trkpt lat="42.81866" lon="-0.24076">
        <ele>2907.2</ele>
        <time>2018-09-23T10:45:02Z</time>
      </trkpt>
      <trkpt lat="42.81865" lon="-0.24075">
        <ele>2907.2</ele>
        <time>2018-09-23T10:45:09Z</time>
      </trkpt>
      <trkpt lat="42.81864" lon="-0.24083">
        <ele>2907.6</ele>
        <time>2018-09-23T10:45:22Z</time>
      </trkpt>
      <trkpt lat="42.81865" lon="-0.24088">
        <ele>2908.1</ele>
        <time>2018-09-23T10:45:34Z</time>
      </trkpt>
      <trkpt lat="42.81866" lon="-0.24088">
        <ele>2907.2</ele>
        <time>2018-09-23T10:45:49Z</time>
      </trkpt>
      <trkpt lat="42.81865" lon="-0.24088">
        <ele>2907.6</ele>
        <time>2018-09-23T10:46:09Z</time>
      </trkpt>
      <trkpt lat="42.81865" lon="-0.24091">
        <ele>2908.1</ele>
        <time>2018-09-23T10:46:25Z</time>
      </trkpt>
      <trkpt lat="42.81866" lon="-0.24091">
        <ele>2908.1</ele>
        <time>2018-09-23T10:46:45Z</time>
      </trkpt>
      <trkpt lat="42.81866" lon="-0.24092">
        <ele>2907.6</ele>
        <time>2018-09-23T10:46:59Z</time>
      </trkpt>
      <trkpt lat="42.81866" lon="-0.24095">
        <ele>2905.7</ele>
        <time>2018-09-23T10:47:11Z</time>
      </trkpt>
      <trkpt lat="42.81866" lon="-0.24099">
        <ele>2904.8</ele>
        <time>2018-09-23T10:47:24Z</time>
      </trkpt>
      <trkpt lat="42.81866" lon="-0.24103">
        <ele>2902.8</ele>
        <time>2018-09-23T10:47:37Z</time>
      </trkpt>
      <trkpt lat="42.81867" lon="-0.24107">
        <ele>2900.4</ele>
        <time>2018-09-23T10:47:48Z</time>
      </trkpt>
      <trkpt lat="42.81867" lon="-0.24111">
        <ele>2900.9</ele>
        <time>2018-09-23T10:48:01Z</time>
      </trkpt>
      <trkpt lat="42.81868" lon="-0.24111">
        <ele>2900.9</ele>
        <time>2018-09-23T10:48:21Z</time>
      </trkpt>
      <trkpt lat="42.8187" lon="-0.24115">
        <ele>2899</ele>
        <time>2018-09-23T10:48:32Z</time>
      </trkpt>
      <trkpt lat="42.81872" lon="-0.24116">
        <ele>2897.6</ele>
        <time>2018-09-23T10:48:51Z</time>
      </trkpt>
      <trkpt lat="42.81874" lon="-0.24114">
        <ele>2896.1</ele>
        <time>2018-09-23T10:49:04Z</time>
      </trkpt>
      <trkpt lat="42.81873" lon="-0.24115">
        <ele>2896.1</ele>
        <time>2018-09-23T10:49:23Z</time>
      </trkpt>
      <trkpt lat="42.81872" lon="-0.24115">
        <ele>2895.6</ele>
        <time>2018-09-23T10:49:51Z</time>
      </trkpt>
      <trkpt lat="42.81872" lon="-0.24114">
        <ele>2896.6</ele>
        <time>2018-09-23T10:50:16Z</time>
      </trkpt>
      <trkpt lat="42.81873" lon="-0.24116">
        <ele>2896.1</ele>
        <time>2018-09-23T10:50:41Z</time>
      </trkpt>
      <trkpt lat="42.81873" lon="-0.24117">
        <ele>2896.1</ele>
        <time>2018-09-23T10:50:58Z</time>
      </trkpt>
      <trkpt lat="42.81872" lon="-0.24115">
        <ele>2896.1</ele>
        <time>2018-09-23T10:51:20Z</time>
      </trkpt>
      <trkpt lat="42.81872" lon="-0.24114">
        <ele>2896.6</ele>
        <time>2018-09-23T10:51:37Z</time>
      </trkpt>
      <trkpt lat="42.81871" lon="-0.24114">
        <ele>2896.6</ele>
        <time>2018-09-23T10:52:01Z</time>
      </trkpt>
      <trkpt lat="42.81873" lon="-0.24117">
        <ele>2896.1</ele>
        <time>2018-09-23T10:52:16Z</time>
      </trkpt>
      <trkpt lat="42.81875" lon="-0.24117">
        <ele>2895.6</ele>
        <time>2018-09-23T10:52:33Z</time>
      </trkpt>
      <trkpt lat="42.81876" lon="-0.24118">
        <ele>2893.2</ele>
        <time>2018-09-23T10:52:47Z</time>
      </trkpt>
      <trkpt lat="42.81876" lon="-0.24122">
        <ele>2891.8</ele>
        <time>2018-09-23T10:53:04Z</time>
      </trkpt>
      <trkpt lat="42.81875" lon="-0.24126">
        <ele>2889.4</ele>
        <time>2018-09-23T10:53:18Z</time>
      </trkpt>
      <trkpt lat="42.81874" lon="-0.2413">
        <ele>2887.5</ele>
        <time>2018-09-23T10:53:36Z</time>
      </trkpt>
      <trkpt lat="42.81875" lon="-0.24132">
        <ele>2887.9</ele>
        <time>2018-09-23T10:53:55Z</time>
      </trkpt>
      <trkpt lat="42.81876" lon="-0.24133">
        <ele>2886</ele>
        <time>2018-09-23T10:54:09Z</time>
      </trkpt>
      <trkpt lat="42.81876" lon="-0.24133">
        <ele>2885.5</ele>
        <time>2018-09-23T10:54:28Z</time>
      </trkpt>
      <trkpt lat="42.81876" lon="-0.24134">
        <ele>2885.5</ele>
        <time>2018-09-23T10:54:49Z</time>
      </trkpt>
      <trkpt lat="42.8188" lon="-0.24133">
        <ele>2885.5</ele>
        <time>2018-09-23T10:55:08Z</time>
      </trkpt>
      <trkpt lat="42.81876" lon="-0.24135">
        <ele>2885.1</ele>
        <time>2018-09-23T10:55:35Z</time>
      </trkpt>
      <trkpt lat="42.81876" lon="-0.24141">
        <ele>2883.6</ele>
        <time>2018-09-23T10:55:47Z</time>
      </trkpt>
      <trkpt lat="42.81877" lon="-0.2414">
        <ele>2882.6</ele>
        <time>2018-09-23T10:55:57Z</time>
      </trkpt>
      <trkpt lat="42.81878" lon="-0.24141">
        <ele>2881.2</ele>
        <time>2018-09-23T10:56:11Z</time>
      </trkpt>
      <trkpt lat="42.81877" lon="-0.24145">
        <ele>2881.2</ele>
        <time>2018-09-23T10:56:29Z</time>
      </trkpt>
      <trkpt lat="42.81878" lon="-0.24147">
        <ele>2879.8</ele>
        <time>2018-09-23T10:56:42Z</time>
      </trkpt>
      <trkpt lat="42.81878" lon="-0.24146">
        <ele>2880.2</ele>
        <time>2018-09-23T10:57:04Z</time>
      </trkpt>
      <trkpt lat="42.81877" lon="-0.24147">
        <ele>2880.2</ele>
        <time>2018-09-23T10:57:31Z</time>
      </trkpt>
      <trkpt lat="42.81878" lon="-0.24147">
        <ele>2880.2</ele>
        <time>2018-09-23T10:58:02Z</time>
      </trkpt>
      <trkpt lat="42.81878" lon="-0.24149">
        <ele>2879.8</ele>
        <time>2018-09-23T10:58:15Z</time>
      </trkpt>
      <trkpt lat="42.81879" lon="-0.24151">
        <ele>2877.8</ele>
        <time>2018-09-23T10:58:29Z</time>
      </trkpt>
      <trkpt lat="42.81881" lon="-0.24151">
        <ele>2876.4</ele>
        <time>2018-09-23T10:58:37Z</time>
      </trkpt>
      <trkpt lat="42.81882" lon="-0.24153">
        <ele>2875.4</ele>
        <time>2018-09-23T10:58:52Z</time>
      </trkpt>
      <trkpt lat="42.81883" lon="-0.24158">
        <ele>2874</ele>
        <time>2018-09-23T10:59:08Z</time>
      </trkpt>
      <trkpt lat="42.81885" lon="-0.24159">
        <ele>2872.6</ele>
        <time>2018-09-23T10:59:22Z</time>
      </trkpt>
      <trkpt lat="42.81885" lon="-0.24162">
        <ele>2870.6</ele>
        <time>2018-09-23T10:59:36Z</time>
      </trkpt>
      <trkpt lat="42.81887" lon="-0.24165">
        <ele>2869.2</ele>
        <time>2018-09-23T10:59:49Z</time>
      </trkpt>
      <trkpt lat="42.81889" lon="-0.24166">
        <ele>2867.8</ele>
        <time>2018-09-23T11:00:02Z</time>
      </trkpt>
      <trkpt lat="42.81891" lon="-0.24167">
        <ele>2866.8</ele>
        <time>2018-09-23T11:00:15Z</time>
      </trkpt>
      <trkpt lat="42.81891" lon="-0.24168">
        <ele>2866.3</ele>
        <time>2018-09-23T11:00:30Z</time>
      </trkpt>
      <trkpt lat="42.81891" lon="-0.24166">
        <ele>2865.4</ele>
        <time>2018-09-23T11:00:52Z</time>
      </trkpt>
      <trkpt lat="42.81892" lon="-0.24165">
        <ele>2865.8</ele>
        <time>2018-09-23T11:01:15Z</time>
      </trkpt>
      <trkpt lat="42.81891" lon="-0.24167">
        <ele>2865.4</ele>
        <time>2018-09-23T11:01:37Z</time>
      </trkpt>
      <trkpt lat="42.81891" lon="-0.24166">
        <ele>2865.4</ele>
        <time>2018-09-23T11:01:57Z</time>
      </trkpt>
      <trkpt lat="42.81893" lon="-0.24166">
        <ele>2864.9</ele>
        <time>2018-09-23T11:02:11Z</time>
      </trkpt>
      <trkpt lat="42.81895" lon="-0.24166">
        <ele>2862.9</ele>
        <time>2018-09-23T11:02:27Z</time>
      </trkpt>
      <trkpt lat="42.81898" lon="-0.24165">
        <ele>2861.5</ele>
        <time>2018-09-23T11:02:40Z</time>
      </trkpt>
      <trkpt lat="42.819" lon="-0.24166">
        <ele>2859.6</ele>
        <time>2018-09-23T11:02:53Z</time>
      </trkpt>
      <trkpt lat="42.81901" lon="-0.24166">
        <ele>2859.1</ele>
        <time>2018-09-23T11:03:10Z</time>
      </trkpt>
      <trkpt lat="42.81903" lon="-0.24167">
        <ele>2856.7</ele>
        <time>2018-09-23T11:03:23Z</time>
      </trkpt>
      <trkpt lat="42.81904" lon="-0.24166">
        <ele>2857.2</ele>
        <time>2018-09-23T11:03:40Z</time>
      </trkpt>
      <trkpt lat="42.81904" lon="-0.24164">
        <ele>2856.2</ele>
        <time>2018-09-23T11:04:04Z</time>
      </trkpt>
      <trkpt lat="42.81906" lon="-0.24164">
        <ele>2856.2</ele>
        <time>2018-09-23T11:04:20Z</time>
      </trkpt>
      <trkpt lat="42.81909" lon="-0.24164">
        <ele>2854.3</ele>
        <time>2018-09-23T11:04:34Z</time>
      </trkpt>
      <trkpt lat="42.81912" lon="-0.24165">
        <ele>2852.4</ele>
        <time>2018-09-23T11:04:46Z</time>
      </trkpt>
      <trkpt lat="42.81915" lon="-0.24165">
        <ele>2850.4</ele>
        <time>2018-09-23T11:04:54Z</time>
      </trkpt>
      <trkpt lat="42.81915" lon="-0.24164">
        <ele>2850.4</ele>
        <time>2018-09-23T11:05:12Z</time>
      </trkpt>
      <trkpt lat="42.81916" lon="-0.24165">
        <ele>2850</ele>
        <time>2018-09-23T11:05:26Z</time>
      </trkpt>
      <trkpt lat="42.81917" lon="-0.24166">
        <ele>2848</ele>
        <time>2018-09-23T11:05:39Z</time>
      </trkpt>
      <trkpt lat="42.81919" lon="-0.24169">
        <ele>2846.6</ele>
        <time>2018-09-23T11:05:52Z</time>
      </trkpt>
      <trkpt lat="42.81919" lon="-0.24169">
        <ele>2846.6</ele>
        <time>2018-09-23T11:05:53Z</time>
      </trkpt>
      <trkpt lat="42.8192" lon="-0.24169">
        <ele>2847.1</ele>
        <time>2018-09-23T11:06:10Z</time>
      </trkpt>
      <trkpt lat="42.81919" lon="-0.24169">
        <ele>2847.1</ele>
        <time>2018-09-23T11:06:35Z</time>
      </trkpt>
      <trkpt lat="42.81919" lon="-0.2417">
        <ele>2845.2</ele>
        <time>2018-09-23T11:07:02Z</time>
      </trkpt>
      <trkpt lat="42.81921" lon="-0.24175">
        <ele>2844.2</ele>
        <time>2018-09-23T11:07:18Z</time>
      </trkpt>
      <trkpt lat="42.81923" lon="-0.2418">
        <ele>2842.3</ele>
        <time>2018-09-23T11:07:33Z</time>
      </trkpt>
      <trkpt lat="42.81925" lon="-0.24183">
        <ele>2840.8</ele>
        <time>2018-09-23T11:07:46Z</time>
      </trkpt>
      <trkpt lat="42.81926" lon="-0.24184">
        <ele>2839.4</ele>
        <time>2018-09-23T11:07:51Z</time>
      </trkpt>
      <trkpt lat="42.81928" lon="-0.24184">
        <ele>2838.9</ele>
        <time>2018-09-23T11:08:03Z</time>
      </trkpt>
      <trkpt lat="42.81929" lon="-0.24183">
        <ele>2837.5</ele>
        <time>2018-09-23T11:08:14Z</time>
      </trkpt>
      <trkpt lat="42.81932" lon="-0.24184">
        <ele>2835.6</ele>
        <time>2018-09-23T11:08:28Z</time>
      </trkpt>
      <trkpt lat="42.81933" lon="-0.24189">
        <ele>2833.6</ele>
        <time>2018-09-23T11:08:40Z</time>
      </trkpt>
      <trkpt lat="42.81936" lon="-0.24192">
        <ele>2832.2</ele>
        <time>2018-09-23T11:08:51Z</time>
      </trkpt>
      <trkpt lat="42.81938" lon="-0.24192">
        <ele>2830.3</ele>
        <time>2018-09-23T11:09:02Z</time>
      </trkpt>
      <trkpt lat="42.81942" lon="-0.2419">
        <ele>2829.3</ele>
        <time>2018-09-23T11:09:13Z</time>
      </trkpt>
      <trkpt lat="42.81946" lon="-0.2419">
        <ele>2826.9</ele>
        <time>2018-09-23T11:09:27Z</time>
      </trkpt>
      <trkpt lat="42.81949" lon="-0.24192">
        <ele>2825.4</ele>
        <time>2018-09-23T11:09:39Z</time>
      </trkpt>
      <trkpt lat="42.81952" lon="-0.24193">
        <ele>2823.5</ele>
        <time>2018-09-23T11:09:50Z</time>
      </trkpt>
      <trkpt lat="42.81954" lon="-0.24193">
        <ele>2822.1</ele>
        <time>2018-09-23T11:10:02Z</time>
      </trkpt>
      <trkpt lat="42.81959" lon="-0.24195">
        <ele>2820.2</ele>
        <time>2018-09-23T11:10:14Z</time>
      </trkpt>
      <trkpt lat="42.81962" lon="-0.24199">
        <ele>2818.2</ele>
        <time>2018-09-23T11:10:25Z</time>
      </trkpt>
      <trkpt lat="42.81967" lon="-0.24201">
        <ele>2816.8</ele>
        <time>2018-09-23T11:10:38Z</time>
      </trkpt>
      <trkpt lat="42.8197" lon="-0.242">
        <ele>2816.8</ele>
        <time>2018-09-23T11:10:49Z</time>
      </trkpt>
      <trkpt lat="42.81976" lon="-0.24202">
        <ele>2816.3</ele>
        <time>2018-09-23T11:11:01Z</time>
      </trkpt>
      <trkpt lat="42.81976" lon="-0.24202">
        <ele>2816.8</ele>
        <time>2018-09-23T11:11:22Z</time>
      </trkpt>
      <trkpt lat="42.81975" lon="-0.24201">
        <ele>2816.3</ele>
        <time>2018-09-23T11:11:50Z</time>
      </trkpt>
      <trkpt lat="42.81975" lon="-0.24199">
        <ele>2815.8</ele>
        <time>2018-09-23T11:12:05Z</time>
      </trkpt>
      <trkpt lat="42.81974" lon="-0.24196">
        <ele>2815.4</ele>
        <time>2018-09-23T11:12:22Z</time>
      </trkpt>
      <trkpt lat="42.81974" lon="-0.24193">
        <ele>2815.4</ele>
        <time>2018-09-23T11:12:36Z</time>
      </trkpt>
      <trkpt lat="42.81975" lon="-0.24188">
        <ele>2813.9</ele>
        <time>2018-09-23T11:12:50Z</time>
      </trkpt>
      <trkpt lat="42.81974" lon="-0.24189">
        <ele>2813.9</ele>
        <time>2018-09-23T11:13:12Z</time>
      </trkpt>
      <trkpt lat="42.81976" lon="-0.2419">
        <ele>2813.4</ele>
        <time>2018-09-23T11:13:27Z</time>
      </trkpt>
      <trkpt lat="42.81977" lon="-0.2419">
        <ele>2812.5</ele>
        <time>2018-09-23T11:13:58Z</time>
      </trkpt>
      <trkpt lat="42.81977" lon="-0.24189">
        <ele>2812</ele>
        <time>2018-09-23T11:14:15Z</time>
      </trkpt>
      <trkpt lat="42.81979" lon="-0.24189">
        <ele>2811.5</ele>
        <time>2018-09-23T11:14:31Z</time>
      </trkpt>
      <trkpt lat="42.81977" lon="-0.2419">
        <ele>2811</ele>
        <time>2018-09-23T11:14:47Z</time>
      </trkpt>
      <trkpt lat="42.8198" lon="-0.24187">
        <ele>2811.5</ele>
        <time>2018-09-23T11:15:13Z</time>
      </trkpt>
      <trkpt lat="42.8198" lon="-0.24187">
        <ele>2811</ele>
        <time>2018-09-23T11:15:30Z</time>
      </trkpt>
      <trkpt lat="42.81981" lon="-0.24189">
        <ele>2811</ele>
        <time>2018-09-23T11:15:49Z</time>
      </trkpt>
      <trkpt lat="42.8198" lon="-0.24187">
        <ele>2810.6</ele>
        <time>2018-09-23T11:16:16Z</time>
      </trkpt>
      <trkpt lat="42.81978" lon="-0.24187">
        <ele>2811</ele>
        <time>2018-09-23T11:16:36Z</time>
      </trkpt>
      <trkpt lat="42.8198" lon="-0.24187">
        <ele>2810.6</ele>
        <time>2018-09-23T11:17:00Z</time>
      </trkpt>
      <trkpt lat="42.81982" lon="-0.24191">
        <ele>2808.6</ele>
        <time>2018-09-23T11:17:22Z</time>
      </trkpt>
      <trkpt lat="42.81985" lon="-0.24194">
        <ele>2806.2</ele>
        <time>2018-09-23T11:17:36Z</time>
      </trkpt>
      <trkpt lat="42.8199" lon="-0.24197">
        <ele>2803.8</ele>
        <time>2018-09-23T11:17:48Z</time>
      </trkpt>
      <trkpt lat="42.81993" lon="-0.24197">
        <ele>2801.9</ele>
        <time>2018-09-23T11:18:02Z</time>
      </trkpt>
      <trkpt lat="42.81997" lon="-0.24202">
        <ele>2799.5</ele>
        <time>2018-09-23T11:18:15Z</time>
      </trkpt>
      <trkpt lat="42.82" lon="-0.24198">
        <ele>2796.6</ele>
        <time>2018-09-23T11:18:28Z</time>
      </trkpt>
      <trkpt lat="42.82006" lon="-0.24203">
        <ele>2794.7</ele>
        <time>2018-09-23T11:18:43Z</time>
      </trkpt>
      <trkpt lat="42.8201" lon="-0.24205">
        <ele>2791.8</ele>
        <time>2018-09-23T11:18:55Z</time>
      </trkpt>
      <trkpt lat="42.82012" lon="-0.24206">
        <ele>2791.8</ele>
        <time>2018-09-23T11:18:57Z</time>
      </trkpt>
      <trkpt lat="42.82016" lon="-0.24199">
        <ele>2789.4</ele>
        <time>2018-09-23T11:19:09Z</time>
      </trkpt>
      <trkpt lat="42.82018" lon="-0.24187">
        <ele>2786.5</ele>
        <time>2018-09-23T11:19:22Z</time>
      </trkpt>
      <trkpt lat="42.82022" lon="-0.2418">
        <ele>2783.1</ele>
        <time>2018-09-23T11:19:33Z</time>
      </trkpt>
      <trkpt lat="42.82025" lon="-0.24173">
        <ele>2780.8</ele>
        <time>2018-09-23T11:19:46Z</time>
      </trkpt>
      <trkpt lat="42.82025" lon="-0.24169">
        <ele>2780.3</ele>
        <time>2018-09-23T11:19:50Z</time>
      </trkpt>
      <trkpt lat="42.82023" lon="-0.24155">
        <ele>2779.3</ele>
        <time>2018-09-23T11:20:03Z</time>
      </trkpt>
      <trkpt lat="42.82022" lon="-0.24145">
        <ele>2776.9</ele>
        <time>2018-09-23T11:20:16Z</time>
      </trkpt>
      <trkpt lat="42.82021" lon="-0.24142">
        <ele>2775.9</ele>
        <time>2018-09-23T11:20:31Z</time>
      </trkpt>
      <trkpt lat="42.8202" lon="-0.24139">
        <ele>2774.5</ele>
        <time>2018-09-23T11:20:43Z</time>
      </trkpt>
      <trkpt lat="42.82018" lon="-0.24137">
        <ele>2774.5</ele>
        <time>2018-09-23T11:21:01Z</time>
      </trkpt>
      <trkpt lat="42.82018" lon="-0.24138">
        <ele>2774.5</ele>
        <time>2018-09-23T11:21:19Z</time>
      </trkpt>
      <trkpt lat="42.82018" lon="-0.24128">
        <ele>2773.1</ele>
        <time>2018-09-23T11:21:33Z</time>
      </trkpt>
      <trkpt lat="42.8202" lon="-0.2412">
        <ele>2771.6</ele>
        <time>2018-09-23T11:21:46Z</time>
      </trkpt>
      <trkpt lat="42.82018" lon="-0.24113">
        <ele>2769.7</ele>
        <time>2018-09-23T11:21:58Z</time>
      </trkpt>
      <trkpt lat="42.82016" lon="-0.24106">
        <ele>2768.2</ele>
        <time>2018-09-23T11:22:11Z</time>
      </trkpt>
      <trkpt lat="42.82018" lon="-0.24099">
        <ele>2766.8</ele>
        <time>2018-09-23T11:22:26Z</time>
      </trkpt>
      <trkpt lat="42.8202" lon="-0.24098">
        <ele>2764.4</ele>
        <time>2018-09-23T11:22:39Z</time>
      </trkpt>
      <trkpt lat="42.82024" lon="-0.24092">
        <ele>2763.4</ele>
        <time>2018-09-23T11:22:54Z</time>
      </trkpt>
      <trkpt lat="42.82021" lon="-0.24084">
        <ele>2761</ele>
        <time>2018-09-23T11:23:07Z</time>
      </trkpt>
      <trkpt lat="42.82017" lon="-0.24078">
        <ele>2759.6</ele>
        <time>2018-09-23T11:23:20Z</time>
      </trkpt>
      <trkpt lat="42.82016" lon="-0.24075">
        <ele>2757.7</ele>
        <time>2018-09-23T11:23:31Z</time>
      </trkpt>
      <trkpt lat="42.82012" lon="-0.24072">
        <ele>2755.8</ele>
        <time>2018-09-23T11:23:44Z</time>
      </trkpt>
      <trkpt lat="42.8201" lon="-0.24069">
        <ele>2754.3</ele>
        <time>2018-09-23T11:23:55Z</time>
      </trkpt>
      <trkpt lat="42.82009" lon="-0.24065">
        <ele>2753.4</ele>
        <time>2018-09-23T11:24:06Z</time>
      </trkpt>
      <trkpt lat="42.82008" lon="-0.24063">
        <ele>2751.9</ele>
        <time>2018-09-23T11:24:09Z</time>
      </trkpt>
      <trkpt lat="42.82009" lon="-0.24054">
        <ele>2750</ele>
        <time>2018-09-23T11:24:22Z</time>
      </trkpt>
      <trkpt lat="42.82008" lon="-0.24047">
        <ele>2748.6</ele>
        <time>2018-09-23T11:24:33Z</time>
      </trkpt>
      <trkpt lat="42.82008" lon="-0.24043">
        <ele>2746.1</ele>
        <time>2018-09-23T11:24:46Z</time>
      </trkpt>
      <trkpt lat="42.82011" lon="-0.24041">
        <ele>2743.7</ele>
        <time>2018-09-23T11:25:02Z</time>
      </trkpt>
      <trkpt lat="42.8201" lon="-0.24034">
        <ele>2742.3</ele>
        <time>2018-09-23T11:25:15Z</time>
      </trkpt>
      <trkpt lat="42.82008" lon="-0.24032">
        <ele>2740.9</ele>
        <time>2018-09-23T11:25:31Z</time>
      </trkpt>
      <trkpt lat="42.82008" lon="-0.24031">
        <ele>2740.9</ele>
        <time>2018-09-23T11:25:49Z</time>
      </trkpt>
      <trkpt lat="42.8201" lon="-0.24032">
        <ele>2740.9</ele>
        <time>2018-09-23T11:26:03Z</time>
      </trkpt>
      <trkpt lat="42.8201" lon="-0.24032">
        <ele>2740.4</ele>
        <time>2018-09-23T11:26:20Z</time>
      </trkpt>
      <trkpt lat="42.82009" lon="-0.24033">
        <ele>2740.4</ele>
        <time>2018-09-23T11:26:48Z</time>
      </trkpt>
      <trkpt lat="42.82011" lon="-0.2403">
        <ele>2738.4</ele>
        <time>2018-09-23T11:27:03Z</time>
      </trkpt>
      <trkpt lat="42.82009" lon="-0.24025">
        <ele>2738</ele>
        <time>2018-09-23T11:27:16Z</time>
      </trkpt>
      <trkpt lat="42.82009" lon="-0.24021">
        <ele>2736.1</ele>
        <time>2018-09-23T11:27:28Z</time>
      </trkpt>
      <trkpt lat="42.8201" lon="-0.2402">
        <ele>2734.6</ele>
        <time>2018-09-23T11:27:39Z</time>
      </trkpt>
      <trkpt lat="42.82013" lon="-0.24018">
        <ele>2732.7</ele>
        <time>2018-09-23T11:27:53Z</time>
      </trkpt>
      <trkpt lat="42.82014" lon="-0.24011">
        <ele>2729.8</ele>
        <time>2018-09-23T11:28:05Z</time>
      </trkpt>
      <trkpt lat="42.82016" lon="-0.24009">
        <ele>2728.8</ele>
        <time>2018-09-23T11:28:18Z</time>
      </trkpt>
      <trkpt lat="42.82016" lon="-0.24009">
        <ele>2728.4</ele>
        <time>2018-09-23T11:28:19Z</time>
      </trkpt>
      <trkpt lat="42.82018" lon="-0.24003">
        <ele>2725.5</ele>
        <time>2018-09-23T11:28:31Z</time>
      </trkpt>
      <trkpt lat="42.82014" lon="-0.23995">
        <ele>2723.1</ele>
        <time>2018-09-23T11:28:46Z</time>
      </trkpt>
      <trkpt lat="42.82013" lon="-0.23992">
        <ele>2720.2</ele>
        <time>2018-09-23T11:28:59Z</time>
      </trkpt>
      <trkpt lat="42.82015" lon="-0.23986">
        <ele>2718.8</ele>
        <time>2018-09-23T11:29:13Z</time>
      </trkpt>
      <trkpt lat="42.8202" lon="-0.23986">
        <ele>2717.3</ele>
        <time>2018-09-23T11:29:28Z</time>
      </trkpt>
      <trkpt lat="42.82023" lon="-0.23984">
        <ele>2715.9</ele>
        <time>2018-09-23T11:29:39Z</time>
      </trkpt>
      <trkpt lat="42.82025" lon="-0.23985">
        <ele>2713.5</ele>
        <time>2018-09-23T11:29:46Z</time>
      </trkpt>
      <trkpt lat="42.82029" lon="-0.23985">
        <ele>2712</ele>
        <time>2018-09-23T11:29:59Z</time>
      </trkpt>
      <trkpt lat="42.82033" lon="-0.23984">
        <ele>2710.1</ele>
        <time>2018-09-23T11:30:13Z</time>
      </trkpt>
      <trkpt lat="42.82033" lon="-0.2398">
        <ele>2708.6</ele>
        <time>2018-09-23T11:30:24Z</time>
      </trkpt>
      <trkpt lat="42.82035" lon="-0.23979">
        <ele>2706.2</ele>
        <time>2018-09-23T11:30:38Z</time>
      </trkpt>
      <trkpt lat="42.82039" lon="-0.23979">
        <ele>2704.8</ele>
        <time>2018-09-23T11:30:47Z</time>
      </trkpt>
      <trkpt lat="42.82041" lon="-0.23977">
        <ele>2704.8</ele>
        <time>2018-09-23T11:31:01Z</time>
      </trkpt>
      <trkpt lat="42.82046" lon="-0.23972">
        <ele>2702.9</ele>
        <time>2018-09-23T11:31:13Z</time>
      </trkpt>
      <trkpt lat="42.82048" lon="-0.23969">
        <ele>2700</ele>
        <time>2018-09-23T11:31:23Z</time>
      </trkpt>
      <trkpt lat="42.8205" lon="-0.23962">
        <ele>2699</ele>
        <time>2018-09-23T11:31:37Z</time>
      </trkpt>
      <trkpt lat="42.8205" lon="-0.23954">
        <ele>2697.6</ele>
        <time>2018-09-23T11:31:49Z</time>
      </trkpt>
      <trkpt lat="42.8205" lon="-0.23948">
        <ele>2695.7</ele>
        <time>2018-09-23T11:32:00Z</time>
      </trkpt>
      <trkpt lat="42.82053" lon="-0.23939">
        <ele>2695.7</ele>
        <time>2018-09-23T11:32:12Z</time>
      </trkpt>
      <trkpt lat="42.82057" lon="-0.23932">
        <ele>2695.7</ele>
        <time>2018-09-23T11:32:24Z</time>
      </trkpt>
      <trkpt lat="42.82057" lon="-0.23929">
        <ele>2695.7</ele>
        <time>2018-09-23T11:32:27Z</time>
      </trkpt>
      <trkpt lat="42.82057" lon="-0.23927">
        <ele>2695.7</ele>
        <time>2018-09-23T11:32:30Z</time>
      </trkpt>
      <trkpt lat="42.82062" lon="-0.23918">
        <ele>2694.7</ele>
        <time>2018-09-23T11:32:43Z</time>
      </trkpt>
      <trkpt lat="42.8206" lon="-0.23912">
        <ele>2695.2</ele>
        <time>2018-09-23T11:32:56Z</time>
      </trkpt>
      <trkpt lat="42.82055" lon="-0.23912">
        <ele>2695.2</ele>
        <time>2018-09-23T11:33:19Z</time>
      </trkpt>
      <trkpt lat="42.8206" lon="-0.23914">
        <ele>2695.7</ele>
        <time>2018-09-23T11:33:39Z</time>
      </trkpt>
      <trkpt lat="42.82061" lon="-0.23915">
        <ele>2695.2</ele>
        <time>2018-09-23T11:34:01Z</time>
      </trkpt>
      <trkpt lat="42.82061" lon="-0.23913">
        <ele>2695.2</ele>
        <time>2018-09-23T11:34:20Z</time>
      </trkpt>
      <trkpt lat="42.82064" lon="-0.23916">
        <ele>2694.2</ele>
        <time>2018-09-23T11:34:37Z</time>
      </trkpt>
      <trkpt lat="42.82067" lon="-0.23919">
        <ele>2693.3</ele>
        <time>2018-09-23T11:34:53Z</time>
      </trkpt>
      <trkpt lat="42.8207" lon="-0.2391">
        <ele>2691.4</ele>
        <time>2018-09-23T11:35:05Z</time>
      </trkpt>
      <trkpt lat="42.82069" lon="-0.23897">
        <ele>2690.9</ele>
        <time>2018-09-23T11:35:18Z</time>
      </trkpt>
      <trkpt lat="42.8207" lon="-0.23888">
        <ele>2690.4</ele>
        <time>2018-09-23T11:35:29Z</time>
      </trkpt>
      <trkpt lat="42.82072" lon="-0.23878">
        <ele>2687.5</ele>
        <time>2018-09-23T11:35:38Z</time>
      </trkpt>
      <trkpt lat="42.82073" lon="-0.23876">
        <ele>2687.5</ele>
        <time>2018-09-23T11:35:39Z</time>
      </trkpt>
      <trkpt lat="42.82074" lon="-0.23869">
        <ele>2685.1</ele>
        <time>2018-09-23T11:35:49Z</time>
      </trkpt>
      <trkpt lat="42.82075" lon="-0.23865">
        <ele>2683.2</ele>
        <time>2018-09-23T11:35:55Z</time>
      </trkpt>
      <trkpt lat="42.82077" lon="-0.23859">
        <ele>2681.2</ele>
        <time>2018-09-23T11:36:07Z</time>
      </trkpt>
      <trkpt lat="42.82077" lon="-0.23845">
        <ele>2678.9</ele>
        <time>2018-09-23T11:36:21Z</time>
      </trkpt>
      <trkpt lat="42.82077" lon="-0.23841">
        <ele>2677.4</ele>
        <time>2018-09-23T11:36:25Z</time>
      </trkpt>
      <trkpt lat="42.82082" lon="-0.2383">
        <ele>2676.9</ele>
        <time>2018-09-23T11:36:36Z</time>
      </trkpt>
      <trkpt lat="42.82086" lon="-0.2382">
        <ele>2675</ele>
        <time>2018-09-23T11:36:49Z</time>
      </trkpt>
      <trkpt lat="42.82087" lon="-0.2381">
        <ele>2674</ele>
        <time>2018-09-23T11:36:57Z</time>
      </trkpt>
      <trkpt lat="42.82092" lon="-0.23795">
        <ele>2672.6</ele>
        <time>2018-09-23T11:37:11Z</time>
      </trkpt>
      <trkpt lat="42.82096" lon="-0.2379">
        <ele>2672.1</ele>
        <time>2018-09-23T11:37:21Z</time>
      </trkpt>
      <trkpt lat="42.82102" lon="-0.23787">
        <ele>2669.7</ele>
        <time>2018-09-23T11:37:33Z</time>
      </trkpt>
      <trkpt lat="42.82102" lon="-0.23777">
        <ele>2668.3</ele>
        <time>2018-09-23T11:37:47Z</time>
      </trkpt>
      <trkpt lat="42.82106" lon="-0.23773">
        <ele>2664.9</ele>
        <time>2018-09-23T11:38:00Z</time>
      </trkpt>
      <trkpt lat="42.82107" lon="-0.23772">
        <ele>2662.5</ele>
        <time>2018-09-23T11:38:13Z</time>
      </trkpt>
      <trkpt lat="42.82112" lon="-0.23767">
        <ele>2661.6</ele>
        <time>2018-09-23T11:38:26Z</time>
      </trkpt>
      <trkpt lat="42.82117" lon="-0.2376">
        <ele>2658.2</ele>
        <time>2018-09-23T11:38:38Z</time>
      </trkpt>
      <trkpt lat="42.8212" lon="-0.23752">
        <ele>2655.8</ele>
        <time>2018-09-23T11:38:50Z</time>
      </trkpt>
      <trkpt lat="42.8212" lon="-0.2375">
        <ele>2654.3</ele>
        <time>2018-09-23T11:39:05Z</time>
      </trkpt>
      <trkpt lat="42.82121" lon="-0.23747">
        <ele>2654.8</ele>
        <time>2018-09-23T11:39:20Z</time>
      </trkpt>
      <trkpt lat="42.82122" lon="-0.23746">
        <ele>2653.9</ele>
        <time>2018-09-23T11:39:31Z</time>
      </trkpt>
      <trkpt lat="42.82125" lon="-0.23743">
        <ele>2651.9</ele>
        <time>2018-09-23T11:39:45Z</time>
      </trkpt>
      <trkpt lat="42.82126" lon="-0.23736">
        <ele>2649.1</ele>
        <time>2018-09-23T11:39:57Z</time>
      </trkpt>
      <trkpt lat="42.82131" lon="-0.23734">
        <ele>2647.6</ele>
        <time>2018-09-23T11:40:10Z</time>
      </trkpt>
      <trkpt lat="42.82135" lon="-0.2373">
        <ele>2647.1</ele>
        <time>2018-09-23T11:40:22Z</time>
      </trkpt>
      <trkpt lat="42.82132" lon="-0.23731">
        <ele>2647.6</ele>
        <time>2018-09-23T11:40:40Z</time>
      </trkpt>
      <trkpt lat="42.82127" lon="-0.23736">
        <ele>2647.1</ele>
        <time>2018-09-23T11:40:55Z</time>
      </trkpt>
      <trkpt lat="42.82124" lon="-0.23739">
        <ele>2648.6</ele>
        <time>2018-09-23T11:41:03Z</time>
      </trkpt>
      <trkpt lat="42.82124" lon="-0.23743">
        <ele>2651</ele>
        <time>2018-09-23T11:41:14Z</time>
      </trkpt>
      <trkpt lat="42.82124" lon="-0.23743">
        <ele>2651.4</ele>
        <time>2018-09-23T11:41:35Z</time>
      </trkpt>
      <trkpt lat="42.82124" lon="-0.23741">
        <ele>2651</ele>
        <time>2018-09-23T11:41:56Z</time>
      </trkpt>
      <trkpt lat="42.82126" lon="-0.2374">
        <ele>2651</ele>
        <time>2018-09-23T11:42:19Z</time>
      </trkpt>
      <trkpt lat="42.82124" lon="-0.23743">
        <ele>2651</ele>
        <time>2018-09-23T11:42:41Z</time>
      </trkpt>
      <trkpt lat="42.82125" lon="-0.23743">
        <ele>2651.4</ele>
        <time>2018-09-23T11:42:58Z</time>
      </trkpt>
      <trkpt lat="42.82124" lon="-0.23742">
        <ele>2651.4</ele>
        <time>2018-09-23T11:43:35Z</time>
      </trkpt>
      <trkpt lat="42.82126" lon="-0.23742">
        <ele>2651.4</ele>
        <time>2018-09-23T11:44:03Z</time>
      </trkpt>
      <trkpt lat="42.82127" lon="-0.23743">
        <ele>2651</ele>
        <time>2018-09-23T11:44:29Z</time>
      </trkpt>
      <trkpt lat="42.82128" lon="-0.23742">
        <ele>2651.4</ele>
        <time>2018-09-23T11:44:57Z</time>
      </trkpt>
      <trkpt lat="42.82124" lon="-0.23745">
        <ele>2651</ele>
        <time>2018-09-23T11:45:31Z</time>
      </trkpt>
      <trkpt lat="42.82126" lon="-0.23741">
        <ele>2650.5</ele>
        <time>2018-09-23T11:46:02Z</time>
      </trkpt>
      <trkpt lat="42.82129" lon="-0.23745">
        <ele>2650</ele>
        <time>2018-09-23T11:46:29Z</time>
      </trkpt>
      <trkpt lat="42.8213" lon="-0.23749">
        <ele>2650.5</ele>
        <time>2018-09-23T11:47:03Z</time>
      </trkpt>
      <trkpt lat="42.82125" lon="-0.23745">
        <ele>2650</ele>
        <time>2018-09-23T11:47:34Z</time>
      </trkpt>
      <trkpt lat="42.82125" lon="-0.2374">
        <ele>2649.5</ele>
        <time>2018-09-23T11:48:11Z</time>
      </trkpt>
      <trkpt lat="42.82124" lon="-0.23745">
        <ele>2649.5</ele>
        <time>2018-09-23T11:48:45Z</time>
      </trkpt>
      <trkpt lat="42.82125" lon="-0.23743">
        <ele>2649.1</ele>
        <time>2018-09-23T11:49:04Z</time>
      </trkpt>
      <trkpt lat="42.82126" lon="-0.23739">
        <ele>2647.1</ele>
        <time>2018-09-23T11:49:17Z</time>
      </trkpt>
      <trkpt lat="42.82129" lon="-0.23739">
        <ele>2645.7</ele>
        <time>2018-09-23T11:49:29Z</time>
      </trkpt>
      <trkpt lat="42.82133" lon="-0.23735">
        <ele>2646.2</ele>
        <time>2018-09-23T11:49:40Z</time>
      </trkpt>
      <trkpt lat="42.82132" lon="-0.23735">
        <ele>2644.7</ele>
        <time>2018-09-23T11:49:44Z</time>
      </trkpt>
      <trkpt lat="42.82133" lon="-0.23734">
        <ele>2646.6</ele>
        <time>2018-09-23T11:49:56Z</time>
      </trkpt>
      <trkpt lat="42.82136" lon="-0.23731">
        <ele>2645.7</ele>
        <time>2018-09-23T11:50:11Z</time>
      </trkpt>
      <trkpt lat="42.82138" lon="-0.23731">
        <ele>2644.7</ele>
        <time>2018-09-23T11:50:24Z</time>
      </trkpt>
      <trkpt lat="42.82139" lon="-0.23727">
        <ele>2643.3</ele>
        <time>2018-09-23T11:50:36Z</time>
      </trkpt>
      <trkpt lat="42.82141" lon="-0.23725">
        <ele>2641.4</ele>
        <time>2018-09-23T11:50:49Z</time>
      </trkpt>
      <trkpt lat="42.82143" lon="-0.23726">
        <ele>2640.4</ele>
        <time>2018-09-23T11:51:02Z</time>
      </trkpt>
      <trkpt lat="42.82145" lon="-0.23721">
        <ele>2639</ele>
        <time>2018-09-23T11:51:14Z</time>
      </trkpt>
      <trkpt lat="42.82146" lon="-0.2372">
        <ele>2637.5</ele>
        <time>2018-09-23T11:51:19Z</time>
      </trkpt>
      <trkpt lat="42.82148" lon="-0.23715">
        <ele>2636.6</ele>
        <time>2018-09-23T11:51:31Z</time>
      </trkpt>
      <trkpt lat="42.82149" lon="-0.23716">
        <ele>2636.1</ele>
        <time>2018-09-23T11:51:45Z</time>
      </trkpt>
      <trkpt lat="42.82148" lon="-0.23711">
        <ele>2636.1</ele>
        <time>2018-09-23T11:51:59Z</time>
      </trkpt>
      <trkpt lat="42.82152" lon="-0.23712">
        <ele>2635.6</ele>
        <time>2018-09-23T11:52:10Z</time>
      </trkpt>
      <trkpt lat="42.82162" lon="-0.2371">
        <ele>2634.1</ele>
        <time>2018-09-23T11:52:24Z</time>
      </trkpt>
      <trkpt lat="42.8217" lon="-0.23707">
        <ele>2632.2</ele>
        <time>2018-09-23T11:52:38Z</time>
      </trkpt>
      <trkpt lat="42.82172" lon="-0.23702">
        <ele>2631.3</ele>
        <time>2018-09-23T11:52:52Z</time>
      </trkpt>
      <trkpt lat="42.82177" lon="-0.23698">
        <ele>2629.8</ele>
        <time>2018-09-23T11:53:03Z</time>
      </trkpt>
      <trkpt lat="42.82182" lon="-0.23696">
        <ele>2628.9</ele>
        <time>2018-09-23T11:53:13Z</time>
      </trkpt>
      <trkpt lat="42.82189" lon="-0.23692">
        <ele>2626.5</ele>
        <time>2018-09-23T11:53:26Z</time>
      </trkpt>
      <trkpt lat="42.82193" lon="-0.23687">
        <ele>2625</ele>
        <time>2018-09-23T11:53:37Z</time>
      </trkpt>
      <trkpt lat="42.82198" lon="-0.23683">
        <ele>2624.1</ele>
        <time>2018-09-23T11:53:49Z</time>
      </trkpt>
      <trkpt lat="42.82203" lon="-0.23677">
        <ele>2622.6</ele>
        <time>2018-09-23T11:54:02Z</time>
      </trkpt>
      <trkpt lat="42.82206" lon="-0.23671">
        <ele>2622.1</ele>
        <time>2018-09-23T11:54:14Z</time>
      </trkpt>
      <trkpt lat="42.82211" lon="-0.23669">
        <ele>2621.2</ele>
        <time>2018-09-23T11:54:26Z</time>
      </trkpt>
      <trkpt lat="42.82212" lon="-0.23668">
        <ele>2621.2</ele>
        <time>2018-09-23T11:54:30Z</time>
      </trkpt>
      <trkpt lat="42.82217" lon="-0.23665">
        <ele>2621.2</ele>
        <time>2018-09-23T11:54:43Z</time>
      </trkpt>
      <trkpt lat="42.82222" lon="-0.23661">
        <ele>2620.2</ele>
        <time>2018-09-23T11:54:54Z</time>
      </trkpt>
      <trkpt lat="42.82225" lon="-0.23657">
        <ele>2619.2</ele>
        <time>2018-09-23T11:55:09Z</time>
      </trkpt>
      <trkpt lat="42.82224" lon="-0.23655">
        <ele>2619.2</ele>
        <time>2018-09-23T11:55:23Z</time>
      </trkpt>
      <trkpt lat="42.82225" lon="-0.2366">
        <ele>2619.2</ele>
        <time>2018-09-23T11:55:39Z</time>
      </trkpt>
      <trkpt lat="42.82227" lon="-0.23661">
        <ele>2619.7</ele>
        <time>2018-09-23T11:56:01Z</time>
      </trkpt>
      <trkpt lat="42.82228" lon="-0.23662">
        <ele>2619.2</ele>
        <time>2018-09-23T11:56:26Z</time>
      </trkpt>
      <trkpt lat="42.82226" lon="-0.2366">
        <ele>2619.2</ele>
        <time>2018-09-23T11:56:46Z</time>
      </trkpt>
      <trkpt lat="42.8223" lon="-0.23654">
        <ele>2618.8</ele>
        <time>2018-09-23T11:57:01Z</time>
      </trkpt>
      <trkpt lat="42.82231" lon="-0.23654">
        <ele>2617.8</ele>
        <time>2018-09-23T11:57:17Z</time>
      </trkpt>
      <trkpt lat="42.82233" lon="-0.23651">
        <ele>2616.9</ele>
        <time>2018-09-23T11:57:33Z</time>
      </trkpt>
      <trkpt lat="42.82234" lon="-0.23651">
        <ele>2616.9</ele>
        <time>2018-09-23T11:57:46Z</time>
      </trkpt>
      <trkpt lat="42.82236" lon="-0.23653">
        <ele>2616.9</ele>
        <time>2018-09-23T11:57:51Z</time>
      </trkpt>
      <trkpt lat="42.82239" lon="-0.23652">
        <ele>2615.9</ele>
        <time>2018-09-23T11:57:56Z</time>
      </trkpt>
      <trkpt lat="42.82246" lon="-0.23646">
        <ele>2615.9</ele>
        <time>2018-09-23T11:58:08Z</time>
      </trkpt>
      <trkpt lat="42.82251" lon="-0.23636">
        <ele>2615.4</ele>
        <time>2018-09-23T11:58:22Z</time>
      </trkpt>
      <trkpt lat="42.82253" lon="-0.23629">
        <ele>2614.9</ele>
        <time>2018-09-23T11:58:34Z</time>
      </trkpt>
      <trkpt lat="42.82257" lon="-0.23622">
        <ele>2614.4</ele>
        <time>2018-09-23T11:58:45Z</time>
      </trkpt>
      <trkpt lat="42.82261" lon="-0.2361">
        <ele>2614.9</ele>
        <time>2018-09-23T11:58:58Z</time>
      </trkpt>
      <trkpt lat="42.82262" lon="-0.23602">
        <ele>2614.4</ele>
        <time>2018-09-23T11:59:11Z</time>
      </trkpt>
      <trkpt lat="42.82263" lon="-0.23597">
        <ele>2614.4</ele>
        <time>2018-09-23T11:59:17Z</time>
      </trkpt>
      <trkpt lat="42.82264" lon="-0.23594">
        <ele>2614</ele>
        <time>2018-09-23T11:59:20Z</time>
      </trkpt>
      <trkpt lat="42.82268" lon="-0.23585">
        <ele>2614</ele>
        <time>2018-09-23T11:59:31Z</time>
      </trkpt>
      <trkpt lat="42.8227" lon="-0.23577">
        <ele>2613</ele>
        <time>2018-09-23T11:59:42Z</time>
      </trkpt>
      <trkpt lat="42.82273" lon="-0.23573">
        <ele>2612.5</ele>
        <time>2018-09-23T11:59:50Z</time>
      </trkpt>
      <trkpt lat="42.8228" lon="-0.23564">
        <ele>2612.5</ele>
        <time>2018-09-23T12:00:05Z</time>
      </trkpt>
      <trkpt lat="42.82281" lon="-0.2356">
        <ele>2611.1</ele>
        <time>2018-09-23T12:00:16Z</time>
      </trkpt>
      <trkpt lat="42.82282" lon="-0.23553">
        <ele>2609.6</ele>
        <time>2018-09-23T12:00:29Z</time>
      </trkpt>
      <trkpt lat="42.82282" lon="-0.23547">
        <ele>2609.2</ele>
        <time>2018-09-23T12:00:40Z</time>
      </trkpt>
      <trkpt lat="42.82282" lon="-0.23546">
        <ele>2608.7</ele>
        <time>2018-09-23T12:00:55Z</time>
      </trkpt>
      <trkpt lat="42.82283" lon="-0.23546">
        <ele>2608.2</ele>
        <time>2018-09-23T12:01:19Z</time>
      </trkpt>
      <trkpt lat="42.82282" lon="-0.23544">
        <ele>2608.2</ele>
        <time>2018-09-23T12:01:35Z</time>
      </trkpt>
      <trkpt lat="42.82284" lon="-0.23544">
        <ele>2608.7</ele>
        <time>2018-09-23T12:01:37Z</time>
      </trkpt>
      <trkpt lat="42.82288" lon="-0.23533">
        <ele>2606.8</ele>
        <time>2018-09-23T12:01:49Z</time>
      </trkpt>
      <trkpt lat="42.8229" lon="-0.23522">
        <ele>2606.3</ele>
        <time>2018-09-23T12:02:00Z</time>
      </trkpt>
      <trkpt lat="42.82295" lon="-0.2351">
        <ele>2606.3</ele>
        <time>2018-09-23T12:02:14Z</time>
      </trkpt>
      <trkpt lat="42.82296" lon="-0.23511">
        <ele>2606.8</ele>
        <time>2018-09-23T12:02:33Z</time>
      </trkpt>
      <trkpt lat="42.82298" lon="-0.23514">
        <ele>2605.8</ele>
        <time>2018-09-23T12:02:45Z</time>
      </trkpt>
      <trkpt lat="42.82293" lon="-0.23514">
        <ele>2605.8</ele>
        <time>2018-09-23T12:03:00Z</time>
      </trkpt>
      <trkpt lat="42.82298" lon="-0.23513">
        <ele>2605.3</ele>
        <time>2018-09-23T12:03:20Z</time>
      </trkpt>
      <trkpt lat="42.82299" lon="-0.23512">
        <ele>2604.8</ele>
        <time>2018-09-23T12:03:32Z</time>
      </trkpt>
      <trkpt lat="42.82297" lon="-0.23513">
        <ele>2605.8</ele>
        <time>2018-09-23T12:03:44Z</time>
      </trkpt>
      <trkpt lat="42.82298" lon="-0.23516">
        <ele>2604.4</ele>
        <time>2018-09-23T12:03:58Z</time>
      </trkpt>
      <trkpt lat="42.82302" lon="-0.23515">
        <ele>2601.9</ele>
        <time>2018-09-23T12:04:10Z</time>
      </trkpt>
      <trkpt lat="42.82307" lon="-0.2351">
        <ele>2602.4</ele>
        <time>2018-09-23T12:04:21Z</time>
      </trkpt>
      <trkpt lat="42.82312" lon="-0.23501">
        <ele>2601</ele>
        <time>2018-09-23T12:04:32Z</time>
      </trkpt>
      <trkpt lat="42.82312" lon="-0.23489">
        <ele>2599.5</ele>
        <time>2018-09-23T12:04:45Z</time>
      </trkpt>
      <trkpt lat="42.82313" lon="-0.23486">
        <ele>2600</ele>
        <time>2018-09-23T12:04:48Z</time>
      </trkpt>
      <trkpt lat="42.82314" lon="-0.23477">
        <ele>2600</ele>
        <time>2018-09-23T12:05:01Z</time>
      </trkpt>
      <trkpt lat="42.82316" lon="-0.23466">
        <ele>2599.1</ele>
        <time>2018-09-23T12:05:15Z</time>
      </trkpt>
      <trkpt lat="42.82318" lon="-0.23461">
        <ele>2599.1</ele>
        <time>2018-09-23T12:05:27Z</time>
      </trkpt>
      <trkpt lat="42.82319" lon="-0.23464">
        <ele>2600.5</ele>
        <time>2018-09-23T12:05:39Z</time>
      </trkpt>
      <trkpt lat="42.82325" lon="-0.23459">
        <ele>2599.1</ele>
        <time>2018-09-23T12:05:49Z</time>
      </trkpt>
      <trkpt lat="42.82327" lon="-0.23459">
        <ele>2599.5</ele>
        <time>2018-09-23T12:06:02Z</time>
      </trkpt>
      <trkpt lat="42.82327" lon="-0.23458">
        <ele>2599.5</ele>
        <time>2018-09-23T12:06:14Z</time>
      </trkpt>
      <trkpt lat="42.82328" lon="-0.23457">
        <ele>2599.5</ele>
        <time>2018-09-23T12:06:27Z</time>
      </trkpt>
      <trkpt lat="42.82332" lon="-0.23451">
        <ele>2597.6</ele>
        <time>2018-09-23T12:06:41Z</time>
      </trkpt>
      <trkpt lat="42.82333" lon="-0.23441">
        <ele>2596.7</ele>
        <time>2018-09-23T12:06:53Z</time>
      </trkpt>
      <trkpt lat="42.82336" lon="-0.23434">
        <ele>2594.2</ele>
        <time>2018-09-23T12:07:06Z</time>
      </trkpt>
      <trkpt lat="42.82339" lon="-0.23431">
        <ele>2593.3</ele>
        <time>2018-09-23T12:07:18Z</time>
      </trkpt>
      <trkpt lat="42.82342" lon="-0.23426">
        <ele>2592.8</ele>
        <time>2018-09-23T12:07:31Z</time>
      </trkpt>
      <trkpt lat="42.82344" lon="-0.2342">
        <ele>2590.9</ele>
        <time>2018-09-23T12:07:42Z</time>
      </trkpt>
      <trkpt lat="42.82346" lon="-0.23413">
        <ele>2592.3</ele>
        <time>2018-09-23T12:07:55Z</time>
      </trkpt>
      <trkpt lat="42.82344" lon="-0.2341">
        <ele>2592.8</ele>
        <time>2018-09-23T12:08:12Z</time>
      </trkpt>
      <trkpt lat="42.82342" lon="-0.2341">
        <ele>2592.8</ele>
        <time>2018-09-23T12:08:39Z</time>
      </trkpt>
      <trkpt lat="42.82342" lon="-0.2341">
        <ele>2592.3</ele>
        <time>2018-09-23T12:09:03Z</time>
      </trkpt>
      <trkpt lat="42.82345" lon="-0.23402">
        <ele>2591.4</ele>
        <time>2018-09-23T12:09:29Z</time>
      </trkpt>
      <trkpt lat="42.82346" lon="-0.234">
        <ele>2591.4</ele>
        <time>2018-09-23T12:09:32Z</time>
      </trkpt>
      <trkpt lat="42.82353" lon="-0.23397">
        <ele>2590.4</ele>
        <time>2018-09-23T12:09:42Z</time>
      </trkpt>
      <trkpt lat="42.82358" lon="-0.23383">
        <ele>2589.4</ele>
        <time>2018-09-23T12:09:57Z</time>
      </trkpt>
      <trkpt lat="42.82364" lon="-0.23375">
        <ele>2589.9</ele>
        <time>2018-09-23T12:10:08Z</time>
      </trkpt>
      <trkpt lat="42.82371" lon="-0.2336">
        <ele>2589</ele>
        <time>2018-09-23T12:10:24Z</time>
      </trkpt>
      <trkpt lat="42.82377" lon="-0.23352">
        <ele>2588</ele>
        <time>2018-09-23T12:10:36Z</time>
      </trkpt>
      <trkpt lat="42.82381" lon="-0.23343">
        <ele>2587</ele>
        <time>2018-09-23T12:10:48Z</time>
      </trkpt>
      <trkpt lat="42.82385" lon="-0.2334">
        <ele>2587</ele>
        <time>2018-09-23T12:10:57Z</time>
      </trkpt>
      <trkpt lat="42.82385" lon="-0.23334">
        <ele>2586.1</ele>
        <time>2018-09-23T12:11:09Z</time>
      </trkpt>
      <trkpt lat="42.82384" lon="-0.23333">
        <ele>2586.1</ele>
        <time>2018-09-23T12:11:20Z</time>
      </trkpt>
      <trkpt lat="42.82384" lon="-0.23331">
        <ele>2586.1</ele>
        <time>2018-09-23T12:11:39Z</time>
      </trkpt>
      <trkpt lat="42.82383" lon="-0.23326">
        <ele>2585.1</ele>
        <time>2018-09-23T12:11:54Z</time>
      </trkpt>
      <trkpt lat="42.82384" lon="-0.2332">
        <ele>2584.2</ele>
        <time>2018-09-23T12:12:06Z</time>
      </trkpt>
      <trkpt lat="42.82385" lon="-0.23312">
        <ele>2583.2</ele>
        <time>2018-09-23T12:12:17Z</time>
      </trkpt>
      <trkpt lat="42.82391" lon="-0.23305">
        <ele>2582.2</ele>
        <time>2018-09-23T12:12:29Z</time>
      </trkpt>
      <trkpt lat="42.82391" lon="-0.23294">
        <ele>2581.8</ele>
        <time>2018-09-23T12:12:44Z</time>
      </trkpt>
      <trkpt lat="42.82393" lon="-0.23283">
        <ele>2581.3</ele>
        <time>2018-09-23T12:12:56Z</time>
      </trkpt>
      <trkpt lat="42.82397" lon="-0.23272">
        <ele>2579.8</ele>
        <time>2018-09-23T12:13:10Z</time>
      </trkpt>
      <trkpt lat="42.82395" lon="-0.23262">
        <ele>2578.4</ele>
        <time>2018-09-23T12:13:24Z</time>
      </trkpt>
      <trkpt lat="42.82393" lon="-0.23256">
        <ele>2578.4</ele>
        <time>2018-09-23T12:13:37Z</time>
      </trkpt>
      <trkpt lat="42.82388" lon="-0.23254">
        <ele>2578.9</ele>
        <time>2018-09-23T12:13:55Z</time>
      </trkpt>
      <trkpt lat="42.82389" lon="-0.23252">
        <ele>2577.9</ele>
        <time>2018-09-23T12:14:07Z</time>
      </trkpt>
      <trkpt lat="42.82396" lon="-0.23247">
        <ele>2577.4</ele>
        <time>2018-09-23T12:14:17Z</time>
      </trkpt>
      <trkpt lat="42.82402" lon="-0.23237">
        <ele>2576</ele>
        <time>2018-09-23T12:14:30Z</time>
      </trkpt>
      <trkpt lat="42.82404" lon="-0.23234">
        <ele>2574.6</ele>
        <time>2018-09-23T12:14:36Z</time>
      </trkpt>
      <trkpt lat="42.82408" lon="-0.23224">
        <ele>2572.6</ele>
        <time>2018-09-23T12:14:48Z</time>
      </trkpt>
      <trkpt lat="42.82411" lon="-0.2322">
        <ele>2571.2</ele>
        <time>2018-09-23T12:15:00Z</time>
      </trkpt>
      <trkpt lat="42.82415" lon="-0.23211">
        <ele>2568.8</ele>
        <time>2018-09-23T12:15:14Z</time>
      </trkpt>
      <trkpt lat="42.82414" lon="-0.23205">
        <ele>2566.9</ele>
        <time>2018-09-23T12:15:28Z</time>
      </trkpt>
      <trkpt lat="42.82413" lon="-0.23201">
        <ele>2566.4</ele>
        <time>2018-09-23T12:15:44Z</time>
      </trkpt>
      <trkpt lat="42.82412" lon="-0.232">
        <ele>2565.9</ele>
        <time>2018-09-23T12:16:01Z</time>
      </trkpt>
      <trkpt lat="42.82413" lon="-0.232">
        <ele>2565.9</ele>
        <time>2018-09-23T12:16:16Z</time>
      </trkpt>
      <trkpt lat="42.82412" lon="-0.23194">
        <ele>2565.4</ele>
        <time>2018-09-23T12:16:31Z</time>
      </trkpt>
      <trkpt lat="42.82413" lon="-0.23191">
        <ele>2564</ele>
        <time>2018-09-23T12:16:43Z</time>
      </trkpt>
      <trkpt lat="42.82414" lon="-0.23189">
        <ele>2562.5</ele>
        <time>2018-09-23T12:16:55Z</time>
      </trkpt>
      <trkpt lat="42.82418" lon="-0.23189">
        <ele>2560.6</ele>
        <time>2018-09-23T12:17:10Z</time>
      </trkpt>
      <trkpt lat="42.82418" lon="-0.23184">
        <ele>2559.6</ele>
        <time>2018-09-23T12:17:25Z</time>
      </trkpt>
      <trkpt lat="42.82418" lon="-0.23181">
        <ele>2558.7</ele>
        <time>2018-09-23T12:17:39Z</time>
      </trkpt>
      <trkpt lat="42.82415" lon="-0.23176">
        <ele>2556.3</ele>
        <time>2018-09-23T12:17:51Z</time>
      </trkpt>
      <trkpt lat="42.82415" lon="-0.23175">
        <ele>2556.8</ele>
        <time>2018-09-23T12:18:02Z</time>
      </trkpt>
      <trkpt lat="42.82417" lon="-0.23175">
        <ele>2556.3</ele>
        <time>2018-09-23T12:18:18Z</time>
      </trkpt>
      <trkpt lat="42.82415" lon="-0.23172">
        <ele>2555.8</ele>
        <time>2018-09-23T12:18:24Z</time>
      </trkpt>
      <trkpt lat="42.82412" lon="-0.23167">
        <ele>2555.8</ele>
        <time>2018-09-23T12:18:37Z</time>
      </trkpt>
      <trkpt lat="42.82411" lon="-0.23166">
        <ele>2556.8</ele>
        <time>2018-09-23T12:18:58Z</time>
      </trkpt>
      <trkpt lat="42.82412" lon="-0.23172">
        <ele>2557.7</ele>
        <time>2018-09-23T12:19:16Z</time>
      </trkpt>
      <trkpt lat="42.82413" lon="-0.23175">
        <ele>2556.8</ele>
        <time>2018-09-23T12:19:30Z</time>
      </trkpt>
      <trkpt lat="42.82414" lon="-0.23182">
        <ele>2558.7</ele>
        <time>2018-09-23T12:19:42Z</time>
      </trkpt>
      <trkpt lat="42.82416" lon="-0.23186">
        <ele>2559.2</ele>
        <time>2018-09-23T12:19:54Z</time>
      </trkpt>
      <trkpt lat="42.82419" lon="-0.23184">
        <ele>2558.2</ele>
        <time>2018-09-23T12:20:12Z</time>
      </trkpt>
      <trkpt lat="42.82421" lon="-0.23183">
        <ele>2556.8</ele>
        <time>2018-09-23T12:20:28Z</time>
      </trkpt>
      <trkpt lat="42.82421" lon="-0.23184">
        <ele>2556.3</ele>
        <time>2018-09-23T12:20:45Z</time>
      </trkpt>
      <trkpt lat="42.82424" lon="-0.23185">
        <ele>2555.3</ele>
        <time>2018-09-23T12:21:03Z</time>
      </trkpt>
      <trkpt lat="42.82428" lon="-0.23185">
        <ele>2553.9</ele>
        <time>2018-09-23T12:21:16Z</time>
      </trkpt>
      <trkpt lat="42.8243" lon="-0.23183">
        <ele>2554.4</ele>
        <time>2018-09-23T12:21:31Z</time>
      </trkpt>
      <trkpt lat="42.82431" lon="-0.23182">
        <ele>2554.8</ele>
        <time>2018-09-23T12:21:51Z</time>
      </trkpt>
      <trkpt lat="42.8243" lon="-0.23183">
        <ele>2554.4</ele>
        <time>2018-09-23T12:22:05Z</time>
      </trkpt>
      <trkpt lat="42.82429" lon="-0.23183">
        <ele>2554.8</ele>
        <time>2018-09-23T12:22:28Z</time>
      </trkpt>
      <trkpt lat="42.82428" lon="-0.23179">
        <ele>2552.9</ele>
        <time>2018-09-23T12:22:44Z</time>
      </trkpt>
      <trkpt lat="42.82428" lon="-0.23176">
        <ele>2552.9</ele>
        <time>2018-09-23T12:22:57Z</time>
      </trkpt>
      <trkpt lat="42.82427" lon="-0.2317">
        <ele>2551.5</ele>
        <time>2018-09-23T12:23:08Z</time>
      </trkpt>
      <trkpt lat="42.82425" lon="-0.23169">
        <ele>2550</ele>
        <time>2018-09-23T12:23:24Z</time>
      </trkpt>
      <trkpt lat="42.82427" lon="-0.23165">
        <ele>2550</ele>
        <time>2018-09-23T12:23:35Z</time>
      </trkpt>
      <trkpt lat="42.82427" lon="-0.23164">
        <ele>2549.6</ele>
        <time>2018-09-23T12:23:37Z</time>
      </trkpt>
      <trkpt lat="42.82427" lon="-0.2316">
        <ele>2549.1</ele>
        <time>2018-09-23T12:23:50Z</time>
      </trkpt>
      <trkpt lat="42.82428" lon="-0.23154">
        <ele>2548.1</ele>
        <time>2018-09-23T12:24:03Z</time>
      </trkpt>
      <trkpt lat="42.82429" lon="-0.23152">
        <ele>2548.1</ele>
        <time>2018-09-23T12:24:19Z</time>
      </trkpt>
      <trkpt lat="42.82431" lon="-0.2315">
        <ele>2547.6</ele>
        <time>2018-09-23T12:24:31Z</time>
      </trkpt>
      <trkpt lat="42.82432" lon="-0.23139">
        <ele>2547.1</ele>
        <time>2018-09-23T12:24:43Z</time>
      </trkpt>
      <trkpt lat="42.82433" lon="-0.23133">
        <ele>2547.6</ele>
        <time>2018-09-23T12:24:56Z</time>
      </trkpt>
      <trkpt lat="42.82432" lon="-0.23131">
        <ele>2547.1</ele>
        <time>2018-09-23T12:25:00Z</time>
      </trkpt>
      <trkpt lat="42.82432" lon="-0.23127">
        <ele>2546.2</ele>
        <time>2018-09-23T12:25:05Z</time>
      </trkpt>
      <trkpt lat="42.82431" lon="-0.23122">
        <ele>2544.3</ele>
        <time>2018-09-23T12:25:17Z</time>
      </trkpt>
      <trkpt lat="42.82431" lon="-0.23118">
        <ele>2543.8</ele>
        <time>2018-09-23T12:25:31Z</time>
      </trkpt>
      <trkpt lat="42.82427" lon="-0.23112">
        <ele>2540.9</ele>
        <time>2018-09-23T12:25:44Z</time>
      </trkpt>
      <trkpt lat="42.82427" lon="-0.23105">
        <ele>2539</ele>
        <time>2018-09-23T12:25:56Z</time>
      </trkpt>
      <trkpt lat="42.82425" lon="-0.23098">
        <ele>2536.1</ele>
        <time>2018-09-23T12:26:09Z</time>
      </trkpt>
      <trkpt lat="42.82423" lon="-0.23089">
        <ele>2535.6</ele>
        <time>2018-09-23T12:26:22Z</time>
      </trkpt>
      <trkpt lat="42.82425" lon="-0.23086">
        <ele>2534.2</ele>
        <time>2018-09-23T12:26:37Z</time>
      </trkpt>
      <trkpt lat="42.82427" lon="-0.23081">
        <ele>2532.7</ele>
        <time>2018-09-23T12:26:45Z</time>
      </trkpt>
      <trkpt lat="42.8243" lon="-0.23073">
        <ele>2532.7</ele>
        <time>2018-09-23T12:26:56Z</time>
      </trkpt>
      <trkpt lat="42.82433" lon="-0.23065">
        <ele>2531.8</ele>
        <time>2018-09-23T12:27:07Z</time>
      </trkpt>
      <trkpt lat="42.82434" lon="-0.2306">
        <ele>2531.3</ele>
        <time>2018-09-23T12:27:13Z</time>
      </trkpt>
      <trkpt lat="42.82432" lon="-0.23052">
        <ele>2532.7</ele>
        <time>2018-09-23T12:27:24Z</time>
      </trkpt>
      <trkpt lat="42.82433" lon="-0.23053">
        <ele>2532.2</ele>
        <time>2018-09-23T12:27:39Z</time>
      </trkpt>
      <trkpt lat="42.82433" lon="-0.2305">
        <ele>2532.2</ele>
        <time>2018-09-23T12:28:02Z</time>
      </trkpt>
      <trkpt lat="42.82433" lon="-0.23047">
        <ele>2531.3</ele>
        <time>2018-09-23T12:28:13Z</time>
      </trkpt>
      <trkpt lat="42.82435" lon="-0.23041">
        <ele>2530.8</ele>
        <time>2018-09-23T12:28:21Z</time>
      </trkpt>
      <trkpt lat="42.82434" lon="-0.23036">
        <ele>2531.3</ele>
        <time>2018-09-23T12:28:32Z</time>
      </trkpt>
      <trkpt lat="42.82434" lon="-0.23033">
        <ele>2530.8</ele>
        <time>2018-09-23T12:28:34Z</time>
      </trkpt>
      <trkpt lat="42.82434" lon="-0.23022">
        <ele>2531.8</ele>
        <time>2018-09-23T12:28:47Z</time>
      </trkpt>
      <trkpt lat="42.82434" lon="-0.23016">
        <ele>2532.2</ele>
        <time>2018-09-23T12:29:00Z</time>
      </trkpt>
      <trkpt lat="42.82435" lon="-0.23014">
        <ele>2531.3</ele>
        <time>2018-09-23T12:29:20Z</time>
      </trkpt>
      <trkpt lat="42.82438" lon="-0.23012">
        <ele>2529.9</ele>
        <time>2018-09-23T12:29:30Z</time>
      </trkpt>
      <trkpt lat="42.82437" lon="-0.23003">
        <ele>2528.9</ele>
        <time>2018-09-23T12:29:44Z</time>
      </trkpt>
      <trkpt lat="42.82438" lon="-0.22998">
        <ele>2528.4</ele>
        <time>2018-09-23T12:29:55Z</time>
      </trkpt>
      <trkpt lat="42.82439" lon="-0.22995">
        <ele>2528.9</ele>
        <time>2018-09-23T12:30:10Z</time>
      </trkpt>
      <trkpt lat="42.82434" lon="-0.22996">
        <ele>2528.4</ele>
        <time>2018-09-23T12:30:33Z</time>
      </trkpt>
      <trkpt lat="42.82434" lon="-0.22995">
        <ele>2528.9</ele>
        <time>2018-09-23T12:30:36Z</time>
      </trkpt>
      <trkpt lat="42.82433" lon="-0.2299">
        <ele>2529.4</ele>
        <time>2018-09-23T12:30:50Z</time>
      </trkpt>
      <trkpt lat="42.82431" lon="-0.22986">
        <ele>2528.4</ele>
        <time>2018-09-23T12:31:02Z</time>
      </trkpt>
      <trkpt lat="42.82429" lon="-0.22981">
        <ele>2527.9</ele>
        <time>2018-09-23T12:31:15Z</time>
      </trkpt>
      <trkpt lat="42.82428" lon="-0.2298">
        <ele>2528.9</ele>
        <time>2018-09-23T12:31:31Z</time>
      </trkpt>
      <trkpt lat="42.82428" lon="-0.22982">
        <ele>2528.9</ele>
        <time>2018-09-23T12:31:45Z</time>
      </trkpt>
      <trkpt lat="42.82426" lon="-0.22981">
        <ele>2527.9</ele>
        <time>2018-09-23T12:32:04Z</time>
      </trkpt>
      <trkpt lat="42.82427" lon="-0.2298">
        <ele>2528.4</ele>
        <time>2018-09-23T12:32:19Z</time>
      </trkpt>
      <trkpt lat="42.82427" lon="-0.22979">
        <ele>2528.4</ele>
        <time>2018-09-23T12:32:43Z</time>
      </trkpt>
      <trkpt lat="42.82427" lon="-0.2298">
        <ele>2528.4</ele>
        <time>2018-09-23T12:33:04Z</time>
      </trkpt>
      <trkpt lat="42.82426" lon="-0.22979">
        <ele>2527.4</ele>
        <time>2018-09-23T12:33:21Z</time>
      </trkpt>
      <trkpt lat="42.82423" lon="-0.2298">
        <ele>2527.4</ele>
        <time>2018-09-23T12:33:41Z</time>
      </trkpt>
      <trkpt lat="42.82424" lon="-0.22979">
        <ele>2527.4</ele>
        <time>2018-09-23T12:34:02Z</time>
      </trkpt>
      <trkpt lat="42.82423" lon="-0.22978">
        <ele>2527</ele>
        <time>2018-09-23T12:34:32Z</time>
      </trkpt>
      <trkpt lat="42.82423" lon="-0.22976">
        <ele>2526.5</ele>
        <time>2018-09-23T12:34:51Z</time>
      </trkpt>
      <trkpt lat="42.82421" lon="-0.22975">
        <ele>2526.5</ele>
        <time>2018-09-23T12:35:03Z</time>
      </trkpt>
      <trkpt lat="42.82422" lon="-0.22975">
        <ele>2526.5</ele>
        <time>2018-09-23T12:35:30Z</time>
      </trkpt>
      <trkpt lat="42.82423" lon="-0.22976">
        <ele>2527</ele>
        <time>2018-09-23T12:35:51Z</time>
      </trkpt>
      <trkpt lat="42.82421" lon="-0.22972">
        <ele>2525.5</ele>
        <time>2018-09-23T12:36:10Z</time>
      </trkpt>
      <trkpt lat="42.82421" lon="-0.2297">
        <ele>2525.5</ele>
        <time>2018-09-23T12:36:14Z</time>
      </trkpt>
      <trkpt lat="42.8242" lon="-0.22963">
        <ele>2525.5</ele>
        <time>2018-09-23T12:36:24Z</time>
      </trkpt>
      <trkpt lat="42.82418" lon="-0.22962">
        <ele>2525</ele>
        <time>2018-09-23T12:36:37Z</time>
      </trkpt>
      <trkpt lat="42.82419" lon="-0.22959">
        <ele>2526.5</ele>
        <time>2018-09-23T12:36:57Z</time>
      </trkpt>
      <trkpt lat="42.8242" lon="-0.22953">
        <ele>2526</ele>
        <time>2018-09-23T12:37:11Z</time>
      </trkpt>
      <trkpt lat="42.82421" lon="-0.22951">
        <ele>2525</ele>
        <time>2018-09-23T12:37:17Z</time>
      </trkpt>
      <trkpt lat="42.82423" lon="-0.22945">
        <ele>2524.1</ele>
        <time>2018-09-23T12:37:27Z</time>
      </trkpt>
      <trkpt lat="42.82428" lon="-0.22939">
        <ele>2523.6</ele>
        <time>2018-09-23T12:37:37Z</time>
      </trkpt>
      <trkpt lat="42.82435" lon="-0.22941">
        <ele>2523.1</ele>
        <time>2018-09-23T12:37:48Z</time>
      </trkpt>
      <trkpt lat="42.82438" lon="-0.2294">
        <ele>2523.6</ele>
        <time>2018-09-23T12:37:59Z</time>
      </trkpt>
      <trkpt lat="42.82437" lon="-0.22939">
        <ele>2523.6</ele>
        <time>2018-09-23T12:38:18Z</time>
      </trkpt>
      <trkpt lat="42.82438" lon="-0.2294">
        <ele>2524.1</ele>
        <time>2018-09-23T12:38:34Z</time>
      </trkpt>
      <trkpt lat="42.82441" lon="-0.22939">
        <ele>2523.6</ele>
        <time>2018-09-23T12:38:58Z</time>
      </trkpt>
      <trkpt lat="42.82443" lon="-0.22941">
        <ele>2521.7</ele>
        <time>2018-09-23T12:39:07Z</time>
      </trkpt>
      <trkpt lat="42.82447" lon="-0.2294">
        <ele>2520.7</ele>
        <time>2018-09-23T12:39:11Z</time>
      </trkpt>
      <trkpt lat="42.82457" lon="-0.2293">
        <ele>2520.7</ele>
        <time>2018-09-23T12:39:25Z</time>
      </trkpt>
      <trkpt lat="42.82459" lon="-0.22924">
        <ele>2520.2</ele>
        <time>2018-09-23T12:39:36Z</time>
      </trkpt>
      <trkpt lat="42.82462" lon="-0.22918">
        <ele>2519.3</ele>
        <time>2018-09-23T12:39:47Z</time>
      </trkpt>
      <trkpt lat="42.82467" lon="-0.22911">
        <ele>2519.3</ele>
        <time>2018-09-23T12:39:57Z</time>
      </trkpt>
      <trkpt lat="42.82469" lon="-0.22903">
        <ele>2519.3</ele>
        <time>2018-09-23T12:40:08Z</time>
      </trkpt>
      <trkpt lat="42.82471" lon="-0.229">
        <ele>2518.3</ele>
        <time>2018-09-23T12:40:19Z</time>
      </trkpt>
      <trkpt lat="42.82476" lon="-0.22893">
        <ele>2515.9</ele>
        <time>2018-09-23T12:40:31Z</time>
      </trkpt>
      <trkpt lat="42.82479" lon="-0.22882">
        <ele>2515.9</ele>
        <time>2018-09-23T12:40:45Z</time>
      </trkpt>
      <trkpt lat="42.8248" lon="-0.22877">
        <ele>2515.4</ele>
        <time>2018-09-23T12:40:56Z</time>
      </trkpt>
      <trkpt lat="42.82481" lon="-0.22872">
        <ele>2514.5</ele>
        <time>2018-09-23T12:41:03Z</time>
      </trkpt>
      <trkpt lat="42.82483" lon="-0.22855">
        <ele>2514</ele>
        <time>2018-09-23T12:41:16Z</time>
      </trkpt>
      <trkpt lat="42.82484" lon="-0.22849">
        <ele>2514</ele>
        <time>2018-09-23T12:41:21Z</time>
      </trkpt>
      <trkpt lat="42.82485" lon="-0.22847">
        <ele>2513.5</ele>
        <time>2018-09-23T12:41:23Z</time>
      </trkpt>
      <trkpt lat="42.82491" lon="-0.22835">
        <ele>2514.5</ele>
        <time>2018-09-23T12:41:36Z</time>
      </trkpt>
      <trkpt lat="42.82494" lon="-0.22829">
        <ele>2514</ele>
        <time>2018-09-23T12:41:42Z</time>
      </trkpt>
      <trkpt lat="42.82497" lon="-0.22818">
        <ele>2513</ele>
        <time>2018-09-23T12:41:51Z</time>
      </trkpt>
      <trkpt lat="42.82501" lon="-0.22807">
        <ele>2512.5</ele>
        <time>2018-09-23T12:42:05Z</time>
      </trkpt>
      <trkpt lat="42.82501" lon="-0.22805">
        <ele>2512.5</ele>
        <time>2018-09-23T12:42:18Z</time>
      </trkpt>
      <trkpt lat="42.82505" lon="-0.22808">
        <ele>2513.5</ele>
        <time>2018-09-23T12:42:32Z</time>
      </trkpt>
      <trkpt lat="42.82506" lon="-0.2281">
        <ele>2513.5</ele>
        <time>2018-09-23T12:42:43Z</time>
      </trkpt>
      <trkpt lat="42.82508" lon="-0.2281">
        <ele>2514.5</ele>
        <time>2018-09-23T12:42:57Z</time>
      </trkpt>
      <trkpt lat="42.82508" lon="-0.22811">
        <ele>2514.5</ele>
        <time>2018-09-23T12:43:13Z</time>
      </trkpt>
      <trkpt lat="42.82505" lon="-0.22811">
        <ele>2514</ele>
        <time>2018-09-23T12:43:44Z</time>
      </trkpt>
      <trkpt lat="42.82504" lon="-0.22812">
        <ele>2514.5</ele>
        <time>2018-09-23T12:44:12Z</time>
      </trkpt>
      <trkpt lat="42.82505" lon="-0.22811">
        <ele>2514</ele>
        <time>2018-09-23T12:44:17Z</time>
      </trkpt>
      <trkpt lat="42.82506" lon="-0.2281">
        <ele>2517.4</ele>
        <time>2018-09-23T12:44:27Z</time>
      </trkpt>
      <trkpt lat="42.82506" lon="-0.2281">
        <ele>2511.1</ele>
        <time>2018-09-23T12:44:28Z</time>
      </trkpt>
      <trkpt lat="42.82506" lon="-0.2281">
        <ele>2516.9</ele>
        <time>2018-09-23T12:44:29Z</time>
      </trkpt>
      <trkpt lat="42.82505" lon="-0.2281">
        <ele>2503.4</ele>
        <time>2018-09-23T12:44:30Z</time>
      </trkpt>
      <trkpt lat="42.82505" lon="-0.2281">
        <ele>2510.1</ele>
        <time>2018-09-23T12:44:31Z</time>
      </trkpt>
      <trkpt lat="42.82505" lon="-0.2281">
        <ele>2529.4</ele>
        <time>2018-09-23T12:44:32Z</time>
      </trkpt>
      <trkpt lat="42.82504" lon="-0.2281">
        <ele>2513.5</ele>
        <time>2018-09-23T12:44:33Z</time>
      </trkpt>
      <trkpt lat="42.82504" lon="-0.2281">
        <ele>2517.4</ele>
        <time>2018-09-23T12:44:34Z</time>
      </trkpt>
      <trkpt lat="42.82503" lon="-0.2281">
        <ele>2478.9</ele>
        <time>2018-09-23T12:44:35Z</time>
      </trkpt>
      <trkpt lat="42.82531" lon="-0.22807">
        <ele>2465.9</ele>
        <time>2018-09-23T12:46:46Z</time>
      </trkpt>
      <trkpt lat="42.82519" lon="-0.22811">
        <ele>2470.2</ele>
        <time>2018-09-23T12:46:59Z</time>
      </trkpt>
      <trkpt lat="42.82513" lon="-0.22813">
        <ele>2474.6</ele>
        <time>2018-09-23T12:47:01Z</time>
      </trkpt>
      <trkpt lat="42.82513" lon="-0.22813">
        <ele>2477.9</ele>
        <time>2018-09-23T12:47:03Z</time>
      </trkpt>
      <trkpt lat="42.82511" lon="-0.22811">
        <ele>2482.3</ele>
        <time>2018-09-23T12:47:06Z</time>
      </trkpt>
      <trkpt lat="42.82509" lon="-0.2281">
        <ele>2486.1</ele>
        <time>2018-09-23T12:47:09Z</time>
      </trkpt>
      <trkpt lat="42.8251" lon="-0.22811">
        <ele>2489.9</ele>
        <time>2018-09-23T12:47:13Z</time>
      </trkpt>
      <trkpt lat="42.82511" lon="-0.22811">
        <ele>2493.3</ele>
        <time>2018-09-23T12:47:17Z</time>
      </trkpt>
      <trkpt lat="42.8251" lon="-0.22811">
        <ele>2494.3</ele>
        <time>2018-09-23T12:47:19Z</time>
      </trkpt>
      <trkpt lat="42.82511" lon="-0.22811">
        <ele>2498.1</ele>
        <time>2018-09-23T12:47:23Z</time>
      </trkpt>
      <trkpt lat="42.82511" lon="-0.22811">
        <ele>2500.1</ele>
        <time>2018-09-23T12:47:26Z</time>
      </trkpt>
      <trkpt lat="42.82509" lon="-0.22812">
        <ele>2502.9</ele>
        <time>2018-09-23T12:47:33Z</time>
      </trkpt>
      <trkpt lat="42.82508" lon="-0.2281">
        <ele>2506.3</ele>
        <time>2018-09-23T12:47:43Z</time>
      </trkpt>
      <trkpt lat="42.82513" lon="-0.22812">
        <ele>2507.7</ele>
        <time>2018-09-23T12:47:55Z</time>
      </trkpt>
      <trkpt lat="42.82525" lon="-0.22812">
        <ele>2509.2</ele>
        <time>2018-09-23T12:48:06Z</time>
      </trkpt>
      <trkpt lat="42.82533" lon="-0.22805">
        <ele>2510.6</ele>
        <time>2018-09-23T12:48:17Z</time>
      </trkpt>
      <trkpt lat="42.82538" lon="-0.22805">
        <ele>2512.1</ele>
        <time>2018-09-23T12:48:30Z</time>
      </trkpt>
      <trkpt lat="42.82533" lon="-0.22802">
        <ele>2512.1</ele>
        <time>2018-09-23T12:48:59Z</time>
      </trkpt>
      <trkpt lat="42.82536" lon="-0.22796">
        <ele>2511.6</ele>
        <time>2018-09-23T12:49:14Z</time>
      </trkpt>
      <trkpt lat="42.8254" lon="-0.22794">
        <ele>2509.2</ele>
        <time>2018-09-23T12:49:20Z</time>
      </trkpt>
      <trkpt lat="42.82547" lon="-0.22787">
        <ele>2507.3</ele>
        <time>2018-09-23T12:49:31Z</time>
      </trkpt>
      <trkpt lat="42.8255" lon="-0.22781">
        <ele>2505.8</ele>
        <time>2018-09-23T12:49:38Z</time>
      </trkpt>
      <trkpt lat="42.82555" lon="-0.22772">
        <ele>2503.4</ele>
        <time>2018-09-23T12:49:49Z</time>
      </trkpt>
      <trkpt lat="42.82557" lon="-0.22768">
        <ele>2502.9</ele>
        <time>2018-09-23T12:49:59Z</time>
      </trkpt>
      <trkpt lat="42.82559" lon="-0.22765">
        <ele>2501.5</ele>
        <time>2018-09-23T12:50:11Z</time>
      </trkpt>
      <trkpt lat="42.8256" lon="-0.22767">
        <ele>2501</ele>
        <time>2018-09-23T12:50:17Z</time>
      </trkpt>
      <trkpt lat="42.82561" lon="-0.2277">
        <ele>2500.5</ele>
        <time>2018-09-23T12:50:25Z</time>
      </trkpt>
      <trkpt lat="42.8256" lon="-0.22774">
        <ele>2500.5</ele>
        <time>2018-09-23T12:50:28Z</time>
      </trkpt>
      <trkpt lat="42.82562" lon="-0.22777">
        <ele>2500.1</ele>
        <time>2018-09-23T12:50:32Z</time>
      </trkpt>
      <trkpt lat="42.82563" lon="-0.22783">
        <ele>2498.1</ele>
        <time>2018-09-23T12:50:47Z</time>
      </trkpt>
      <trkpt lat="42.82564" lon="-0.22783">
        <ele>2498.1</ele>
        <time>2018-09-23T12:51:05Z</time>
      </trkpt>
      <trkpt lat="42.82564" lon="-0.22783">
        <ele>2497.6</ele>
        <time>2018-09-23T12:51:07Z</time>
      </trkpt>
      <trkpt lat="42.82564" lon="-0.22779">
        <ele>2498.1</ele>
        <time>2018-09-23T12:51:10Z</time>
      </trkpt>
      <trkpt lat="42.82564" lon="-0.22773">
        <ele>2497.6</ele>
        <time>2018-09-23T12:51:14Z</time>
      </trkpt>
      <trkpt lat="42.82562" lon="-0.22758">
        <ele>2499.6</ele>
        <time>2018-09-23T12:51:27Z</time>
      </trkpt>
      <trkpt lat="42.82562" lon="-0.22757">
        <ele>2500.5</ele>
        <time>2018-09-23T12:51:28Z</time>
      </trkpt>
      <trkpt lat="42.82561" lon="-0.22748">
        <ele>2501</ele>
        <time>2018-09-23T12:51:35Z</time>
      </trkpt>
      <trkpt lat="42.82564" lon="-0.22736">
        <ele>2500.5</ele>
        <time>2018-09-23T12:51:44Z</time>
      </trkpt>
      <trkpt lat="42.82564" lon="-0.22732">
        <ele>2499.6</ele>
        <time>2018-09-23T12:51:47Z</time>
      </trkpt>
      <trkpt lat="42.82567" lon="-0.22725">
        <ele>2499.6</ele>
        <time>2018-09-23T12:51:53Z</time>
      </trkpt>
      <trkpt lat="42.82574" lon="-0.22709">
        <ele>2499.6</ele>
        <time>2018-09-23T12:52:06Z</time>
      </trkpt>
      <trkpt lat="42.82584" lon="-0.22697">
        <ele>2501.5</ele>
        <time>2018-09-23T12:52:21Z</time>
      </trkpt>
      <trkpt lat="42.82591" lon="-0.22691">
        <ele>2502.4</ele>
        <time>2018-09-23T12:52:32Z</time>
      </trkpt>
      <trkpt lat="42.82592" lon="-0.22691">
        <ele>2502</ele>
        <time>2018-09-23T12:52:42Z</time>
      </trkpt>
      <trkpt lat="42.82593" lon="-0.22686">
        <ele>2501</ele>
        <time>2018-09-23T12:52:51Z</time>
      </trkpt>
      <trkpt lat="42.82597" lon="-0.22674">
        <ele>2500.1</ele>
        <time>2018-09-23T12:53:03Z</time>
      </trkpt>
      <trkpt lat="42.82601" lon="-0.22673">
        <ele>2499.1</ele>
        <time>2018-09-23T12:53:17Z</time>
      </trkpt>
      <trkpt lat="42.82599" lon="-0.22673">
        <ele>2498.6</ele>
        <time>2018-09-23T12:53:37Z</time>
      </trkpt>
      <trkpt lat="42.826" lon="-0.22665">
        <ele>2498.1</ele>
        <time>2018-09-23T12:53:51Z</time>
      </trkpt>
      <trkpt lat="42.82599" lon="-0.2266">
        <ele>2495.7</ele>
        <time>2018-09-23T12:54:02Z</time>
      </trkpt>
      <trkpt lat="42.82597" lon="-0.22653">
        <ele>2493.8</ele>
        <time>2018-09-23T12:54:13Z</time>
      </trkpt>
      <trkpt lat="42.82598" lon="-0.22651">
        <ele>2492.8</ele>
        <time>2018-09-23T12:54:17Z</time>
      </trkpt>
      <trkpt lat="42.82598" lon="-0.22649">
        <ele>2491.9</ele>
        <time>2018-09-23T12:54:21Z</time>
      </trkpt>
      <trkpt lat="42.82597" lon="-0.22648">
        <ele>2490.9</ele>
        <time>2018-09-23T12:54:24Z</time>
      </trkpt>
      <trkpt lat="42.826" lon="-0.22646">
        <ele>2489.5</ele>
        <time>2018-09-23T12:54:30Z</time>
      </trkpt>
      <trkpt lat="42.82605" lon="-0.22642">
        <ele>2487.6</ele>
        <time>2018-09-23T12:54:40Z</time>
      </trkpt>
      <trkpt lat="42.82607" lon="-0.22643">
        <ele>2487.1</ele>
        <time>2018-09-23T12:54:47Z</time>
      </trkpt>
      <trkpt lat="42.82614" lon="-0.22644">
        <ele>2483.7</ele>
        <time>2018-09-23T12:55:00Z</time>
      </trkpt>
      <trkpt lat="42.82622" lon="-0.22646">
        <ele>2481.8</ele>
        <time>2018-09-23T12:55:12Z</time>
      </trkpt>
      <trkpt lat="42.82627" lon="-0.22644">
        <ele>2479.9</ele>
        <time>2018-09-23T12:55:22Z</time>
      </trkpt>
      <trkpt lat="42.82629" lon="-0.22649">
        <ele>2477</ele>
        <time>2018-09-23T12:55:32Z</time>
      </trkpt>
      <trkpt lat="42.82632" lon="-0.22649">
        <ele>2476</ele>
        <time>2018-09-23T12:55:44Z</time>
      </trkpt>
      <trkpt lat="42.82631" lon="-0.2265">
        <ele>2476</ele>
        <time>2018-09-23T12:56:03Z</time>
      </trkpt>
      <trkpt lat="42.82635" lon="-0.2265">
        <ele>2474.1</ele>
        <time>2018-09-23T12:56:14Z</time>
      </trkpt>
      <trkpt lat="42.82638" lon="-0.22648">
        <ele>2471.7</ele>
        <time>2018-09-23T12:56:26Z</time>
      </trkpt>
      <trkpt lat="42.82643" lon="-0.22643">
        <ele>2469.8</ele>
        <time>2018-09-23T12:56:37Z</time>
      </trkpt>
      <trkpt lat="42.82643" lon="-0.22641">
        <ele>2469.3</ele>
        <time>2018-09-23T12:56:54Z</time>
      </trkpt>
      <trkpt lat="42.82648" lon="-0.22642">
        <ele>2466.4</ele>
        <time>2018-09-23T12:57:07Z</time>
      </trkpt>
      <trkpt lat="42.82654" lon="-0.22641">
        <ele>2466.4</ele>
        <time>2018-09-23T12:57:18Z</time>
      </trkpt>
      <trkpt lat="42.82657" lon="-0.22637">
        <ele>2466.4</ele>
        <time>2018-09-23T12:57:30Z</time>
      </trkpt>
      <trkpt lat="42.82657" lon="-0.22636">
        <ele>2465.4</ele>
        <time>2018-09-23T12:57:31Z</time>
      </trkpt>
      <trkpt lat="42.82663" lon="-0.22631">
        <ele>2464</ele>
        <time>2018-09-23T12:57:45Z</time>
      </trkpt>
      <trkpt lat="42.82667" lon="-0.22629">
        <ele>2462.1</ele>
        <time>2018-09-23T12:57:52Z</time>
      </trkpt>
      <trkpt lat="42.82671" lon="-0.22626">
        <ele>2459.7</ele>
        <time>2018-09-23T12:58:06Z</time>
      </trkpt>
      <trkpt lat="42.82671" lon="-0.22626">
        <ele>2459.7</ele>
        <time>2018-09-23T12:58:25Z</time>
      </trkpt>
      <trkpt lat="42.8267" lon="-0.22626">
        <ele>2459.7</ele>
        <time>2018-09-23T12:58:42Z</time>
      </trkpt>
      <trkpt lat="42.82671" lon="-0.22626">
        <ele>2460.1</ele>
        <time>2018-09-23T12:58:59Z</time>
      </trkpt>
      <trkpt lat="42.82677" lon="-0.22624">
        <ele>2457.8</ele>
        <time>2018-09-23T12:59:12Z</time>
      </trkpt>
      <trkpt lat="42.82684" lon="-0.22617">
        <ele>2454.9</ele>
        <time>2018-09-23T12:59:26Z</time>
      </trkpt>
      <trkpt lat="42.82685" lon="-0.22617">
        <ele>2455.3</ele>
        <time>2018-09-23T12:59:42Z</time>
      </trkpt>
      <trkpt lat="42.82686" lon="-0.22616">
        <ele>2455.8</ele>
        <time>2018-09-23T13:00:01Z</time>
      </trkpt>
      <trkpt lat="42.82686" lon="-0.22623">
        <ele>2453.4</ele>
        <time>2018-09-23T13:00:15Z</time>
      </trkpt>
      <trkpt lat="42.82688" lon="-0.22626">
        <ele>2451.5</ele>
        <time>2018-09-23T13:00:22Z</time>
      </trkpt>
      <trkpt lat="42.82693" lon="-0.22627">
        <ele>2449.1</ele>
        <time>2018-09-23T13:00:35Z</time>
      </trkpt>
      <trkpt lat="42.82693" lon="-0.22634">
        <ele>2447.2</ele>
        <time>2018-09-23T13:00:46Z</time>
      </trkpt>
      <trkpt lat="42.82699" lon="-0.22632">
        <ele>2444.8</ele>
        <time>2018-09-23T13:00:58Z</time>
      </trkpt>
      <trkpt lat="42.82701" lon="-0.22637">
        <ele>2442.9</ele>
        <time>2018-09-23T13:01:07Z</time>
      </trkpt>
      <trkpt lat="42.82702" lon="-0.22638">
        <ele>2440.9</ele>
        <time>2018-09-23T13:01:21Z</time>
      </trkpt>
      <trkpt lat="42.82706" lon="-0.22635">
        <ele>2439.5</ele>
        <time>2018-09-23T13:01:28Z</time>
      </trkpt>
      <trkpt lat="42.82712" lon="-0.22629">
        <ele>2436.6</ele>
        <time>2018-09-23T13:01:40Z</time>
      </trkpt>
      <trkpt lat="42.82716" lon="-0.22629">
        <ele>2434.2</ele>
        <time>2018-09-23T13:01:52Z</time>
      </trkpt>
      <trkpt lat="42.82716" lon="-0.22632">
        <ele>2431.3</ele>
        <time>2018-09-23T13:02:01Z</time>
      </trkpt>
      <trkpt lat="42.82722" lon="-0.22627">
        <ele>2428.4</ele>
        <time>2018-09-23T13:02:14Z</time>
      </trkpt>
      <trkpt lat="42.82724" lon="-0.22632">
        <ele>2425.5</ele>
        <time>2018-09-23T13:02:27Z</time>
      </trkpt>
      <trkpt lat="42.82729" lon="-0.22636">
        <ele>2424.1</ele>
        <time>2018-09-23T13:02:38Z</time>
      </trkpt>
      <trkpt lat="42.82728" lon="-0.22636">
        <ele>2423.6</ele>
        <time>2018-09-23T13:02:59Z</time>
      </trkpt>
      <trkpt lat="42.8273" lon="-0.22631">
        <ele>2421.2</ele>
        <time>2018-09-23T13:03:14Z</time>
      </trkpt>
      <trkpt lat="42.82733" lon="-0.22634">
        <ele>2418.8</ele>
        <time>2018-09-23T13:03:26Z</time>
      </trkpt>
      <trkpt lat="42.82736" lon="-0.2263">
        <ele>2416.9</ele>
        <time>2018-09-23T13:03:36Z</time>
      </trkpt>
      <trkpt lat="42.82741" lon="-0.2263">
        <ele>2414</ele>
        <time>2018-09-23T13:03:47Z</time>
      </trkpt>
      <trkpt lat="42.82742" lon="-0.22628">
        <ele>2411.1</ele>
        <time>2018-09-23T13:03:56Z</time>
      </trkpt>
      <trkpt lat="42.82744" lon="-0.22619">
        <ele>2409.2</ele>
        <time>2018-09-23T13:04:06Z</time>
      </trkpt>
      <trkpt lat="42.82748" lon="-0.22616">
        <ele>2406.8</ele>
        <time>2018-09-23T13:04:13Z</time>
      </trkpt>
      <trkpt lat="42.8275" lon="-0.22612">
        <ele>2405.8</ele>
        <time>2018-09-23T13:04:18Z</time>
      </trkpt>
      <trkpt lat="42.82752" lon="-0.22608">
        <ele>2404.4</ele>
        <time>2018-09-23T13:04:21Z</time>
      </trkpt>
      <trkpt lat="42.8276" lon="-0.22601">
        <ele>2402.9</ele>
        <time>2018-09-23T13:04:32Z</time>
      </trkpt>
      <trkpt lat="42.82762" lon="-0.22594">
        <ele>2402.9</ele>
        <time>2018-09-23T13:04:44Z</time>
      </trkpt>
      <trkpt lat="42.82765" lon="-0.2259">
        <ele>2400.6</ele>
        <time>2018-09-23T13:04:49Z</time>
      </trkpt>
      <trkpt lat="42.82768" lon="-0.22585">
        <ele>2397.7</ele>
        <time>2018-09-23T13:04:59Z</time>
      </trkpt>
      <trkpt lat="42.82773" lon="-0.22583">
        <ele>2394.8</ele>
        <time>2018-09-23T13:05:07Z</time>
      </trkpt>
      <trkpt lat="42.82777" lon="-0.22578">
        <ele>2392.9</ele>
        <time>2018-09-23T13:05:17Z</time>
      </trkpt>
      <trkpt lat="42.82782" lon="-0.22568">
        <ele>2390</ele>
        <time>2018-09-23T13:05:29Z</time>
      </trkpt>
      <trkpt lat="42.82784" lon="-0.2256">
        <ele>2388.1</ele>
        <time>2018-09-23T13:05:40Z</time>
      </trkpt>
      <trkpt lat="42.82783" lon="-0.22555">
        <ele>2388.5</ele>
        <time>2018-09-23T13:05:47Z</time>
      </trkpt>
      <trkpt lat="42.82779" lon="-0.2255">
        <ele>2389</ele>
        <time>2018-09-23T13:06:02Z</time>
      </trkpt>
      <trkpt lat="42.8278" lon="-0.22555">
        <ele>2390</ele>
        <time>2018-09-23T13:06:12Z</time>
      </trkpt>
      <trkpt lat="42.82781" lon="-0.22552">
        <ele>2390</ele>
        <time>2018-09-23T13:06:41Z</time>
      </trkpt>
      <trkpt lat="42.82781" lon="-0.22556">
        <ele>2389.5</ele>
        <time>2018-09-23T13:07:08Z</time>
      </trkpt>
      <trkpt lat="42.82777" lon="-0.22551">
        <ele>2389</ele>
        <time>2018-09-23T13:07:25Z</time>
      </trkpt>
      <trkpt lat="42.8278" lon="-0.22549">
        <ele>2387.1</ele>
        <time>2018-09-23T13:07:37Z</time>
      </trkpt>
      <trkpt lat="42.82781" lon="-0.22547">
        <ele>2385.2</ele>
        <time>2018-09-23T13:07:46Z</time>
      </trkpt>
      <trkpt lat="42.82782" lon="-0.22548">
        <ele>2385.2</ele>
        <time>2018-09-23T13:08:03Z</time>
      </trkpt>
      <trkpt lat="42.82783" lon="-0.22547">
        <ele>2384.7</ele>
        <time>2018-09-23T13:08:18Z</time>
      </trkpt>
      <trkpt lat="42.82782" lon="-0.22548">
        <ele>2384.7</ele>
        <time>2018-09-23T13:08:44Z</time>
      </trkpt>
      <trkpt lat="42.82783" lon="-0.22542">
        <ele>2382.3</ele>
        <time>2018-09-23T13:09:00Z</time>
      </trkpt>
      <trkpt lat="42.82786" lon="-0.22536">
        <ele>2379.4</ele>
        <time>2018-09-23T13:09:13Z</time>
      </trkpt>
      <trkpt lat="42.82786" lon="-0.22536">
        <ele>2379.9</ele>
        <time>2018-09-23T13:09:16Z</time>
      </trkpt>
      <trkpt lat="42.82789" lon="-0.22532">
        <ele>2378.4</ele>
        <time>2018-09-23T13:09:23Z</time>
      </trkpt>
      <trkpt lat="42.82791" lon="-0.22521">
        <ele>2376.5</ele>
        <time>2018-09-23T13:09:38Z</time>
      </trkpt>
      <trkpt lat="42.82791" lon="-0.22511">
        <ele>2374.1</ele>
        <time>2018-09-23T13:09:52Z</time>
      </trkpt>
      <trkpt lat="42.82791" lon="-0.22506">
        <ele>2372.7</ele>
        <time>2018-09-23T13:09:58Z</time>
      </trkpt>
      <trkpt lat="42.82792" lon="-0.22495">
        <ele>2370.8</ele>
        <time>2018-09-23T13:10:10Z</time>
      </trkpt>
      <trkpt lat="42.82795" lon="-0.2249">
        <ele>2370.8</ele>
        <time>2018-09-23T13:10:19Z</time>
      </trkpt>
      <trkpt lat="42.82802" lon="-0.22473">
        <ele>2369.8</ele>
        <time>2018-09-23T13:10:32Z</time>
      </trkpt>
      <trkpt lat="42.82803" lon="-0.2247">
        <ele>2369.3</ele>
        <time>2018-09-23T13:10:34Z</time>
      </trkpt>
      <trkpt lat="42.82802" lon="-0.22466">
        <ele>2369.8</ele>
        <time>2018-09-23T13:10:37Z</time>
      </trkpt>
      <trkpt lat="42.82799" lon="-0.22454">
        <ele>2367.4</ele>
        <time>2018-09-23T13:10:49Z</time>
      </trkpt>
      <trkpt lat="42.828" lon="-0.22438">
        <ele>2366.4</ele>
        <time>2018-09-23T13:11:01Z</time>
      </trkpt>
      <trkpt lat="42.82799" lon="-0.22429">
        <ele>2365</ele>
        <time>2018-09-23T13:11:13Z</time>
      </trkpt>
      <trkpt lat="42.82802" lon="-0.22418">
        <ele>2364.5</ele>
        <time>2018-09-23T13:11:29Z</time>
      </trkpt>
      <trkpt lat="42.82803" lon="-0.22416">
        <ele>2365</ele>
        <time>2018-09-23T13:11:32Z</time>
      </trkpt>
      <trkpt lat="42.82804" lon="-0.22413">
        <ele>2364.5</ele>
        <time>2018-09-23T13:11:34Z</time>
      </trkpt>
      <trkpt lat="42.82804" lon="-0.22397">
        <ele>2365</ele>
        <time>2018-09-23T13:11:49Z</time>
      </trkpt>
      <trkpt lat="42.82804" lon="-0.22396">
        <ele>2365</ele>
        <time>2018-09-23T13:11:51Z</time>
      </trkpt>
      <trkpt lat="42.82801" lon="-0.2238">
        <ele>2365</ele>
        <time>2018-09-23T13:12:05Z</time>
      </trkpt>
      <trkpt lat="42.82799" lon="-0.22368">
        <ele>2363.5</ele>
        <time>2018-09-23T13:12:17Z</time>
      </trkpt>
      <trkpt lat="42.82796" lon="-0.22356">
        <ele>2362.6</ele>
        <time>2018-09-23T13:12:30Z</time>
      </trkpt>
      <trkpt lat="42.82791" lon="-0.22349">
        <ele>2360.2</ele>
        <time>2018-09-23T13:12:41Z</time>
      </trkpt>
      <trkpt lat="42.82791" lon="-0.22335">
        <ele>2358.2</ele>
        <time>2018-09-23T13:12:52Z</time>
      </trkpt>
      <trkpt lat="42.82793" lon="-0.22321">
        <ele>2358.7</ele>
        <time>2018-09-23T13:13:04Z</time>
      </trkpt>
      <trkpt lat="42.82796" lon="-0.22315">
        <ele>2358.2</ele>
        <time>2018-09-23T13:13:16Z</time>
      </trkpt>
      <trkpt lat="42.82801" lon="-0.22311">
        <ele>2357.8</ele>
        <time>2018-09-23T13:13:26Z</time>
      </trkpt>
      <trkpt lat="42.82808" lon="-0.22305">
        <ele>2357.8</ele>
        <time>2018-09-23T13:13:39Z</time>
      </trkpt>
      <trkpt lat="42.82809" lon="-0.22305">
        <ele>2357.8</ele>
        <time>2018-09-23T13:14:04Z</time>
      </trkpt>
      <trkpt lat="42.82815" lon="-0.22302">
        <ele>2357.3</ele>
        <time>2018-09-23T13:14:17Z</time>
      </trkpt>
      <trkpt lat="42.82822" lon="-0.22296">
        <ele>2354.9</ele>
        <time>2018-09-23T13:14:29Z</time>
      </trkpt>
      <trkpt lat="42.82825" lon="-0.2229">
        <ele>2355.9</ele>
        <time>2018-09-23T13:14:42Z</time>
      </trkpt>
      <trkpt lat="42.82828" lon="-0.22281">
        <ele>2356.3</ele>
        <time>2018-09-23T13:14:55Z</time>
      </trkpt>
      <trkpt lat="42.82828" lon="-0.22277">
        <ele>2355.4</ele>
        <time>2018-09-23T13:15:03Z</time>
      </trkpt>
      <trkpt lat="42.82824" lon="-0.22267">
        <ele>2354.9</ele>
        <time>2018-09-23T13:15:11Z</time>
      </trkpt>
      <trkpt lat="42.82823" lon="-0.22262">
        <ele>2354.4</ele>
        <time>2018-09-23T13:15:15Z</time>
      </trkpt>
      <trkpt lat="42.8282" lon="-0.22244">
        <ele>2351.5</ele>
        <time>2018-09-23T13:15:29Z</time>
      </trkpt>
      <trkpt lat="42.82819" lon="-0.22242">
        <ele>2350.6</ele>
        <time>2018-09-23T13:15:31Z</time>
      </trkpt>
      <trkpt lat="42.82815" lon="-0.22237">
        <ele>2348.6</ele>
        <time>2018-09-23T13:15:43Z</time>
      </trkpt>
      <trkpt lat="42.82814" lon="-0.22236">
        <ele>2350.1</ele>
        <time>2018-09-23T13:15:56Z</time>
      </trkpt>
      <trkpt lat="42.82813" lon="-0.22229">
        <ele>2350.1</ele>
        <time>2018-09-23T13:16:01Z</time>
      </trkpt>
      <trkpt lat="42.82813" lon="-0.22225">
        <ele>2350.1</ele>
        <time>2018-09-23T13:16:04Z</time>
      </trkpt>
      <trkpt lat="42.8281" lon="-0.22217">
        <ele>2349.6</ele>
        <time>2018-09-23T13:16:18Z</time>
      </trkpt>
      <trkpt lat="42.82808" lon="-0.22212">
        <ele>2349.1</ele>
        <time>2018-09-23T13:16:28Z</time>
      </trkpt>
      <trkpt lat="42.82808" lon="-0.22207">
        <ele>2347.2</ele>
        <time>2018-09-23T13:16:40Z</time>
      </trkpt>
      <trkpt lat="42.82807" lon="-0.22203">
        <ele>2345.3</ele>
        <time>2018-09-23T13:16:43Z</time>
      </trkpt>
      <trkpt lat="42.82807" lon="-0.22203">
        <ele>2343.8</ele>
        <time>2018-09-23T13:16:46Z</time>
      </trkpt>
      <trkpt lat="42.82806" lon="-0.22202">
        <ele>2342.9</ele>
        <time>2018-09-23T13:16:50Z</time>
      </trkpt>
      <trkpt lat="42.82804" lon="-0.22202">
        <ele>2341.9</ele>
        <time>2018-09-23T13:16:59Z</time>
      </trkpt>
      <trkpt lat="42.82801" lon="-0.22194">
        <ele>2339.5</ele>
        <time>2018-09-23T13:17:09Z</time>
      </trkpt>
      <trkpt lat="42.82803" lon="-0.22191">
        <ele>2339</ele>
        <time>2018-09-23T13:17:24Z</time>
      </trkpt>
      <trkpt lat="42.82801" lon="-0.22186">
        <ele>2336.6</ele>
        <time>2018-09-23T13:17:30Z</time>
      </trkpt>
      <trkpt lat="42.82797" lon="-0.22172">
        <ele>2335.7</ele>
        <time>2018-09-23T13:17:42Z</time>
      </trkpt>
      <trkpt lat="42.82795" lon="-0.22163">
        <ele>2333.7</ele>
        <time>2018-09-23T13:17:49Z</time>
      </trkpt>
      <trkpt lat="42.82793" lon="-0.22151">
        <ele>2331.3</ele>
        <time>2018-09-23T13:17:59Z</time>
      </trkpt>
      <trkpt lat="42.82793" lon="-0.22137">
        <ele>2330.4</ele>
        <time>2018-09-23T13:18:08Z</time>
      </trkpt>
      <trkpt lat="42.82792" lon="-0.22131">
        <ele>2330.4</ele>
        <time>2018-09-23T13:18:12Z</time>
      </trkpt>
      <trkpt lat="42.82793" lon="-0.22127">
        <ele>2330.4</ele>
        <time>2018-09-23T13:18:15Z</time>
      </trkpt>
      <trkpt lat="42.82793" lon="-0.22106">
        <ele>2328.4</ele>
        <time>2018-09-23T13:18:28Z</time>
      </trkpt>
      <trkpt lat="42.8279" lon="-0.22087">
        <ele>2326.1</ele>
        <time>2018-09-23T13:18:42Z</time>
      </trkpt>
      <trkpt lat="42.82787" lon="-0.22081">
        <ele>2324.6</ele>
        <time>2018-09-23T13:18:49Z</time>
      </trkpt>
      <trkpt lat="42.82785" lon="-0.22072">
        <ele>2322.7</ele>
        <time>2018-09-23T13:18:58Z</time>
      </trkpt>
      <trkpt lat="42.82785" lon="-0.22071">
        <ele>2323.6</ele>
        <time>2018-09-23T13:19:03Z</time>
      </trkpt>
      <trkpt lat="42.82781" lon="-0.22059">
        <ele>2322.2</ele>
        <time>2018-09-23T13:19:14Z</time>
      </trkpt>
      <trkpt lat="42.82777" lon="-0.22055">
        <ele>2320.3</ele>
        <time>2018-09-23T13:19:25Z</time>
      </trkpt>
      <trkpt lat="42.82773" lon="-0.22051">
        <ele>2320.3</ele>
        <time>2018-09-23T13:19:39Z</time>
      </trkpt>
      <trkpt lat="42.82773" lon="-0.22051">
        <ele>2319.8</ele>
        <time>2018-09-23T13:19:40Z</time>
      </trkpt>
      <trkpt lat="42.8277" lon="-0.22052">
        <ele>2318.8</ele>
        <time>2018-09-23T13:19:43Z</time>
      </trkpt>
      <trkpt lat="42.82768" lon="-0.22051">
        <ele>2317.9</ele>
        <time>2018-09-23T13:20:00Z</time>
      </trkpt>
      <trkpt lat="42.82772" lon="-0.22049">
        <ele>2318.4</ele>
        <time>2018-09-23T13:20:18Z</time>
      </trkpt>
      <trkpt lat="42.82774" lon="-0.22045">
        <ele>2319.3</ele>
        <time>2018-09-23T13:20:31Z</time>
      </trkpt>
      <trkpt lat="42.82777" lon="-0.2204">
        <ele>2319.8</ele>
        <time>2018-09-23T13:20:43Z</time>
      </trkpt>
      <trkpt lat="42.82777" lon="-0.22031">
        <ele>2320.3</ele>
        <time>2018-09-23T13:20:55Z</time>
      </trkpt>
      <trkpt lat="42.82776" lon="-0.22023">
        <ele>2319.8</ele>
        <time>2018-09-23T13:21:07Z</time>
      </trkpt>
      <trkpt lat="42.82776" lon="-0.22019">
        <ele>2319.3</ele>
        <time>2018-09-23T13:21:14Z</time>
      </trkpt>
      <trkpt lat="42.8278" lon="-0.22012">
        <ele>2317.9</ele>
        <time>2018-09-23T13:21:24Z</time>
      </trkpt>
      <trkpt lat="42.82778" lon="-0.22002">
        <ele>2316.4</ele>
        <time>2018-09-23T13:21:35Z</time>
      </trkpt>
      <trkpt lat="42.82779" lon="-0.22001">
        <ele>2316.4</ele>
        <time>2018-09-23T13:21:52Z</time>
      </trkpt>
      <trkpt lat="42.82781" lon="-0.21997">
        <ele>2316.9</ele>
        <time>2018-09-23T13:22:11Z</time>
      </trkpt>
      <trkpt lat="42.82783" lon="-0.22003">
        <ele>2315.9</ele>
        <time>2018-09-23T13:22:22Z</time>
      </trkpt>
      <trkpt lat="42.82786" lon="-0.21996">
        <ele>2312.6</ele>
        <time>2018-09-23T13:22:32Z</time>
      </trkpt>
      <trkpt lat="42.8279" lon="-0.21994">
        <ele>2311.1</ele>
        <time>2018-09-23T13:22:40Z</time>
      </trkpt>
      <trkpt lat="42.8279" lon="-0.21982">
        <ele>2310.2</ele>
        <time>2018-09-23T13:22:53Z</time>
      </trkpt>
      <trkpt lat="42.82793" lon="-0.21975">
        <ele>2308.3</ele>
        <time>2018-09-23T13:23:05Z</time>
      </trkpt>
      <trkpt lat="42.82795" lon="-0.21969">
        <ele>2306.3</ele>
        <time>2018-09-23T13:23:16Z</time>
      </trkpt>
      <trkpt lat="42.82797" lon="-0.21962">
        <ele>2305.4</ele>
        <time>2018-09-23T13:23:28Z</time>
      </trkpt>
      <trkpt lat="42.82798" lon="-0.2196">
        <ele>2303.9</ele>
        <time>2018-09-23T13:23:33Z</time>
      </trkpt>
      <trkpt lat="42.82801" lon="-0.21954">
        <ele>2303</ele>
        <time>2018-09-23T13:23:41Z</time>
      </trkpt>
      <trkpt lat="42.82798" lon="-0.21943">
        <ele>2300.6</ele>
        <time>2018-09-23T13:23:52Z</time>
      </trkpt>
      <trkpt lat="42.82799" lon="-0.2194">
        <ele>2300.1</ele>
        <time>2018-09-23T13:23:56Z</time>
      </trkpt>
      <trkpt lat="42.828" lon="-0.21939">
        <ele>2300.1</ele>
        <time>2018-09-23T13:23:58Z</time>
      </trkpt>
      <trkpt lat="42.82804" lon="-0.21934">
        <ele>2298.2</ele>
        <time>2018-09-23T13:24:05Z</time>
      </trkpt>
      <trkpt lat="42.82812" lon="-0.2192">
        <ele>2297.2</ele>
        <time>2018-09-23T13:24:19Z</time>
      </trkpt>
      <trkpt lat="42.82807" lon="-0.21905">
        <ele>2296.2</ele>
        <time>2018-09-23T13:24:30Z</time>
      </trkpt>
      <trkpt lat="42.82802" lon="-0.21892">
        <ele>2294.8</ele>
        <time>2018-09-23T13:24:39Z</time>
      </trkpt>
      <trkpt lat="42.82801" lon="-0.21884">
        <ele>2293.8</ele>
        <time>2018-09-23T13:24:44Z</time>
      </trkpt>
      <trkpt lat="42.82803" lon="-0.21879">
        <ele>2294.3</ele>
        <time>2018-09-23T13:24:50Z</time>
      </trkpt>
      <trkpt lat="42.82805" lon="-0.21878">
        <ele>2294.3</ele>
        <time>2018-09-23T13:25:04Z</time>
      </trkpt>
      <trkpt lat="42.82806" lon="-0.21875">
        <ele>2293.8</ele>
        <time>2018-09-23T13:25:27Z</time>
      </trkpt>
      <trkpt lat="42.82809" lon="-0.21877">
        <ele>2293.4</ele>
        <time>2018-09-23T13:25:41Z</time>
      </trkpt>
      <trkpt lat="42.82809" lon="-0.21873">
        <ele>2293.8</ele>
        <time>2018-09-23T13:25:50Z</time>
      </trkpt>
      <trkpt lat="42.82814" lon="-0.21865">
        <ele>2290.5</ele>
        <time>2018-09-23T13:26:01Z</time>
      </trkpt>
      <trkpt lat="42.82815" lon="-0.21863">
        <ele>2289.5</ele>
        <time>2018-09-23T13:26:03Z</time>
      </trkpt>
      <trkpt lat="42.82825" lon="-0.21847">
        <ele>2287.6</ele>
        <time>2018-09-23T13:26:18Z</time>
      </trkpt>
      <trkpt lat="42.82825" lon="-0.21846">
        <ele>2287.1</ele>
        <time>2018-09-23T13:26:19Z</time>
      </trkpt>
      <trkpt lat="42.82834" lon="-0.21837">
        <ele>2286.1</ele>
        <time>2018-09-23T13:26:33Z</time>
      </trkpt>
      <trkpt lat="42.82841" lon="-0.21835">
        <ele>2284.2</ele>
        <time>2018-09-23T13:26:45Z</time>
      </trkpt>
      <trkpt lat="42.8284" lon="-0.21831">
        <ele>2284.2</ele>
        <time>2018-09-23T13:26:59Z</time>
      </trkpt>
      <trkpt lat="42.82841" lon="-0.2183">
        <ele>2283.8</ele>
        <time>2018-09-23T13:27:22Z</time>
      </trkpt>
      <trkpt lat="42.82841" lon="-0.21831">
        <ele>2284.2</ele>
        <time>2018-09-23T13:27:39Z</time>
      </trkpt>
      <trkpt lat="42.82842" lon="-0.2183">
        <ele>2283.8</ele>
        <time>2018-09-23T13:27:56Z</time>
      </trkpt>
      <trkpt lat="42.82843" lon="-0.21831">
        <ele>2283.8</ele>
        <time>2018-09-23T13:28:38Z</time>
      </trkpt>
      <trkpt lat="42.82841" lon="-0.2183">
        <ele>2283.3</ele>
        <time>2018-09-23T13:29:18Z</time>
      </trkpt>
      <trkpt lat="42.82841" lon="-0.21828">
        <ele>2283.3</ele>
        <time>2018-09-23T13:29:41Z</time>
      </trkpt>
      <trkpt lat="42.82842" lon="-0.21827">
        <ele>2283.3</ele>
        <time>2018-09-23T13:30:07Z</time>
      </trkpt>
      <trkpt lat="42.82842" lon="-0.21826">
        <ele>2283.3</ele>
        <time>2018-09-23T13:30:29Z</time>
      </trkpt>
      <trkpt lat="42.82842" lon="-0.21827">
        <ele>2282.3</ele>
        <time>2018-09-23T13:30:57Z</time>
      </trkpt>
      <trkpt lat="42.82841" lon="-0.21827">
        <ele>2283.3</ele>
        <time>2018-09-23T13:31:33Z</time>
      </trkpt>
      <trkpt lat="42.82842" lon="-0.21827">
        <ele>2282.3</ele>
        <time>2018-09-23T13:32:10Z</time>
      </trkpt>
      <trkpt lat="42.82841" lon="-0.21826">
        <ele>2283.3</ele>
        <time>2018-09-23T13:32:32Z</time>
      </trkpt>
      <trkpt lat="42.82843" lon="-0.21825">
        <ele>2282.8</ele>
        <time>2018-09-23T13:32:54Z</time>
      </trkpt>
      <trkpt lat="42.82843" lon="-0.21828">
        <ele>2281.8</ele>
        <time>2018-09-23T13:33:25Z</time>
      </trkpt>
      <trkpt lat="42.82843" lon="-0.21827">
        <ele>2282.3</ele>
        <time>2018-09-23T13:33:59Z</time>
      </trkpt>
      <trkpt lat="42.82842" lon="-0.21827">
        <ele>2282.3</ele>
        <time>2018-09-23T13:34:24Z</time>
      </trkpt>
      <trkpt lat="42.82842" lon="-0.21827">
        <ele>2282.3</ele>
        <time>2018-09-23T13:34:58Z</time>
      </trkpt>
      <trkpt lat="42.82842" lon="-0.21827">
        <ele>2282.3</ele>
        <time>2018-09-23T13:35:12Z</time>
      </trkpt>
      <trkpt lat="42.82842" lon="-0.21828">
        <ele>2282.8</ele>
        <time>2018-09-23T13:35:39Z</time>
      </trkpt>
      <trkpt lat="42.82841" lon="-0.21824">
        <ele>2282.3</ele>
        <time>2018-09-23T13:36:03Z</time>
      </trkpt>
      <trkpt lat="42.82841" lon="-0.21826">
        <ele>2281.8</ele>
        <time>2018-09-23T13:36:24Z</time>
      </trkpt>
      <trkpt lat="42.82841" lon="-0.21826">
        <ele>2281.8</ele>
        <time>2018-09-23T13:36:49Z</time>
      </trkpt>
      <trkpt lat="42.82842" lon="-0.21825">
        <ele>2282.3</ele>
        <time>2018-09-23T13:37:15Z</time>
      </trkpt>
      <trkpt lat="42.82842" lon="-0.21825">
        <ele>2281.8</ele>
        <time>2018-09-23T13:37:36Z</time>
      </trkpt>
      <trkpt lat="42.82842" lon="-0.21827">
        <ele>2282.3</ele>
        <time>2018-09-23T13:38:14Z</time>
      </trkpt>
      <trkpt lat="42.82844" lon="-0.21829">
        <ele>2282.3</ele>
        <time>2018-09-23T13:38:49Z</time>
      </trkpt>
      <trkpt lat="42.82842" lon="-0.21825">
        <ele>2282.8</ele>
        <time>2018-09-23T13:39:16Z</time>
      </trkpt>
      <trkpt lat="42.82842" lon="-0.21825">
        <ele>2282.3</ele>
        <time>2018-09-23T13:39:44Z</time>
      </trkpt>
      <trkpt lat="42.82841" lon="-0.21826">
        <ele>2282.3</ele>
        <time>2018-09-23T13:40:14Z</time>
      </trkpt>
      <trkpt lat="42.82843" lon="-0.21827">
        <ele>2281.4</ele>
        <time>2018-09-23T13:40:36Z</time>
      </trkpt>
      <trkpt lat="42.82842" lon="-0.21826">
        <ele>2281.8</ele>
        <time>2018-09-23T13:41:10Z</time>
      </trkpt>
      <trkpt lat="42.8284" lon="-0.21826">
        <ele>2282.3</ele>
        <time>2018-09-23T13:41:44Z</time>
      </trkpt>
      <trkpt lat="42.82841" lon="-0.21825">
        <ele>2282.3</ele>
        <time>2018-09-23T13:42:12Z</time>
      </trkpt>
      <trkpt lat="42.82843" lon="-0.21829">
        <ele>2282.3</ele>
        <time>2018-09-23T13:42:48Z</time>
      </trkpt>
      <trkpt lat="42.82843" lon="-0.21827">
        <ele>2281.8</ele>
        <time>2018-09-23T13:43:14Z</time>
      </trkpt>
      <trkpt lat="42.82844" lon="-0.21828">
        <ele>2281.8</ele>
        <time>2018-09-23T13:43:46Z</time>
      </trkpt>
      <trkpt lat="42.82843" lon="-0.21827">
        <ele>2282.3</ele>
        <time>2018-09-23T13:44:12Z</time>
      </trkpt>
      <trkpt lat="42.82845" lon="-0.21826">
        <ele>2282.3</ele>
        <time>2018-09-23T13:44:42Z</time>
      </trkpt>
      <trkpt lat="42.82841" lon="-0.21828">
        <ele>2282.3</ele>
        <time>2018-09-23T13:45:12Z</time>
      </trkpt>
      <trkpt lat="42.82841" lon="-0.21827">
        <ele>2281.8</ele>
        <time>2018-09-23T13:45:43Z</time>
      </trkpt>
      <trkpt lat="42.82842" lon="-0.21824">
        <ele>2281.8</ele>
        <time>2018-09-23T13:46:07Z</time>
      </trkpt>
      <trkpt lat="42.82842" lon="-0.21824">
        <ele>2282.3</ele>
        <time>2018-09-23T13:46:40Z</time>
      </trkpt>
      <trkpt lat="42.82843" lon="-0.21825">
        <ele>2282.3</ele>
        <time>2018-09-23T13:47:06Z</time>
      </trkpt>
      <trkpt lat="42.82842" lon="-0.21827">
        <ele>2282.3</ele>
        <time>2018-09-23T13:47:31Z</time>
      </trkpt>
      <trkpt lat="42.82842" lon="-0.21828">
        <ele>2281.8</ele>
        <time>2018-09-23T13:47:56Z</time>
      </trkpt>
      <trkpt lat="42.82842" lon="-0.21827">
        <ele>2281.8</ele>
        <time>2018-09-23T13:48:28Z</time>
      </trkpt>
      <trkpt lat="42.82841" lon="-0.21829">
        <ele>2281.4</ele>
        <time>2018-09-23T13:49:07Z</time>
      </trkpt>
      <trkpt lat="42.82842" lon="-0.21829">
        <ele>2281.4</ele>
        <time>2018-09-23T13:49:38Z</time>
      </trkpt>
      <trkpt lat="42.82842" lon="-0.21826">
        <ele>2281.4</ele>
        <time>2018-09-23T13:50:08Z</time>
      </trkpt>
      <trkpt lat="42.82841" lon="-0.21826">
        <ele>2280.9</ele>
        <time>2018-09-23T13:50:46Z</time>
      </trkpt>
      <trkpt lat="42.82844" lon="-0.21827">
        <ele>2281.4</ele>
        <time>2018-09-23T13:51:28Z</time>
      </trkpt>
      <trkpt lat="42.82843" lon="-0.21827">
        <ele>2281.4</ele>
        <time>2018-09-23T13:51:52Z</time>
      </trkpt>
      <trkpt lat="42.82843" lon="-0.21827">
        <ele>2280.9</ele>
        <time>2018-09-23T13:52:33Z</time>
      </trkpt>
      <trkpt lat="42.82843" lon="-0.21828">
        <ele>2280.4</ele>
        <time>2018-09-23T13:53:07Z</time>
      </trkpt>
      <trkpt lat="42.82841" lon="-0.21828">
        <ele>2280.4</ele>
        <time>2018-09-23T13:53:48Z</time>
      </trkpt>
      <trkpt lat="42.82841" lon="-0.21828">
        <ele>2280.4</ele>
        <time>2018-09-23T13:54:13Z</time>
      </trkpt>
      <trkpt lat="42.82842" lon="-0.21825">
        <ele>2280.9</ele>
        <time>2018-09-23T13:54:47Z</time>
      </trkpt>
      <trkpt lat="42.8284" lon="-0.21826">
        <ele>2280.9</ele>
        <time>2018-09-23T13:55:23Z</time>
      </trkpt>
      <trkpt lat="42.82842" lon="-0.21824">
        <ele>2280.4</ele>
        <time>2018-09-23T13:56:00Z</time>
      </trkpt>
      <trkpt lat="42.82841" lon="-0.21828">
        <ele>2280.9</ele>
        <time>2018-09-23T13:56:35Z</time>
      </trkpt>
      <trkpt lat="42.82842" lon="-0.21826">
        <ele>2280.9</ele>
        <time>2018-09-23T13:57:13Z</time>
      </trkpt>
      <trkpt lat="42.82842" lon="-0.21826">
        <ele>2280.9</ele>
        <time>2018-09-23T13:57:51Z</time>
      </trkpt>
      <trkpt lat="42.82841" lon="-0.21827">
        <ele>2280.9</ele>
        <time>2018-09-23T13:58:26Z</time>
      </trkpt>
      <trkpt lat="42.82841" lon="-0.21827">
        <ele>2280.9</ele>
        <time>2018-09-23T13:59:05Z</time>
      </trkpt>
      <trkpt lat="42.82841" lon="-0.21829">
        <ele>2280.4</ele>
        <time>2018-09-23T13:59:49Z</time>
      </trkpt>
      <trkpt lat="42.8284" lon="-0.21827">
        <ele>2281.4</ele>
        <time>2018-09-23T14:00:25Z</time>
      </trkpt>
      <trkpt lat="42.82842" lon="-0.21827">
        <ele>2280.9</ele>
        <time>2018-09-23T14:01:00Z</time>
      </trkpt>
      <trkpt lat="42.82839" lon="-0.21827">
        <ele>2281.8</ele>
        <time>2018-09-23T14:01:41Z</time>
      </trkpt>
      <trkpt lat="42.82841" lon="-0.21824">
        <ele>2281.4</ele>
        <time>2018-09-23T14:02:23Z</time>
      </trkpt>
      <trkpt lat="42.8284" lon="-0.21826">
        <ele>2281.8</ele>
        <time>2018-09-23T14:03:03Z</time>
      </trkpt>
      <trkpt lat="42.82842" lon="-0.21825">
        <ele>2281.4</ele>
        <time>2018-09-23T14:03:31Z</time>
      </trkpt>
      <trkpt lat="42.82842" lon="-0.21825">
        <ele>2281.8</ele>
        <time>2018-09-23T14:03:58Z</time>
      </trkpt>
      <trkpt lat="42.82841" lon="-0.21826">
        <ele>2281.4</ele>
        <time>2018-09-23T14:04:29Z</time>
      </trkpt>
      <trkpt lat="42.8284" lon="-0.21827">
        <ele>2281.4</ele>
        <time>2018-09-23T14:05:07Z</time>
      </trkpt>
      <trkpt lat="42.82841" lon="-0.21826">
        <ele>2281.8</ele>
        <time>2018-09-23T14:05:46Z</time>
      </trkpt>
      <trkpt lat="42.8284" lon="-0.21826">
        <ele>2281.8</ele>
        <time>2018-09-23T14:06:16Z</time>
      </trkpt>
      <trkpt lat="42.82841" lon="-0.21825">
        <ele>2281.4</ele>
        <time>2018-09-23T14:06:50Z</time>
      </trkpt>
      <trkpt lat="42.82842" lon="-0.21825">
        <ele>2281.4</ele>
        <time>2018-09-23T14:07:26Z</time>
      </trkpt>
      <trkpt lat="42.8284" lon="-0.21824">
        <ele>2281.4</ele>
        <time>2018-09-23T14:08:00Z</time>
      </trkpt>
      <trkpt lat="42.82841" lon="-0.21826">
        <ele>2281.8</ele>
        <time>2018-09-23T14:08:44Z</time>
      </trkpt>
      <trkpt lat="42.8284" lon="-0.21823">
        <ele>2281.8</ele>
        <time>2018-09-23T14:09:13Z</time>
      </trkpt>
      <trkpt lat="42.82841" lon="-0.21826">
        <ele>2281.8</ele>
        <time>2018-09-23T14:09:46Z</time>
      </trkpt>
      <trkpt lat="42.82841" lon="-0.21825">
        <ele>2281.8</ele>
        <time>2018-09-23T14:10:16Z</time>
      </trkpt>
      <trkpt lat="42.82841" lon="-0.21825">
        <ele>2281.8</ele>
        <time>2018-09-23T14:10:48Z</time>
      </trkpt>
      <trkpt lat="42.82839" lon="-0.21826">
        <ele>2280.9</ele>
        <time>2018-09-23T14:11:19Z</time>
      </trkpt>
      <trkpt lat="42.82839" lon="-0.21822">
        <ele>2280.9</ele>
        <time>2018-09-23T14:11:49Z</time>
      </trkpt>
      <trkpt lat="42.82841" lon="-0.21825">
        <ele>2281.4</ele>
        <time>2018-09-23T14:12:27Z</time>
      </trkpt>
      <trkpt lat="42.82842" lon="-0.21825">
        <ele>2281.4</ele>
        <time>2018-09-23T14:12:52Z</time>
      </trkpt>
      <trkpt lat="42.82842" lon="-0.21826">
        <ele>2281.4</ele>
        <time>2018-09-23T14:13:28Z</time>
      </trkpt>
      <trkpt lat="42.82842" lon="-0.21824">
        <ele>2281.4</ele>
        <time>2018-09-23T14:14:00Z</time>
      </trkpt>
      <trkpt lat="42.82842" lon="-0.21825">
        <ele>2281.4</ele>
        <time>2018-09-23T14:14:31Z</time>
      </trkpt>
      <trkpt lat="42.82842" lon="-0.21827">
        <ele>2281.4</ele>
        <time>2018-09-23T14:14:56Z</time>
      </trkpt>
      <trkpt lat="42.82841" lon="-0.21824">
        <ele>2281.8</ele>
        <time>2018-09-23T14:15:27Z</time>
      </trkpt>
      <trkpt lat="42.82843" lon="-0.21826">
        <ele>2281.4</ele>
        <time>2018-09-23T14:16:00Z</time>
      </trkpt>
      <trkpt lat="42.8284" lon="-0.21824">
        <ele>2281.4</ele>
        <time>2018-09-23T14:16:40Z</time>
      </trkpt>
      <trkpt lat="42.82841" lon="-0.21825">
        <ele>2281.8</ele>
        <time>2018-09-23T14:17:15Z</time>
      </trkpt>
      <trkpt lat="42.82842" lon="-0.21825">
        <ele>2282.3</ele>
        <time>2018-09-23T14:17:41Z</time>
      </trkpt>
      <trkpt lat="42.82842" lon="-0.21826">
        <ele>2281.4</ele>
        <time>2018-09-23T14:18:06Z</time>
      </trkpt>
      <trkpt lat="42.82842" lon="-0.21826">
        <ele>2280.9</ele>
        <time>2018-09-23T14:18:41Z</time>
      </trkpt>
      <trkpt lat="42.82842" lon="-0.21825">
        <ele>2281.8</ele>
        <time>2018-09-23T14:19:15Z</time>
      </trkpt>
      <trkpt lat="42.82843" lon="-0.21823">
        <ele>2281.4</ele>
        <time>2018-09-23T14:19:49Z</time>
      </trkpt>
      <trkpt lat="42.82843" lon="-0.21825">
        <ele>2280.9</ele>
        <time>2018-09-23T14:20:23Z</time>
      </trkpt>
      <trkpt lat="42.82842" lon="-0.21826">
        <ele>2281.4</ele>
        <time>2018-09-23T14:20:53Z</time>
      </trkpt>
      <trkpt lat="42.82843" lon="-0.21828">
        <ele>2281.4</ele>
        <time>2018-09-23T14:21:28Z</time>
      </trkpt>
      <trkpt lat="42.82842" lon="-0.21827">
        <ele>2281.4</ele>
        <time>2018-09-23T14:22:01Z</time>
      </trkpt>
      <trkpt lat="42.82841" lon="-0.21827">
        <ele>2281.4</ele>
        <time>2018-09-23T14:22:34Z</time>
      </trkpt>
      <trkpt lat="42.82841" lon="-0.21827">
        <ele>2281.4</ele>
        <time>2018-09-23T14:23:02Z</time>
      </trkpt>
      <trkpt lat="42.82841" lon="-0.21827">
        <ele>2281.4</ele>
        <time>2018-09-23T14:23:44Z</time>
      </trkpt>
      <trkpt lat="42.82841" lon="-0.21828">
        <ele>2281.4</ele>
        <time>2018-09-23T14:24:21Z</time>
      </trkpt>
      <trkpt lat="42.82841" lon="-0.21828">
        <ele>2281.4</ele>
        <time>2018-09-23T14:25:04Z</time>
      </trkpt>
      <trkpt lat="42.82841" lon="-0.21829">
        <ele>2281.8</ele>
        <time>2018-09-23T14:25:39Z</time>
      </trkpt>
      <trkpt lat="42.82841" lon="-0.21829">
        <ele>2281.8</ele>
        <time>2018-09-23T14:26:16Z</time>
      </trkpt>
      <trkpt lat="42.82841" lon="-0.21829">
        <ele>2280.9</ele>
        <time>2018-09-23T14:26:54Z</time>
      </trkpt>
      <trkpt lat="42.82841" lon="-0.2183">
        <ele>2281.4</ele>
        <time>2018-09-23T14:27:01Z</time>
      </trkpt>
      <trkpt lat="42.82842" lon="-0.21827">
        <ele>2281.8</ele>
        <time>2018-09-23T14:27:10Z</time>
      </trkpt>
      <trkpt lat="42.82841" lon="-0.21825">
        <ele>2281.8</ele>
        <time>2018-09-23T14:27:23Z</time>
      </trkpt>
      <trkpt lat="42.82839" lon="-0.21827">
        <ele>2281.8</ele>
        <time>2018-09-23T14:27:35Z</time>
      </trkpt>
      <trkpt lat="42.82836" lon="-0.21824">
        <ele>2282.3</ele>
        <time>2018-09-23T14:27:53Z</time>
      </trkpt>
      <trkpt lat="42.82836" lon="-0.21823">
        <ele>2282.3</ele>
        <time>2018-09-23T14:27:54Z</time>
      </trkpt>
      <trkpt lat="42.82823" lon="-0.21821">
        <ele>2282.8</ele>
        <time>2018-09-23T14:28:08Z</time>
      </trkpt>
      <trkpt lat="42.82821" lon="-0.21818">
        <ele>2282.3</ele>
        <time>2018-09-23T14:28:12Z</time>
      </trkpt>
      <trkpt lat="42.82819" lon="-0.21815">
        <ele>2283.3</ele>
        <time>2018-09-23T14:28:14Z</time>
      </trkpt>
      <trkpt lat="42.82814" lon="-0.21798">
        <ele>2282.3</ele>
        <time>2018-09-23T14:28:28Z</time>
      </trkpt>
      <trkpt lat="42.82809" lon="-0.21786">
        <ele>2282.8</ele>
        <time>2018-09-23T14:28:40Z</time>
      </trkpt>
      <trkpt lat="42.82804" lon="-0.21778">
        <ele>2283.8</ele>
        <time>2018-09-23T14:28:52Z</time>
      </trkpt>
      <trkpt lat="42.82803" lon="-0.21764">
        <ele>2284.2</ele>
        <time>2018-09-23T14:29:04Z</time>
      </trkpt>
      <trkpt lat="42.82807" lon="-0.21746">
        <ele>2283.8</ele>
        <time>2018-09-23T14:29:18Z</time>
      </trkpt>
      <trkpt lat="42.82807" lon="-0.21745">
        <ele>2283.8</ele>
        <time>2018-09-23T14:29:19Z</time>
      </trkpt>
      <trkpt lat="42.82809" lon="-0.21728">
        <ele>2283.8</ele>
        <time>2018-09-23T14:29:33Z</time>
      </trkpt>
      <trkpt lat="42.82809" lon="-0.21727">
        <ele>2283.3</ele>
        <time>2018-09-23T14:29:34Z</time>
      </trkpt>
      <trkpt lat="42.82813" lon="-0.21723">
        <ele>2282.8</ele>
        <time>2018-09-23T14:29:45Z</time>
      </trkpt>
      <trkpt lat="42.82816" lon="-0.21719">
        <ele>2283.8</ele>
        <time>2018-09-23T14:29:53Z</time>
      </trkpt>
      <trkpt lat="42.82819" lon="-0.21714">
        <ele>2283.8</ele>
        <time>2018-09-23T14:29:58Z</time>
      </trkpt>
      <trkpt lat="42.82823" lon="-0.21705">
        <ele>2283.3</ele>
        <time>2018-09-23T14:30:09Z</time>
      </trkpt>
      <trkpt lat="42.82826" lon="-0.217">
        <ele>2283.8</ele>
        <time>2018-09-23T14:30:22Z</time>
      </trkpt>
      <trkpt lat="42.82827" lon="-0.21688">
        <ele>2283.3</ele>
        <time>2018-09-23T14:30:34Z</time>
      </trkpt>
      <trkpt lat="42.82827" lon="-0.21677">
        <ele>2281.8</ele>
        <time>2018-09-23T14:30:49Z</time>
      </trkpt>
      <trkpt lat="42.82829" lon="-0.2167">
        <ele>2280.4</ele>
        <time>2018-09-23T14:31:01Z</time>
      </trkpt>
      <trkpt lat="42.82832" lon="-0.21662">
        <ele>2278.5</ele>
        <time>2018-09-23T14:31:13Z</time>
      </trkpt>
      <trkpt lat="42.82837" lon="-0.21653">
        <ele>2277.5</ele>
        <time>2018-09-23T14:31:26Z</time>
      </trkpt>
      <trkpt lat="42.82841" lon="-0.21643">
        <ele>2276.5</ele>
        <time>2018-09-23T14:31:40Z</time>
      </trkpt>
      <trkpt lat="42.82845" lon="-0.21629">
        <ele>2275.1</ele>
        <time>2018-09-23T14:31:56Z</time>
      </trkpt>
      <trkpt lat="42.82848" lon="-0.21619">
        <ele>2274.1</ele>
        <time>2018-09-23T14:32:08Z</time>
      </trkpt>
      <trkpt lat="42.82852" lon="-0.21611">
        <ele>2272.2</ele>
        <time>2018-09-23T14:32:20Z</time>
      </trkpt>
      <trkpt lat="42.82856" lon="-0.21605">
        <ele>2271.7</ele>
        <time>2018-09-23T14:32:31Z</time>
      </trkpt>
      <trkpt lat="42.82857" lon="-0.21606">
        <ele>2272.2</ele>
        <time>2018-09-23T14:32:52Z</time>
      </trkpt>
      <trkpt lat="42.82858" lon="-0.21603">
        <ele>2271.2</ele>
        <time>2018-09-23T14:33:13Z</time>
      </trkpt>
      <trkpt lat="42.8286" lon="-0.21595">
        <ele>2269.8</ele>
        <time>2018-09-23T14:33:24Z</time>
      </trkpt>
      <trkpt lat="42.82862" lon="-0.21592">
        <ele>2267.9</ele>
        <time>2018-09-23T14:33:34Z</time>
      </trkpt>
      <trkpt lat="42.82864" lon="-0.21587">
        <ele>2266.9</ele>
        <time>2018-09-23T14:33:43Z</time>
      </trkpt>
      <trkpt lat="42.82866" lon="-0.2158">
        <ele>2264.5</ele>
        <time>2018-09-23T14:33:56Z</time>
      </trkpt>
      <trkpt lat="42.82868" lon="-0.21569">
        <ele>2263.1</ele>
        <time>2018-09-23T14:34:10Z</time>
      </trkpt>
      <trkpt lat="42.82869" lon="-0.21561">
        <ele>2261.2</ele>
        <time>2018-09-23T14:34:20Z</time>
      </trkpt>
      <trkpt lat="42.82871" lon="-0.21557">
        <ele>2259.2</ele>
        <time>2018-09-23T14:34:32Z</time>
      </trkpt>
      <trkpt lat="42.82873" lon="-0.21552">
        <ele>2256.4</ele>
        <time>2018-09-23T14:34:41Z</time>
      </trkpt>
      <trkpt lat="42.82876" lon="-0.21545">
        <ele>2254.9</ele>
        <time>2018-09-23T14:34:53Z</time>
      </trkpt>
      <trkpt lat="42.82878" lon="-0.21544">
        <ele>2253.9</ele>
        <time>2018-09-23T14:34:56Z</time>
      </trkpt>
      <trkpt lat="42.82882" lon="-0.21537">
        <ele>2251.5</ele>
        <time>2018-09-23T14:35:07Z</time>
      </trkpt>
      <trkpt lat="42.8288" lon="-0.21519">
        <ele>2248.7</ele>
        <time>2018-09-23T14:35:21Z</time>
      </trkpt>
      <trkpt lat="42.82881" lon="-0.21514">
        <ele>2247.2</ele>
        <time>2018-09-23T14:35:30Z</time>
      </trkpt>
      <trkpt lat="42.8288" lon="-0.21506">
        <ele>2245.3</ele>
        <time>2018-09-23T14:35:43Z</time>
      </trkpt>
      <trkpt lat="42.8288" lon="-0.21497">
        <ele>2243.9</ele>
        <time>2018-09-23T14:35:55Z</time>
      </trkpt>
      <trkpt lat="42.82883" lon="-0.21487">
        <ele>2242.4</ele>
        <time>2018-09-23T14:36:06Z</time>
      </trkpt>
      <trkpt lat="42.82883" lon="-0.21476">
        <ele>2241</ele>
        <time>2018-09-23T14:36:18Z</time>
      </trkpt>
      <trkpt lat="42.82881" lon="-0.21476">
        <ele>2241.4</ele>
        <time>2018-09-23T14:36:31Z</time>
      </trkpt>
      <trkpt lat="42.82884" lon="-0.21478">
        <ele>2241</ele>
        <time>2018-09-23T14:36:41Z</time>
      </trkpt>
      <trkpt lat="42.82885" lon="-0.21478">
        <ele>2240.5</ele>
        <time>2018-09-23T14:36:44Z</time>
      </trkpt>
      <trkpt lat="42.8289" lon="-0.21471">
        <ele>2241.9</ele>
        <time>2018-09-23T14:36:57Z</time>
      </trkpt>
      <trkpt lat="42.8289" lon="-0.21469">
        <ele>2241.4</ele>
        <time>2018-09-23T14:37:28Z</time>
      </trkpt>
      <trkpt lat="42.82888" lon="-0.21466">
        <ele>2241</ele>
        <time>2018-09-23T14:37:52Z</time>
      </trkpt>
      <trkpt lat="42.82889" lon="-0.21454">
        <ele>2239.5</ele>
        <time>2018-09-23T14:38:05Z</time>
      </trkpt>
      <trkpt lat="42.82889" lon="-0.21449">
        <ele>2239.5</ele>
        <time>2018-09-23T14:38:11Z</time>
      </trkpt>
      <trkpt lat="42.82889" lon="-0.21435">
        <ele>2236.2</ele>
        <time>2018-09-23T14:38:25Z</time>
      </trkpt>
      <trkpt lat="42.82892" lon="-0.21422">
        <ele>2233.3</ele>
        <time>2018-09-23T14:38:39Z</time>
      </trkpt>
      <trkpt lat="42.82887" lon="-0.21421">
        <ele>2231.4</ele>
        <time>2018-09-23T14:38:50Z</time>
      </trkpt>
      <trkpt lat="42.82886" lon="-0.21416">
        <ele>2228.9</ele>
        <time>2018-09-23T14:38:58Z</time>
      </trkpt>
      <trkpt lat="42.82882" lon="-0.21413">
        <ele>2226.1</ele>
        <time>2018-09-23T14:39:10Z</time>
      </trkpt>
      <trkpt lat="42.82881" lon="-0.2142">
        <ele>2225.6</ele>
        <time>2018-09-23T14:39:42Z</time>
      </trkpt>
      <trkpt lat="42.82884" lon="-0.21409">
        <ele>2225.1</ele>
        <time>2018-09-23T14:40:07Z</time>
      </trkpt>
      <trkpt lat="42.82883" lon="-0.21399">
        <ele>2222.2</ele>
        <time>2018-09-23T14:40:19Z</time>
      </trkpt>
      <trkpt lat="42.82884" lon="-0.21388">
        <ele>2219.8</ele>
        <time>2018-09-23T14:40:31Z</time>
      </trkpt>
      <trkpt lat="42.82885" lon="-0.21376">
        <ele>2217.4</ele>
        <time>2018-09-23T14:40:44Z</time>
      </trkpt>
      <trkpt lat="42.82884" lon="-0.21368">
        <ele>2215.5</ele>
        <time>2018-09-23T14:40:56Z</time>
      </trkpt>
      <trkpt lat="42.82884" lon="-0.21357">
        <ele>2213.6</ele>
        <time>2018-09-23T14:41:10Z</time>
      </trkpt>
      <trkpt lat="42.82885" lon="-0.21347">
        <ele>2211.6</ele>
        <time>2018-09-23T14:41:23Z</time>
      </trkpt>
      <trkpt lat="42.82885" lon="-0.21347">
        <ele>2210.7</ele>
        <time>2018-09-23T14:41:24Z</time>
      </trkpt>
      <trkpt lat="42.82887" lon="-0.2134">
        <ele>2209.2</ele>
        <time>2018-09-23T14:41:38Z</time>
      </trkpt>
      <trkpt lat="42.82888" lon="-0.21334">
        <ele>2206.8</ele>
        <time>2018-09-23T14:41:50Z</time>
      </trkpt>
      <trkpt lat="42.82889" lon="-0.21328">
        <ele>2203.5</ele>
        <time>2018-09-23T14:42:05Z</time>
      </trkpt>
      <trkpt lat="42.82887" lon="-0.21329">
        <ele>2204</ele>
        <time>2018-09-23T14:42:29Z</time>
      </trkpt>
      <trkpt lat="42.82886" lon="-0.2132">
        <ele>2202</ele>
        <time>2018-09-23T14:42:43Z</time>
      </trkpt>
      <trkpt lat="42.82887" lon="-0.21308">
        <ele>2199.6</ele>
        <time>2018-09-23T14:42:57Z</time>
      </trkpt>
      <trkpt lat="42.82884" lon="-0.213">
        <ele>2197.7</ele>
        <time>2018-09-23T14:43:07Z</time>
      </trkpt>
      <trkpt lat="42.82881" lon="-0.21289">
        <ele>2194.8</ele>
        <time>2018-09-23T14:43:19Z</time>
      </trkpt>
      <trkpt lat="42.82881" lon="-0.21279">
        <ele>2192.4</ele>
        <time>2018-09-23T14:43:32Z</time>
      </trkpt>
      <trkpt lat="42.8288" lon="-0.2127">
        <ele>2191</ele>
        <time>2018-09-23T14:43:40Z</time>
      </trkpt>
      <trkpt lat="42.82877" lon="-0.21256">
        <ele>2189.1</ele>
        <time>2018-09-23T14:43:54Z</time>
      </trkpt>
      <trkpt lat="42.82873" lon="-0.21257">
        <ele>2187.1</ele>
        <time>2018-09-23T14:44:07Z</time>
      </trkpt>
      <trkpt lat="42.82874" lon="-0.21253">
        <ele>2186.7</ele>
        <time>2018-09-23T14:44:12Z</time>
      </trkpt>
      <trkpt lat="42.8287" lon="-0.21237">
        <ele>2185.2</ele>
        <time>2018-09-23T14:44:26Z</time>
      </trkpt>
      <trkpt lat="42.82868" lon="-0.21232">
        <ele>2182.3</ele>
        <time>2018-09-23T14:44:35Z</time>
      </trkpt>
      <trkpt lat="42.82863" lon="-0.21231">
        <ele>2180.4</ele>
        <time>2018-09-23T14:44:47Z</time>
      </trkpt>
      <trkpt lat="42.82858" lon="-0.21226">
        <ele>2177</ele>
        <time>2018-09-23T14:45:00Z</time>
      </trkpt>
      <trkpt lat="42.82853" lon="-0.2122">
        <ele>2174.6</ele>
        <time>2018-09-23T14:45:12Z</time>
      </trkpt>
      <trkpt lat="42.82849" lon="-0.21215">
        <ele>2172.2</ele>
        <time>2018-09-23T14:45:24Z</time>
      </trkpt>
      <trkpt lat="42.82843" lon="-0.21206">
        <ele>2170.3</ele>
        <time>2018-09-23T14:45:33Z</time>
      </trkpt>
      <trkpt lat="42.82837" lon="-0.21198">
        <ele>2166.9</ele>
        <time>2018-09-23T14:45:44Z</time>
      </trkpt>
      <trkpt lat="42.82831" lon="-0.21192">
        <ele>2164.1</ele>
        <time>2018-09-23T14:45:56Z</time>
      </trkpt>
      <trkpt lat="42.82827" lon="-0.21186">
        <ele>2162.1</ele>
        <time>2018-09-23T14:46:09Z</time>
      </trkpt>
      <trkpt lat="42.82826" lon="-0.21176">
        <ele>2160.7</ele>
        <time>2018-09-23T14:46:25Z</time>
      </trkpt>
      <trkpt lat="42.82824" lon="-0.21169">
        <ele>2158.8</ele>
        <time>2018-09-23T14:46:50Z</time>
      </trkpt>
      <trkpt lat="42.82823" lon="-0.21168">
        <ele>2158.8</ele>
        <time>2018-09-23T14:46:51Z</time>
      </trkpt>
      <trkpt lat="42.82816" lon="-0.21154">
        <ele>2154.9</ele>
        <time>2018-09-23T14:47:04Z</time>
      </trkpt>
      <trkpt lat="42.8281" lon="-0.21146">
        <ele>2153</ele>
        <time>2018-09-23T14:47:17Z</time>
      </trkpt>
      <trkpt lat="42.82807" lon="-0.21136">
        <ele>2151.1</ele>
        <time>2018-09-23T14:47:30Z</time>
      </trkpt>
      <trkpt lat="42.82803" lon="-0.21129">
        <ele>2148.7</ele>
        <time>2018-09-23T14:47:41Z</time>
      </trkpt>
      <trkpt lat="42.82799" lon="-0.2112">
        <ele>2145.8</ele>
        <time>2018-09-23T14:47:55Z</time>
      </trkpt>
      <trkpt lat="42.82798" lon="-0.21112">
        <ele>2144.4</ele>
        <time>2018-09-23T14:48:08Z</time>
      </trkpt>
      <trkpt lat="42.82795" lon="-0.21108">
        <ele>2143.4</ele>
        <time>2018-09-23T14:48:21Z</time>
      </trkpt>
      <trkpt lat="42.82791" lon="-0.21104">
        <ele>2141</ele>
        <time>2018-09-23T14:48:32Z</time>
      </trkpt>
      <trkpt lat="42.82786" lon="-0.21097">
        <ele>2139.1</ele>
        <time>2018-09-23T14:48:42Z</time>
      </trkpt>
      <trkpt lat="42.82783" lon="-0.2109">
        <ele>2137.6</ele>
        <time>2018-09-23T14:48:48Z</time>
      </trkpt>
      <trkpt lat="42.82781" lon="-0.21085">
        <ele>2136.7</ele>
        <time>2018-09-23T14:48:52Z</time>
      </trkpt>
      <trkpt lat="42.82776" lon="-0.21069">
        <ele>2135.2</ele>
        <time>2018-09-23T14:49:06Z</time>
      </trkpt>
      <trkpt lat="42.82772" lon="-0.21052">
        <ele>2136.2</ele>
        <time>2018-09-23T14:49:21Z</time>
      </trkpt>
      <trkpt lat="42.82771" lon="-0.2105">
        <ele>2136.2</ele>
        <time>2018-09-23T14:49:23Z</time>
      </trkpt>
      <trkpt lat="42.82771" lon="-0.21047">
        <ele>2136.2</ele>
        <time>2018-09-23T14:49:25Z</time>
      </trkpt>
      <trkpt lat="42.82767" lon="-0.21039">
        <ele>2135.2</ele>
        <time>2018-09-23T14:49:34Z</time>
      </trkpt>
      <trkpt lat="42.82763" lon="-0.21033">
        <ele>2134.7</ele>
        <time>2018-09-23T14:49:41Z</time>
      </trkpt>
      <trkpt lat="42.82761" lon="-0.2103">
        <ele>2134.3</ele>
        <time>2018-09-23T14:49:44Z</time>
      </trkpt>
      <trkpt lat="42.82759" lon="-0.21019">
        <ele>2132.3</ele>
        <time>2018-09-23T14:49:56Z</time>
      </trkpt>
      <trkpt lat="42.82759" lon="-0.21018">
        <ele>2132.8</ele>
        <time>2018-09-23T14:49:57Z</time>
      </trkpt>
      <trkpt lat="42.82757" lon="-0.21013">
        <ele>2131.4</ele>
        <time>2018-09-23T14:50:10Z</time>
      </trkpt>
      <trkpt lat="42.82754" lon="-0.21008">
        <ele>2130.4</ele>
        <time>2018-09-23T14:50:23Z</time>
      </trkpt>
      <trkpt lat="42.82752" lon="-0.21003">
        <ele>2128</ele>
        <time>2018-09-23T14:50:36Z</time>
      </trkpt>
      <trkpt lat="42.8275" lon="-0.2099">
        <ele>2127.5</ele>
        <time>2018-09-23T14:50:49Z</time>
      </trkpt>
      <trkpt lat="42.82752" lon="-0.20979">
        <ele>2127.1</ele>
        <time>2018-09-23T14:50:59Z</time>
      </trkpt>
      <trkpt lat="42.82753" lon="-0.20962">
        <ele>2125.1</ele>
        <time>2018-09-23T14:51:13Z</time>
      </trkpt>
      <trkpt lat="42.82753" lon="-0.20961">
        <ele>2126.1</ele>
        <time>2018-09-23T14:51:14Z</time>
      </trkpt>
      <trkpt lat="42.82755" lon="-0.20955">
        <ele>2126.1</ele>
        <time>2018-09-23T14:51:19Z</time>
      </trkpt>
      <trkpt lat="42.82759" lon="-0.20939">
        <ele>2125.1</ele>
        <time>2018-09-23T14:51:32Z</time>
      </trkpt>
      <trkpt lat="42.82758" lon="-0.20926">
        <ele>2125.1</ele>
        <time>2018-09-23T14:51:43Z</time>
      </trkpt>
      <trkpt lat="42.82757" lon="-0.20924">
        <ele>2124.6</ele>
        <time>2018-09-23T14:51:45Z</time>
      </trkpt>
      <trkpt lat="42.82753" lon="-0.2091">
        <ele>2125.6</ele>
        <time>2018-09-23T14:51:59Z</time>
      </trkpt>
      <trkpt lat="42.82749" lon="-0.20903">
        <ele>2127.1</ele>
        <time>2018-09-23T14:52:10Z</time>
      </trkpt>
      <trkpt lat="42.82749" lon="-0.20896">
        <ele>2127.1</ele>
        <time>2018-09-23T14:52:23Z</time>
      </trkpt>
      <trkpt lat="42.82748" lon="-0.20896">
        <ele>2126.1</ele>
        <time>2018-09-23T14:52:43Z</time>
      </trkpt>
      <trkpt lat="42.82749" lon="-0.20891">
        <ele>2125.6</ele>
        <time>2018-09-23T14:52:58Z</time>
      </trkpt>
      <trkpt lat="42.82745" lon="-0.20877">
        <ele>2123.2</ele>
        <time>2018-09-23T14:53:12Z</time>
      </trkpt>
      <trkpt lat="42.82742" lon="-0.20869">
        <ele>2122.7</ele>
        <time>2018-09-23T14:53:25Z</time>
      </trkpt>
      <trkpt lat="42.8274" lon="-0.20866">
        <ele>2121.8</ele>
        <time>2018-09-23T14:53:49Z</time>
      </trkpt>
      <trkpt lat="42.82739" lon="-0.20856">
        <ele>2121.8</ele>
        <time>2018-09-23T14:54:01Z</time>
      </trkpt>
      <trkpt lat="42.82732" lon="-0.20845">
        <ele>2120.8</ele>
        <time>2018-09-23T14:54:13Z</time>
      </trkpt>
      <trkpt lat="42.82727" lon="-0.20838">
        <ele>2120.3</ele>
        <time>2018-09-23T14:54:22Z</time>
      </trkpt>
      <trkpt lat="42.82725" lon="-0.20828">
        <ele>2121.3</ele>
        <time>2018-09-23T14:54:32Z</time>
      </trkpt>
      <trkpt lat="42.82725" lon="-0.20821">
        <ele>2122.2</ele>
        <time>2018-09-23T14:54:38Z</time>
      </trkpt>
      <trkpt lat="42.82723" lon="-0.20818">
        <ele>2123.2</ele>
        <time>2018-09-23T14:54:41Z</time>
      </trkpt>
      <trkpt lat="42.8272" lon="-0.20814">
        <ele>2123.7</ele>
        <time>2018-09-23T14:54:46Z</time>
      </trkpt>
      <trkpt lat="42.82715" lon="-0.20803">
        <ele>2124.6</ele>
        <time>2018-09-23T14:54:57Z</time>
      </trkpt>
      <trkpt lat="42.8271" lon="-0.20796">
        <ele>2122.7</ele>
        <time>2018-09-23T14:55:12Z</time>
      </trkpt>
      <trkpt lat="42.82712" lon="-0.20795">
        <ele>2121.8</ele>
        <time>2018-09-23T14:55:23Z</time>
      </trkpt>
      <trkpt lat="42.82708" lon="-0.20792">
        <ele>2121.3</ele>
        <time>2018-09-23T14:55:37Z</time>
      </trkpt>
      <trkpt lat="42.827" lon="-0.20778">
        <ele>2119.4</ele>
        <time>2018-09-23T14:55:51Z</time>
      </trkpt>
      <trkpt lat="42.82701" lon="-0.2077">
        <ele>2116</ele>
        <time>2018-09-23T14:56:04Z</time>
      </trkpt>
      <trkpt lat="42.82699" lon="-0.20759">
        <ele>2114.6</ele>
        <time>2018-09-23T14:56:17Z</time>
      </trkpt>
      <trkpt lat="42.82699" lon="-0.20756">
        <ele>2113.6</ele>
        <time>2018-09-23T14:56:19Z</time>
      </trkpt>
      <trkpt lat="42.82699" lon="-0.20755">
        <ele>2113.6</ele>
        <time>2018-09-23T14:56:20Z</time>
      </trkpt>
      <trkpt lat="42.82696" lon="-0.2074">
        <ele>2111.7</ele>
        <time>2018-09-23T14:56:34Z</time>
      </trkpt>
      <trkpt lat="42.8269" lon="-0.20725">
        <ele>2110.2</ele>
        <time>2018-09-23T14:56:49Z</time>
      </trkpt>
      <trkpt lat="42.82685" lon="-0.20711">
        <ele>2107.8</ele>
        <time>2018-09-23T14:57:03Z</time>
      </trkpt>
      <trkpt lat="42.82683" lon="-0.20706">
        <ele>2105.9</ele>
        <time>2018-09-23T14:57:10Z</time>
      </trkpt>
      <trkpt lat="42.82681" lon="-0.20689">
        <ele>2104.5</ele>
        <time>2018-09-23T14:57:24Z</time>
      </trkpt>
      <trkpt lat="42.82681" lon="-0.20688">
        <ele>2104</ele>
        <time>2018-09-23T14:57:26Z</time>
      </trkpt>
      <trkpt lat="42.8268" lon="-0.20685">
        <ele>2103.5</ele>
        <time>2018-09-23T14:57:28Z</time>
      </trkpt>
      <trkpt lat="42.82678" lon="-0.20663">
        <ele>2102.1</ele>
        <time>2018-09-23T14:57:43Z</time>
      </trkpt>
      <trkpt lat="42.82676" lon="-0.20647">
        <ele>2100.6</ele>
        <time>2018-09-23T14:57:56Z</time>
      </trkpt>
      <trkpt lat="42.82673" lon="-0.20641">
        <ele>2100.1</ele>
        <time>2018-09-23T14:58:04Z</time>
      </trkpt>
      <trkpt lat="42.8267" lon="-0.20635">
        <ele>2098.2</ele>
        <time>2018-09-23T14:58:11Z</time>
      </trkpt>
      <trkpt lat="42.82668" lon="-0.20624">
        <ele>2095.8</ele>
        <time>2018-09-23T14:58:22Z</time>
      </trkpt>
      <trkpt lat="42.82665" lon="-0.2061">
        <ele>2093.9</ele>
        <time>2018-09-23T14:58:36Z</time>
      </trkpt>
      <trkpt lat="42.8266" lon="-0.20597">
        <ele>2091</ele>
        <time>2018-09-23T14:58:50Z</time>
      </trkpt>
      <trkpt lat="42.8266" lon="-0.20596">
        <ele>2091</ele>
        <time>2018-09-23T14:58:51Z</time>
      </trkpt>
      <trkpt lat="42.82657" lon="-0.2059">
        <ele>2089.6</ele>
        <time>2018-09-23T14:58:57Z</time>
      </trkpt>
      <trkpt lat="42.82649" lon="-0.20578">
        <ele>2088.1</ele>
        <time>2018-09-23T14:59:11Z</time>
      </trkpt>
      <trkpt lat="42.82647" lon="-0.20569">
        <ele>2086.7</ele>
        <time>2018-09-23T14:59:19Z</time>
      </trkpt>
      <trkpt lat="42.82645" lon="-0.20554">
        <ele>2085.2</ele>
        <time>2018-09-23T14:59:31Z</time>
      </trkpt>
      <trkpt lat="42.82646" lon="-0.20545">
        <ele>2085.2</ele>
        <time>2018-09-23T14:59:38Z</time>
      </trkpt>
      <trkpt lat="42.82643" lon="-0.20526">
        <ele>2083.8</ele>
        <time>2018-09-23T14:59:54Z</time>
      </trkpt>
      <trkpt lat="42.82642" lon="-0.20515">
        <ele>2081.4</ele>
        <time>2018-09-23T15:00:06Z</time>
      </trkpt>
      <trkpt lat="42.82642" lon="-0.20503">
        <ele>2080.4</ele>
        <time>2018-09-23T15:00:21Z</time>
      </trkpt>
      <trkpt lat="42.8264" lon="-0.20499">
        <ele>2078.5</ele>
        <time>2018-09-23T15:00:33Z</time>
      </trkpt>
      <trkpt lat="42.82639" lon="-0.20497">
        <ele>2077.6</ele>
        <time>2018-09-23T15:00:35Z</time>
      </trkpt>
      <trkpt lat="42.82641" lon="-0.20495">
        <ele>2076.1</ele>
        <time>2018-09-23T15:00:43Z</time>
      </trkpt>
      <trkpt lat="42.82643" lon="-0.20494">
        <ele>2075.1</ele>
        <time>2018-09-23T15:00:47Z</time>
      </trkpt>
      <trkpt lat="42.82648" lon="-0.20491">
        <ele>2073.2</ele>
        <time>2018-09-23T15:00:59Z</time>
      </trkpt>
      <trkpt lat="42.82649" lon="-0.2049">
        <ele>2072.7</ele>
        <time>2018-09-23T15:01:00Z</time>
      </trkpt>
      <trkpt lat="42.82648" lon="-0.20481">
        <ele>2069.4</ele>
        <time>2018-09-23T15:01:12Z</time>
      </trkpt>
      <trkpt lat="42.82644" lon="-0.20476">
        <ele>2068.4</ele>
        <time>2018-09-23T15:01:24Z</time>
      </trkpt>
      <trkpt lat="42.82642" lon="-0.20473">
        <ele>2066</ele>
        <time>2018-09-23T15:01:35Z</time>
      </trkpt>
      <trkpt lat="42.82644" lon="-0.20473">
        <ele>2065.5</ele>
        <time>2018-09-23T15:01:42Z</time>
      </trkpt>
      <trkpt lat="42.82646" lon="-0.20474">
        <ele>2064.1</ele>
        <time>2018-09-23T15:01:44Z</time>
      </trkpt>
      <trkpt lat="42.82649" lon="-0.20472">
        <ele>2064.1</ele>
        <time>2018-09-23T15:01:47Z</time>
      </trkpt>
      <trkpt lat="42.82652" lon="-0.20467">
        <ele>2064.1</ele>
        <time>2018-09-23T15:01:59Z</time>
      </trkpt>
      <trkpt lat="42.82652" lon="-0.20465">
        <ele>2063.6</ele>
        <time>2018-09-23T15:02:16Z</time>
      </trkpt>
      <trkpt lat="42.82649" lon="-0.20461">
        <ele>2062.2</ele>
        <time>2018-09-23T15:02:28Z</time>
      </trkpt>
      <trkpt lat="42.82647" lon="-0.20464">
        <ele>2063.6</ele>
        <time>2018-09-23T15:02:47Z</time>
      </trkpt>
      <trkpt lat="42.8265" lon="-0.20462">
        <ele>2063.1</ele>
        <time>2018-09-23T15:02:55Z</time>
      </trkpt>
      <trkpt lat="42.82652" lon="-0.20461">
        <ele>2063.1</ele>
        <time>2018-09-23T15:02:58Z</time>
      </trkpt>
      <trkpt lat="42.8265" lon="-0.20449">
        <ele>2062.6</ele>
        <time>2018-09-23T15:03:09Z</time>
      </trkpt>
      <trkpt lat="42.82647" lon="-0.20449">
        <ele>2062.6</ele>
        <time>2018-09-23T15:03:22Z</time>
      </trkpt>
      <trkpt lat="42.82646" lon="-0.20443">
        <ele>2061.7</ele>
        <time>2018-09-23T15:03:38Z</time>
      </trkpt>
      <trkpt lat="42.82643" lon="-0.20437">
        <ele>2061.2</ele>
        <time>2018-09-23T15:03:49Z</time>
      </trkpt>
      <trkpt lat="42.8264" lon="-0.2043">
        <ele>2061.2</ele>
        <time>2018-09-23T15:04:00Z</time>
      </trkpt>
      <trkpt lat="42.82637" lon="-0.20423">
        <ele>2060.2</ele>
        <time>2018-09-23T15:04:06Z</time>
      </trkpt>
      <trkpt lat="42.82635" lon="-0.20417">
        <ele>2060.7</ele>
        <time>2018-09-23T15:04:12Z</time>
      </trkpt>
      <trkpt lat="42.82629" lon="-0.20406">
        <ele>2059.8</ele>
        <time>2018-09-23T15:04:22Z</time>
      </trkpt>
      <trkpt lat="42.82627" lon="-0.20403">
        <ele>2059.8</ele>
        <time>2018-09-23T15:04:25Z</time>
      </trkpt>
      <trkpt lat="42.82623" lon="-0.20393">
        <ele>2059.3</ele>
        <time>2018-09-23T15:04:34Z</time>
      </trkpt>
      <trkpt lat="42.82621" lon="-0.20391">
        <ele>2059.3</ele>
        <time>2018-09-23T15:04:36Z</time>
      </trkpt>
      <trkpt lat="42.82618" lon="-0.20383">
        <ele>2057.8</ele>
        <time>2018-09-23T15:04:42Z</time>
      </trkpt>
      <trkpt lat="42.82618" lon="-0.2038">
        <ele>2058.8</ele>
        <time>2018-09-23T15:04:44Z</time>
      </trkpt>
      <trkpt lat="42.82612" lon="-0.20367">
        <ele>2058.8</ele>
        <time>2018-09-23T15:04:56Z</time>
      </trkpt>
      <trkpt lat="42.8261" lon="-0.2036">
        <ele>2056.9</ele>
        <time>2018-09-23T15:05:01Z</time>
      </trkpt>
      <trkpt lat="42.82608" lon="-0.20354">
        <ele>2056.9</ele>
        <time>2018-09-23T15:05:07Z</time>
      </trkpt>
      <trkpt lat="42.82606" lon="-0.20344">
        <ele>2056.9</ele>
        <time>2018-09-23T15:05:15Z</time>
      </trkpt>
      <trkpt lat="42.82605" lon="-0.2034">
        <ele>2055.9</ele>
        <time>2018-09-23T15:05:19Z</time>
      </trkpt>
      <trkpt lat="42.82605" lon="-0.20323">
        <ele>2055</ele>
        <time>2018-09-23T15:05:32Z</time>
      </trkpt>
      <trkpt lat="42.82606" lon="-0.20322">
        <ele>2054.5</ele>
        <time>2018-09-23T15:05:34Z</time>
      </trkpt>
      <trkpt lat="42.82608" lon="-0.20321">
        <ele>2054</ele>
        <time>2018-09-23T15:05:37Z</time>
      </trkpt>
      <trkpt lat="42.82614" lon="-0.2031">
        <ele>2052.6</ele>
        <time>2018-09-23T15:05:47Z</time>
      </trkpt>
      <trkpt lat="42.82613" lon="-0.20306">
        <ele>2051.6</ele>
        <time>2018-09-23T15:05:50Z</time>
      </trkpt>
      <trkpt lat="42.82613" lon="-0.20303">
        <ele>2051.6</ele>
        <time>2018-09-23T15:05:52Z</time>
      </trkpt>
      <trkpt lat="42.82608" lon="-0.20289">
        <ele>2049.2</ele>
        <time>2018-09-23T15:06:05Z</time>
      </trkpt>
      <trkpt lat="42.82608" lon="-0.20279">
        <ele>2047.8</ele>
        <time>2018-09-23T15:06:14Z</time>
      </trkpt>
      <trkpt lat="42.82609" lon="-0.20273">
        <ele>2046.3</ele>
        <time>2018-09-23T15:06:19Z</time>
      </trkpt>
      <trkpt lat="42.82606" lon="-0.20258">
        <ele>2045.3</ele>
        <time>2018-09-23T15:06:32Z</time>
      </trkpt>
      <trkpt lat="42.82608" lon="-0.20241">
        <ele>2044.9</ele>
        <time>2018-09-23T15:06:45Z</time>
      </trkpt>
      <trkpt lat="42.82609" lon="-0.20238">
        <ele>2044.9</ele>
        <time>2018-09-23T15:06:48Z</time>
      </trkpt>
      <trkpt lat="42.82615" lon="-0.20217">
        <ele>2043.4</ele>
        <time>2018-09-23T15:07:03Z</time>
      </trkpt>
      <trkpt lat="42.82619" lon="-0.20203">
        <ele>2043.4</ele>
        <time>2018-09-23T15:07:15Z</time>
      </trkpt>
      <trkpt lat="42.82619" lon="-0.20196">
        <ele>2042.5</ele>
        <time>2018-09-23T15:07:21Z</time>
      </trkpt>
      <trkpt lat="42.82619" lon="-0.20192">
        <ele>2042.5</ele>
        <time>2018-09-23T15:07:24Z</time>
      </trkpt>
      <trkpt lat="42.82615" lon="-0.20184">
        <ele>2042.5</ele>
        <time>2018-09-23T15:07:34Z</time>
      </trkpt>
      <trkpt lat="42.82615" lon="-0.2018">
        <ele>2043.4</ele>
        <time>2018-09-23T15:07:37Z</time>
      </trkpt>
      <trkpt lat="42.82614" lon="-0.20172">
        <ele>2042.9</ele>
        <time>2018-09-23T15:07:49Z</time>
      </trkpt>
      <trkpt lat="42.82613" lon="-0.20171">
        <ele>2042.9</ele>
        <time>2018-09-23T15:07:50Z</time>
      </trkpt>
      <trkpt lat="42.82611" lon="-0.20161">
        <ele>2042.9</ele>
        <time>2018-09-23T15:07:58Z</time>
      </trkpt>
      <trkpt lat="42.82609" lon="-0.20152">
        <ele>2042.5</ele>
        <time>2018-09-23T15:08:05Z</time>
      </trkpt>
      <trkpt lat="42.82609" lon="-0.20144">
        <ele>2041</ele>
        <time>2018-09-23T15:08:17Z</time>
      </trkpt>
      <trkpt lat="42.82609" lon="-0.20144">
        <ele>2041</ele>
        <time>2018-09-23T15:08:20Z</time>
      </trkpt>
      <trkpt lat="42.82606" lon="-0.20137">
        <ele>2041</ele>
        <time>2018-09-23T15:08:26Z</time>
      </trkpt>
      <trkpt lat="42.82595" lon="-0.20128">
        <ele>2041</ele>
        <time>2018-09-23T15:08:37Z</time>
      </trkpt>
      <trkpt lat="42.82586" lon="-0.2011">
        <ele>2040.1</ele>
        <time>2018-09-23T15:08:52Z</time>
      </trkpt>
      <trkpt lat="42.82584" lon="-0.20107">
        <ele>2040.1</ele>
        <time>2018-09-23T15:08:55Z</time>
      </trkpt>
      <trkpt lat="42.82584" lon="-0.20102">
        <ele>2039.1</ele>
        <time>2018-09-23T15:08:59Z</time>
      </trkpt>
      <trkpt lat="42.82582" lon="-0.20099">
        <ele>2039.1</ele>
        <time>2018-09-23T15:09:02Z</time>
      </trkpt>
      <trkpt lat="42.8258" lon="-0.20094">
        <ele>2037.2</ele>
        <time>2018-09-23T15:09:07Z</time>
      </trkpt>
      <trkpt lat="42.82581" lon="-0.20087">
        <ele>2036.7</ele>
        <time>2018-09-23T15:09:19Z</time>
      </trkpt>
      <trkpt lat="42.8258" lon="-0.20083">
        <ele>2036.7</ele>
        <time>2018-09-23T15:09:23Z</time>
      </trkpt>
      <trkpt lat="42.82577" lon="-0.20066">
        <ele>2034.3</ele>
        <time>2018-09-23T15:09:37Z</time>
      </trkpt>
      <trkpt lat="42.82573" lon="-0.20053">
        <ele>2032.8</ele>
        <time>2018-09-23T15:09:51Z</time>
      </trkpt>
      <trkpt lat="42.82571" lon="-0.20042">
        <ele>2031.9</ele>
        <time>2018-09-23T15:10:03Z</time>
      </trkpt>
      <trkpt lat="42.82565" lon="-0.20038">
        <ele>2031.9</ele>
        <time>2018-09-23T15:10:14Z</time>
      </trkpt>
      <trkpt lat="42.82562" lon="-0.20036">
        <ele>2030.4</ele>
        <time>2018-09-23T15:10:17Z</time>
      </trkpt>
      <trkpt lat="42.82551" lon="-0.20031">
        <ele>2029</ele>
        <time>2018-09-23T15:10:30Z</time>
      </trkpt>
      <trkpt lat="42.8254" lon="-0.20026">
        <ele>2026.1</ele>
        <time>2018-09-23T15:10:42Z</time>
      </trkpt>
      <trkpt lat="42.82539" lon="-0.20027">
        <ele>2025.2</ele>
        <time>2018-09-23T15:10:55Z</time>
      </trkpt>
      <trkpt lat="42.82532" lon="-0.20019">
        <ele>2023.7</ele>
        <time>2018-09-23T15:11:09Z</time>
      </trkpt>
      <trkpt lat="42.82527" lon="-0.20014">
        <ele>2022.3</ele>
        <time>2018-09-23T15:11:18Z</time>
      </trkpt>
      <trkpt lat="42.82518" lon="-0.20003">
        <ele>2019.9</ele>
        <time>2018-09-23T15:11:31Z</time>
      </trkpt>
      <trkpt lat="42.82511" lon="-0.1999">
        <ele>2018.9</ele>
        <time>2018-09-23T15:11:43Z</time>
      </trkpt>
      <trkpt lat="42.82507" lon="-0.19983">
        <ele>2018.4</ele>
        <time>2018-09-23T15:11:53Z</time>
      </trkpt>
      <trkpt lat="42.82507" lon="-0.19981">
        <ele>2017.9</ele>
        <time>2018-09-23T15:11:59Z</time>
      </trkpt>
      <trkpt lat="42.82502" lon="-0.1997">
        <ele>2016.5</ele>
        <time>2018-09-23T15:12:11Z</time>
      </trkpt>
      <trkpt lat="42.82496" lon="-0.19968">
        <ele>2015.5</ele>
        <time>2018-09-23T15:12:21Z</time>
      </trkpt>
      <trkpt lat="42.82489" lon="-0.19961">
        <ele>2013.1</ele>
        <time>2018-09-23T15:12:34Z</time>
      </trkpt>
      <trkpt lat="42.82483" lon="-0.19957">
        <ele>2011.7</ele>
        <time>2018-09-23T15:12:48Z</time>
      </trkpt>
      <trkpt lat="42.82472" lon="-0.1995">
        <ele>2009.3</ele>
        <time>2018-09-23T15:13:02Z</time>
      </trkpt>
      <trkpt lat="42.82468" lon="-0.19947">
        <ele>2008.8</ele>
        <time>2018-09-23T15:13:07Z</time>
      </trkpt>
      <trkpt lat="42.8246" lon="-0.19939">
        <ele>2006.9</ele>
        <time>2018-09-23T15:13:21Z</time>
      </trkpt>
      <trkpt lat="42.8245" lon="-0.19929">
        <ele>2005</ele>
        <time>2018-09-23T15:13:37Z</time>
      </trkpt>
      <trkpt lat="42.82439" lon="-0.19918">
        <ele>2002.1</ele>
        <time>2018-09-23T15:13:52Z</time>
      </trkpt>
      <trkpt lat="42.82434" lon="-0.19913">
        <ele>2000.6</ele>
        <time>2018-09-23T15:13:59Z</time>
      </trkpt>
      <trkpt lat="42.82427" lon="-0.19914">
        <ele>2000.2</ele>
        <time>2018-09-23T15:14:15Z</time>
      </trkpt>
      <trkpt lat="42.82424" lon="-0.19913">
        <ele>2000.2</ele>
        <time>2018-09-23T15:14:32Z</time>
      </trkpt>
      <trkpt lat="42.82423" lon="-0.1991">
        <ele>1999.7</ele>
        <time>2018-09-23T15:14:45Z</time>
      </trkpt>
      <trkpt lat="42.82422" lon="-0.1991">
        <ele>1999.2</ele>
        <time>2018-09-23T15:14:54Z</time>
      </trkpt>
      <trkpt lat="42.82415" lon="-0.19907">
        <ele>1997.3</ele>
        <time>2018-09-23T15:15:07Z</time>
      </trkpt>
      <trkpt lat="42.82406" lon="-0.19904">
        <ele>1995.8</ele>
        <time>2018-09-23T15:15:22Z</time>
      </trkpt>
      <trkpt lat="42.82399" lon="-0.19904">
        <ele>1992.5</ele>
        <time>2018-09-23T15:15:34Z</time>
      </trkpt>
      <trkpt lat="42.82399" lon="-0.19904">
        <ele>1992</ele>
        <time>2018-09-23T15:15:56Z</time>
      </trkpt>
      <trkpt lat="42.82393" lon="-0.19906">
        <ele>1990.6</ele>
        <time>2018-09-23T15:16:04Z</time>
      </trkpt>
      <trkpt lat="42.82385" lon="-0.19905">
        <ele>1987.2</ele>
        <time>2018-09-23T15:16:17Z</time>
      </trkpt>
      <trkpt lat="42.82381" lon="-0.19903">
        <ele>1985.3</ele>
        <time>2018-09-23T15:16:23Z</time>
      </trkpt>
      <trkpt lat="42.82374" lon="-0.19913">
        <ele>1982.9</ele>
        <time>2018-09-23T15:16:36Z</time>
      </trkpt>
      <trkpt lat="42.82376" lon="-0.19917">
        <ele>1982.9</ele>
        <time>2018-09-23T15:16:39Z</time>
      </trkpt>
      <trkpt lat="42.8238" lon="-0.19933">
        <ele>1980</ele>
        <time>2018-09-23T15:16:54Z</time>
      </trkpt>
      <trkpt lat="42.82381" lon="-0.19934">
        <ele>1980</ele>
        <time>2018-09-23T15:16:55Z</time>
      </trkpt>
      <trkpt lat="42.82387" lon="-0.19948">
        <ele>1977.6</ele>
        <time>2018-09-23T15:17:09Z</time>
      </trkpt>
      <trkpt lat="42.82382" lon="-0.19946">
        <ele>1974.7</ele>
        <time>2018-09-23T15:17:22Z</time>
      </trkpt>
      <trkpt lat="42.82376" lon="-0.19944">
        <ele>1973.7</ele>
        <time>2018-09-23T15:17:29Z</time>
      </trkpt>
      <trkpt lat="42.82363" lon="-0.1994">
        <ele>1971.8</ele>
        <time>2018-09-23T15:17:41Z</time>
      </trkpt>
      <trkpt lat="42.82356" lon="-0.19938">
        <ele>1968.9</ele>
        <time>2018-09-23T15:17:53Z</time>
      </trkpt>
      <trkpt lat="42.82344" lon="-0.19937">
        <ele>1967</ele>
        <time>2018-09-23T15:18:05Z</time>
      </trkpt>
      <trkpt lat="42.82343" lon="-0.19936">
        <ele>1967</ele>
        <time>2018-09-23T15:18:06Z</time>
      </trkpt>
      <trkpt lat="42.8233" lon="-0.19928">
        <ele>1964.6</ele>
        <time>2018-09-23T15:18:18Z</time>
      </trkpt>
      <trkpt lat="42.82329" lon="-0.19927">
        <ele>1965.6</ele>
        <time>2018-09-23T15:18:19Z</time>
      </trkpt>
      <trkpt lat="42.82314" lon="-0.19924">
        <ele>1962.2</ele>
        <time>2018-09-23T15:18:34Z</time>
      </trkpt>
      <trkpt lat="42.82312" lon="-0.19924">
        <ele>1961.7</ele>
        <time>2018-09-23T15:18:36Z</time>
      </trkpt>
      <trkpt lat="42.82302" lon="-0.19916">
        <ele>1959.3</ele>
        <time>2018-09-23T15:18:49Z</time>
      </trkpt>
      <trkpt lat="42.82299" lon="-0.19917">
        <ele>1958.3</ele>
        <time>2018-09-23T15:19:07Z</time>
      </trkpt>
      <trkpt lat="42.82298" lon="-0.19914">
        <ele>1957.9</ele>
        <time>2018-09-23T15:19:24Z</time>
      </trkpt>
      <trkpt lat="42.82297" lon="-0.19904">
        <ele>1956.4</ele>
        <time>2018-09-23T15:19:35Z</time>
      </trkpt>
      <trkpt lat="42.82294" lon="-0.19891">
        <ele>1954</ele>
        <time>2018-09-23T15:19:46Z</time>
      </trkpt>
      <trkpt lat="42.82289" lon="-0.19881">
        <ele>1953.1</ele>
        <time>2018-09-23T15:19:56Z</time>
      </trkpt>
      <trkpt lat="42.82279" lon="-0.1987">
        <ele>1950.7</ele>
        <time>2018-09-23T15:20:09Z</time>
      </trkpt>
      <trkpt lat="42.82272" lon="-0.19858">
        <ele>1949.2</ele>
        <time>2018-09-23T15:20:22Z</time>
      </trkpt>
      <trkpt lat="42.8227" lon="-0.19859">
        <ele>1948.2</ele>
        <time>2018-09-23T15:20:25Z</time>
      </trkpt>
      <trkpt lat="42.82266" lon="-0.19854">
        <ele>1947.3</ele>
        <time>2018-09-23T15:20:30Z</time>
      </trkpt>
      <trkpt lat="42.82263" lon="-0.19851">
        <ele>1947.3</ele>
        <time>2018-09-23T15:20:33Z</time>
      </trkpt>
      <trkpt lat="42.82258" lon="-0.19839">
        <ele>1945.4</ele>
        <time>2018-09-23T15:20:46Z</time>
      </trkpt>
      <trkpt lat="42.82255" lon="-0.19827">
        <ele>1943</ele>
        <time>2018-09-23T15:20:59Z</time>
      </trkpt>
      <trkpt lat="42.82249" lon="-0.19812">
        <ele>1940.1</ele>
        <time>2018-09-23T15:21:13Z</time>
      </trkpt>
      <trkpt lat="42.82244" lon="-0.19801">
        <ele>1938.2</ele>
        <time>2018-09-23T15:21:23Z</time>
      </trkpt>
      <trkpt lat="42.82239" lon="-0.19795">
        <ele>1936.7</ele>
        <time>2018-09-23T15:21:28Z</time>
      </trkpt>
      <trkpt lat="42.82236" lon="-0.19787">
        <ele>1936.7</ele>
        <time>2018-09-23T15:21:34Z</time>
      </trkpt>
      <trkpt lat="42.8223" lon="-0.19774">
        <ele>1935.8</ele>
        <time>2018-09-23T15:21:45Z</time>
      </trkpt>
      <trkpt lat="42.82225" lon="-0.19762">
        <ele>1934.3</ele>
        <time>2018-09-23T15:21:55Z</time>
      </trkpt>
      <trkpt lat="42.82223" lon="-0.19758">
        <ele>1933.3</ele>
        <time>2018-09-23T15:22:00Z</time>
      </trkpt>
      <trkpt lat="42.82213" lon="-0.19746">
        <ele>1930.5</ele>
        <time>2018-09-23T15:22:14Z</time>
      </trkpt>
      <trkpt lat="42.8221" lon="-0.19742">
        <ele>1927.1</ele>
        <time>2018-09-23T15:22:26Z</time>
      </trkpt>
      <trkpt lat="42.82209" lon="-0.19741">
        <ele>1927.1</ele>
        <time>2018-09-23T15:22:27Z</time>
      </trkpt>
      <trkpt lat="42.82209" lon="-0.19739">
        <ele>1927.6</ele>
        <time>2018-09-23T15:22:29Z</time>
      </trkpt>
      <trkpt lat="42.82203" lon="-0.19725">
        <ele>1927.1</ele>
        <time>2018-09-23T15:22:40Z</time>
      </trkpt>
      <trkpt lat="42.82195" lon="-0.19716">
        <ele>1926.1</ele>
        <time>2018-09-23T15:22:51Z</time>
      </trkpt>
      <trkpt lat="42.82185" lon="-0.19705">
        <ele>1923.7</ele>
        <time>2018-09-23T15:23:04Z</time>
      </trkpt>
      <trkpt lat="42.82181" lon="-0.19697">
        <ele>1921.3</ele>
        <time>2018-09-23T15:23:16Z</time>
      </trkpt>
      <trkpt lat="42.82174" lon="-0.19683">
        <ele>1919.9</ele>
        <time>2018-09-23T15:23:28Z</time>
      </trkpt>
      <trkpt lat="42.82171" lon="-0.19674">
        <ele>1918</ele>
        <time>2018-09-23T15:23:39Z</time>
      </trkpt>
      <trkpt lat="42.82169" lon="-0.19669">
        <ele>1917.5</ele>
        <time>2018-09-23T15:23:43Z</time>
      </trkpt>
      <trkpt lat="42.82166" lon="-0.19655">
        <ele>1915.6</ele>
        <time>2018-09-23T15:23:55Z</time>
      </trkpt>
      <trkpt lat="42.82165" lon="-0.19652">
        <ele>1915.6</ele>
        <time>2018-09-23T15:23:58Z</time>
      </trkpt>
      <trkpt lat="42.82156" lon="-0.19639">
        <ele>1914.1</ele>
        <time>2018-09-23T15:24:12Z</time>
      </trkpt>
      <trkpt lat="42.82154" lon="-0.19641">
        <ele>1914.1</ele>
        <time>2018-09-23T15:24:25Z</time>
      </trkpt>
      <trkpt lat="42.82153" lon="-0.19644">
        <ele>1914.6</ele>
        <time>2018-09-23T15:24:43Z</time>
      </trkpt>
      <trkpt lat="42.82151" lon="-0.19647">
        <ele>1913.6</ele>
        <time>2018-09-23T15:25:11Z</time>
      </trkpt>
      <trkpt lat="42.82151" lon="-0.19643">
        <ele>1912.7</ele>
        <time>2018-09-23T15:25:42Z</time>
      </trkpt>
      <trkpt lat="42.82147" lon="-0.19631">
        <ele>1909.8</ele>
        <time>2018-09-23T15:25:56Z</time>
      </trkpt>
      <trkpt lat="42.82141" lon="-0.19635">
        <ele>1908.3</ele>
        <time>2018-09-23T15:26:05Z</time>
      </trkpt>
      <trkpt lat="42.82141" lon="-0.19636">
        <ele>1907.9</ele>
        <time>2018-09-23T15:26:07Z</time>
      </trkpt>
      <trkpt lat="42.82138" lon="-0.19638">
        <ele>1907.4</ele>
        <time>2018-09-23T15:26:10Z</time>
      </trkpt>
      <trkpt lat="42.82131" lon="-0.19645">
        <ele>1904</ele>
        <time>2018-09-23T15:26:23Z</time>
      </trkpt>
      <trkpt lat="42.82127" lon="-0.19654">
        <ele>1901.6</ele>
        <time>2018-09-23T15:26:32Z</time>
      </trkpt>
      <trkpt lat="42.8212" lon="-0.19652">
        <ele>1898.3</ele>
        <time>2018-09-23T15:26:45Z</time>
      </trkpt>
      <trkpt lat="42.82116" lon="-0.19652">
        <ele>1896.8</ele>
        <time>2018-09-23T15:26:52Z</time>
      </trkpt>
      <trkpt lat="42.82114" lon="-0.19645">
        <ele>1894.9</ele>
        <time>2018-09-23T15:27:04Z</time>
      </trkpt>
      <trkpt lat="42.82109" lon="-0.19642">
        <ele>1892.5</ele>
        <time>2018-09-23T15:27:15Z</time>
      </trkpt>
      <trkpt lat="42.82105" lon="-0.19637">
        <ele>1891.1</ele>
        <time>2018-09-23T15:27:22Z</time>
      </trkpt>
      <trkpt lat="42.82098" lon="-0.19631">
        <ele>1890.1</ele>
        <time>2018-09-23T15:27:36Z</time>
      </trkpt>
      <trkpt lat="42.82098" lon="-0.1963">
        <ele>1890.1</ele>
        <time>2018-09-23T15:27:38Z</time>
      </trkpt>
      <trkpt lat="42.82093" lon="-0.19622">
        <ele>1887.7</ele>
        <time>2018-09-23T15:27:52Z</time>
      </trkpt>
      <trkpt lat="42.8209" lon="-0.19611">
        <ele>1885.8</ele>
        <time>2018-09-23T15:28:06Z</time>
      </trkpt>
      <trkpt lat="42.82089" lon="-0.19608">
        <ele>1884.3</ele>
        <time>2018-09-23T15:28:09Z</time>
      </trkpt>
      <trkpt lat="42.82087" lon="-0.19599">
        <ele>1882.9</ele>
        <time>2018-09-23T15:28:19Z</time>
      </trkpt>
      <trkpt lat="42.82084" lon="-0.19595">
        <ele>1881.9</ele>
        <time>2018-09-23T15:28:24Z</time>
      </trkpt>
      <trkpt lat="42.82077" lon="-0.19588">
        <ele>1879</ele>
        <time>2018-09-23T15:28:35Z</time>
      </trkpt>
      <trkpt lat="42.82074" lon="-0.19583">
        <ele>1877.6</ele>
        <time>2018-09-23T15:28:40Z</time>
      </trkpt>
      <trkpt lat="42.82069" lon="-0.19578">
        <ele>1874.7</ele>
        <time>2018-09-23T15:28:55Z</time>
      </trkpt>
      <trkpt lat="42.82065" lon="-0.19578">
        <ele>1874.7</ele>
        <time>2018-09-23T15:29:18Z</time>
      </trkpt>
      <trkpt lat="42.82067" lon="-0.19582">
        <ele>1874.7</ele>
        <time>2018-09-23T15:29:39Z</time>
      </trkpt>
      <trkpt lat="42.82065" lon="-0.1958">
        <ele>1874.2</ele>
        <time>2018-09-23T15:30:05Z</time>
      </trkpt>
      <trkpt lat="42.8206" lon="-0.19577">
        <ele>1873.8</ele>
        <time>2018-09-23T15:30:09Z</time>
      </trkpt>
      <trkpt lat="42.82052" lon="-0.19561">
        <ele>1872.3</ele>
        <time>2018-09-23T15:30:22Z</time>
      </trkpt>
      <trkpt lat="42.82049" lon="-0.19556">
        <ele>1871.8</ele>
        <time>2018-09-23T15:30:26Z</time>
      </trkpt>
      <trkpt lat="42.82047" lon="-0.19553">
        <ele>1871.8</ele>
        <time>2018-09-23T15:30:28Z</time>
      </trkpt>
      <trkpt lat="42.82035" lon="-0.19553">
        <ele>1869.9</ele>
        <time>2018-09-23T15:30:41Z</time>
      </trkpt>
      <trkpt lat="42.82034" lon="-0.19549">
        <ele>1869.4</ele>
        <time>2018-09-23T15:31:03Z</time>
      </trkpt>
      <trkpt lat="42.82034" lon="-0.19548">
        <ele>1869.4</ele>
        <time>2018-09-23T15:31:04Z</time>
      </trkpt>
      <trkpt lat="42.82033" lon="-0.19543">
        <ele>1869.4</ele>
        <time>2018-09-23T15:31:08Z</time>
      </trkpt>
      <trkpt lat="42.82031" lon="-0.1954">
        <ele>1868.5</ele>
        <time>2018-09-23T15:31:10Z</time>
      </trkpt>
      <trkpt lat="42.82029" lon="-0.19535">
        <ele>1867.5</ele>
        <time>2018-09-23T15:31:14Z</time>
      </trkpt>
      <trkpt lat="42.82024" lon="-0.19531">
        <ele>1867.5</ele>
        <time>2018-09-23T15:31:18Z</time>
      </trkpt>
      <trkpt lat="42.82016" lon="-0.19521">
        <ele>1867</ele>
        <time>2018-09-23T15:31:30Z</time>
      </trkpt>
      <trkpt lat="42.82013" lon="-0.19508">
        <ele>1867</ele>
        <time>2018-09-23T15:31:38Z</time>
      </trkpt>
      <trkpt lat="42.82009" lon="-0.19487">
        <ele>1866.5</ele>
        <time>2018-09-23T15:31:54Z</time>
      </trkpt>
      <trkpt lat="42.82005" lon="-0.19468">
        <ele>1865.6</ele>
        <time>2018-09-23T15:32:09Z</time>
      </trkpt>
      <trkpt lat="42.82003" lon="-0.1947">
        <ele>1866.1</ele>
        <time>2018-09-23T15:32:16Z</time>
      </trkpt>
      <trkpt lat="42.82003" lon="-0.19471">
        <ele>1865.6</ele>
        <time>2018-09-23T15:32:28Z</time>
      </trkpt>
      <trkpt lat="42.82003" lon="-0.1947">
        <ele>1864.6</ele>
        <time>2018-09-23T15:32:51Z</time>
      </trkpt>
      <trkpt lat="42.82001" lon="-0.19471">
        <ele>1864.6</ele>
        <time>2018-09-23T15:33:12Z</time>
      </trkpt>
      <trkpt lat="42.82002" lon="-0.19469">
        <ele>1864.6</ele>
        <time>2018-09-23T15:33:29Z</time>
      </trkpt>
      <trkpt lat="42.82001" lon="-0.1947">
        <ele>1864.6</ele>
        <time>2018-09-23T15:33:59Z</time>
      </trkpt>
      <trkpt lat="42.81997" lon="-0.19467">
        <ele>1864.1</ele>
        <time>2018-09-23T15:34:48Z</time>
      </trkpt>
      <trkpt lat="42.81997" lon="-0.19466">
        <ele>1863.7</ele>
        <time>2018-09-23T15:35:23Z</time>
      </trkpt>
      <trkpt lat="42.81998" lon="-0.19467">
        <ele>1864.1</ele>
        <time>2018-09-23T15:36:06Z</time>
      </trkpt>
      <trkpt lat="42.81998" lon="-0.19467">
        <ele>1863.7</ele>
        <time>2018-09-23T15:36:51Z</time>
      </trkpt>
      <trkpt lat="42.81999" lon="-0.19468">
        <ele>1863.7</ele>
        <time>2018-09-23T15:37:38Z</time>
      </trkpt>
      <trkpt lat="42.81999" lon="-0.19468">
        <ele>1864.1</ele>
        <time>2018-09-23T15:38:24Z</time>
      </trkpt>
      <trkpt lat="42.81998" lon="-0.19466">
        <ele>1863.7</ele>
        <time>2018-09-23T15:38:53Z</time>
      </trkpt>
      <trkpt lat="42.81999" lon="-0.19466">
        <ele>1863.7</ele>
        <time>2018-09-23T15:39:26Z</time>
      </trkpt>
      <trkpt lat="42.81998" lon="-0.19464">
        <ele>1863.7</ele>
        <time>2018-09-23T15:40:03Z</time>
      </trkpt>
      <trkpt lat="42.81997" lon="-0.19465">
        <ele>1864.1</ele>
        <time>2018-09-23T15:40:35Z</time>
      </trkpt>
      <trkpt lat="42.81996" lon="-0.19464">
        <ele>1863.7</ele>
        <time>2018-09-23T15:41:18Z</time>
      </trkpt>
      <trkpt lat="42.81995" lon="-0.19462">
        <ele>1864.6</ele>
        <time>2018-09-23T15:41:43Z</time>
      </trkpt>
      <trkpt lat="42.81997" lon="-0.19463">
        <ele>1864.6</ele>
        <time>2018-09-23T15:42:19Z</time>
      </trkpt>
      <trkpt lat="42.81999" lon="-0.19463">
        <ele>1865.1</ele>
        <time>2018-09-23T15:42:54Z</time>
      </trkpt>
      <trkpt lat="42.81998" lon="-0.19462">
        <ele>1864.6</ele>
        <time>2018-09-23T15:43:25Z</time>
      </trkpt>
      <trkpt lat="42.81998" lon="-0.19463">
        <ele>1865.1</ele>
        <time>2018-09-23T15:44:02Z</time>
      </trkpt>
      <trkpt lat="42.81999" lon="-0.19465">
        <ele>1864.6</ele>
        <time>2018-09-23T15:44:50Z</time>
      </trkpt>
      <trkpt lat="42.82001" lon="-0.19465">
        <ele>1864.6</ele>
        <time>2018-09-23T15:45:29Z</time>
      </trkpt>
      <trkpt lat="42.82001" lon="-0.19465">
        <ele>1864.6</ele>
        <time>2018-09-23T15:46:14Z</time>
      </trkpt>
      <trkpt lat="42.82002" lon="-0.19465">
        <ele>1865.1</ele>
        <time>2018-09-23T15:46:47Z</time>
      </trkpt>
      <trkpt lat="42.82002" lon="-0.19468">
        <ele>1864.6</ele>
        <time>2018-09-23T15:47:20Z</time>
      </trkpt>
      <trkpt lat="42.82001" lon="-0.19466">
        <ele>1865.6</ele>
        <time>2018-09-23T15:47:39Z</time>
      </trkpt>
      <trkpt lat="42.82002" lon="-0.19468">
        <ele>1866.1</ele>
        <time>2018-09-23T15:47:49Z</time>
      </trkpt>
      <trkpt lat="42.82001" lon="-0.19468">
        <ele>1865.6</ele>
        <time>2018-09-23T15:48:03Z</time>
      </trkpt>
      <trkpt lat="42.81999" lon="-0.19467">
        <ele>1866.1</ele>
        <time>2018-09-23T15:48:17Z</time>
      </trkpt>
      <trkpt lat="42.81999" lon="-0.19467">
        <ele>1866.5</ele>
        <time>2018-09-23T15:48:38Z</time>
      </trkpt>
      <trkpt lat="42.81999" lon="-0.19467">
        <ele>1866.1</ele>
        <time>2018-09-23T15:48:39Z</time>
      </trkpt>
      <trkpt lat="42.82" lon="-0.19466">
        <ele>1865.6</ele>
        <time>2018-09-23T15:48:46Z</time>
      </trkpt>
      <trkpt lat="42.81995" lon="-0.19465">
        <ele>1863.2</ele>
        <time>2018-09-23T15:48:58Z</time>
      </trkpt>
      <trkpt lat="42.8199" lon="-0.19465">
        <ele>1862.2</ele>
        <time>2018-09-23T15:49:02Z</time>
      </trkpt>
      <trkpt lat="42.81988" lon="-0.19464">
        <ele>1861.7</ele>
        <time>2018-09-23T15:49:04Z</time>
      </trkpt>
      <trkpt lat="42.81986" lon="-0.19464">
        <ele>1860.8</ele>
        <time>2018-09-23T15:49:19Z</time>
      </trkpt>
      <trkpt lat="42.81987" lon="-0.19461">
        <ele>1860.8</ele>
        <time>2018-09-23T15:49:22Z</time>
      </trkpt>
      <trkpt lat="42.81988" lon="-0.19455">
        <ele>1859.8</ele>
        <time>2018-09-23T15:49:26Z</time>
      </trkpt>
      <trkpt lat="42.81985" lon="-0.19445">
        <ele>1858.8</ele>
        <time>2018-09-23T15:49:33Z</time>
      </trkpt>
      <trkpt lat="42.8197" lon="-0.19434">
        <ele>1858.4</ele>
        <time>2018-09-23T15:49:43Z</time>
      </trkpt>
      <trkpt lat="42.81969" lon="-0.19429">
        <ele>1857.9</ele>
        <time>2018-09-23T15:49:47Z</time>
      </trkpt>
      <trkpt lat="42.81966" lon="-0.1942">
        <ele>1856.4</ele>
        <time>2018-09-23T15:49:53Z</time>
      </trkpt>
      <trkpt lat="42.81961" lon="-0.19413">
        <ele>1855</ele>
        <time>2018-09-23T15:49:58Z</time>
      </trkpt>
      <trkpt lat="42.81961" lon="-0.19408">
        <ele>1855</ele>
        <time>2018-09-23T15:50:01Z</time>
      </trkpt>
      <trkpt lat="42.81959" lon="-0.19403">
        <ele>1853.6</ele>
        <time>2018-09-23T15:50:04Z</time>
      </trkpt>
      <trkpt lat="42.81963" lon="-0.19381">
        <ele>1852.1</ele>
        <time>2018-09-23T15:50:18Z</time>
      </trkpt>
      <trkpt lat="42.81962" lon="-0.19379">
        <ele>1852.1</ele>
        <time>2018-09-23T15:50:19Z</time>
      </trkpt>
      <trkpt lat="42.81956" lon="-0.19355">
        <ele>1851.2</ele>
        <time>2018-09-23T15:50:33Z</time>
      </trkpt>
      <trkpt lat="42.81949" lon="-0.19352">
        <ele>1853.1</ele>
        <time>2018-09-23T15:50:42Z</time>
      </trkpt>
      <trkpt lat="42.81937" lon="-0.19358">
        <ele>1853.1</ele>
        <time>2018-09-23T15:50:52Z</time>
      </trkpt>
      <trkpt lat="42.81936" lon="-0.19355">
        <ele>1853.1</ele>
        <time>2018-09-23T15:50:54Z</time>
      </trkpt>
      <trkpt lat="42.81938" lon="-0.19344">
        <ele>1853.1</ele>
        <time>2018-09-23T15:51:02Z</time>
      </trkpt>
      <trkpt lat="42.81937" lon="-0.19339">
        <ele>1852.6</ele>
        <time>2018-09-23T15:51:05Z</time>
      </trkpt>
      <trkpt lat="42.81936" lon="-0.19336">
        <ele>1851.6</ele>
        <time>2018-09-23T15:51:07Z</time>
      </trkpt>
      <trkpt lat="42.81935" lon="-0.19332">
        <ele>1850.7</ele>
        <time>2018-09-23T15:51:10Z</time>
      </trkpt>
      <trkpt lat="42.81933" lon="-0.19328">
        <ele>1850.7</ele>
        <time>2018-09-23T15:51:14Z</time>
      </trkpt>
      <trkpt lat="42.81925" lon="-0.19329">
        <ele>1848.8</ele>
        <time>2018-09-23T15:51:22Z</time>
      </trkpt>
      <trkpt lat="42.81912" lon="-0.19321">
        <ele>1848.3</ele>
        <time>2018-09-23T15:51:33Z</time>
      </trkpt>
      <trkpt lat="42.8191" lon="-0.19303">
        <ele>1845.4</ele>
        <time>2018-09-23T15:51:45Z</time>
      </trkpt>
      <trkpt lat="42.81911" lon="-0.19294">
        <ele>1844.4</ele>
        <time>2018-09-23T15:51:50Z</time>
      </trkpt>
      <trkpt lat="42.81916" lon="-0.1928">
        <ele>1842.5</ele>
        <time>2018-09-23T15:52:00Z</time>
      </trkpt>
      <trkpt lat="42.81923" lon="-0.19256">
        <ele>1840.6</ele>
        <time>2018-09-23T15:52:14Z</time>
      </trkpt>
      <trkpt lat="42.81927" lon="-0.19237">
        <ele>1840.6</ele>
        <time>2018-09-23T15:52:26Z</time>
      </trkpt>
      <trkpt lat="42.81928" lon="-0.19235">
        <ele>1840.1</ele>
        <time>2018-09-23T15:52:27Z</time>
      </trkpt>
      <trkpt lat="42.81926" lon="-0.19229">
        <ele>1839.6</ele>
        <time>2018-09-23T15:52:30Z</time>
      </trkpt>
      <trkpt lat="42.81928" lon="-0.19216">
        <ele>1840.1</ele>
        <time>2018-09-23T15:52:37Z</time>
      </trkpt>
      <trkpt lat="42.81921" lon="-0.19197">
        <ele>1838.7</ele>
        <time>2018-09-23T15:52:50Z</time>
      </trkpt>
      <trkpt lat="42.81918" lon="-0.19191">
        <ele>1838.7</ele>
        <time>2018-09-23T15:52:54Z</time>
      </trkpt>
      <trkpt lat="42.8192" lon="-0.19183">
        <ele>1839.1</ele>
        <time>2018-09-23T15:52:58Z</time>
      </trkpt>
      <trkpt lat="42.81923" lon="-0.19175">
        <ele>1837.7</ele>
        <time>2018-09-23T15:53:05Z</time>
      </trkpt>
      <trkpt lat="42.81927" lon="-0.19168">
        <ele>1837.7</ele>
        <time>2018-09-23T15:53:11Z</time>
      </trkpt>
      <trkpt lat="42.8193" lon="-0.1915">
        <ele>1833.8</ele>
        <time>2018-09-23T15:53:22Z</time>
      </trkpt>
      <trkpt lat="42.8193" lon="-0.19148">
        <ele>1833.8</ele>
        <time>2018-09-23T15:53:23Z</time>
      </trkpt>
      <trkpt lat="42.81934" lon="-0.1914">
        <ele>1832.4</ele>
        <time>2018-09-23T15:53:28Z</time>
      </trkpt>
      <trkpt lat="42.81934" lon="-0.19131">
        <ele>1831.4</ele>
        <time>2018-09-23T15:53:33Z</time>
      </trkpt>
      <trkpt lat="42.81936" lon="-0.19124">
        <ele>1830.5</ele>
        <time>2018-09-23T15:53:38Z</time>
      </trkpt>
      <trkpt lat="42.81938" lon="-0.19108">
        <ele>1829.1</ele>
        <time>2018-09-23T15:53:47Z</time>
      </trkpt>
      <trkpt lat="42.81937" lon="-0.19101">
        <ele>1829.5</ele>
        <time>2018-09-23T15:53:51Z</time>
      </trkpt>
      <trkpt lat="42.81934" lon="-0.19078">
        <ele>1828.6</ele>
        <time>2018-09-23T15:54:03Z</time>
      </trkpt>
      <trkpt lat="42.81933" lon="-0.19069">
        <ele>1827.6</ele>
        <time>2018-09-23T15:54:08Z</time>
      </trkpt>
      <trkpt lat="42.81937" lon="-0.19043">
        <ele>1826.6</ele>
        <time>2018-09-23T15:54:23Z</time>
      </trkpt>
      <trkpt lat="42.81937" lon="-0.19042">
        <ele>1827.1</ele>
        <time>2018-09-23T15:54:24Z</time>
      </trkpt>
      <trkpt lat="42.81941" lon="-0.19033">
        <ele>1825.7</ele>
        <time>2018-09-23T15:54:34Z</time>
      </trkpt>
      <trkpt lat="42.81942" lon="-0.19025">
        <ele>1825.2</ele>
        <time>2018-09-23T15:54:39Z</time>
      </trkpt>
      <trkpt lat="42.81949" lon="-0.19016">
        <ele>1825.2</ele>
        <time>2018-09-23T15:54:48Z</time>
      </trkpt>
      <trkpt lat="42.81951" lon="-0.1901">
        <ele>1824.7</ele>
        <time>2018-09-23T15:54:52Z</time>
      </trkpt>
      <trkpt lat="42.81954" lon="-0.19002">
        <ele>1824.2</ele>
        <time>2018-09-23T15:54:59Z</time>
      </trkpt>
      <trkpt lat="42.81957" lon="-0.18999">
        <ele>1823.3</ele>
        <time>2018-09-23T15:55:03Z</time>
      </trkpt>
      <trkpt lat="42.81967" lon="-0.18973">
        <ele>1821.8</ele>
        <time>2018-09-23T15:55:18Z</time>
      </trkpt>
      <trkpt lat="42.81966" lon="-0.18965">
        <ele>1821.8</ele>
        <time>2018-09-23T15:55:32Z</time>
      </trkpt>
      <trkpt lat="42.81967" lon="-0.18966">
        <ele>1821.8</ele>
        <time>2018-09-23T15:55:34Z</time>
      </trkpt>
      <trkpt lat="42.81973" lon="-0.18951">
        <ele>1821.8</ele>
        <time>2018-09-23T15:55:45Z</time>
      </trkpt>
      <trkpt lat="42.81974" lon="-0.18947">
        <ele>1821.8</ele>
        <time>2018-09-23T15:55:48Z</time>
      </trkpt>
      <trkpt lat="42.81974" lon="-0.18945">
        <ele>1821.3</ele>
        <time>2018-09-23T15:56:03Z</time>
      </trkpt>
      <trkpt lat="42.81973" lon="-0.18945">
        <ele>1821.3</ele>
        <time>2018-09-23T15:56:22Z</time>
      </trkpt>
      <trkpt lat="42.81974" lon="-0.18942">
        <ele>1821.3</ele>
        <time>2018-09-23T15:56:44Z</time>
      </trkpt>
      <trkpt lat="42.81974" lon="-0.18943">
        <ele>1820.9</ele>
        <time>2018-09-23T15:56:50Z</time>
      </trkpt>
      <trkpt lat="42.81974" lon="-0.18942">
        <ele>1821.8</ele>
        <time>2018-09-23T15:56:51Z</time>
      </trkpt>
      <trkpt lat="42.81979" lon="-0.18923">
        <ele>1822.3</ele>
        <time>2018-09-23T15:57:02Z</time>
      </trkpt>
      <trkpt lat="42.81987" lon="-0.1891">
        <ele>1821.3</ele>
        <time>2018-09-23T15:57:13Z</time>
      </trkpt>
      <trkpt lat="42.81988" lon="-0.18907">
        <ele>1821.3</ele>
        <time>2018-09-23T15:57:15Z</time>
      </trkpt>
      <trkpt lat="42.82002" lon="-0.18883">
        <ele>1820.4</ele>
        <time>2018-09-23T15:57:31Z</time>
      </trkpt>
      <trkpt lat="42.82013" lon="-0.18863">
        <ele>1820.4</ele>
        <time>2018-09-23T15:57:45Z</time>
      </trkpt>
      <trkpt lat="42.82016" lon="-0.18857">
        <ele>1820.9</ele>
        <time>2018-09-23T15:57:49Z</time>
      </trkpt>
      <trkpt lat="42.82037" lon="-0.18842">
        <ele>1819.4</ele>
        <time>2018-09-23T15:58:07Z</time>
      </trkpt>
      <trkpt lat="42.82048" lon="-0.18818">
        <ele>1819.4</ele>
        <time>2018-09-23T15:58:22Z</time>
      </trkpt>
      <trkpt lat="42.82049" lon="-0.18806">
        <ele>1819.9</ele>
        <time>2018-09-23T15:58:29Z</time>
      </trkpt>
      <trkpt lat="42.82053" lon="-0.188">
        <ele>1820.4</ele>
        <time>2018-09-23T15:58:33Z</time>
      </trkpt>
      <trkpt lat="42.82058" lon="-0.18793">
        <ele>1819.4</ele>
        <time>2018-09-23T15:58:39Z</time>
      </trkpt>
      <trkpt lat="42.8206" lon="-0.18791">
        <ele>1819.9</ele>
        <time>2018-09-23T15:58:41Z</time>
      </trkpt>
      <trkpt lat="42.82071" lon="-0.1878">
        <ele>1819.9</ele>
        <time>2018-09-23T15:58:53Z</time>
      </trkpt>
      <trkpt lat="42.82072" lon="-0.18778">
        <ele>1818.9</ele>
        <time>2018-09-23T15:58:55Z</time>
      </trkpt>
      <trkpt lat="42.82085" lon="-0.18769">
        <ele>1818.5</ele>
        <time>2018-09-23T15:59:07Z</time>
      </trkpt>
      <trkpt lat="42.82094" lon="-0.18764">
        <ele>1818.5</ele>
        <time>2018-09-23T15:59:14Z</time>
      </trkpt>
      <trkpt lat="42.82104" lon="-0.18746">
        <ele>1818.5</ele>
        <time>2018-09-23T15:59:27Z</time>
      </trkpt>
      <trkpt lat="42.82106" lon="-0.18737">
        <ele>1818</ele>
        <time>2018-09-23T15:59:31Z</time>
      </trkpt>
      <trkpt lat="42.82108" lon="-0.18716">
        <ele>1818.9</ele>
        <time>2018-09-23T15:59:43Z</time>
      </trkpt>
      <trkpt lat="42.82112" lon="-0.18701">
        <ele>1819.9</ele>
        <time>2018-09-23T15:59:54Z</time>
      </trkpt>
      <trkpt lat="42.82119" lon="-0.18685">
        <ele>1819.4</ele>
        <time>2018-09-23T16:00:06Z</time>
      </trkpt>
      <trkpt lat="42.82125" lon="-0.18678">
        <ele>1818.9</ele>
        <time>2018-09-23T16:00:12Z</time>
      </trkpt>
      <trkpt lat="42.82129" lon="-0.18671">
        <ele>1818.5</ele>
        <time>2018-09-23T16:00:18Z</time>
      </trkpt>
      <trkpt lat="42.82132" lon="-0.18657">
        <ele>1815.6</ele>
        <time>2018-09-23T16:00:29Z</time>
      </trkpt>
      <trkpt lat="42.82137" lon="-0.18649">
        <ele>1814.2</ele>
        <time>2018-09-23T16:00:36Z</time>
      </trkpt>
      <trkpt lat="42.82136" lon="-0.1864">
        <ele>1811.7</ele>
        <time>2018-09-23T16:00:43Z</time>
      </trkpt>
      <trkpt lat="42.82138" lon="-0.18634">
        <ele>1810.8</ele>
        <time>2018-09-23T16:00:47Z</time>
      </trkpt>
      <trkpt lat="42.82139" lon="-0.18633">
        <ele>1810.8</ele>
        <time>2018-09-23T16:00:48Z</time>
      </trkpt>
      <trkpt lat="42.82143" lon="-0.18627">
        <ele>1809.8</ele>
        <time>2018-09-23T16:00:54Z</time>
      </trkpt>
      <trkpt lat="42.82144" lon="-0.18627">
        <ele>1809.3</ele>
        <time>2018-09-23T16:00:55Z</time>
      </trkpt>
      <trkpt lat="42.82148" lon="-0.18611">
        <ele>1806</ele>
        <time>2018-09-23T16:01:08Z</time>
      </trkpt>
      <trkpt lat="42.82166" lon="-0.18596">
        <ele>1806</ele>
        <time>2018-09-23T16:01:22Z</time>
      </trkpt>
      <trkpt lat="42.82174" lon="-0.1859">
        <ele>1804.5</ele>
        <time>2018-09-23T16:01:31Z</time>
      </trkpt>
      <trkpt lat="42.82176" lon="-0.18587">
        <ele>1804.5</ele>
        <time>2018-09-23T16:01:33Z</time>
      </trkpt>
      <trkpt lat="42.82187" lon="-0.18577">
        <ele>1805.5</ele>
        <time>2018-09-23T16:01:46Z</time>
      </trkpt>
      <trkpt lat="42.82194" lon="-0.18574">
        <ele>1804.5</ele>
        <time>2018-09-23T16:01:51Z</time>
      </trkpt>
      <trkpt lat="42.822" lon="-0.18572">
        <ele>1805.5</ele>
        <time>2018-09-23T16:01:55Z</time>
      </trkpt>
      <trkpt lat="42.82215" lon="-0.18566">
        <ele>1805</ele>
        <time>2018-09-23T16:02:07Z</time>
      </trkpt>
      <trkpt lat="42.8223" lon="-0.18561">
        <ele>1803.1</ele>
        <time>2018-09-23T16:02:21Z</time>
      </trkpt>
      <trkpt lat="42.82236" lon="-0.18559">
        <ele>1802.1</ele>
        <time>2018-09-23T16:02:30Z</time>
      </trkpt>
      <trkpt lat="42.82247" lon="-0.18552">
        <ele>1800.7</ele>
        <time>2018-09-23T16:02:38Z</time>
      </trkpt>
      <trkpt lat="42.82252" lon="-0.18546">
        <ele>1799.7</ele>
        <time>2018-09-23T16:02:44Z</time>
      </trkpt>
      <trkpt lat="42.82254" lon="-0.18545">
        <ele>1798.8</ele>
        <time>2018-09-23T16:02:46Z</time>
      </trkpt>
      <trkpt lat="42.82265" lon="-0.18537">
        <ele>1796.8</ele>
        <time>2018-09-23T16:02:58Z</time>
      </trkpt>
      <trkpt lat="42.82272" lon="-0.18535">
        <ele>1794.9</ele>
        <time>2018-09-23T16:03:05Z</time>
      </trkpt>
      <trkpt lat="42.82284" lon="-0.18533">
        <ele>1791.6</ele>
        <time>2018-09-23T16:03:18Z</time>
      </trkpt>
      <trkpt lat="42.82286" lon="-0.18533">
        <ele>1791.6</ele>
        <time>2018-09-23T16:03:20Z</time>
      </trkpt>
      <trkpt lat="42.82298" lon="-0.18531">
        <ele>1789.2</ele>
        <time>2018-09-23T16:03:31Z</time>
      </trkpt>
      <trkpt lat="42.82303" lon="-0.1853">
        <ele>1788.7</ele>
        <time>2018-09-23T16:03:34Z</time>
      </trkpt>
      <trkpt lat="42.82314" lon="-0.18525">
        <ele>1786.8</ele>
        <time>2018-09-23T16:03:46Z</time>
      </trkpt>
      <trkpt lat="42.82313" lon="-0.18524">
        <ele>1786.3</ele>
        <time>2018-09-23T16:03:47Z</time>
      </trkpt>
      <trkpt lat="42.82324" lon="-0.18518">
        <ele>1784.8</ele>
        <time>2018-09-23T16:03:54Z</time>
      </trkpt>
      <trkpt lat="42.82329" lon="-0.18514">
        <ele>1783.9</ele>
        <time>2018-09-23T16:03:58Z</time>
      </trkpt>
      <trkpt lat="42.82337" lon="-0.18508">
        <ele>1781.9</ele>
        <time>2018-09-23T16:04:06Z</time>
      </trkpt>
      <trkpt lat="42.82343" lon="-0.185">
        <ele>1781.5</ele>
        <time>2018-09-23T16:04:11Z</time>
      </trkpt>
      <trkpt lat="42.82348" lon="-0.18496">
        <ele>1781</ele>
        <time>2018-09-23T16:04:14Z</time>
      </trkpt>
      <trkpt lat="42.82353" lon="-0.18493">
        <ele>1781.5</ele>
        <time>2018-09-23T16:04:18Z</time>
      </trkpt>
      <trkpt lat="42.82359" lon="-0.18489">
        <ele>1781.5</ele>
        <time>2018-09-23T16:04:22Z</time>
      </trkpt>
      <trkpt lat="42.82368" lon="-0.18473">
        <ele>1780</ele>
        <time>2018-09-23T16:04:31Z</time>
      </trkpt>
      <trkpt lat="42.82374" lon="-0.18462">
        <ele>1780.5</ele>
        <time>2018-09-23T16:04:35Z</time>
      </trkpt>
      <trkpt lat="42.82378" lon="-0.18453">
        <ele>1780.5</ele>
        <time>2018-09-23T16:04:40Z</time>
      </trkpt>
      <trkpt lat="42.8239" lon="-0.18443">
        <ele>1782.4</ele>
        <time>2018-09-23T16:04:52Z</time>
      </trkpt>
      <trkpt lat="42.82398" lon="-0.18427">
        <ele>1784.8</ele>
        <time>2018-09-23T16:05:04Z</time>
      </trkpt>
      <trkpt lat="42.82404" lon="-0.18418">
        <ele>1786.3</ele>
        <time>2018-09-23T16:05:11Z</time>
      </trkpt>
      <trkpt lat="42.82407" lon="-0.18416">
        <ele>1786.3</ele>
        <time>2018-09-23T16:05:13Z</time>
      </trkpt>
      <trkpt lat="42.82423" lon="-0.18398">
        <ele>1784.8</ele>
        <time>2018-09-23T16:05:26Z</time>
      </trkpt>
      <trkpt lat="42.82427" lon="-0.18394">
        <ele>1783.9</ele>
        <time>2018-09-23T16:05:29Z</time>
      </trkpt>
      <trkpt lat="42.82432" lon="-0.18389">
        <ele>1782.9</ele>
        <time>2018-09-23T16:05:34Z</time>
      </trkpt>
      <trkpt lat="42.82442" lon="-0.18373">
        <ele>1781.9</ele>
        <time>2018-09-23T16:05:45Z</time>
      </trkpt>
      <trkpt lat="42.82447" lon="-0.18367">
        <ele>1782.9</ele>
        <time>2018-09-23T16:05:52Z</time>
      </trkpt>
      <trkpt lat="42.82451" lon="-0.18365">
        <ele>1784.3</ele>
        <time>2018-09-23T16:05:56Z</time>
      </trkpt>
      <trkpt lat="42.82463" lon="-0.18359">
        <ele>1786.3</ele>
        <time>2018-09-23T16:06:07Z</time>
      </trkpt>
      <trkpt lat="42.82471" lon="-0.18357">
        <ele>1786.3</ele>
        <time>2018-09-23T16:06:14Z</time>
      </trkpt>
      <trkpt lat="42.8249" lon="-0.18353">
        <ele>1785.8</ele>
        <time>2018-09-23T16:06:27Z</time>
      </trkpt>
      <trkpt lat="42.82499" lon="-0.18351">
        <ele>1786.3</ele>
        <time>2018-09-23T16:06:39Z</time>
      </trkpt>
      <trkpt lat="42.82508" lon="-0.18343">
        <ele>1787.7</ele>
        <time>2018-09-23T16:06:49Z</time>
      </trkpt>
      <trkpt lat="42.82519" lon="-0.18333">
        <ele>1789.6</ele>
        <time>2018-09-23T16:07:01Z</time>
      </trkpt>
      <trkpt lat="42.82524" lon="-0.18328">
        <ele>1790.1</ele>
        <time>2018-09-23T16:07:06Z</time>
      </trkpt>
      <trkpt lat="42.82526" lon="-0.18326">
        <ele>1790.6</ele>
        <time>2018-09-23T16:07:08Z</time>
      </trkpt>
      <trkpt lat="42.82531" lon="-0.18315">
        <ele>1791.6</ele>
        <time>2018-09-23T16:07:16Z</time>
      </trkpt>
      <trkpt lat="42.82535" lon="-0.18305">
        <ele>1792</ele>
        <time>2018-09-23T16:07:23Z</time>
      </trkpt>
      <trkpt lat="42.82536" lon="-0.18292">
        <ele>1792.5</ele>
        <time>2018-09-23T16:07:31Z</time>
      </trkpt>
      <trkpt lat="42.82542" lon="-0.18282">
        <ele>1792.5</ele>
        <time>2018-09-23T16:07:43Z</time>
      </trkpt>
      <trkpt lat="42.82546" lon="-0.18275">
        <ele>1793</ele>
        <time>2018-09-23T16:07:55Z</time>
      </trkpt>
      <trkpt lat="42.82552" lon="-0.18266">
        <ele>1792.5</ele>
        <time>2018-09-23T16:08:03Z</time>
      </trkpt>
      <trkpt lat="42.82553" lon="-0.18262">
        <ele>1791.6</ele>
        <time>2018-09-23T16:08:05Z</time>
      </trkpt>
      <trkpt lat="42.82559" lon="-0.18255">
        <ele>1791.6</ele>
        <time>2018-09-23T16:08:13Z</time>
      </trkpt>
      <trkpt lat="42.82566" lon="-0.18237">
        <ele>1793</ele>
        <time>2018-09-23T16:08:27Z</time>
      </trkpt>
      <trkpt lat="42.82567" lon="-0.18234">
        <ele>1793.5</ele>
        <time>2018-09-23T16:08:30Z</time>
      </trkpt>
      <trkpt lat="42.82579" lon="-0.18223">
        <ele>1795.9</ele>
        <time>2018-09-23T16:08:44Z</time>
      </trkpt>
      <trkpt lat="42.82586" lon="-0.18214">
        <ele>1794</ele>
        <time>2018-09-23T16:08:57Z</time>
      </trkpt>
      <trkpt lat="42.82589" lon="-0.18204">
        <ele>1792</ele>
        <time>2018-09-23T16:09:05Z</time>
      </trkpt>
      <trkpt lat="42.82599" lon="-0.18198">
        <ele>1790.6</ele>
        <time>2018-09-23T16:09:18Z</time>
      </trkpt>
      <trkpt lat="42.82612" lon="-0.18192">
        <ele>1788.2</ele>
        <time>2018-09-23T16:09:32Z</time>
      </trkpt>
      <trkpt lat="42.82623" lon="-0.18184">
        <ele>1786.8</ele>
        <time>2018-09-23T16:09:46Z</time>
      </trkpt>
      <trkpt lat="42.82628" lon="-0.18177">
        <ele>1785.3</ele>
        <time>2018-09-23T16:09:56Z</time>
      </trkpt>
      <trkpt lat="42.82629" lon="-0.18175">
        <ele>1784.8</ele>
        <time>2018-09-23T16:09:57Z</time>
      </trkpt>
      <trkpt lat="42.82638" lon="-0.18162">
        <ele>1783.4</ele>
        <time>2018-09-23T16:10:09Z</time>
      </trkpt>
      <trkpt lat="42.82643" lon="-0.18146">
        <ele>1782.9</ele>
        <time>2018-09-23T16:10:21Z</time>
      </trkpt>
      <trkpt lat="42.82653" lon="-0.18138">
        <ele>1782.9</ele>
        <time>2018-09-23T16:10:39Z</time>
      </trkpt>
      <trkpt lat="42.82663" lon="-0.18129">
        <ele>1781.9</ele>
        <time>2018-09-23T16:10:50Z</time>
      </trkpt>
      <trkpt lat="42.82673" lon="-0.18117">
        <ele>1781.9</ele>
        <time>2018-09-23T16:11:04Z</time>
      </trkpt>
      <trkpt lat="42.82682" lon="-0.18105">
        <ele>1781</ele>
        <time>2018-09-23T16:11:17Z</time>
      </trkpt>
      <trkpt lat="42.82693" lon="-0.18096">
        <ele>1781</ele>
        <time>2018-09-23T16:11:29Z</time>
      </trkpt>
      <trkpt lat="42.82694" lon="-0.18094">
        <ele>1780.5</ele>
        <time>2018-09-23T16:11:31Z</time>
      </trkpt>
      <trkpt lat="42.82702" lon="-0.18081">
        <ele>1781</ele>
        <time>2018-09-23T16:11:43Z</time>
      </trkpt>
      <trkpt lat="42.82704" lon="-0.18076">
        <ele>1780.5</ele>
        <time>2018-09-23T16:11:49Z</time>
      </trkpt>
      <trkpt lat="42.82713" lon="-0.18058">
        <ele>1778.6</ele>
        <time>2018-09-23T16:12:03Z</time>
      </trkpt>
      <trkpt lat="42.82714" lon="-0.18056">
        <ele>1778.6</ele>
        <time>2018-09-23T16:12:05Z</time>
      </trkpt>
      <trkpt lat="42.82715" lon="-0.18052">
        <ele>1777.6</ele>
        <time>2018-09-23T16:12:08Z</time>
      </trkpt>
      <trkpt lat="42.82715" lon="-0.18036">
        <ele>1775.2</ele>
        <time>2018-09-23T16:12:19Z</time>
      </trkpt>
      <trkpt lat="42.82716" lon="-0.18028">
        <ele>1773.8</ele>
        <time>2018-09-23T16:12:25Z</time>
      </trkpt>
      <trkpt lat="42.82722" lon="-0.18016">
        <ele>1772.8</ele>
        <time>2018-09-23T16:12:37Z</time>
      </trkpt>
      <trkpt lat="42.82724" lon="-0.18014">
        <ele>1772.3</ele>
        <time>2018-09-23T16:12:39Z</time>
      </trkpt>
      <trkpt lat="42.8274" lon="-0.18004">
        <ele>1771.8</ele>
        <time>2018-09-23T16:12:54Z</time>
      </trkpt>
      <trkpt lat="42.82742" lon="-0.18003">
        <ele>1771.8</ele>
        <time>2018-09-23T16:12:56Z</time>
      </trkpt>
      <trkpt lat="42.82752" lon="-0.17993">
        <ele>1769.4</ele>
        <time>2018-09-23T16:13:08Z</time>
      </trkpt>
      <trkpt lat="42.82752" lon="-0.17986">
        <ele>1768.5</ele>
        <time>2018-09-23T16:13:13Z</time>
      </trkpt>
      <trkpt lat="42.8275" lon="-0.17979">
        <ele>1767.5</ele>
        <time>2018-09-23T16:13:19Z</time>
      </trkpt>
      <trkpt lat="42.8275" lon="-0.17972">
        <ele>1765.6</ele>
        <time>2018-09-23T16:13:30Z</time>
      </trkpt>
      <trkpt lat="42.82755" lon="-0.17973">
        <ele>1763.7</ele>
        <time>2018-09-23T16:13:42Z</time>
      </trkpt>
      <trkpt lat="42.82756" lon="-0.17974">
        <ele>1763.7</ele>
        <time>2018-09-23T16:13:43Z</time>
      </trkpt>
      <trkpt lat="42.82758" lon="-0.17974">
        <ele>1763.2</ele>
        <time>2018-09-23T16:13:45Z</time>
      </trkpt>
      <trkpt lat="42.82771" lon="-0.17965">
        <ele>1760.8</ele>
        <time>2018-09-23T16:14:00Z</time>
      </trkpt>
      <trkpt lat="42.82777" lon="-0.17959">
        <ele>1758.9</ele>
        <time>2018-09-23T16:14:12Z</time>
      </trkpt>
      <trkpt lat="42.82783" lon="-0.17953">
        <ele>1758.4</ele>
        <time>2018-09-23T16:14:24Z</time>
      </trkpt>
      <trkpt lat="42.82783" lon="-0.17947">
        <ele>1756.5</ele>
        <time>2018-09-23T16:14:34Z</time>
      </trkpt>
      <trkpt lat="42.82784" lon="-0.17947">
        <ele>1756.9</ele>
        <time>2018-09-23T16:14:52Z</time>
      </trkpt>
      <trkpt lat="42.82789" lon="-0.1794">
        <ele>1756.5</ele>
        <time>2018-09-23T16:15:14Z</time>
      </trkpt>
      <trkpt lat="42.82795" lon="-0.17942">
        <ele>1756</ele>
        <time>2018-09-23T16:15:30Z</time>
      </trkpt>
      <trkpt lat="42.828" lon="-0.17939">
        <ele>1754.1</ele>
        <time>2018-09-23T16:15:40Z</time>
      </trkpt>
      <trkpt lat="42.82804" lon="-0.1793">
        <ele>1752.6</ele>
        <time>2018-09-23T16:15:53Z</time>
      </trkpt>
      <trkpt lat="42.82805" lon="-0.17928">
        <ele>1752.1</ele>
        <time>2018-09-23T16:15:56Z</time>
      </trkpt>
      <trkpt lat="42.82813" lon="-0.17917">
        <ele>1750.7</ele>
        <time>2018-09-23T16:16:12Z</time>
      </trkpt>
      <trkpt lat="42.82816" lon="-0.17912">
        <ele>1749.3</ele>
        <time>2018-09-23T16:16:17Z</time>
      </trkpt>
      <trkpt lat="42.82825" lon="-0.17906">
        <ele>1747.3</ele>
        <time>2018-09-23T16:16:28Z</time>
      </trkpt>
      <trkpt lat="42.82826" lon="-0.179">
        <ele>1746.8</ele>
        <time>2018-09-23T16:16:38Z</time>
      </trkpt>
      <trkpt lat="42.82831" lon="-0.17894">
        <ele>1745.9</ele>
        <time>2018-09-23T16:16:44Z</time>
      </trkpt>
      <trkpt lat="42.8284" lon="-0.17882">
        <ele>1744.9</ele>
        <time>2018-09-23T16:16:59Z</time>
      </trkpt>
      <trkpt lat="42.82849" lon="-0.17872">
        <ele>1743</ele>
        <time>2018-09-23T16:17:12Z</time>
      </trkpt>
      <trkpt lat="42.82849" lon="-0.1786">
        <ele>1740.6</ele>
        <time>2018-09-23T16:17:23Z</time>
      </trkpt>
      <trkpt lat="42.82844" lon="-0.17854">
        <ele>1739.6</ele>
        <time>2018-09-23T16:17:29Z</time>
      </trkpt>
      <trkpt lat="42.82833" lon="-0.1785">
        <ele>1737.2</ele>
        <time>2018-09-23T16:17:42Z</time>
      </trkpt>
      <trkpt lat="42.82825" lon="-0.17845">
        <ele>1736.3</ele>
        <time>2018-09-23T16:17:53Z</time>
      </trkpt>
      <trkpt lat="42.82822" lon="-0.17845">
        <ele>1735.3</ele>
        <time>2018-09-23T16:17:55Z</time>
      </trkpt>
      <trkpt lat="42.82809" lon="-0.17847">
        <ele>1734.4</ele>
        <time>2018-09-23T16:18:05Z</time>
      </trkpt>
      <trkpt lat="42.82802" lon="-0.17844">
        <ele>1733.4</ele>
        <time>2018-09-23T16:18:16Z</time>
      </trkpt>
      <trkpt lat="42.82798" lon="-0.17841">
        <ele>1732.4</ele>
        <time>2018-09-23T16:18:26Z</time>
      </trkpt>
      <trkpt lat="42.82802" lon="-0.1784">
        <ele>1731.5</ele>
        <time>2018-09-23T16:18:32Z</time>
      </trkpt>
      <trkpt lat="42.82806" lon="-0.17839">
        <ele>1731</ele>
        <time>2018-09-23T16:18:37Z</time>
      </trkpt>
      <trkpt lat="42.82808" lon="-0.17836">
        <ele>1728.6</ele>
        <time>2018-09-23T16:18:45Z</time>
      </trkpt>
      <trkpt lat="42.82819" lon="-0.17832">
        <ele>1728.6</ele>
        <time>2018-09-23T16:18:57Z</time>
      </trkpt>
      <trkpt lat="42.82822" lon="-0.17831">
        <ele>1727.6</ele>
        <time>2018-09-23T16:19:00Z</time>
      </trkpt>
      <trkpt lat="42.82826" lon="-0.1783">
        <ele>1726.7</ele>
        <time>2018-09-23T16:19:05Z</time>
      </trkpt>
      <trkpt lat="42.82827" lon="-0.17829">
        <ele>1726.7</ele>
        <time>2018-09-23T16:19:07Z</time>
      </trkpt>
      <trkpt lat="42.82841" lon="-0.17823">
        <ele>1725.2</ele>
        <time>2018-09-23T16:19:20Z</time>
      </trkpt>
      <trkpt lat="42.82845" lon="-0.17821">
        <ele>1725.2</ele>
        <time>2018-09-23T16:19:24Z</time>
      </trkpt>
      <trkpt lat="42.82849" lon="-0.17819">
        <ele>1725.2</ele>
        <time>2018-09-23T16:19:28Z</time>
      </trkpt>
      <trkpt lat="42.82853" lon="-0.17818">
        <ele>1724.7</ele>
        <time>2018-09-23T16:19:31Z</time>
      </trkpt>
      <trkpt lat="42.82872" lon="-0.17815">
        <ele>1725.7</ele>
        <time>2018-09-23T16:19:43Z</time>
      </trkpt>
      <trkpt lat="42.82879" lon="-0.1781">
        <ele>1725.7</ele>
        <time>2018-09-23T16:19:48Z</time>
      </trkpt>
      <trkpt lat="42.82891" lon="-0.178">
        <ele>1724.7</ele>
        <time>2018-09-23T16:19:59Z</time>
      </trkpt>
      <trkpt lat="42.82894" lon="-0.17796">
        <ele>1725.2</ele>
        <time>2018-09-23T16:20:02Z</time>
      </trkpt>
      <trkpt lat="42.82899" lon="-0.17789">
        <ele>1724.7</ele>
        <time>2018-09-23T16:20:07Z</time>
      </trkpt>
      <trkpt lat="42.82898" lon="-0.17774">
        <ele>1724.3</ele>
        <time>2018-09-23T16:20:17Z</time>
      </trkpt>
      <trkpt lat="42.82893" lon="-0.17756">
        <ele>1724.3</ele>
        <time>2018-09-23T16:20:24Z</time>
      </trkpt>
      <trkpt lat="42.82892" lon="-0.17747">
        <ele>1724.3</ele>
        <time>2018-09-23T16:20:28Z</time>
      </trkpt>
      <trkpt lat="42.8289" lon="-0.17744">
        <ele>1723.3</ele>
        <time>2018-09-23T16:20:30Z</time>
      </trkpt>
      <trkpt lat="42.82893" lon="-0.17732">
        <ele>1724.3</ele>
        <time>2018-09-23T16:20:38Z</time>
      </trkpt>
      <trkpt lat="42.82895" lon="-0.17727">
        <ele>1723.8</ele>
        <time>2018-09-23T16:20:42Z</time>
      </trkpt>
      <trkpt lat="42.82905" lon="-0.17711">
        <ele>1723.8</ele>
        <time>2018-09-23T16:20:54Z</time>
      </trkpt>
      <trkpt lat="42.82914" lon="-0.17698">
        <ele>1724.3</ele>
        <time>2018-09-23T16:21:06Z</time>
      </trkpt>
      <trkpt lat="42.82914" lon="-0.17696">
        <ele>1723.8</ele>
        <time>2018-09-23T16:21:07Z</time>
      </trkpt>
      <trkpt lat="42.82919" lon="-0.17689">
        <ele>1723.8</ele>
        <time>2018-09-23T16:21:13Z</time>
      </trkpt>
      <trkpt lat="42.82921" lon="-0.17686">
        <ele>1723.8</ele>
        <time>2018-09-23T16:21:15Z</time>
      </trkpt>
      <trkpt lat="42.82926" lon="-0.17679">
        <ele>1723.8</ele>
        <time>2018-09-23T16:21:20Z</time>
      </trkpt>
      <trkpt lat="42.82936" lon="-0.17662">
        <ele>1723.3</ele>
        <time>2018-09-23T16:21:35Z</time>
      </trkpt>
      <trkpt lat="42.82937" lon="-0.17661">
        <ele>1722.3</ele>
        <time>2018-09-23T16:21:36Z</time>
      </trkpt>
      <trkpt lat="42.82943" lon="-0.17653">
        <ele>1722.8</ele>
        <time>2018-09-23T16:21:42Z</time>
      </trkpt>
      <trkpt lat="42.82947" lon="-0.17645">
        <ele>1722.8</ele>
        <time>2018-09-23T16:21:48Z</time>
      </trkpt>
      <trkpt lat="42.8295" lon="-0.17643">
        <ele>1722.3</ele>
        <time>2018-09-23T16:21:51Z</time>
      </trkpt>
      <trkpt lat="42.82963" lon="-0.17622">
        <ele>1721.9</ele>
        <time>2018-09-23T16:22:07Z</time>
      </trkpt>
      <trkpt lat="42.82964" lon="-0.1762">
        <ele>1722.3</ele>
        <time>2018-09-23T16:22:09Z</time>
      </trkpt>
      <trkpt lat="42.82973" lon="-0.17613">
        <ele>1721.9</ele>
        <time>2018-09-23T16:22:19Z</time>
      </trkpt>
      <trkpt lat="42.82993" lon="-0.176">
        <ele>1721.9</ele>
        <time>2018-09-23T16:22:37Z</time>
      </trkpt>
      <trkpt lat="42.83002" lon="-0.17593">
        <ele>1722.3</ele>
        <time>2018-09-23T16:22:46Z</time>
      </trkpt>
      <trkpt lat="42.83018" lon="-0.17575">
        <ele>1721.4</ele>
        <time>2018-09-23T16:23:01Z</time>
      </trkpt>
      <trkpt lat="42.83027" lon="-0.17562">
        <ele>1720.4</ele>
        <time>2018-09-23T16:23:07Z</time>
      </trkpt>
      <trkpt lat="42.83041" lon="-0.17544">
        <ele>1720.9</ele>
        <time>2018-09-23T16:23:22Z</time>
      </trkpt>
      <trkpt lat="42.83058" lon="-0.17531">
        <ele>1719.9</ele>
        <time>2018-09-23T16:23:37Z</time>
      </trkpt>
      <trkpt lat="42.8306" lon="-0.17524">
        <ele>1719.9</ele>
        <time>2018-09-23T16:23:42Z</time>
      </trkpt>
      <trkpt lat="42.83059" lon="-0.17521">
        <ele>1719.9</ele>
        <time>2018-09-23T16:23:46Z</time>
      </trkpt>
      <trkpt lat="42.83066" lon="-0.17519">
        <ele>1720.4</ele>
        <time>2018-09-23T16:23:53Z</time>
      </trkpt>
      <trkpt lat="42.83062" lon="-0.17507">
        <ele>1720.4</ele>
        <time>2018-09-23T16:23:58Z</time>
      </trkpt>
      <trkpt lat="42.83063" lon="-0.17502">
        <ele>1720.4</ele>
        <time>2018-09-23T16:24:01Z</time>
      </trkpt>
      <trkpt lat="42.83062" lon="-0.17499">
        <ele>1720.9</ele>
        <time>2018-09-23T16:24:02Z</time>
      </trkpt>
      <trkpt lat="42.83059" lon="-0.17495">
        <ele>1720.4</ele>
        <time>2018-09-23T16:24:05Z</time>
      </trkpt>
      <trkpt lat="42.83059" lon="-0.17491">
        <ele>1719.9</ele>
        <time>2018-09-23T16:24:07Z</time>
      </trkpt>
      <trkpt lat="42.83061" lon="-0.17487">
        <ele>1719.9</ele>
        <time>2018-09-23T16:24:09Z</time>
      </trkpt>
      <trkpt lat="42.83067" lon="-0.17482">
        <ele>1719.9</ele>
        <time>2018-09-23T16:24:13Z</time>
      </trkpt>
      <trkpt lat="42.83071" lon="-0.17479">
        <ele>1720.4</ele>
        <time>2018-09-23T16:24:16Z</time>
      </trkpt>
      <trkpt lat="42.83082" lon="-0.17469">
        <ele>1719.9</ele>
        <time>2018-09-23T16:24:24Z</time>
      </trkpt>
      <trkpt lat="42.831" lon="-0.17453">
        <ele>1719.5</ele>
        <time>2018-09-23T16:24:37Z</time>
      </trkpt>
      <trkpt lat="42.83113" lon="-0.1744">
        <ele>1719</ele>
        <time>2018-09-23T16:24:49Z</time>
      </trkpt>
      <trkpt lat="42.83115" lon="-0.17435">
        <ele>1719</ele>
        <time>2018-09-23T16:24:52Z</time>
      </trkpt>
      <trkpt lat="42.83125" lon="-0.17421">
        <ele>1719</ele>
        <time>2018-09-23T16:25:04Z</time>
      </trkpt>
      <trkpt lat="42.83137" lon="-0.17414">
        <ele>1718.5</ele>
        <time>2018-09-23T16:25:13Z</time>
      </trkpt>
      <trkpt lat="42.83139" lon="-0.17413">
        <ele>1719</ele>
        <time>2018-09-23T16:25:14Z</time>
      </trkpt>
      <trkpt lat="42.8314" lon="-0.17412">
        <ele>1718.5</ele>
        <time>2018-09-23T16:25:15Z</time>
      </trkpt>
      <trkpt lat="42.83144" lon="-0.17405">
        <ele>1719</ele>
        <time>2018-09-23T16:25:20Z</time>
      </trkpt>
      <trkpt lat="42.83146" lon="-0.17396">
        <ele>1718.5</ele>
        <time>2018-09-23T16:25:33Z</time>
      </trkpt>
      <trkpt lat="42.83143" lon="-0.17389">
        <ele>1718.5</ele>
        <time>2018-09-23T16:25:49Z</time>
      </trkpt>
      <trkpt lat="42.83139" lon="-0.17387">
        <ele>1718.5</ele>
        <time>2018-09-23T16:26:11Z</time>
      </trkpt>
      <trkpt lat="42.8314" lon="-0.17387">
        <ele>1718</ele>
        <time>2018-09-23T16:26:12Z</time>
      </trkpt>
      <trkpt lat="42.83142" lon="-0.17383">
        <ele>1718.5</ele>
        <time>2018-09-23T16:26:16Z</time>
      </trkpt>
      <trkpt lat="42.83142" lon="-0.17376">
        <ele>1718.5</ele>
        <time>2018-09-23T16:26:23Z</time>
      </trkpt>
      <trkpt lat="42.83145" lon="-0.17369">
        <ele>1718</ele>
        <time>2018-09-23T16:26:29Z</time>
      </trkpt>
      <trkpt lat="42.83145" lon="-0.17367">
        <ele>1718</ele>
        <time>2018-09-23T16:26:30Z</time>
      </trkpt>
      <trkpt lat="42.83213" lon="-0.17397">
        <ele>1717.5</ele>
        <time>2018-09-23T16:26:37Z</time>
      </trkpt>
      <trkpt lat="42.8321" lon="-0.17392">
        <ele>1718</ele>
        <time>2018-09-23T16:26:41Z</time>
      </trkpt>
      <trkpt lat="42.83196" lon="-0.17377">
        <ele>1717.5</ele>
        <time>2018-09-23T16:26:51Z</time>
      </trkpt>
      <trkpt lat="42.83192" lon="-0.17366">
        <ele>1718</ele>
        <time>2018-09-23T16:27:01Z</time>
      </trkpt>
      <trkpt lat="42.83284" lon="-0.17422">
        <ele>1717.5</ele>
        <time>2018-09-23T16:27:03Z</time>
      </trkpt>
      <trkpt lat="42.83278" lon="-0.17411">
        <ele>1717.5</ele>
        <time>2018-09-23T16:27:06Z</time>
      </trkpt>
      <trkpt lat="42.83266" lon="-0.17396">
        <ele>1716.6</ele>
        <time>2018-09-23T16:27:18Z</time>
      </trkpt>
      <trkpt lat="42.83269" lon="-0.17391">
        <ele>1716.1</ele>
        <time>2018-09-23T16:27:28Z</time>
      </trkpt>
      <trkpt lat="42.83278" lon="-0.17384">
        <ele>1716.1</ele>
        <time>2018-09-23T16:27:36Z</time>
      </trkpt>
      <trkpt lat="42.83283" lon="-0.17373">
        <ele>1715.6</ele>
        <time>2018-09-23T16:27:50Z</time>
      </trkpt>
      <trkpt lat="42.83281" lon="-0.17364">
        <ele>1714.2</ele>
        <time>2018-09-23T16:27:59Z</time>
      </trkpt>
      <trkpt lat="42.83282" lon="-0.17356">
        <ele>1714.7</ele>
        <time>2018-09-23T16:28:12Z</time>
      </trkpt>
      <trkpt lat="42.83281" lon="-0.1735">
        <ele>1714.2</ele>
        <time>2018-09-23T16:28:16Z</time>
      </trkpt>
      <trkpt lat="42.8328" lon="-0.17346">
        <ele>1714.2</ele>
        <time>2018-09-23T16:28:18Z</time>
      </trkpt>
      <trkpt lat="42.83278" lon="-0.17326">
        <ele>1714.7</ele>
        <time>2018-09-23T16:28:33Z</time>
      </trkpt>
      <trkpt lat="42.83278" lon="-0.17317">
        <ele>1715.1</ele>
        <time>2018-09-23T16:28:46Z</time>
      </trkpt>
      <trkpt lat="42.83287" lon="-0.17309">
        <ele>1716.6</ele>
        <time>2018-09-23T16:29:00Z</time>
      </trkpt>
      <trkpt lat="42.83298" lon="-0.17304">
        <ele>1718.5</ele>
        <time>2018-09-23T16:29:14Z</time>
      </trkpt>
      <trkpt lat="42.83304" lon="-0.17299">
        <ele>1719.9</ele>
        <time>2018-09-23T16:29:25Z</time>
      </trkpt>
      <trkpt lat="42.83308" lon="-0.17295">
        <ele>1721.9</ele>
        <time>2018-09-23T16:29:34Z</time>
      </trkpt>
      <trkpt lat="42.8331" lon="-0.17304">
        <ele>1723.8</ele>
        <time>2018-09-23T16:29:48Z</time>
      </trkpt>
      <trkpt lat="42.83316" lon="-0.17307">
        <ele>1725.2</ele>
        <time>2018-09-23T16:30:00Z</time>
      </trkpt>
      <trkpt lat="42.83319" lon="-0.17308">
        <ele>1725.2</ele>
        <time>2018-09-23T16:30:03Z</time>
      </trkpt>
      <trkpt lat="42.83331" lon="-0.17308">
        <ele>1723.8</ele>
        <time>2018-09-23T16:30:16Z</time>
      </trkpt>
      <trkpt lat="42.83331" lon="-0.17308">
        <ele>1723.3</ele>
        <time>2018-09-23T16:30:17Z</time>
      </trkpt>
      <trkpt lat="42.83344" lon="-0.17307">
        <ele>1723.3</ele>
        <time>2018-09-23T16:30:28Z</time>
      </trkpt>
      <trkpt lat="42.83348" lon="-0.17303">
        <ele>1723.8</ele>
        <time>2018-09-23T16:30:35Z</time>
      </trkpt>
      <trkpt lat="42.83361" lon="-0.17301">
        <ele>1722.8</ele>
        <time>2018-09-23T16:30:46Z</time>
      </trkpt>
      <trkpt lat="42.83361" lon="-0.17301">
        <ele>1722.3</ele>
        <time>2018-09-23T16:30:47Z</time>
      </trkpt>
      <trkpt lat="42.83382" lon="-0.17298">
        <ele>1722.3</ele>
        <time>2018-09-23T16:31:01Z</time>
      </trkpt>
      <trkpt lat="42.83391" lon="-0.17293">
        <ele>1722.3</ele>
        <time>2018-09-23T16:31:07Z</time>
      </trkpt>
      <trkpt lat="42.83404" lon="-0.17291">
        <ele>1721.9</ele>
        <time>2018-09-23T16:31:16Z</time>
      </trkpt>
      <trkpt lat="42.83418" lon="-0.17281">
        <ele>1722.3</ele>
        <time>2018-09-23T16:31:28Z</time>
      </trkpt>
      <trkpt lat="42.8343" lon="-0.17273">
        <ele>1722.8</ele>
        <time>2018-09-23T16:31:41Z</time>
      </trkpt>
      <trkpt lat="42.83438" lon="-0.17268">
        <ele>1722.8</ele>
        <time>2018-09-23T16:31:46Z</time>
      </trkpt>
      <trkpt lat="42.83447" lon="-0.17265">
        <ele>1723.3</ele>
        <time>2018-09-23T16:31:49Z</time>
      </trkpt>
      <trkpt lat="42.83456" lon="-0.17261">
        <ele>1723.8</ele>
        <time>2018-09-23T16:31:55Z</time>
      </trkpt>
      <trkpt lat="42.83468" lon="-0.17243">
        <ele>1722.8</ele>
        <time>2018-09-23T16:32:09Z</time>
      </trkpt>
      <trkpt lat="42.8348" lon="-0.17232">
        <ele>1722.8</ele>
        <time>2018-09-23T16:32:22Z</time>
      </trkpt>
      <trkpt lat="42.83487" lon="-0.17228">
        <ele>1722.8</ele>
        <time>2018-09-23T16:32:32Z</time>
      </trkpt>
      <trkpt lat="42.835" lon="-0.17219">
        <ele>1721.9</ele>
        <time>2018-09-23T16:32:45Z</time>
      </trkpt>
      <trkpt lat="42.83516" lon="-0.17216">
        <ele>1721.4</ele>
        <time>2018-09-23T16:32:56Z</time>
      </trkpt>
      <trkpt lat="42.83526" lon="-0.17214">
        <ele>1719.9</ele>
        <time>2018-09-23T16:33:06Z</time>
      </trkpt>
      <trkpt lat="42.83534" lon="-0.17209">
        <ele>1719.9</ele>
        <time>2018-09-23T16:33:19Z</time>
      </trkpt>
      <trkpt lat="42.83543" lon="-0.17199">
        <ele>1719.9</ele>
        <time>2018-09-23T16:33:41Z</time>
      </trkpt>
      <trkpt lat="42.83548" lon="-0.17202">
        <ele>1719.5</ele>
        <time>2018-09-23T16:33:53Z</time>
      </trkpt>
      <trkpt lat="42.83549" lon="-0.17203">
        <ele>1719</ele>
        <time>2018-09-23T16:33:56Z</time>
      </trkpt>
      <trkpt lat="42.83561" lon="-0.17198">
        <ele>1717.5</ele>
        <time>2018-09-23T16:34:09Z</time>
      </trkpt>
      <trkpt lat="42.83564" lon="-0.17196">
        <ele>1717.1</ele>
        <time>2018-09-23T16:34:11Z</time>
      </trkpt>
      <trkpt lat="42.8357" lon="-0.1719">
        <ele>1716.6</ele>
        <time>2018-09-23T16:34:17Z</time>
      </trkpt>
      <trkpt lat="42.83582" lon="-0.17179">
        <ele>1715.6</ele>
        <time>2018-09-23T16:34:24Z</time>
      </trkpt>
      <trkpt lat="42.83593" lon="-0.1716">
        <ele>1714.7</ele>
        <time>2018-09-23T16:34:36Z</time>
      </trkpt>
      <trkpt lat="42.83593" lon="-0.1715">
        <ele>1715.1</ele>
        <time>2018-09-23T16:34:41Z</time>
      </trkpt>
      <trkpt lat="42.83591" lon="-0.17141">
        <ele>1715.6</ele>
        <time>2018-09-23T16:34:43Z</time>
      </trkpt>
      <trkpt lat="42.8359" lon="-0.17133">
        <ele>1715.6</ele>
        <time>2018-09-23T16:34:48Z</time>
      </trkpt>
      <trkpt lat="42.83584" lon="-0.17117">
        <ele>1715.1</ele>
        <time>2018-09-23T16:35:01Z</time>
      </trkpt>
      <trkpt lat="42.83582" lon="-0.17098">
        <ele>1715.6</ele>
        <time>2018-09-23T16:35:13Z</time>
      </trkpt>
      <trkpt lat="42.83584" lon="-0.17081">
        <ele>1715.1</ele>
        <time>2018-09-23T16:35:26Z</time>
      </trkpt>
      <trkpt lat="42.8359" lon="-0.17069">
        <ele>1716.6</ele>
        <time>2018-09-23T16:35:39Z</time>
      </trkpt>
      <trkpt lat="42.83598" lon="-0.17059">
        <ele>1718.5</ele>
        <time>2018-09-23T16:35:53Z</time>
      </trkpt>
      <trkpt lat="42.83609" lon="-0.17045">
        <ele>1719</ele>
        <time>2018-09-23T16:36:07Z</time>
      </trkpt>
      <trkpt lat="42.83621" lon="-0.1703">
        <ele>1719.9</ele>
        <time>2018-09-23T16:36:21Z</time>
      </trkpt>
      <trkpt lat="42.83622" lon="-0.17031">
        <ele>1719.9</ele>
        <time>2018-09-23T16:36:24Z</time>
      </trkpt>
      <trkpt lat="42.83622" lon="-0.17025">
        <ele>1720.4</ele>
        <time>2018-09-23T16:36:30Z</time>
      </trkpt>
      <trkpt lat="42.83623" lon="-0.17015">
        <ele>1720.4</ele>
        <time>2018-09-23T16:36:45Z</time>
      </trkpt>
      <trkpt lat="42.83625" lon="-0.17013">
        <ele>1720.4</ele>
        <time>2018-09-23T16:36:50Z</time>
      </trkpt>
      <trkpt lat="42.83629" lon="-0.17008">
        <ele>1720.9</ele>
        <time>2018-09-23T16:36:55Z</time>
      </trkpt>
      <trkpt lat="42.83633" lon="-0.17005">
        <ele>1719.9</ele>
        <time>2018-09-23T16:37:00Z</time>
      </trkpt>
      <trkpt lat="42.83635" lon="-0.17004">
        <ele>1719.5</ele>
        <time>2018-09-23T16:37:02Z</time>
      </trkpt>
      <trkpt lat="42.83638" lon="-0.17003">
        <ele>1719</ele>
        <time>2018-09-23T16:37:06Z</time>
      </trkpt>
      <trkpt lat="42.83641" lon="-0.17001">
        <ele>1718.5</ele>
        <time>2018-09-23T16:37:09Z</time>
      </trkpt>
      <trkpt lat="42.83652" lon="-0.16992">
        <ele>1717.1</ele>
        <time>2018-09-23T16:37:18Z</time>
      </trkpt>
      <trkpt lat="42.83654" lon="-0.16985">
        <ele>1716.6</ele>
        <time>2018-09-23T16:37:24Z</time>
      </trkpt>
      <trkpt lat="42.83655" lon="-0.16975">
        <ele>1714.7</ele>
        <time>2018-09-23T16:37:31Z</time>
      </trkpt>
      <trkpt lat="42.83658" lon="-0.16967">
        <ele>1713.2</ele>
        <time>2018-09-23T16:37:38Z</time>
      </trkpt>
      <trkpt lat="42.83659" lon="-0.16963">
        <ele>1712.2</ele>
        <time>2018-09-23T16:37:40Z</time>
      </trkpt>
      <trkpt lat="42.83666" lon="-0.16949">
        <ele>1711.8</ele>
        <time>2018-09-23T16:37:51Z</time>
      </trkpt>
      <trkpt lat="42.83671" lon="-0.16933">
        <ele>1711.8</ele>
        <time>2018-09-23T16:38:02Z</time>
      </trkpt>
      <trkpt lat="42.83679" lon="-0.16912">
        <ele>1712.2</ele>
        <time>2018-09-23T16:38:16Z</time>
      </trkpt>
      <trkpt lat="42.83683" lon="-0.16903">
        <ele>1713.2</ele>
        <time>2018-09-23T16:38:24Z</time>
      </trkpt>
      <trkpt lat="42.83693" lon="-0.1689">
        <ele>1714.7</ele>
        <time>2018-09-23T16:38:36Z</time>
      </trkpt>
      <trkpt lat="42.837" lon="-0.1688">
        <ele>1715.1</ele>
        <time>2018-09-23T16:38:46Z</time>
      </trkpt>
      <trkpt lat="42.83703" lon="-0.16878">
        <ele>1715.1</ele>
        <time>2018-09-23T16:38:49Z</time>
      </trkpt>
      <trkpt lat="42.83716" lon="-0.16857">
        <ele>1715.1</ele>
        <time>2018-09-23T16:39:05Z</time>
      </trkpt>
      <trkpt lat="42.83718" lon="-0.16852">
        <ele>1715.6</ele>
        <time>2018-09-23T16:39:09Z</time>
      </trkpt>
      <trkpt lat="42.83722" lon="-0.16844">
        <ele>1715.1</ele>
        <time>2018-09-23T16:39:15Z</time>
      </trkpt>
      <trkpt lat="42.83724" lon="-0.16838">
        <ele>1714.2</ele>
        <time>2018-09-23T16:39:19Z</time>
      </trkpt>
      <trkpt lat="42.83725" lon="-0.16829">
        <ele>1712.2</ele>
        <time>2018-09-23T16:39:31Z</time>
      </trkpt>
      <trkpt lat="42.83725" lon="-0.16822">
        <ele>1710.3</ele>
        <time>2018-09-23T16:39:41Z</time>
      </trkpt>
      <trkpt lat="42.83721" lon="-0.16811">
        <ele>1708.4</ele>
        <time>2018-09-23T16:39:53Z</time>
      </trkpt>
      <trkpt lat="42.83719" lon="-0.16809">
        <ele>1707.9</ele>
        <time>2018-09-23T16:39:55Z</time>
      </trkpt>
      <trkpt lat="42.83718" lon="-0.16805">
        <ele>1707</ele>
        <time>2018-09-23T16:39:58Z</time>
      </trkpt>
      <trkpt lat="42.83719" lon="-0.16803">
        <ele>1706.5</ele>
        <time>2018-09-23T16:40:00Z</time>
      </trkpt>
      <trkpt lat="42.83722" lon="-0.16807">
        <ele>1705.5</ele>
        <time>2018-09-23T16:40:11Z</time>
      </trkpt>
      <trkpt lat="42.83725" lon="-0.16801">
        <ele>1704.1</ele>
        <time>2018-09-23T16:40:18Z</time>
      </trkpt>
      <trkpt lat="42.8373" lon="-0.16801">
        <ele>1701.7</ele>
        <time>2018-09-23T16:40:30Z</time>
      </trkpt>
      <trkpt lat="42.83734" lon="-0.16797">
        <ele>1699.3</ele>
        <time>2018-09-23T16:40:38Z</time>
      </trkpt>
      <trkpt lat="42.83741" lon="-0.16794">
        <ele>1699.3</ele>
        <time>2018-09-23T16:40:50Z</time>
      </trkpt>
      <trkpt lat="42.83748" lon="-0.1679">
        <ele>1695.9</ele>
        <time>2018-09-23T16:41:02Z</time>
      </trkpt>
      <trkpt lat="42.83752" lon="-0.16793">
        <ele>1694.5</ele>
        <time>2018-09-23T16:41:06Z</time>
      </trkpt>
      <trkpt lat="42.83756" lon="-0.16794">
        <ele>1692.1</ele>
        <time>2018-09-23T16:41:16Z</time>
      </trkpt>
      <trkpt lat="42.83758" lon="-0.16786">
        <ele>1690.1</ele>
        <time>2018-09-23T16:41:27Z</time>
      </trkpt>
      <trkpt lat="42.83763" lon="-0.16771">
        <ele>1687.7</ele>
        <time>2018-09-23T16:41:39Z</time>
      </trkpt>
      <trkpt lat="42.83769" lon="-0.16756">
        <ele>1684.4</ele>
        <time>2018-09-23T16:41:52Z</time>
      </trkpt>
      <trkpt lat="42.83775" lon="-0.16747">
        <ele>1682</ele>
        <time>2018-09-23T16:42:02Z</time>
      </trkpt>
      <trkpt lat="42.83779" lon="-0.16744">
        <ele>1681</ele>
        <time>2018-09-23T16:42:06Z</time>
      </trkpt>
      <trkpt lat="42.83784" lon="-0.16746">
        <ele>1678.6</ele>
        <time>2018-09-23T16:42:18Z</time>
      </trkpt>
      <trkpt lat="42.83782" lon="-0.1675">
        <ele>1676.7</ele>
        <time>2018-09-23T16:42:25Z</time>
      </trkpt>
      <trkpt lat="42.83783" lon="-0.16761">
        <ele>1675.2</ele>
        <time>2018-09-23T16:42:34Z</time>
      </trkpt>
      <trkpt lat="42.83785" lon="-0.16767">
        <ele>1675.2</ele>
        <time>2018-09-23T16:42:40Z</time>
      </trkpt>
      <trkpt lat="42.83793" lon="-0.16779">
        <ele>1672.3</ele>
        <time>2018-09-23T16:42:54Z</time>
      </trkpt>
      <trkpt lat="42.83803" lon="-0.16778">
        <ele>1669</ele>
        <time>2018-09-23T16:43:06Z</time>
      </trkpt>
      <trkpt lat="42.83813" lon="-0.16774">
        <ele>1666.6</ele>
        <time>2018-09-23T16:43:21Z</time>
      </trkpt>
      <trkpt lat="42.83821" lon="-0.16773">
        <ele>1665.1</ele>
        <time>2018-09-23T16:43:30Z</time>
      </trkpt>
      <trkpt lat="42.83833" lon="-0.16762">
        <ele>1661.8</ele>
        <time>2018-09-23T16:43:44Z</time>
      </trkpt>
      <trkpt lat="42.83838" lon="-0.16763">
        <ele>1660.3</ele>
        <time>2018-09-23T16:43:51Z</time>
      </trkpt>
      <trkpt lat="42.83845" lon="-0.16761">
        <ele>1659.4</ele>
        <time>2018-09-23T16:43:59Z</time>
      </trkpt>
      <trkpt lat="42.83852" lon="-0.16756">
        <ele>1657.9</ele>
        <time>2018-09-23T16:44:08Z</time>
      </trkpt>
      <trkpt lat="42.83858" lon="-0.16757">
        <ele>1655.1</ele>
        <time>2018-09-23T16:44:20Z</time>
      </trkpt>
      <trkpt lat="42.83862" lon="-0.1676">
        <ele>1654.1</ele>
        <time>2018-09-23T16:44:28Z</time>
      </trkpt>
      <trkpt lat="42.83865" lon="-0.16766">
        <ele>1652.2</ele>
        <time>2018-09-23T16:44:39Z</time>
      </trkpt>
      <trkpt lat="42.83865" lon="-0.16767">
        <ele>1651.7</ele>
        <time>2018-09-23T16:44:40Z</time>
      </trkpt>
      <trkpt lat="42.83867" lon="-0.16771">
        <ele>1650.7</ele>
        <time>2018-09-23T16:44:43Z</time>
      </trkpt>
      <trkpt lat="42.83876" lon="-0.16796">
        <ele>1648.3</ele>
        <time>2018-09-23T16:44:56Z</time>
      </trkpt>
      <trkpt lat="42.83884" lon="-0.16807">
        <ele>1646.4</ele>
        <time>2018-09-23T16:45:07Z</time>
      </trkpt>
      <trkpt lat="42.83885" lon="-0.16809">
        <ele>1645.4</ele>
        <time>2018-09-23T16:45:12Z</time>
      </trkpt>
      <trkpt lat="42.83886" lon="-0.16821">
        <ele>1642.6</ele>
        <time>2018-09-23T16:45:21Z</time>
      </trkpt>
      <trkpt lat="42.83892" lon="-0.16832">
        <ele>1641.6</ele>
        <time>2018-09-23T16:45:26Z</time>
      </trkpt>
      <trkpt lat="42.83894" lon="-0.16835">
        <ele>1641.6</ele>
        <time>2018-09-23T16:45:29Z</time>
      </trkpt>
      <trkpt lat="42.83897" lon="-0.1684">
        <ele>1641.1</ele>
        <time>2018-09-23T16:45:32Z</time>
      </trkpt>
      <trkpt lat="42.83904" lon="-0.16847">
        <ele>1639.2</ele>
        <time>2018-09-23T16:45:39Z</time>
      </trkpt>
      <trkpt lat="42.83918" lon="-0.16859">
        <ele>1637.3</ele>
        <time>2018-09-23T16:45:52Z</time>
      </trkpt>
      <trkpt lat="42.83925" lon="-0.16871">
        <ele>1636.3</ele>
        <time>2018-09-23T16:46:01Z</time>
      </trkpt>
      <trkpt lat="42.83934" lon="-0.1689">
        <ele>1635.8</ele>
        <time>2018-09-23T16:46:11Z</time>
      </trkpt>
      <trkpt lat="42.83952" lon="-0.16888">
        <ele>1635.3</ele>
        <time>2018-09-23T16:46:23Z</time>
      </trkpt>
      <trkpt lat="42.83965" lon="-0.16888">
        <ele>1634.9</ele>
        <time>2018-09-23T16:46:36Z</time>
      </trkpt>
      <trkpt lat="42.83983" lon="-0.16893">
        <ele>1633.9</ele>
        <time>2018-09-23T16:46:49Z</time>
      </trkpt>
      <trkpt lat="42.83986" lon="-0.16885">
        <ele>1633.9</ele>
        <time>2018-09-23T16:46:55Z</time>
      </trkpt>
      <trkpt lat="42.83988" lon="-0.16873">
        <ele>1633.4</ele>
        <time>2018-09-23T16:47:10Z</time>
      </trkpt>
      <trkpt lat="42.8399" lon="-0.16873">
        <ele>1632.9</ele>
        <time>2018-09-23T16:47:43Z</time>
      </trkpt>
      <trkpt lat="42.83994" lon="-0.16886">
        <ele>1633.9</ele>
        <time>2018-09-23T16:47:55Z</time>
      </trkpt>
      <trkpt lat="42.83994" lon="-0.16886">
        <ele>1632.9</ele>
        <time>2018-09-23T16:48:11Z</time>
      </trkpt>
      <trkpt lat="42.83993" lon="-0.16886">
        <ele>1632.9</ele>
        <time>2018-09-23T16:48:43Z</time>
      </trkpt>
      <trkpt lat="42.83994" lon="-0.16881">
        <ele>1632.9</ele>
        <time>2018-09-23T16:49:06Z</time>
      </trkpt>
      <trkpt lat="42.83996" lon="-0.16884">
        <ele>1632.9</ele>
        <time>2018-09-23T16:49:27Z</time>
      </trkpt>
      <trkpt lat="42.83996" lon="-0.16884">
        <ele>1633.4</ele>
        <time>2018-09-23T16:49:28Z</time>
      </trkpt>
      <trkpt lat="42.84001" lon="-0.16883">
        <ele>1633.4</ele>
        <time>2018-09-23T16:49:33Z</time>
      </trkpt>
      <trkpt lat="42.84004" lon="-0.16882">
        <ele>1632.9</ele>
        <time>2018-09-23T16:49:36Z</time>
      </trkpt>
      <trkpt lat="42.84013" lon="-0.16878">
        <ele>1632.5</ele>
        <time>2018-09-23T16:49:46Z</time>
      </trkpt>
      <trkpt lat="42.8403" lon="-0.16873">
        <ele>1632.5</ele>
        <time>2018-09-23T16:50:00Z</time>
      </trkpt>
      <trkpt lat="42.84036" lon="-0.16869">
        <ele>1632</ele>
        <time>2018-09-23T16:50:05Z</time>
      </trkpt>
      <trkpt lat="42.8405" lon="-0.16859">
        <ele>1631.5</ele>
        <time>2018-09-23T16:50:18Z</time>
      </trkpt>
      <trkpt lat="42.84056" lon="-0.16853">
        <ele>1631</ele>
        <time>2018-09-23T16:50:24Z</time>
      </trkpt>
      <trkpt lat="42.84065" lon="-0.16838">
        <ele>1631.5</ele>
        <time>2018-09-23T16:50:34Z</time>
      </trkpt>
      <trkpt lat="42.84066" lon="-0.16834">
        <ele>1631.5</ele>
        <time>2018-09-23T16:50:36Z</time>
      </trkpt>
      <trkpt lat="42.84077" lon="-0.16807">
        <ele>1631</ele>
        <time>2018-09-23T16:50:53Z</time>
      </trkpt>
      <trkpt lat="42.84087" lon="-0.16786">
        <ele>1630.1</ele>
        <time>2018-09-23T16:51:07Z</time>
      </trkpt>
      <trkpt lat="42.84093" lon="-0.16774">
        <ele>1629.6</ele>
        <time>2018-09-23T16:51:18Z</time>
      </trkpt>
      <trkpt lat="42.84099" lon="-0.16762">
        <ele>1630.1</ele>
        <time>2018-09-23T16:51:25Z</time>
      </trkpt>
      <trkpt lat="42.84111" lon="-0.16742">
        <ele>1628.6</ele>
        <time>2018-09-23T16:51:39Z</time>
      </trkpt>
      <trkpt lat="42.84112" lon="-0.1674">
        <ele>1628.6</ele>
        <time>2018-09-23T16:51:40Z</time>
      </trkpt>
      <trkpt lat="42.84122" lon="-0.16721">
        <ele>1628.1</ele>
        <time>2018-09-23T16:51:53Z</time>
      </trkpt>
      <trkpt lat="42.84122" lon="-0.1672">
        <ele>1629.1</ele>
        <time>2018-09-23T16:51:54Z</time>
      </trkpt>
      <trkpt lat="42.84126" lon="-0.16707">
        <ele>1629.1</ele>
        <time>2018-09-23T16:52:05Z</time>
      </trkpt>
      <trkpt lat="42.84141" lon="-0.16686">
        <ele>1628.1</ele>
        <time>2018-09-23T16:52:20Z</time>
      </trkpt>
      <trkpt lat="42.84154" lon="-0.16671">
        <ele>1628.6</ele>
        <time>2018-09-23T16:52:33Z</time>
      </trkpt>
      <trkpt lat="42.84169" lon="-0.16654">
        <ele>1628.1</ele>
        <time>2018-09-23T16:52:47Z</time>
      </trkpt>
      <trkpt lat="42.84186" lon="-0.16635">
        <ele>1627.7</ele>
        <time>2018-09-23T16:53:02Z</time>
      </trkpt>
      <trkpt lat="42.8419" lon="-0.16629">
        <ele>1627.2</ele>
        <time>2018-09-23T16:53:13Z</time>
      </trkpt>
      <trkpt lat="42.84208" lon="-0.16609">
        <ele>1627.2</ele>
        <time>2018-09-23T16:53:29Z</time>
      </trkpt>
      <trkpt lat="42.84223" lon="-0.16591">
        <ele>1627.2</ele>
        <time>2018-09-23T16:53:44Z</time>
      </trkpt>
      <trkpt lat="42.84238" lon="-0.1658">
        <ele>1626.7</ele>
        <time>2018-09-23T16:53:59Z</time>
      </trkpt>
      <trkpt lat="42.84248" lon="-0.16576">
        <ele>1626.2</ele>
        <time>2018-09-23T16:54:09Z</time>
      </trkpt>
      <trkpt lat="42.84249" lon="-0.16573">
        <ele>1626.7</ele>
        <time>2018-09-23T16:54:13Z</time>
      </trkpt>
      <trkpt lat="42.84254" lon="-0.16572">
        <ele>1627.7</ele>
        <time>2018-09-23T16:54:17Z</time>
      </trkpt>
      <trkpt lat="42.84274" lon="-0.16564">
        <ele>1626.2</ele>
        <time>2018-09-23T16:54:32Z</time>
      </trkpt>
      <trkpt lat="42.84296" lon="-0.16556">
        <ele>1625.7</ele>
        <time>2018-09-23T16:54:49Z</time>
      </trkpt>
      <trkpt lat="42.84317" lon="-0.16548">
        <ele>1625.2</ele>
        <time>2018-09-23T16:55:05Z</time>
      </trkpt>
      <trkpt lat="42.84333" lon="-0.16542">
        <ele>1625.2</ele>
        <time>2018-09-23T16:55:18Z</time>
      </trkpt>
      <trkpt lat="42.84351" lon="-0.16538">
        <ele>1625.2</ele>
        <time>2018-09-23T16:55:32Z</time>
      </trkpt>
      <trkpt lat="42.84364" lon="-0.16536">
        <ele>1625.2</ele>
        <time>2018-09-23T16:55:42Z</time>
      </trkpt>
      <trkpt lat="42.84366" lon="-0.16538">
        <ele>1625.7</ele>
        <time>2018-09-23T16:55:44Z</time>
      </trkpt>
      <trkpt lat="42.84386" lon="-0.16538">
        <ele>1625.7</ele>
        <time>2018-09-23T16:55:59Z</time>
      </trkpt>
      <trkpt lat="42.84408" lon="-0.16537">
        <ele>1626.2</ele>
        <time>2018-09-23T16:56:14Z</time>
      </trkpt>
      <trkpt lat="42.84429" lon="-0.16534">
        <ele>1625.2</ele>
        <time>2018-09-23T16:56:28Z</time>
      </trkpt>
      <trkpt lat="42.84442" lon="-0.1653">
        <ele>1625.7</ele>
        <time>2018-09-23T16:56:38Z</time>
      </trkpt>
      <trkpt lat="42.84465" lon="-0.16526">
        <ele>1625.2</ele>
        <time>2018-09-23T16:56:56Z</time>
      </trkpt>
      <trkpt lat="42.84485" lon="-0.16519">
        <ele>1625.7</ele>
        <time>2018-09-23T16:57:12Z</time>
      </trkpt>
      <trkpt lat="42.84506" lon="-0.16515">
        <ele>1624.8</ele>
        <time>2018-09-23T16:57:27Z</time>
      </trkpt>
      <trkpt lat="42.84514" lon="-0.1651">
        <ele>1624.8</ele>
        <time>2018-09-23T16:57:33Z</time>
      </trkpt>
      <trkpt lat="42.84532" lon="-0.16496">
        <ele>1623.8</ele>
        <time>2018-09-23T16:57:46Z</time>
      </trkpt>
      <trkpt lat="42.84555" lon="-0.16485">
        <ele>1622.4</ele>
        <time>2018-09-23T16:58:02Z</time>
      </trkpt>
      <trkpt lat="42.84578" lon="-0.16473">
        <ele>1622.4</ele>
        <time>2018-09-23T16:58:18Z</time>
      </trkpt>
      <trkpt lat="42.84604" lon="-0.16462">
        <ele>1621.9</ele>
        <time>2018-09-23T16:58:35Z</time>
      </trkpt>
      <trkpt lat="42.84627" lon="-0.16458">
        <ele>1621.4</ele>
        <time>2018-09-23T16:58:51Z</time>
      </trkpt>
      <trkpt lat="42.84647" lon="-0.16452">
        <ele>1620.4</ele>
        <time>2018-09-23T16:59:05Z</time>
      </trkpt>
      <trkpt lat="42.84669" lon="-0.1644">
        <ele>1620.4</ele>
        <time>2018-09-23T16:59:20Z</time>
      </trkpt>
      <trkpt lat="42.84693" lon="-0.16432">
        <ele>1620</ele>
        <time>2018-09-23T16:59:37Z</time>
      </trkpt>
      <trkpt lat="42.84714" lon="-0.16423">
        <ele>1619.5</ele>
        <time>2018-09-23T16:59:52Z</time>
      </trkpt>
      <trkpt lat="42.84741" lon="-0.16405">
        <ele>1620</ele>
        <time>2018-09-23T17:00:10Z</time>
      </trkpt>
      <trkpt lat="42.84769" lon="-0.16388">
        <ele>1620</ele>
        <time>2018-09-23T17:00:29Z</time>
      </trkpt>
      <trkpt lat="42.84794" lon="-0.16372">
        <ele>1619.5</ele>
        <time>2018-09-23T17:00:46Z</time>
      </trkpt>
      <trkpt lat="42.84816" lon="-0.16352">
        <ele>1619.5</ele>
        <time>2018-09-23T17:01:02Z</time>
      </trkpt>
      <trkpt lat="42.84819" lon="-0.16324">
        <ele>1618.5</ele>
        <time>2018-09-23T17:01:14Z</time>
      </trkpt>
      <trkpt lat="42.8482" lon="-0.16313">
        <ele>1618</ele>
        <time>2018-09-23T17:01:20Z</time>
      </trkpt>
      <trkpt lat="42.8482" lon="-0.16305">
        <ele>1617.6</ele>
        <time>2018-09-23T17:01:25Z</time>
      </trkpt>
      <trkpt lat="42.84813" lon="-0.1628">
        <ele>1616.1</ele>
        <time>2018-09-23T17:01:40Z</time>
      </trkpt>
      <trkpt lat="42.8481" lon="-0.16275">
        <ele>1615.6</ele>
        <time>2018-09-23T17:01:45Z</time>
      </trkpt>
      <trkpt lat="42.84809" lon="-0.1627">
        <ele>1615.6</ele>
        <time>2018-09-23T17:01:48Z</time>
      </trkpt>
      <trkpt lat="42.84802" lon="-0.16269">
        <ele>1615.6</ele>
        <time>2018-09-23T17:01:59Z</time>
      </trkpt>
      <trkpt lat="42.84803" lon="-0.16269">
        <ele>1615.2</ele>
        <time>2018-09-23T17:02:09Z</time>
      </trkpt>
      <trkpt lat="42.84805" lon="-0.16265">
        <ele>1615.2</ele>
        <time>2018-09-23T17:02:23Z</time>
      </trkpt>
      <trkpt lat="42.84806" lon="-0.16258">
        <ele>1614.2</ele>
        <time>2018-09-23T17:02:36Z</time>
      </trkpt>
      <trkpt lat="42.84805" lon="-0.16258">
        <ele>1614.7</ele>
        <time>2018-09-23T17:02:40Z</time>
      </trkpt>
      <trkpt lat="42.84808" lon="-0.16245">
        <ele>1613.2</ele>
        <time>2018-09-23T17:02:50Z</time>
      </trkpt>
      <trkpt lat="42.84816" lon="-0.16225">
        <ele>1611.3</ele>
        <time>2018-09-23T17:03:03Z</time>
      </trkpt>
      <trkpt lat="42.84824" lon="-0.16219">
        <ele>1610.3</ele>
        <time>2018-09-23T17:03:11Z</time>
      </trkpt>
      <trkpt lat="42.8484" lon="-0.16202">
        <ele>1609.4</ele>
        <time>2018-09-23T17:03:25Z</time>
      </trkpt>
      <trkpt lat="42.84857" lon="-0.1619">
        <ele>1608.4</ele>
        <time>2018-09-23T17:03:40Z</time>
      </trkpt>
      <trkpt lat="42.84875" lon="-0.16182">
        <ele>1607.9</ele>
        <time>2018-09-23T17:03:55Z</time>
      </trkpt>
      <trkpt lat="42.84888" lon="-0.16172">
        <ele>1611.3</ele>
        <time>2018-09-23T17:04:07Z</time>
      </trkpt>
      <trkpt lat="42.84893" lon="-0.16168">
        <ele>1611.8</ele>
        <time>2018-09-23T17:04:13Z</time>
      </trkpt>
      <trkpt lat="42.84906" lon="-0.16157">
        <ele>1612.8</ele>
        <time>2018-09-23T17:04:24Z</time>
      </trkpt>
      <trkpt lat="42.84918" lon="-0.16152">
        <ele>1613.7</ele>
        <time>2018-09-23T17:04:35Z</time>
      </trkpt>
      <trkpt lat="42.84937" lon="-0.16146">
        <ele>1610.3</ele>
        <time>2018-09-23T17:04:49Z</time>
      </trkpt>
      <trkpt lat="42.84955" lon="-0.16143">
        <ele>1609.9</ele>
        <time>2018-09-23T17:05:02Z</time>
      </trkpt>
      <trkpt lat="42.84957" lon="-0.16143">
        <ele>1609.4</ele>
        <time>2018-09-23T17:05:03Z</time>
      </trkpt>
      <trkpt lat="42.84958" lon="-0.16144">
        <ele>1609.9</ele>
        <time>2018-09-23T17:05:04Z</time>
      </trkpt>
      <trkpt lat="42.84964" lon="-0.16144">
        <ele>1608.9</ele>
        <time>2018-09-23T17:05:09Z</time>
      </trkpt>
      <trkpt lat="42.84984" lon="-0.16151">
        <ele>1607.5</ele>
        <time>2018-09-23T17:05:23Z</time>
      </trkpt>
      <trkpt lat="42.85008" lon="-0.16141">
        <ele>1607</ele>
        <time>2018-09-23T17:05:37Z</time>
      </trkpt>
      <trkpt lat="42.8501" lon="-0.16141">
        <ele>1607</ele>
        <time>2018-09-23T17:05:39Z</time>
      </trkpt>
      <trkpt lat="42.85015" lon="-0.16138">
        <ele>1606.5</ele>
        <time>2018-09-23T17:05:43Z</time>
      </trkpt>
      <trkpt lat="42.85018" lon="-0.16132">
        <ele>1606.5</ele>
        <time>2018-09-23T17:05:46Z</time>
      </trkpt>
      <trkpt lat="42.85029" lon="-0.16102">
        <ele>1606.5</ele>
        <time>2018-09-23T17:06:02Z</time>
      </trkpt>
      <trkpt lat="42.85038" lon="-0.16076">
        <ele>1605.1</ele>
        <time>2018-09-23T17:06:16Z</time>
      </trkpt>
      <trkpt lat="42.85046" lon="-0.1605">
        <ele>1604.1</ele>
        <time>2018-09-23T17:06:30Z</time>
      </trkpt>
      <trkpt lat="42.85048" lon="-0.16046">
        <ele>1604.6</ele>
        <time>2018-09-23T17:06:33Z</time>
      </trkpt>
      <trkpt lat="42.85051" lon="-0.16012">
        <ele>1603.6</ele>
        <time>2018-09-23T17:06:48Z</time>
      </trkpt>
      <trkpt lat="42.85057" lon="-0.16002">
        <ele>1603.1</ele>
        <time>2018-09-23T17:06:57Z</time>
      </trkpt>
      <trkpt lat="42.85062" lon="-0.15996">
        <ele>1603.1</ele>
        <time>2018-09-23T17:07:03Z</time>
      </trkpt>
      <trkpt lat="42.85076" lon="-0.15978">
        <ele>1605.1</ele>
        <time>2018-09-23T17:07:18Z</time>
      </trkpt>
      <trkpt lat="42.8509" lon="-0.15967">
        <ele>1606.5</ele>
        <time>2018-09-23T17:07:31Z</time>
      </trkpt>
      <trkpt lat="42.851" lon="-0.15958">
        <ele>1606.5</ele>
        <time>2018-09-23T17:07:41Z</time>
      </trkpt>
      <trkpt lat="42.85106" lon="-0.1595">
        <ele>1606</ele>
        <time>2018-09-23T17:07:46Z</time>
      </trkpt>
      <trkpt lat="42.85111" lon="-0.15942">
        <ele>1604.6</ele>
        <time>2018-09-23T17:07:51Z</time>
      </trkpt>
      <trkpt lat="42.85113" lon="-0.15932">
        <ele>1603.6</ele>
        <time>2018-09-23T17:07:57Z</time>
      </trkpt>
      <trkpt lat="42.85119" lon="-0.15907">
        <ele>1601.7</ele>
        <time>2018-09-23T17:08:11Z</time>
      </trkpt>
      <trkpt lat="42.85119" lon="-0.15903">
        <ele>1601.7</ele>
        <time>2018-09-23T17:08:13Z</time>
      </trkpt>
      <trkpt lat="42.85115" lon="-0.15887">
        <ele>1600.2</ele>
        <time>2018-09-23T17:08:21Z</time>
      </trkpt>
      <trkpt lat="42.85092" lon="-0.15888">
        <ele>1596.9</ele>
        <time>2018-09-23T17:08:36Z</time>
      </trkpt>
      <trkpt lat="42.85085" lon="-0.15896">
        <ele>1595.9</ele>
        <time>2018-09-23T17:08:44Z</time>
      </trkpt>
      <trkpt lat="42.85071" lon="-0.15896">
        <ele>1594</ele>
        <time>2018-09-23T17:08:57Z</time>
      </trkpt>
      <trkpt lat="42.85066" lon="-0.15894">
        <ele>1594</ele>
        <time>2018-09-23T17:09:11Z</time>
      </trkpt>
      <trkpt lat="42.85066" lon="-0.15893">
        <ele>1594</ele>
        <time>2018-09-23T17:09:12Z</time>
      </trkpt>
      <trkpt lat="42.85062" lon="-0.15887">
        <ele>1595.4</ele>
        <time>2018-09-23T17:09:17Z</time>
      </trkpt>
      <trkpt lat="42.85062" lon="-0.1589">
        <ele>1595.4</ele>
        <time>2018-09-23T17:09:31Z</time>
      </trkpt>
      <trkpt lat="42.85058" lon="-0.15892">
        <ele>1595.9</ele>
        <time>2018-09-23T17:09:57Z</time>
      </trkpt>
      <trkpt lat="42.85054" lon="-0.15884">
        <ele>1595.4</ele>
        <time>2018-09-23T17:10:10Z</time>
      </trkpt>
      <trkpt lat="42.85052" lon="-0.15882">
        <ele>1596.4</ele>
        <time>2018-09-23T17:10:13Z</time>
      </trkpt>
      <trkpt lat="42.85031" lon="-0.15866">
        <ele>1594</ele>
        <time>2018-09-23T17:10:30Z</time>
      </trkpt>
      <trkpt lat="42.8503" lon="-0.15866">
        <ele>1593.5</ele>
        <time>2018-09-23T17:10:31Z</time>
      </trkpt>
      <trkpt lat="42.85017" lon="-0.1586">
        <ele>1592.6</ele>
        <time>2018-09-23T17:10:40Z</time>
      </trkpt>
      <trkpt lat="42.85014" lon="-0.15854">
        <ele>1591.6</ele>
        <time>2018-09-23T17:10:45Z</time>
      </trkpt>
      <trkpt lat="42.85009" lon="-0.15845">
        <ele>1591.1</ele>
        <time>2018-09-23T17:10:53Z</time>
      </trkpt>
      <trkpt lat="42.85012" lon="-0.15825">
        <ele>1589.7</ele>
        <time>2018-09-23T17:11:08Z</time>
      </trkpt>
      <trkpt lat="42.8502" lon="-0.15797">
        <ele>1588.2</ele>
        <time>2018-09-23T17:11:24Z</time>
      </trkpt>
      <trkpt lat="42.85022" lon="-0.15792">
        <ele>1588.2</ele>
        <time>2018-09-23T17:11:27Z</time>
      </trkpt>
      <trkpt lat="42.85028" lon="-0.15782">
        <ele>1588.2</ele>
        <time>2018-09-23T17:11:34Z</time>
      </trkpt>
      <trkpt lat="42.85031" lon="-0.15779">
        <ele>1587.8</ele>
        <time>2018-09-23T17:11:37Z</time>
      </trkpt>
      <trkpt lat="42.85035" lon="-0.15771">
        <ele>1587.8</ele>
        <time>2018-09-23T17:11:41Z</time>
      </trkpt>
      <trkpt lat="42.8504" lon="-0.15758">
        <ele>1588.2</ele>
        <time>2018-09-23T17:11:48Z</time>
      </trkpt>
      <trkpt lat="42.85049" lon="-0.15728">
        <ele>1587.8</ele>
        <time>2018-09-23T17:12:05Z</time>
      </trkpt>
      <trkpt lat="42.85051" lon="-0.15711">
        <ele>1586.3</ele>
        <time>2018-09-23T17:12:15Z</time>
      </trkpt>
      <trkpt lat="42.85055" lon="-0.157">
        <ele>1585.3</ele>
        <time>2018-09-23T17:12:21Z</time>
      </trkpt>
      <trkpt lat="42.85058" lon="-0.15697">
        <ele>1584.9</ele>
        <time>2018-09-23T17:12:24Z</time>
      </trkpt>
      <trkpt lat="42.85063" lon="-0.1567">
        <ele>1582.5</ele>
        <time>2018-09-23T17:12:38Z</time>
      </trkpt>
      <trkpt lat="42.85063" lon="-0.15653">
        <ele>1581.5</ele>
        <time>2018-09-23T17:12:47Z</time>
      </trkpt>
      <trkpt lat="42.85063" lon="-0.15631">
        <ele>1578.6</ele>
        <time>2018-09-23T17:13:01Z</time>
      </trkpt>
      <trkpt lat="42.85064" lon="-0.15619">
        <ele>1576.7</ele>
        <time>2018-09-23T17:13:11Z</time>
      </trkpt>
      <trkpt lat="42.85062" lon="-0.15607">
        <ele>1576.7</ele>
        <time>2018-09-23T17:13:16Z</time>
      </trkpt>
      <trkpt lat="42.85061" lon="-0.15601">
        <ele>1577.2</ele>
        <time>2018-09-23T17:13:19Z</time>
      </trkpt>
      <trkpt lat="42.85062" lon="-0.15594">
        <ele>1575.7</ele>
        <time>2018-09-23T17:13:23Z</time>
      </trkpt>
      <trkpt lat="42.85061" lon="-0.15587">
        <ele>1575.7</ele>
        <time>2018-09-23T17:13:29Z</time>
      </trkpt>
      <trkpt lat="42.85059" lon="-0.1557">
        <ele>1575.3</ele>
        <time>2018-09-23T17:13:36Z</time>
      </trkpt>
      <trkpt lat="42.8505" lon="-0.15555">
        <ele>1575.3</ele>
        <time>2018-09-23T17:13:45Z</time>
      </trkpt>
      <trkpt lat="42.8504" lon="-0.1553">
        <ele>1574.3</ele>
        <time>2018-09-23T17:13:59Z</time>
      </trkpt>
      <trkpt lat="42.85042" lon="-0.15517">
        <ele>1573.3</ele>
        <time>2018-09-23T17:14:09Z</time>
      </trkpt>
      <trkpt lat="42.85042" lon="-0.15512">
        <ele>1572.8</ele>
        <time>2018-09-23T17:14:14Z</time>
      </trkpt>
      <trkpt lat="42.8504" lon="-0.15492">
        <ele>1572.4</ele>
        <time>2018-09-23T17:14:23Z</time>
      </trkpt>
      <trkpt lat="42.85039" lon="-0.15486">
        <ele>1572.4</ele>
        <time>2018-09-23T17:14:27Z</time>
      </trkpt>
      <trkpt lat="42.85039" lon="-0.15472">
        <ele>1572.4</ele>
        <time>2018-09-23T17:14:34Z</time>
      </trkpt>
      <trkpt lat="42.85042" lon="-0.15439">
        <ele>1571.4</ele>
        <time>2018-09-23T17:14:46Z</time>
      </trkpt>
      <trkpt lat="42.85043" lon="-0.15434">
        <ele>1571.9</ele>
        <time>2018-09-23T17:14:49Z</time>
      </trkpt>
      <trkpt lat="42.85045" lon="-0.15425">
        <ele>1571.4</ele>
        <time>2018-09-23T17:14:54Z</time>
      </trkpt>
      <trkpt lat="42.85045" lon="-0.15407">
        <ele>1572.8</ele>
        <time>2018-09-23T17:15:07Z</time>
      </trkpt>
      <trkpt lat="42.85044" lon="-0.15397">
        <ele>1572.8</ele>
        <time>2018-09-23T17:15:13Z</time>
      </trkpt>
      <trkpt lat="42.85041" lon="-0.15385">
        <ele>1570.9</ele>
        <time>2018-09-23T17:15:23Z</time>
      </trkpt>
      <trkpt lat="42.85032" lon="-0.15366">
        <ele>1568.1</ele>
        <time>2018-09-23T17:15:36Z</time>
      </trkpt>
      <trkpt lat="42.85023" lon="-0.1535">
        <ele>1566.6</ele>
        <time>2018-09-23T17:15:50Z</time>
      </trkpt>
      <trkpt lat="42.85011" lon="-0.15333">
        <ele>1563.7</ele>
        <time>2018-09-23T17:16:03Z</time>
      </trkpt>
      <trkpt lat="42.85005" lon="-0.15324">
        <ele>1561.8</ele>
        <time>2018-09-23T17:16:15Z</time>
      </trkpt>
      <trkpt lat="42.85003" lon="-0.15321">
        <ele>1561.3</ele>
        <time>2018-09-23T17:16:29Z</time>
      </trkpt>
      <trkpt lat="42.85004" lon="-0.15307">
        <ele>1561.3</ele>
        <time>2018-09-23T17:16:36Z</time>
      </trkpt>
      <trkpt lat="42.85002" lon="-0.15279">
        <ele>1558.9</ele>
        <time>2018-09-23T17:16:51Z</time>
      </trkpt>
      <trkpt lat="42.85002" lon="-0.1527">
        <ele>1557.9</ele>
        <time>2018-09-23T17:16:55Z</time>
      </trkpt>
      <trkpt lat="42.85016" lon="-0.15243">
        <ele>1556</ele>
        <time>2018-09-23T17:17:10Z</time>
      </trkpt>
      <trkpt lat="42.85017" lon="-0.15223">
        <ele>1555.1</ele>
        <time>2018-09-23T17:17:21Z</time>
      </trkpt>
      <trkpt lat="42.85018" lon="-0.15219">
        <ele>1554.1</ele>
        <time>2018-09-23T17:17:24Z</time>
      </trkpt>
      <trkpt lat="42.85018" lon="-0.15194">
        <ele>1552.7</ele>
        <time>2018-09-23T17:17:39Z</time>
      </trkpt>
      <trkpt lat="42.85019" lon="-0.15187">
        <ele>1552.2</ele>
        <time>2018-09-23T17:17:44Z</time>
      </trkpt>
      <trkpt lat="42.85017" lon="-0.15168">
        <ele>1550.3</ele>
        <time>2018-09-23T17:17:54Z</time>
      </trkpt>
      <trkpt lat="42.85013" lon="-0.15144">
        <ele>1546.9</ele>
        <time>2018-09-23T17:18:08Z</time>
      </trkpt>
      <trkpt lat="42.85012" lon="-0.15122">
        <ele>1545</ele>
        <time>2018-09-23T17:18:20Z</time>
      </trkpt>
      <trkpt lat="42.85014" lon="-0.15104">
        <ele>1544</ele>
        <time>2018-09-23T17:18:29Z</time>
      </trkpt>
      <trkpt lat="42.85013" lon="-0.15081">
        <ele>1544</ele>
        <time>2018-09-23T17:18:42Z</time>
      </trkpt>
      <trkpt lat="42.85009" lon="-0.15054">
        <ele>1543.5</ele>
        <time>2018-09-23T17:18:57Z</time>
      </trkpt>
      <trkpt lat="42.85007" lon="-0.15037">
        <ele>1542.6</ele>
        <time>2018-09-23T17:19:08Z</time>
      </trkpt>
      <trkpt lat="42.85007" lon="-0.15027">
        <ele>1542.6</ele>
        <time>2018-09-23T17:19:13Z</time>
      </trkpt>
      <trkpt lat="42.85011" lon="-0.15003">
        <ele>1541.6</ele>
        <time>2018-09-23T17:19:27Z</time>
      </trkpt>
      <trkpt lat="42.85016" lon="-0.14983">
        <ele>1540.7</ele>
        <time>2018-09-23T17:19:40Z</time>
      </trkpt>
      <trkpt lat="42.85023" lon="-0.14971">
        <ele>1540.2</ele>
        <time>2018-09-23T17:19:48Z</time>
      </trkpt>
      <trkpt lat="42.85027" lon="-0.14961">
        <ele>1538.7</ele>
        <time>2018-09-23T17:19:54Z</time>
      </trkpt>
      <trkpt lat="42.85033" lon="-0.14935">
        <ele>1537.3</ele>
        <time>2018-09-23T17:20:09Z</time>
      </trkpt>
      <trkpt lat="42.85039" lon="-0.14911">
        <ele>1534.9</ele>
        <time>2018-09-23T17:20:21Z</time>
      </trkpt>
      <trkpt lat="42.85039" lon="-0.14905">
        <ele>1534.4</ele>
        <time>2018-09-23T17:20:25Z</time>
      </trkpt>
      <trkpt lat="42.8504" lon="-0.14898">
        <ele>1533.9</ele>
        <time>2018-09-23T17:20:28Z</time>
      </trkpt>
      <trkpt lat="42.85043" lon="-0.14882">
        <ele>1533</ele>
        <time>2018-09-23T17:20:35Z</time>
      </trkpt>
      <trkpt lat="42.8505" lon="-0.14858">
        <ele>1531.5</ele>
        <time>2018-09-23T17:20:50Z</time>
      </trkpt>
      <trkpt lat="42.85052" lon="-0.14843">
        <ele>1531</ele>
        <time>2018-09-23T17:21:02Z</time>
      </trkpt>
      <trkpt lat="42.85053" lon="-0.14837">
        <ele>1531</ele>
        <time>2018-09-23T17:21:06Z</time>
      </trkpt>
      <trkpt lat="42.8506" lon="-0.1481">
        <ele>1530.1</ele>
        <time>2018-09-23T17:21:20Z</time>
      </trkpt>
      <trkpt lat="42.85062" lon="-0.14795">
        <ele>1530.1</ele>
        <time>2018-09-23T17:21:29Z</time>
      </trkpt>
      <trkpt lat="42.85063" lon="-0.1479">
        <ele>1530.1</ele>
        <time>2018-09-23T17:21:31Z</time>
      </trkpt>
      <trkpt lat="42.85066" lon="-0.14759">
        <ele>1529.6</ele>
        <time>2018-09-23T17:21:44Z</time>
      </trkpt>
      <trkpt lat="42.85065" lon="-0.14735">
        <ele>1530.1</ele>
        <time>2018-09-23T17:21:58Z</time>
      </trkpt>
      <trkpt lat="42.85065" lon="-0.14724">
        <ele>1529.6</ele>
        <time>2018-09-23T17:22:06Z</time>
      </trkpt>
      <trkpt lat="42.85066" lon="-0.14694">
        <ele>1529.1</ele>
        <time>2018-09-23T17:22:20Z</time>
      </trkpt>
      <trkpt lat="42.85064" lon="-0.14666">
        <ele>1528.6</ele>
        <time>2018-09-23T17:22:35Z</time>
      </trkpt>
      <trkpt lat="42.85059" lon="-0.14666">
        <ele>1528.6</ele>
        <time>2018-09-23T17:23:01Z</time>
      </trkpt>
      <trkpt lat="42.85062" lon="-0.14667">
        <ele>1528.2</ele>
        <time>2018-09-23T17:23:12Z</time>
      </trkpt>
      <trkpt lat="42.85062" lon="-0.14665">
        <ele>1528.6</ele>
        <time>2018-09-23T17:23:14Z</time>
      </trkpt>
      <trkpt lat="42.85061" lon="-0.14655">
        <ele>1528.2</ele>
        <time>2018-09-23T17:23:20Z</time>
      </trkpt>
      <trkpt lat="42.85061" lon="-0.14646">
        <ele>1527.7</ele>
        <time>2018-09-23T17:23:25Z</time>
      </trkpt>
      <trkpt lat="42.85064" lon="-0.14633">
        <ele>1527.2</ele>
        <time>2018-09-23T17:23:32Z</time>
      </trkpt>
      <trkpt lat="42.85069" lon="-0.14606">
        <ele>1525.8</ele>
        <time>2018-09-23T17:23:46Z</time>
      </trkpt>
      <trkpt lat="42.85075" lon="-0.1459">
        <ele>1526.7</ele>
        <time>2018-09-23T17:23:56Z</time>
      </trkpt>
      <trkpt lat="42.8508" lon="-0.14563">
        <ele>1525.8</ele>
        <time>2018-09-23T17:24:10Z</time>
      </trkpt>
      <trkpt lat="42.85094" lon="-0.14532">
        <ele>1524.3</ele>
        <time>2018-09-23T17:24:29Z</time>
      </trkpt>
      <trkpt lat="42.85108" lon="-0.14513">
        <ele>1523.8</ele>
        <time>2018-09-23T17:24:43Z</time>
      </trkpt>
      <trkpt lat="42.85123" lon="-0.14491">
        <ele>1523.8</ele>
        <time>2018-09-23T17:24:58Z</time>
      </trkpt>
      <trkpt lat="42.85134" lon="-0.1447">
        <ele>1522.9</ele>
        <time>2018-09-23T17:25:13Z</time>
      </trkpt>
      <trkpt lat="42.85147" lon="-0.14447">
        <ele>1522.9</ele>
        <time>2018-09-23T17:25:27Z</time>
      </trkpt>
      <trkpt lat="42.85149" lon="-0.14444">
        <ele>1522.9</ele>
        <time>2018-09-23T17:25:29Z</time>
      </trkpt>
      <trkpt lat="42.85162" lon="-0.14429">
        <ele>1521.9</ele>
        <time>2018-09-23T17:25:45Z</time>
      </trkpt>
      <trkpt lat="42.85171" lon="-0.14419">
        <ele>1521.4</ele>
        <time>2018-09-23T17:25:53Z</time>
      </trkpt>
      <trkpt lat="42.85176" lon="-0.14412">
        <ele>1521.9</ele>
        <time>2018-09-23T17:25:58Z</time>
      </trkpt>
      <trkpt lat="42.85191" lon="-0.14389">
        <ele>1521.4</ele>
        <time>2018-09-23T17:26:13Z</time>
      </trkpt>
      <trkpt lat="42.85203" lon="-0.14362">
        <ele>1520.9</ele>
        <time>2018-09-23T17:26:28Z</time>
      </trkpt>
      <trkpt lat="42.85212" lon="-0.14342">
        <ele>1519.5</ele>
        <time>2018-09-23T17:26:41Z</time>
      </trkpt>
      <trkpt lat="42.85222" lon="-0.14329">
        <ele>1519</ele>
        <time>2018-09-23T17:26:50Z</time>
      </trkpt>
      <trkpt lat="42.85223" lon="-0.14314">
        <ele>1518.1</ele>
        <time>2018-09-23T17:26:57Z</time>
      </trkpt>
      <trkpt lat="42.85223" lon="-0.1431">
        <ele>1518.1</ele>
        <time>2018-09-23T17:27:00Z</time>
      </trkpt>
      <trkpt lat="42.85229" lon="-0.14301">
        <ele>1518.1</ele>
        <time>2018-09-23T17:27:04Z</time>
      </trkpt>
      <trkpt lat="42.85223" lon="-0.14285">
        <ele>1518.1</ele>
        <time>2018-09-23T17:27:14Z</time>
      </trkpt>
      <trkpt lat="42.85201" lon="-0.14275">
        <ele>1517.1</ele>
        <time>2018-09-23T17:27:28Z</time>
      </trkpt>
      <trkpt lat="42.85192" lon="-0.14274">
        <ele>1517.1</ele>
        <time>2018-09-23T17:27:33Z</time>
      </trkpt>
      <trkpt lat="42.85184" lon="-0.1427">
        <ele>1516.6</ele>
        <time>2018-09-23T17:27:39Z</time>
      </trkpt>
      <trkpt lat="42.85171" lon="-0.14257">
        <ele>1516.1</ele>
        <time>2018-09-23T17:27:54Z</time>
      </trkpt>
      <trkpt lat="42.85161" lon="-0.14249">
        <ele>1515.2</ele>
        <time>2018-09-23T17:28:02Z</time>
      </trkpt>
      <trkpt lat="42.85148" lon="-0.14252">
        <ele>1515.2</ele>
        <time>2018-09-23T17:28:14Z</time>
      </trkpt>
      <trkpt lat="42.85145" lon="-0.14256">
        <ele>1515.7</ele>
        <time>2018-09-23T17:28:33Z</time>
      </trkpt>
      <trkpt lat="42.85146" lon="-0.14252">
        <ele>1515.7</ele>
        <time>2018-09-23T17:29:04Z</time>
      </trkpt>
      <trkpt lat="42.85146" lon="-0.14254">
        <ele>1516.1</ele>
        <time>2018-09-23T17:29:18Z</time>
      </trkpt>
      <trkpt lat="42.85141" lon="-0.14247">
        <ele>1516.1</ele>
        <time>2018-09-23T17:29:42Z</time>
      </trkpt>
      <trkpt lat="42.85137" lon="-0.14246">
        <ele>1517.1</ele>
        <time>2018-09-23T17:29:55Z</time>
      </trkpt>
      <trkpt lat="42.85131" lon="-0.14245">
        <ele>1516.6</ele>
        <time>2018-09-23T17:30:06Z</time>
      </trkpt>
      <trkpt lat="42.85129" lon="-0.1425">
        <ele>1517.6</ele>
        <time>2018-09-23T17:30:12Z</time>
      </trkpt>
      <trkpt lat="42.85128" lon="-0.14253">
        <ele>1517.1</ele>
        <time>2018-09-23T17:30:14Z</time>
      </trkpt>
      <trkpt lat="42.85126" lon="-0.14254">
        <ele>1516.1</ele>
        <time>2018-09-23T17:30:16Z</time>
      </trkpt>
      <trkpt lat="42.8512" lon="-0.14261">
        <ele>1516.6</ele>
        <time>2018-09-23T17:30:23Z</time>
      </trkpt>
      <trkpt lat="42.85117" lon="-0.14263">
        <ele>1516.6</ele>
        <time>2018-09-23T17:30:26Z</time>
      </trkpt>
      <trkpt lat="42.85111" lon="-0.14266">
        <ele>1516.1</ele>
        <time>2018-09-23T17:30:38Z</time>
      </trkpt>
      <trkpt lat="42.851" lon="-0.14255">
        <ele>1515.2</ele>
        <time>2018-09-23T17:30:51Z</time>
      </trkpt>
      <trkpt lat="42.85099" lon="-0.14251">
        <ele>1515.2</ele>
        <time>2018-09-23T17:30:55Z</time>
      </trkpt>
      <trkpt lat="42.85097" lon="-0.14244">
        <ele>1514.7</ele>
        <time>2018-09-23T17:31:02Z</time>
      </trkpt>
      <trkpt lat="42.85096" lon="-0.14235">
        <ele>1513.7</ele>
        <time>2018-09-23T17:31:07Z</time>
      </trkpt>
      <trkpt lat="42.85102" lon="-0.14214">
        <ele>1513.2</ele>
        <time>2018-09-23T17:31:21Z</time>
      </trkpt>
      <trkpt lat="42.85102" lon="-0.14213">
        <ele>1513.2</ele>
        <time>2018-09-23T17:31:22Z</time>
      </trkpt>
      <trkpt lat="42.85106" lon="-0.14202">
        <ele>1513.7</ele>
        <time>2018-09-23T17:31:29Z</time>
      </trkpt>
      <trkpt lat="42.85108" lon="-0.14197">
        <ele>1513.7</ele>
        <time>2018-09-23T17:31:32Z</time>
      </trkpt>
      <trkpt lat="42.85111" lon="-0.14187">
        <ele>1514.2</ele>
        <time>2018-09-23T17:31:45Z</time>
      </trkpt>
      <trkpt lat="42.85106" lon="-0.14177">
        <ele>1513.7</ele>
        <time>2018-09-23T17:32:01Z</time>
      </trkpt>
      <trkpt lat="42.85097" lon="-0.14156">
        <ele>1512.3</ele>
        <time>2018-09-23T17:32:16Z</time>
      </trkpt>
      <trkpt lat="42.85087" lon="-0.14141">
        <ele>1513.2</ele>
        <time>2018-09-23T17:32:30Z</time>
      </trkpt>
      <trkpt lat="42.85093" lon="-0.1413">
        <ele>1511.3</ele>
        <time>2018-09-23T17:32:42Z</time>
      </trkpt>
      <trkpt lat="42.85095" lon="-0.14129">
        <ele>1510.8</ele>
        <time>2018-09-23T17:32:44Z</time>
      </trkpt>
      <trkpt lat="42.85107" lon="-0.1413">
        <ele>1509.4</ele>
        <time>2018-09-23T17:32:56Z</time>
      </trkpt>
      <trkpt lat="42.85123" lon="-0.14123">
        <ele>1508.9</ele>
        <time>2018-09-23T17:33:07Z</time>
      </trkpt>
      <trkpt lat="42.85128" lon="-0.14089">
        <ele>1508.4</ele>
        <time>2018-09-23T17:33:21Z</time>
      </trkpt>
      <trkpt lat="42.85129" lon="-0.14081">
        <ele>1507.5</ele>
        <time>2018-09-23T17:33:26Z</time>
      </trkpt>
      <trkpt lat="42.85128" lon="-0.1407">
        <ele>1507</ele>
        <time>2018-09-23T17:33:31Z</time>
      </trkpt>
      <trkpt lat="42.85133" lon="-0.14047">
        <ele>1505.1</ele>
        <time>2018-09-23T17:33:45Z</time>
      </trkpt>
      <trkpt lat="42.85134" lon="-0.14047">
        <ele>1505.1</ele>
        <time>2018-09-23T17:33:46Z</time>
      </trkpt>
      <trkpt lat="42.85134" lon="-0.14043">
        <ele>1504.6</ele>
        <time>2018-09-23T17:33:51Z</time>
      </trkpt>
      <trkpt lat="42.85137" lon="-0.14025">
        <ele>1503.2</ele>
        <time>2018-09-23T17:34:04Z</time>
      </trkpt>
      <trkpt lat="42.85138" lon="-0.14008">
        <ele>1499.8</ele>
        <time>2018-09-23T17:34:16Z</time>
      </trkpt>
      <trkpt lat="42.85139" lon="-0.14001">
        <ele>1498.8</ele>
        <time>2018-09-23T17:34:21Z</time>
      </trkpt>
      <trkpt lat="42.85139" lon="-0.13999">
        <ele>1498.3</ele>
        <time>2018-09-23T17:34:22Z</time>
      </trkpt>
      <trkpt lat="42.8513" lon="-0.13987">
        <ele>1498.3</ele>
        <time>2018-09-23T17:34:30Z</time>
      </trkpt>
      <trkpt lat="42.85121" lon="-0.13988">
        <ele>1497.9</ele>
        <time>2018-09-23T17:34:37Z</time>
      </trkpt>
      <trkpt lat="42.85116" lon="-0.13986">
        <ele>1497.9</ele>
        <time>2018-09-23T17:34:40Z</time>
      </trkpt>
      <trkpt lat="42.85112" lon="-0.13982">
        <ele>1497.9</ele>
        <time>2018-09-23T17:34:54Z</time>
      </trkpt>
      <trkpt lat="42.85112" lon="-0.13981">
        <ele>1497.4</ele>
        <time>2018-09-23T17:35:05Z</time>
      </trkpt>
      <trkpt lat="42.85112" lon="-0.13976">
        <ele>1496.9</ele>
        <time>2018-09-23T17:35:34Z</time>
      </trkpt>
      <trkpt lat="42.85112" lon="-0.13973">
        <ele>1496.4</ele>
        <time>2018-09-23T17:35:45Z</time>
      </trkpt>
      <trkpt lat="42.85113" lon="-0.13971">
        <ele>1495.9</ele>
        <time>2018-09-23T17:35:47Z</time>
      </trkpt>
      <trkpt lat="42.85117" lon="-0.1397">
        <ele>1495</ele>
        <time>2018-09-23T17:35:51Z</time>
      </trkpt>
      <trkpt lat="42.85119" lon="-0.13967">
        <ele>1494</ele>
        <time>2018-09-23T17:35:56Z</time>
      </trkpt>
      <trkpt lat="42.85119" lon="-0.13961">
        <ele>1494</ele>
        <time>2018-09-23T17:35:58Z</time>
      </trkpt>
      <trkpt lat="42.85122" lon="-0.13956">
        <ele>1492.1</ele>
        <time>2018-09-23T17:36:03Z</time>
      </trkpt>
      <trkpt lat="42.85123" lon="-0.13955">
        <ele>1492.6</ele>
        <time>2018-09-23T17:36:05Z</time>
      </trkpt>
      <trkpt lat="42.85126" lon="-0.13954">
        <ele>1491.1</ele>
        <time>2018-09-23T17:36:08Z</time>
      </trkpt>
      <trkpt lat="42.85138" lon="-0.13944">
        <ele>1488.7</ele>
        <time>2018-09-23T17:36:21Z</time>
      </trkpt>
      <trkpt lat="42.85141" lon="-0.1394">
        <ele>1488.3</ele>
        <time>2018-09-23T17:36:25Z</time>
      </trkpt>
      <trkpt lat="42.85141" lon="-0.13939">
        <ele>1487.8</ele>
        <time>2018-09-23T17:36:26Z</time>
      </trkpt>
      <trkpt lat="42.8514" lon="-0.13935">
        <ele>1487.8</ele>
        <time>2018-09-23T17:36:29Z</time>
      </trkpt>
      <trkpt lat="42.85125" lon="-0.13934">
        <ele>1484.9</ele>
        <time>2018-09-23T17:36:42Z</time>
      </trkpt>
      <trkpt lat="42.85119" lon="-0.13932">
        <ele>1484.4</ele>
        <time>2018-09-23T17:36:51Z</time>
      </trkpt>
      <trkpt lat="42.85117" lon="-0.1393">
        <ele>1484.9</ele>
        <time>2018-09-23T17:36:54Z</time>
      </trkpt>
      <trkpt lat="42.85114" lon="-0.13927">
        <ele>1484.9</ele>
        <time>2018-09-23T17:36:57Z</time>
      </trkpt>
      <trkpt lat="42.85108" lon="-0.13917">
        <ele>1483.4</ele>
        <time>2018-09-23T17:37:10Z</time>
      </trkpt>
      <trkpt lat="42.85108" lon="-0.13904">
        <ele>1483</ele>
        <time>2018-09-23T17:37:22Z</time>
      </trkpt>
      <trkpt lat="42.85109" lon="-0.13897">
        <ele>1483.4</ele>
        <time>2018-09-23T17:37:27Z</time>
      </trkpt>
      <trkpt lat="42.85114" lon="-0.13875">
        <ele>1480.1</ele>
        <time>2018-09-23T17:37:38Z</time>
      </trkpt>
      <trkpt lat="42.85118" lon="-0.13867">
        <ele>1479.1</ele>
        <time>2018-09-23T17:37:44Z</time>
      </trkpt>
      <trkpt lat="42.85118" lon="-0.13862">
        <ele>1479.1</ele>
        <time>2018-09-23T17:37:47Z</time>
      </trkpt>
      <trkpt lat="42.85124" lon="-0.1385">
        <ele>1477.2</ele>
        <time>2018-09-23T17:37:57Z</time>
      </trkpt>
      <trkpt lat="42.85131" lon="-0.13844">
        <ele>1476.2</ele>
        <time>2018-09-23T17:38:09Z</time>
      </trkpt>
      <trkpt lat="42.85133" lon="-0.13839">
        <ele>1476.2</ele>
        <time>2018-09-23T17:38:19Z</time>
      </trkpt>
      <trkpt lat="42.85135" lon="-0.13818">
        <ele>1473.8</ele>
        <time>2018-09-23T17:38:32Z</time>
      </trkpt>
      <trkpt lat="42.85139" lon="-0.13795">
        <ele>1472.4</ele>
        <time>2018-09-23T17:38:45Z</time>
      </trkpt>
      <trkpt lat="42.85144" lon="-0.1377">
        <ele>1470.9</ele>
        <time>2018-09-23T17:38:58Z</time>
      </trkpt>
      <trkpt lat="42.85149" lon="-0.13749">
        <ele>1470</ele>
        <time>2018-09-23T17:39:11Z</time>
      </trkpt>
      <trkpt lat="42.85152" lon="-0.13741">
        <ele>1470</ele>
        <time>2018-09-23T17:39:16Z</time>
      </trkpt>
      <trkpt lat="42.85153" lon="-0.1374">
        <ele>1469.5</ele>
        <time>2018-09-23T17:39:17Z</time>
      </trkpt>
      <trkpt lat="42.85158" lon="-0.13719">
        <ele>1469</ele>
        <time>2018-09-23T17:39:29Z</time>
      </trkpt>
      <trkpt lat="42.85168" lon="-0.13691">
        <ele>1467.6</ele>
        <time>2018-09-23T17:39:48Z</time>
      </trkpt>
      <trkpt lat="42.85171" lon="-0.13683">
        <ele>1467.1</ele>
        <time>2018-09-23T17:39:55Z</time>
      </trkpt>
      <trkpt lat="42.85173" lon="-0.13674">
        <ele>1466.6</ele>
        <time>2018-09-23T17:40:00Z</time>
      </trkpt>
      <trkpt lat="42.85178" lon="-0.13659">
        <ele>1465.7</ele>
        <time>2018-09-23T17:40:09Z</time>
      </trkpt>
      <trkpt lat="42.85183" lon="-0.13645">
        <ele>1463.7</ele>
        <time>2018-09-23T17:40:21Z</time>
      </trkpt>
      <trkpt lat="42.85183" lon="-0.13643">
        <ele>1463.3</ele>
        <time>2018-09-23T17:40:24Z</time>
      </trkpt>
      <trkpt lat="42.85182" lon="-0.13642">
        <ele>1466.2</ele>
        <time>2018-09-23T17:40:25Z</time>
      </trkpt>
      <trkpt lat="42.85181" lon="-0.13624">
        <ele>1479.1</ele>
        <time>2018-09-23T17:42:21Z</time>
      </trkpt>
      <trkpt lat="42.85182" lon="-0.13628">
        <ele>1475.8</ele>
        <time>2018-09-23T17:42:35Z</time>
      </trkpt>
      <trkpt lat="42.85182" lon="-0.13629">
        <ele>1473.4</ele>
        <time>2018-09-23T17:42:41Z</time>
      </trkpt>
    </trkseg>
  </trk>
</gpx>